<?xml version="1.0" encoding="utf-8"?>
<gpx xmlns:xsi="http://www.w3.org/2001/XMLSchema-instance" xmlns:xsd="http://www.w3.org/2001/XMLSchema" version="1.1" creator="Shapelink.com" xmlns="http://www.topografix.com/GPX/1/1" xmlns:gpxtpx="http://www.garmin.com/xmlschemas/TrackPointExtension/v1">
  <metadata>
    <name>Cykling 10.71 km, 2017-07-26</name>
    <desc></desc>
    <author><name>Kim Kronberg</name></author> 
    <time>2017-07-26T18:37:16Z</time>
  </metadata>
  <trk>
    <name>Cykling 10.71 km, 2017-07-26</name>
    <trkseg>
      <trkpt lat="60.162919281883" lon="21.561371069406">
        <ele>23.6</ele>
        <time>2017-07-26T18:37:16Z</time>
      </trkpt>
      <trkpt lat="60.16290863687" lon="21.561354976158">
        <ele>23.6</ele>
        <time>2017-07-26T18:37:17Z</time>
      </trkpt>
      <trkpt lat="60.162892375984" lon="21.561332512666">
        <ele>23.6</ele>
        <time>2017-07-26T18:37:18Z</time>
      </trkpt>
      <trkpt lat="60.162876618012" lon="21.561317844341">
        <ele>23.6</ele>
        <time>2017-07-26T18:37:19Z</time>
      </trkpt>
      <trkpt lat="60.162855411805" lon="21.561296302858">
        <ele>0</ele>
        <time>2017-07-26T18:37:20Z</time>
      </trkpt>
      <trkpt lat="60.162837642177" lon="21.561266547113">
        <ele>22.4</ele>
        <time>2017-07-26T18:37:21Z</time>
      </trkpt>
      <trkpt lat="60.162823644404" lon="21.56123578554">
        <ele>22.4</ele>
        <time>2017-07-26T18:37:22Z</time>
      </trkpt>
      <trkpt lat="60.162814591952" lon="21.561203682863">
        <ele>22.4</ele>
        <time>2017-07-26T18:37:23Z</time>
      </trkpt>
      <trkpt lat="60.162817190341" lon="21.561170658177">
        <ele>22.4</ele>
        <time>2017-07-26T18:37:24Z</time>
      </trkpt>
      <trkpt lat="60.162827835354" lon="21.561140483337">
        <ele>22.4</ele>
        <time>2017-07-26T18:37:25Z</time>
      </trkpt>
      <trkpt lat="60.162841749308" lon="21.561117768388">
        <ele>22.4</ele>
        <time>2017-07-26T18:37:26Z</time>
      </trkpt>
      <trkpt lat="60.162858513108" lon="21.561096562181">
        <ele>22.4</ele>
        <time>2017-07-26T18:37:27Z</time>
      </trkpt>
      <trkpt lat="60.162879048763" lon="21.561077870544">
        <ele>22.4</ele>
        <time>2017-07-26T18:37:28Z</time>
      </trkpt>
      <trkpt lat="60.162898662409" lon="21.56105976564">
        <ele>22.4</ele>
        <time>2017-07-26T18:37:29Z</time>
      </trkpt>
      <trkpt lat="60.162927663783" lon="21.561037721243">
        <ele>22.4</ele>
        <time>2017-07-26T18:37:30Z</time>
      </trkpt>
      <trkpt lat="60.162954653501" lon="21.561009390421">
        <ele>22.4</ele>
        <time>2017-07-26T18:37:31Z</time>
      </trkpt>
      <trkpt lat="60.162978709554" lon="21.560979802314">
        <ele>22.4</ele>
        <time>2017-07-26T18:37:32Z</time>
      </trkpt>
      <trkpt lat="60.163006202186" lon="21.56094493361">
        <ele>22.4</ele>
        <time>2017-07-26T18:37:33Z</time>
      </trkpt>
      <trkpt lat="60.163028749497" lon="21.560911070734">
        <ele>22.4</ele>
        <time>2017-07-26T18:37:34Z</time>
      </trkpt>
      <trkpt lat="60.16305196736" lon="21.560867401035">
        <ele>22.4</ele>
        <time>2017-07-26T18:37:35Z</time>
      </trkpt>
      <trkpt lat="60.163071329549" lon="21.560818534558">
        <ele>22.4</ele>
        <time>2017-07-26T18:37:36Z</time>
      </trkpt>
      <trkpt lat="60.163091529928" lon="21.560771260642">
        <ele>22.4</ele>
        <time>2017-07-26T18:37:37Z</time>
      </trkpt>
      <trkpt lat="60.163116927085" lon="21.56073454792">
        <ele>22.4</ele>
        <time>2017-07-26T18:37:38Z</time>
      </trkpt>
      <trkpt lat="60.163141569871" lon="21.560718454672">
        <ele>22.4</ele>
        <time>2017-07-26T18:37:39Z</time>
      </trkpt>
      <trkpt lat="60.163169230141" lon="21.560713425532">
        <ele>22.4</ele>
        <time>2017-07-26T18:37:40Z</time>
      </trkpt>
      <trkpt lat="60.163194711117" lon="21.560715604826">
        <ele>22.4</ele>
        <time>2017-07-26T18:37:41Z</time>
      </trkpt>
      <trkpt lat="60.163223293396" lon="21.560724154364">
        <ele>22.4</ele>
        <time>2017-07-26T18:37:42Z</time>
      </trkpt>
      <trkpt lat="60.163253049141" lon="21.560732536264">
        <ele>22.4</ele>
        <time>2017-07-26T18:37:43Z</time>
      </trkpt>
      <trkpt lat="60.163282134334" lon="21.560738319775">
        <ele>22.4</ele>
        <time>2017-07-26T18:37:44Z</time>
      </trkpt>
      <trkpt lat="60.163315661934" lon="21.560746114942">
        <ele>22.4</ele>
        <time>2017-07-26T18:37:45Z</time>
      </trkpt>
      <trkpt lat="60.163346339688" lon="21.560751227901">
        <ele>22.4</ele>
        <time>2017-07-26T18:37:46Z</time>
      </trkpt>
      <trkpt lat="60.163374754329" lon="21.560755754127">
        <ele>22.4</ele>
        <time>2017-07-26T18:37:47Z</time>
      </trkpt>
      <trkpt lat="60.163405851178" lon="21.560757262869">
        <ele>22.4</ele>
        <time>2017-07-26T18:37:48Z</time>
      </trkpt>
      <trkpt lat="60.163437283303" lon="21.560755083575">
        <ele>22.4</ele>
        <time>2017-07-26T18:37:49Z</time>
      </trkpt>
      <trkpt lat="60.163465446487" lon="21.560751395539">
        <ele>22.4</ele>
        <time>2017-07-26T18:37:50Z</time>
      </trkpt>
      <trkpt lat="60.163500231372" lon="21.560749383883">
        <ele>22.4</ele>
        <time>2017-07-26T18:37:51Z</time>
      </trkpt>
      <trkpt lat="60.163530657669" lon="21.560753910109">
        <ele>22.4</ele>
        <time>2017-07-26T18:37:52Z</time>
      </trkpt>
      <trkpt lat="60.163557060654" lon="21.560759106887">
        <ele>22.4</ele>
        <time>2017-07-26T18:37:53Z</time>
      </trkpt>
      <trkpt lat="60.163581787259" lon="21.560763297837">
        <ele>22.4</ele>
        <time>2017-07-26T18:37:54Z</time>
      </trkpt>
      <trkpt lat="60.163609447529" lon="21.560773020841">
        <ele>22.4</ele>
        <time>2017-07-26T18:37:55Z</time>
      </trkpt>
      <trkpt lat="60.163632581573" lon="21.560779642542">
        <ele>22.4</ele>
        <time>2017-07-26T18:37:56Z</time>
      </trkpt>
      <trkpt lat="60.163657559635" lon="21.560782911483">
        <ele>22.4</ele>
        <time>2017-07-26T18:37:57Z</time>
      </trkpt>
      <trkpt lat="60.163680023127" lon="21.560783582035">
        <ele>22.4</ele>
        <time>2017-07-26T18:37:58Z</time>
      </trkpt>
      <trkpt lat="60.16369737366" lon="21.560774864859">
        <ele>22.4</ele>
        <time>2017-07-26T18:37:59Z</time>
      </trkpt>
      <trkpt lat="60.163717909315" lon="21.560756592317">
        <ele>22.4</ele>
        <time>2017-07-26T18:38:00Z</time>
      </trkpt>
      <trkpt lat="60.163733918744" lon="21.560738655051">
        <ele>22.4</ele>
        <time>2017-07-26T18:38:01Z</time>
      </trkpt>
      <trkpt lat="60.163746491594" lon="21.560720382509">
        <ele>22.4</ele>
        <time>2017-07-26T18:38:02Z</time>
      </trkpt>
      <trkpt lat="60.163759986453" lon="21.560700768863">
        <ele>22.4</ele>
        <time>2017-07-26T18:38:03Z</time>
      </trkpt>
      <trkpt lat="60.163772140208" lon="21.560679478837">
        <ele>22.4</ele>
        <time>2017-07-26T18:38:04Z</time>
      </trkpt>
      <trkpt lat="60.163782366126" lon="21.560640167726">
        <ele>22.4</ele>
        <time>2017-07-26T18:38:05Z</time>
      </trkpt>
      <trkpt lat="60.163791502397" lon="21.560591301249">
        <ele>22.4</ele>
        <time>2017-07-26T18:38:06Z</time>
      </trkpt>
      <trkpt lat="60.163800722487" lon="21.560536567442">
        <ele>22.4</ele>
        <time>2017-07-26T18:38:07Z</time>
      </trkpt>
      <trkpt lat="60.163811702776" lon="21.560483845291">
        <ele>22.4</ele>
        <time>2017-07-26T18:38:08Z</time>
      </trkpt>
      <trkpt lat="60.163821677237" lon="21.560433805348">
        <ele>22.4</ele>
        <time>2017-07-26T18:38:09Z</time>
      </trkpt>
      <trkpt lat="60.163830142956" lon="21.560372701297">
        <ele>22.4</ele>
        <time>2017-07-26T18:38:10Z</time>
      </trkpt>
      <trkpt lat="60.163839195408" lon="21.560316961662">
        <ele>22.4</ele>
        <time>2017-07-26T18:38:11Z</time>
      </trkpt>
      <trkpt lat="60.163849588964" lon="21.560262311674">
        <ele>22.4</ele>
        <time>2017-07-26T18:38:12Z</time>
      </trkpt>
      <trkpt lat="60.163860066339" lon="21.560208499876">
        <ele>22.4</ele>
        <time>2017-07-26T18:38:13Z</time>
      </trkpt>
      <trkpt lat="60.163867777687" lon="21.56015954958">
        <ele>22.4</ele>
        <time>2017-07-26T18:38:14Z</time>
      </trkpt>
      <trkpt lat="60.163875572854" lon="21.560103055574">
        <ele>22.4</ele>
        <time>2017-07-26T18:38:15Z</time>
      </trkpt>
      <trkpt lat="60.163883535659" lon="21.560056703667">
        <ele>22.4</ele>
        <time>2017-07-26T18:38:16Z</time>
      </trkpt>
      <trkpt lat="60.163890408817" lon="21.560011692864">
        <ele>22.4</ele>
        <time>2017-07-26T18:38:17Z</time>
      </trkpt>
      <trkpt lat="60.163900383278" lon="21.55997430959">
        <ele>22.4</ele>
        <time>2017-07-26T18:38:18Z</time>
      </trkpt>
      <trkpt lat="60.163915386879" lon="21.55995419303">
        <ele>22.4</ele>
        <time>2017-07-26T18:38:19Z</time>
      </trkpt>
      <trkpt lat="60.163931480127" lon="21.559947403691">
        <ele>22.4</ele>
        <time>2017-07-26T18:38:20Z</time>
      </trkpt>
      <trkpt lat="60.163949082117" lon="21.559955366496">
        <ele>22.4</ele>
        <time>2017-07-26T18:38:21Z</time>
      </trkpt>
      <trkpt lat="60.163964672451" lon="21.559969531907">
        <ele>22.4</ele>
        <time>2017-07-26T18:38:22Z</time>
      </trkpt>
      <trkpt lat="60.163982442079" lon="21.560000377299">
        <ele>22.4</ele>
        <time>2017-07-26T18:38:23Z</time>
      </trkpt>
      <trkpt lat="60.163997026585" lon="21.560038179668">
        <ele>22.4</ele>
        <time>2017-07-26T18:38:24Z</time>
      </trkpt>
      <trkpt lat="60.164004402657" lon="21.560096266235">
        <ele>22.4</ele>
        <time>2017-07-26T18:38:25Z</time>
      </trkpt>
      <trkpt lat="60.164004318838" lon="21.56013188931">
        <ele>22.4</ele>
        <time>2017-07-26T18:38:26Z</time>
      </trkpt>
      <trkpt lat="60.163995936938" lon="21.560178241217">
        <ele>22.4</ele>
        <time>2017-07-26T18:38:27Z</time>
      </trkpt>
      <trkpt lat="60.163986046296" lon="21.560231801558">
        <ele>22.4</ele>
        <time>2017-07-26T18:38:28Z</time>
      </trkpt>
      <trkpt lat="60.163976407111" lon="21.560279494569">
        <ele>22.4</ele>
        <time>2017-07-26T18:38:29Z</time>
      </trkpt>
      <trkpt lat="60.163962828433" lon="21.560344370475">
        <ele>22.4</ele>
        <time>2017-07-26T18:38:30Z</time>
      </trkpt>
      <trkpt lat="60.16395218342" lon="21.560409581657">
        <ele>22.4</ele>
        <time>2017-07-26T18:38:31Z</time>
      </trkpt>
      <trkpt lat="60.163942544235" lon="21.560476888314">
        <ele>22.4</ele>
        <time>2017-07-26T18:38:32Z</time>
      </trkpt>
      <trkpt lat="60.163933407964" lon="21.560548134464">
        <ele>22.4</ele>
        <time>2017-07-26T18:38:33Z</time>
      </trkpt>
      <trkpt lat="60.163924774607" lon="21.56061217218">
        <ele>22.4</ele>
        <time>2017-07-26T18:38:34Z</time>
      </trkpt>
      <trkpt lat="60.163914381051" lon="21.560685010891">
        <ele>22.4</ele>
        <time>2017-07-26T18:38:35Z</time>
      </trkpt>
      <trkpt lat="60.1639035684" lon="21.560759609801">
        <ele>22.4</ele>
        <time>2017-07-26T18:38:36Z</time>
      </trkpt>
      <trkpt lat="60.163891582283" lon="21.560844015534">
        <ele>22.4</ele>
        <time>2017-07-26T18:38:37Z</time>
      </trkpt>
      <trkpt lat="60.163881859279" lon="21.560916267512">
        <ele>22.4</ele>
        <time>2017-07-26T18:38:38Z</time>
      </trkpt>
      <trkpt lat="60.16387255537" lon="21.560983574169">
        <ele>22.4</ele>
        <time>2017-07-26T18:38:39Z</time>
      </trkpt>
      <trkpt lat="60.163861742719" lon="21.561061525839">
        <ele>22.4</ele>
        <time>2017-07-26T18:38:40Z</time>
      </trkpt>
      <trkpt lat="60.163854534285" lon="21.561120031501">
        <ele>22.4</ele>
        <time>2017-07-26T18:38:41Z</time>
      </trkpt>
      <trkpt lat="60.163844559824" lon="21.561209298736">
        <ele>22.4</ele>
        <time>2017-07-26T18:38:42Z</time>
      </trkpt>
      <trkpt lat="60.163838860132" lon="21.561280461067">
        <ele>22.4</ele>
        <time>2017-07-26T18:38:43Z</time>
      </trkpt>
      <trkpt lat="60.163835926467" lon="21.561352629226">
        <ele>22.4</ele>
        <time>2017-07-26T18:38:44Z</time>
      </trkpt>
      <trkpt lat="60.163836764657" lon="21.561425635575">
        <ele>22.4</ele>
        <time>2017-07-26T18:38:45Z</time>
      </trkpt>
      <trkpt lat="60.163837602847" lon="21.561490762938">
        <ele>22.4</ele>
        <time>2017-07-26T18:38:46Z</time>
      </trkpt>
      <trkpt lat="60.1638365132" lon="21.561550693523">
        <ele>22.4</ele>
        <time>2017-07-26T18:38:47Z</time>
      </trkpt>
      <trkpt lat="60.163830142956" lon="21.561614060687">
        <ele>22.4</ele>
        <time>2017-07-26T18:38:48Z</time>
      </trkpt>
      <trkpt lat="60.163814133527" lon="21.56166493882">
        <ele>22.4</ele>
        <time>2017-07-26T18:38:49Z</time>
      </trkpt>
      <trkpt lat="60.163788149637" lon="21.561709279071">
        <ele>22.4</ele>
        <time>2017-07-26T18:38:50Z</time>
      </trkpt>
      <trkpt lat="60.163759986453" lon="21.561745907974">
        <ele>22.4</ele>
        <time>2017-07-26T18:38:51Z</time>
      </trkpt>
      <trkpt lat="60.163726375034" lon="21.561794690632">
        <ele>22.4</ele>
        <time>2017-07-26T18:38:52Z</time>
      </trkpt>
      <trkpt lat="60.163697876574" lon="21.5618426351">
        <ele>22.4</ele>
        <time>2017-07-26T18:38:53Z</time>
      </trkpt>
      <trkpt lat="60.163668623743" lon="21.56189376469">
        <ele>22.4</ele>
        <time>2017-07-26T18:38:54Z</time>
      </trkpt>
      <trkpt lat="60.163631408107" lon="21.561956796578">
        <ele>22.4</ele>
        <time>2017-07-26T18:38:55Z</time>
      </trkpt>
      <trkpt lat="60.163599221611" lon="21.562013458222">
        <ele>22.4</ele>
        <time>2017-07-26T18:38:56Z</time>
      </trkpt>
      <trkpt lat="60.163566532201" lon="21.56206307907">
        <ele>22.4</ele>
        <time>2017-07-26T18:38:57Z</time>
      </trkpt>
      <trkpt lat="60.163533591334" lon="21.562100546163">
        <ele>22.4</ele>
        <time>2017-07-26T18:38:58Z</time>
      </trkpt>
      <trkpt lat="60.163506853073" lon="21.562127954976">
        <ele>22.4</ele>
        <time>2017-07-26T18:38:59Z</time>
      </trkpt>
      <trkpt lat="60.163465614125" lon="21.562170032114">
        <ele>22.4</ele>
        <time>2017-07-26T18:39:00Z</time>
      </trkpt>
      <trkpt lat="60.1634258001" lon="21.562198698212">
        <ele>22.4</ele>
        <time>2017-07-26T18:39:01Z</time>
      </trkpt>
      <trkpt lat="60.16338975793" lon="21.56221814422">
        <ele>22.4</ele>
        <time>2017-07-26T18:39:02Z</time>
      </trkpt>
      <trkpt lat="60.163353212846" lon="21.562233734554">
        <ele>22.4</ele>
        <time>2017-07-26T18:39:03Z</time>
      </trkpt>
      <trkpt lat="60.163320774893" lon="21.562248486698">
        <ele>22.4</ele>
        <time>2017-07-26T18:39:04Z</time>
      </trkpt>
      <trkpt lat="60.163286828198" lon="21.562262652109">
        <ele>22.4</ele>
        <time>2017-07-26T18:39:05Z</time>
      </trkpt>
      <trkpt lat="60.163252127132" lon="21.562275308778">
        <ele>22.4</ele>
        <time>2017-07-26T18:39:06Z</time>
      </trkpt>
      <trkpt lat="60.163220108274" lon="21.562284947963">
        <ele>22.4</ele>
        <time>2017-07-26T18:39:07Z</time>
      </trkpt>
      <trkpt lat="60.163189011425" lon="21.56229609589">
        <ele>22.4</ele>
        <time>2017-07-26T18:39:08Z</time>
      </trkpt>
      <trkpt lat="60.163161351155" lon="21.562303304324">
        <ele>22.4</ele>
        <time>2017-07-26T18:39:09Z</time>
      </trkpt>
      <trkpt lat="60.163131930686" lon="21.562312105319">
        <ele>22.4</ele>
        <time>2017-07-26T18:39:10Z</time>
      </trkpt>
      <trkpt lat="60.163105443882" lon="21.562317385916">
        <ele>22.4</ele>
        <time>2017-07-26T18:39:11Z</time>
      </trkpt>
      <trkpt lat="60.163077532155" lon="21.56232291797">
        <ele>22.4</ele>
        <time>2017-07-26T18:39:12Z</time>
      </trkpt>
      <trkpt lat="60.163049117514" lon="21.562330042585">
        <ele>22.4</ele>
        <time>2017-07-26T18:39:13Z</time>
      </trkpt>
      <trkpt lat="60.163023133624" lon="21.56233297625">
        <ele>22.4</ele>
        <time>2017-07-26T18:39:14Z</time>
      </trkpt>
      <trkpt lat="60.162994718983" lon="21.562335239363">
        <ele>22.4</ele>
        <time>2017-07-26T18:39:15Z</time>
      </trkpt>
      <trkpt lat="60.162962867763" lon="21.562340268503">
        <ele>22.4</ele>
        <time>2017-07-26T18:39:16Z</time>
      </trkpt>
      <trkpt lat="60.162934369303" lon="21.562341274331">
        <ele>22.4</ele>
        <time>2017-07-26T18:39:17Z</time>
      </trkpt>
      <trkpt lat="60.162902937178" lon="21.562344291815">
        <ele>22.4</ele>
        <time>2017-07-26T18:39:18Z</time>
      </trkpt>
      <trkpt lat="60.162873349071" lon="21.562347476937">
        <ele>22.4</ele>
        <time>2017-07-26T18:39:19Z</time>
      </trkpt>
      <trkpt lat="60.162840072928" lon="21.562347141661">
        <ele>22.4</ele>
        <time>2017-07-26T18:39:20Z</time>
      </trkpt>
      <trkpt lat="60.162809898088" lon="21.562348315127">
        <ele>22.4</ele>
        <time>2017-07-26T18:39:21Z</time>
      </trkpt>
      <trkpt lat="60.162779890886" lon="21.562351584068">
        <ele>22.4</ele>
        <time>2017-07-26T18:39:22Z</time>
      </trkpt>
      <trkpt lat="60.162750051322" lon="21.562355775018">
        <ele>22.4</ele>
        <time>2017-07-26T18:39:23Z</time>
      </trkpt>
      <trkpt lat="60.162723229242" lon="21.562358624864">
        <ele>22.4</ele>
        <time>2017-07-26T18:39:24Z</time>
      </trkpt>
      <trkpt lat="60.162689617823" lon="21.562359965968">
        <ele>22.4</ele>
        <time>2017-07-26T18:39:25Z</time>
      </trkpt>
      <trkpt lat="60.16265969444" lon="21.562360804158">
        <ele>22.4</ele>
        <time>2017-07-26T18:39:26Z</time>
      </trkpt>
      <trkpt lat="60.162628346134" lon="21.562364156918">
        <ele>22.4</ele>
        <time>2017-07-26T18:39:27Z</time>
      </trkpt>
      <trkpt lat="60.162597249285" lon="21.562371197714">
        <ele>22.4</ele>
        <time>2017-07-26T18:39:28Z</time>
      </trkpt>
      <trkpt lat="60.162571181576" lon="21.562378657605">
        <ele>22.4</ele>
        <time>2017-07-26T18:39:29Z</time>
      </trkpt>
      <trkpt lat="60.162539497994" lon="21.562392739197">
        <ele>22.4</ele>
        <time>2017-07-26T18:39:30Z</time>
      </trkpt>
      <trkpt lat="60.162508736421" lon="21.562411849929">
        <ele>22.4</ele>
        <time>2017-07-26T18:39:31Z</time>
      </trkpt>
      <trkpt lat="60.162480992332" lon="21.562436492715">
        <ele>22.4</ele>
        <time>2017-07-26T18:39:32Z</time>
      </trkpt>
      <trkpt lat="60.162456349546" lon="21.562473540713">
        <ele>22.4</ele>
        <time>2017-07-26T18:39:33Z</time>
      </trkpt>
      <trkpt lat="60.162436065348" lon="21.562513690014">
        <ele>22.4</ele>
        <time>2017-07-26T18:39:34Z</time>
      </trkpt>
      <trkpt lat="60.162416870797" lon="21.562561047749">
        <ele>22.4</ele>
        <time>2017-07-26T18:39:35Z</time>
      </trkpt>
      <trkpt lat="60.16240572287" lon="21.562598011928">
        <ele>22.4</ele>
        <time>2017-07-26T18:39:36Z</time>
      </trkpt>
      <trkpt lat="60.162388037061" lon="21.562658780703">
        <ele>22.4</ele>
        <time>2017-07-26T18:39:37Z</time>
      </trkpt>
      <trkpt lat="60.162374961297" lon="21.56271183813">
        <ele>22.4</ele>
        <time>2017-07-26T18:39:38Z</time>
      </trkpt>
      <trkpt lat="60.16236297518" lon="21.562761039883">
        <ele>22.4</ele>
        <time>2017-07-26T18:39:39Z</time>
      </trkpt>
      <trkpt lat="60.162351156701" lon="21.562816360423">
        <ele>22.4</ele>
        <time>2017-07-26T18:39:40Z</time>
      </trkpt>
      <trkpt lat="60.162342271887" lon="21.562865729814">
        <ele>22.4</ele>
        <time>2017-07-26T18:39:41Z</time>
      </trkpt>
      <trkpt lat="60.162329615218" lon="21.56292306201">
        <ele>22.4</ele>
        <time>2017-07-26T18:39:42Z</time>
      </trkpt>
      <trkpt lat="60.162315114531" lon="21.562982908776">
        <ele>22.4</ele>
        <time>2017-07-26T18:39:43Z</time>
      </trkpt>
      <trkpt lat="60.162305307708" lon="21.563037642583">
        <ele>22.4</ele>
        <time>2017-07-26T18:39:44Z</time>
      </trkpt>
      <trkpt lat="60.162292986315" lon="21.563096818797">
        <ele>22.4</ele>
        <time>2017-07-26T18:39:45Z</time>
      </trkpt>
      <trkpt lat="60.162279910551" lon="21.563158761038">
        <ele>22.4</ele>
        <time>2017-07-26T18:39:46Z</time>
      </trkpt>
      <trkpt lat="60.162268930262" lon="21.563214584492">
        <ele>22.4</ele>
        <time>2017-07-26T18:39:47Z</time>
      </trkpt>
      <trkpt lat="60.162259291077" lon="21.563264372978">
        <ele>22.4</ele>
        <time>2017-07-26T18:39:48Z</time>
      </trkpt>
      <trkpt lat="60.162253004652" lon="21.563311311618">
        <ele>22.4</ele>
        <time>2017-07-26T18:39:49Z</time>
      </trkpt>
      <trkpt lat="60.162246047675" lon="21.563370823108">
        <ele>22.4</ele>
        <time>2017-07-26T18:39:50Z</time>
      </trkpt>
      <trkpt lat="60.162234983567" lon="21.563434190272">
        <ele>22.4</ele>
        <time>2017-07-26T18:39:51Z</time>
      </trkpt>
      <trkpt lat="60.162227020762" lon="21.563491773925">
        <ele>22.4</ele>
        <time>2017-07-26T18:39:52Z</time>
      </trkpt>
      <trkpt lat="60.162221069613" lon="21.563543825524">
        <ele>22.4</ele>
        <time>2017-07-26T18:39:53Z</time>
      </trkpt>
      <trkpt lat="60.162213944998" lon="21.563594200743">
        <ele>22.4</ele>
        <time>2017-07-26T18:39:54Z</time>
      </trkpt>
      <trkpt lat="60.162202713252" lon="21.563649269826">
        <ele>22.4</ele>
        <time>2017-07-26T18:39:55Z</time>
      </trkpt>
      <trkpt lat="60.162194079895" lon="21.563689754403">
        <ele>22.4</ele>
        <time>2017-07-26T18:39:56Z</time>
      </trkpt>
      <trkpt lat="60.162176310267" lon="21.563722276175">
        <ele>22.4</ele>
        <time>2017-07-26T18:39:57Z</time>
      </trkpt>
      <trkpt lat="60.162158289182" lon="21.563746751323">
        <ele>22.4</ele>
        <time>2017-07-26T18:39:58Z</time>
      </trkpt>
      <trkpt lat="60.162143285581" lon="21.56376544296">
        <ele>22.4</ele>
        <time>2017-07-26T18:39:59Z</time>
      </trkpt>
      <trkpt lat="60.162126018867" lon="21.563790840117">
        <ele>22.4</ele>
        <time>2017-07-26T18:40:00Z</time>
      </trkpt>
      <trkpt lat="60.162112775465" lon="21.563813052152">
        <ele>22.4</ele>
        <time>2017-07-26T18:40:01Z</time>
      </trkpt>
      <trkpt lat="60.162101040805" lon="21.563844819553">
        <ele>22.4</ele>
        <time>2017-07-26T18:40:02Z</time>
      </trkpt>
      <trkpt lat="60.162094083828" lon="21.563882035189">
        <ele>22.4</ele>
        <time>2017-07-26T18:40:03Z</time>
      </trkpt>
      <trkpt lat="60.162090647249" lon="21.563916736255">
        <ele>22.4</ele>
        <time>2017-07-26T18:40:04Z</time>
      </trkpt>
      <trkpt lat="60.162085953385" lon="21.563953365158">
        <ele>22.4</ele>
        <time>2017-07-26T18:40:05Z</time>
      </trkpt>
      <trkpt lat="60.162079918417" lon="21.563992173355">
        <ele>22.4</ele>
        <time>2017-07-26T18:40:06Z</time>
      </trkpt>
      <trkpt lat="60.162071117422" lon="21.564035088683">
        <ele>22.4</ele>
        <time>2017-07-26T18:40:07Z</time>
      </trkpt>
      <trkpt lat="60.162063908988" lon="21.564078590744">
        <ele>22.4</ele>
        <time>2017-07-26T18:40:08Z</time>
      </trkpt>
      <trkpt lat="60.162056281459" lon="21.564120248787">
        <ele>22.4</ele>
        <time>2017-07-26T18:40:09Z</time>
      </trkpt>
      <trkpt lat="60.162044965894" lon="21.564171797472">
        <ele>22.4</ele>
        <time>2017-07-26T18:40:10Z</time>
      </trkpt>
      <trkpt lat="60.162032141587" lon="21.564218149379">
        <ele>22.4</ele>
        <time>2017-07-26T18:40:11Z</time>
      </trkpt>
      <trkpt lat="60.162018898185" lon="21.564268105503">
        <ele>22.8</ele>
        <time>2017-07-26T18:40:12Z</time>
      </trkpt>
      <trkpt lat="60.162005822421" lon="21.564319821826">
        <ele>23</ele>
        <time>2017-07-26T18:40:13Z</time>
      </trkpt>
      <trkpt lat="60.161993584847" lon="21.564370029407">
        <ele>23.2</ele>
        <time>2017-07-26T18:40:14Z</time>
      </trkpt>
      <trkpt lat="60.161979335617" lon="21.564427277784">
        <ele>23.6</ele>
        <time>2017-07-26T18:40:15Z</time>
      </trkpt>
      <trkpt lat="60.16196651131" lon="21.564484107066">
        <ele>23.8</ele>
        <time>2017-07-26T18:40:16Z</time>
      </trkpt>
      <trkpt lat="60.161956285392" lon="21.564533225">
        <ele>24</ele>
        <time>2017-07-26T18:40:17Z</time>
      </trkpt>
      <trkpt lat="60.161942455257" lon="21.564592401214">
        <ele>24.4</ele>
        <time>2017-07-26T18:40:18Z</time>
      </trkpt>
      <trkpt lat="60.161931139692" lon="21.564640597139">
        <ele>24.4</ele>
        <time>2017-07-26T18:40:19Z</time>
      </trkpt>
      <trkpt lat="60.161918483023" lon="21.564695582403">
        <ele>24.4</ele>
        <time>2017-07-26T18:40:20Z</time>
      </trkpt>
      <trkpt lat="60.161907251277" lon="21.564744029785">
        <ele>24.4</ele>
        <time>2017-07-26T18:40:21Z</time>
      </trkpt>
      <trkpt lat="60.161895768074" lon="21.564790214054">
        <ele>24.4</ele>
        <time>2017-07-26T18:40:22Z</time>
      </trkpt>
      <trkpt lat="60.16188436869" lon="21.564832877925">
        <ele>24.4</ele>
        <time>2017-07-26T18:40:23Z</time>
      </trkpt>
      <trkpt lat="60.161873220763" lon="21.564875290339">
        <ele>24.4</ele>
        <time>2017-07-26T18:40:24Z</time>
      </trkpt>
      <trkpt lat="60.161862156655" lon="21.564924575911">
        <ele>24.4</ele>
        <time>2017-07-26T18:40:25Z</time>
      </trkpt>
      <trkpt lat="60.16185167928" lon="21.56496824561">
        <ele>24.4</ele>
        <time>2017-07-26T18:40:26Z</time>
      </trkpt>
      <trkpt lat="60.16183994462" lon="21.565008730187">
        <ele>24.4</ele>
        <time>2017-07-26T18:40:27Z</time>
      </trkpt>
      <trkpt lat="60.161826952675" lon="21.565048208936">
        <ele>24.4</ele>
        <time>2017-07-26T18:40:28Z</time>
      </trkpt>
      <trkpt lat="60.161816978214" lon="21.565081568898">
        <ele>24.4</ele>
        <time>2017-07-26T18:40:29Z</time>
      </trkpt>
      <trkpt lat="60.161805830287" lon="21.565127082615">
        <ele>24.4</ele>
        <time>2017-07-26T18:40:30Z</time>
      </trkpt>
      <trkpt lat="60.161794598541" lon="21.565170165581">
        <ele>24.4</ele>
        <time>2017-07-26T18:40:31Z</time>
      </trkpt>
      <trkpt lat="60.161782277148" lon="21.565210147244">
        <ele>24.4</ele>
        <time>2017-07-26T18:40:32Z</time>
      </trkpt>
      <trkpt lat="60.161768279375" lon="21.565246943785">
        <ele>24.4</ele>
        <time>2017-07-26T18:40:33Z</time>
      </trkpt>
      <trkpt lat="60.161754952154" lon="21.565290194389">
        <ele>24.4</ele>
        <time>2017-07-26T18:40:34Z</time>
      </trkpt>
      <trkpt lat="60.161741457295" lon="21.565337803581">
        <ele>24.4</ele>
        <time>2017-07-26T18:40:35Z</time>
      </trkpt>
      <trkpt lat="60.161725783142" lon="21.56539153156">
        <ele>24.4</ele>
        <time>2017-07-26T18:40:36Z</time>
      </trkpt>
      <trkpt lat="60.161708432609" lon="21.565444505168">
        <ele>24.4</ele>
        <time>2017-07-26T18:40:37Z</time>
      </trkpt>
      <trkpt lat="60.161689992429" lon="21.565497059681">
        <ele>24.4</ele>
        <time>2017-07-26T18:40:38Z</time>
      </trkpt>
      <trkpt lat="60.161674569733" lon="21.565544668873">
        <ele>24.4</ele>
        <time>2017-07-26T18:40:39Z</time>
      </trkpt>
      <trkpt lat="60.161655710458" lon="21.565598732128">
        <ele>24.4</ele>
        <time>2017-07-26T18:40:40Z</time>
      </trkpt>
      <trkpt lat="60.161639030477" lon="21.565645419311">
        <ele>24.4</ele>
        <time>2017-07-26T18:40:41Z</time>
      </trkpt>
      <trkpt lat="60.161621847582" lon="21.565697806186">
        <ele>24.4</ele>
        <time>2017-07-26T18:40:42Z</time>
      </trkpt>
      <trkpt lat="60.161605921972" lon="21.565744325731">
        <ele>24.4</ele>
        <time>2017-07-26T18:40:43Z</time>
      </trkpt>
      <trkpt lat="60.161590834552" lon="21.565782798652">
        <ele>24.4</ele>
        <time>2017-07-26T18:40:44Z</time>
      </trkpt>
      <trkpt lat="60.161573064924" lon="21.56582655217">
        <ele>24.4</ele>
        <time>2017-07-26T18:40:45Z</time>
      </trkpt>
      <trkpt lat="60.161555043839" lon="21.565865863281">
        <ele>24.4</ele>
        <time>2017-07-26T18:40:46Z</time>
      </trkpt>
      <trkpt lat="60.161538866772" lon="21.565909616799">
        <ele>24.4</ele>
        <time>2017-07-26T18:40:47Z</time>
      </trkpt>
      <trkpt lat="60.161520678049" lon="21.56595730981">
        <ele>24.4</ele>
        <time>2017-07-26T18:40:48Z</time>
      </trkpt>
      <trkpt lat="60.161501567317" lon="21.566002320613">
        <ele>24.4</ele>
        <time>2017-07-26T18:40:49Z</time>
      </trkpt>
      <trkpt lat="60.161479858196" lon="21.566052612013">
        <ele>24.4</ele>
        <time>2017-07-26T18:40:50Z</time>
      </trkpt>
      <trkpt lat="60.161459154903" lon="21.566101059395">
        <ele>24.4</ele>
        <time>2017-07-26T18:40:51Z</time>
      </trkpt>
      <trkpt lat="60.161439457438" lon="21.566150847881">
        <ele>24.4</ele>
        <time>2017-07-26T18:40:52Z</time>
      </trkpt>
      <trkpt lat="60.161422106905" lon="21.566198457073">
        <ele>24.4</ele>
        <time>2017-07-26T18:40:53Z</time>
      </trkpt>
      <trkpt lat="60.161404756372" lon="21.566247072093">
        <ele>24.4</ele>
        <time>2017-07-26T18:40:54Z</time>
      </trkpt>
      <trkpt lat="60.161385478002" lon="21.566297112036">
        <ele>24.4</ele>
        <time>2017-07-26T18:40:55Z</time>
      </trkpt>
      <trkpt lat="60.16136888184" lon="21.56633868626">
        <ele>24.4</ele>
        <time>2017-07-26T18:40:56Z</time>
      </trkpt>
      <trkpt lat="60.161355889895" lon="21.566381769226">
        <ele>24.4</ele>
        <time>2017-07-26T18:40:57Z</time>
      </trkpt>
      <trkpt lat="60.161338790819" lon="21.566422924355">
        <ele>24.4</ele>
        <time>2017-07-26T18:40:58Z</time>
      </trkpt>
      <trkpt lat="60.161324709227" lon="21.56645854743">
        <ele>24.4</ele>
        <time>2017-07-26T18:40:59Z</time>
      </trkpt>
      <trkpt lat="60.161307442513" lon="21.566503222957">
        <ele>24.4</ele>
        <time>2017-07-26T18:41:00Z</time>
      </trkpt>
      <trkpt lat="60.161290008161" lon="21.56654320462">
        <ele>24.4</ele>
        <time>2017-07-26T18:41:01Z</time>
      </trkpt>
      <trkpt lat="60.161275507474" lon="21.566578827695">
        <ele>24.4</ele>
        <time>2017-07-26T18:41:02Z</time>
      </trkpt>
      <trkpt lat="60.16126243171" lon="21.566615540417">
        <ele>24.4</ele>
        <time>2017-07-26T18:41:03Z</time>
      </trkpt>
      <trkpt lat="60.161247428109" lon="21.566653342786">
        <ele>24.4</ele>
        <time>2017-07-26T18:41:04Z</time>
      </trkpt>
      <trkpt lat="60.161230161395" lon="21.566700029969">
        <ele>24.4</ele>
        <time>2017-07-26T18:41:05Z</time>
      </trkpt>
      <trkpt lat="60.161212810862" lon="21.566745124591">
        <ele>24.4</ele>
        <time>2017-07-26T18:41:06Z</time>
      </trkpt>
      <trkpt lat="60.161194622139" lon="21.566793404335">
        <ele>24.4</ele>
        <time>2017-07-26T18:41:07Z</time>
      </trkpt>
      <trkpt lat="60.161177103968" lon="21.566842941364">
        <ele>24.4</ele>
        <time>2017-07-26T18:41:08Z</time>
      </trkpt>
      <trkpt lat="60.161161765091" lon="21.566888957995">
        <ele>24.4</ele>
        <time>2017-07-26T18:41:09Z</time>
      </trkpt>
      <trkpt lat="60.161143995463" lon="21.566941093413">
        <ele>24.4</ele>
        <time>2017-07-26T18:41:10Z</time>
      </trkpt>
      <trkpt lat="60.161130752061" lon="21.566989037881">
        <ele>24.4</ele>
        <time>2017-07-26T18:41:11Z</time>
      </trkpt>
      <trkpt lat="60.161119017401" lon="21.567038155815">
        <ele>24.4</ele>
        <time>2017-07-26T18:41:12Z</time>
      </trkpt>
      <trkpt lat="60.161105857818" lon="21.567094649821">
        <ele>24.4</ele>
        <time>2017-07-26T18:41:13Z</time>
      </trkpt>
      <trkpt lat="60.161093704063" lon="21.567143600117">
        <ele>24.4</ele>
        <time>2017-07-26T18:41:14Z</time>
      </trkpt>
      <trkpt lat="60.161082137041" lon="21.567199842666">
        <ele>24.4</ele>
        <time>2017-07-26T18:41:15Z</time>
      </trkpt>
      <trkpt lat="60.161073252227" lon="21.567253738283">
        <ele>24.4</ele>
        <time>2017-07-26T18:41:16Z</time>
      </trkpt>
      <trkpt lat="60.161065037965" lon="21.567306292796">
        <ele>24.4</ele>
        <time>2017-07-26T18:41:17Z</time>
      </trkpt>
      <trkpt lat="60.16105623697" lon="21.567362535345">
        <ele>24.4</ele>
        <time>2017-07-26T18:41:18Z</time>
      </trkpt>
      <trkpt lat="60.161048357984" lon="21.567414503125">
        <ele>24.4</ele>
        <time>2017-07-26T18:41:19Z</time>
      </trkpt>
      <trkpt lat="60.161041568645" lon="21.567474266072">
        <ele>24.4</ele>
        <time>2017-07-26T18:41:20Z</time>
      </trkpt>
      <trkpt lat="60.161035030763" lon="21.567530843897">
        <ele>24.4</ele>
        <time>2017-07-26T18:41:21Z</time>
      </trkpt>
      <trkpt lat="60.161029079614" lon="21.567587086446">
        <ele>24.4</ele>
        <time>2017-07-26T18:41:22Z</time>
      </trkpt>
      <trkpt lat="60.161024050474" lon="21.567639892416">
        <ele>24.4</ele>
        <time>2017-07-26T18:41:23Z</time>
      </trkpt>
      <trkpt lat="60.161021703542" lon="21.567690770549">
        <ele>24.4</ele>
        <time>2017-07-26T18:41:24Z</time>
      </trkpt>
      <trkpt lat="60.16101851842" lon="21.567757406654">
        <ele>24.4</ele>
        <time>2017-07-26T18:41:25Z</time>
      </trkpt>
      <trkpt lat="60.161015081841" lon="21.567815409402">
        <ele>24.4</ele>
        <time>2017-07-26T18:41:26Z</time>
      </trkpt>
      <trkpt lat="60.161011226167" lon="21.567872909236">
        <ele>24.4</ele>
        <time>2017-07-26T18:41:27Z</time>
      </trkpt>
      <trkpt lat="60.161009214511" lon="21.567928984147">
        <ele>24.4</ele>
        <time>2017-07-26T18:41:28Z</time>
      </trkpt>
      <trkpt lat="60.161009214511" lon="21.567977096253">
        <ele>24.4</ele>
        <time>2017-07-26T18:41:29Z</time>
      </trkpt>
      <trkpt lat="60.161007370493" lon="21.568037362114">
        <ele>24.4</ele>
        <time>2017-07-26T18:41:30Z</time>
      </trkpt>
      <trkpt lat="60.161004688285" lon="21.568098214708">
        <ele>24.4</ele>
        <time>2017-07-26T18:41:31Z</time>
      </trkpt>
      <trkpt lat="60.161003682457" lon="21.568154708714">
        <ele>24.4</ele>
        <time>2017-07-26T18:41:32Z</time>
      </trkpt>
      <trkpt lat="60.161003850095" lon="21.568208939607">
        <ele>24.4</ele>
        <time>2017-07-26T18:41:33Z</time>
      </trkpt>
      <trkpt lat="60.160999659145" lon="21.568262080853">
        <ele>24.4</ele>
        <time>2017-07-26T18:41:34Z</time>
      </trkpt>
      <trkpt lat="60.160994881462" lon="21.568313713357">
        <ele>24.4</ele>
        <time>2017-07-26T18:41:35Z</time>
      </trkpt>
      <trkpt lat="60.160987756847" lon="21.568369201535">
        <ele>24.4</ele>
        <time>2017-07-26T18:41:36Z</time>
      </trkpt>
      <trkpt lat="60.160980632232" lon="21.568419828211">
        <ele>24.4</ele>
        <time>2017-07-26T18:41:37Z</time>
      </trkpt>
      <trkpt lat="60.160975686911" lon="21.568470035792">
        <ele>24.4</ele>
        <time>2017-07-26T18:41:38Z</time>
      </trkpt>
      <trkpt lat="60.160970406314" lon="21.568518315536">
        <ele>24.4</ele>
        <time>2017-07-26T18:41:39Z</time>
      </trkpt>
      <trkpt lat="60.160963449337" lon="21.56857581537">
        <ele>24.4</ele>
        <time>2017-07-26T18:41:40Z</time>
      </trkpt>
      <trkpt lat="60.160956157084" lon="21.568627615512">
        <ele>24.4</ele>
        <time>2017-07-26T18:41:41Z</time>
      </trkpt>
      <trkpt lat="60.160945092976" lon="21.568684696251">
        <ele>24.4</ele>
        <time>2017-07-26T18:41:42Z</time>
      </trkpt>
      <trkpt lat="60.160932771583" lon="21.568739849153">
        <ele>24.4</ele>
        <time>2017-07-26T18:41:43Z</time>
      </trkpt>
      <trkpt lat="60.16091877381" lon="21.568796175521">
        <ele>24.4</ele>
        <time>2017-07-26T18:41:44Z</time>
      </trkpt>
      <trkpt lat="60.160901339458" lon="21.568862392531">
        <ele>24.4</ele>
        <time>2017-07-26T18:41:45Z</time>
      </trkpt>
      <trkpt lat="60.160883318373" lon="21.56892785517">
        <ele>24.4</ele>
        <time>2017-07-26T18:41:46Z</time>
      </trkpt>
      <trkpt lat="60.16086345327" lon="21.568990300325">
        <ele>24.4</ele>
        <time>2017-07-26T18:41:47Z</time>
      </trkpt>
      <trkpt lat="60.160840235407" lon="21.569057439344">
        <ele>24.4</ele>
        <time>2017-07-26T18:41:48Z</time>
      </trkpt>
      <trkpt lat="60.160816346992" lon="21.569115777368">
        <ele>24.4</ele>
        <time>2017-07-26T18:41:49Z</time>
      </trkpt>
      <trkpt lat="60.160788183808" lon="21.569181491464">
        <ele>24.4</ele>
        <time>2017-07-26T18:41:50Z</time>
      </trkpt>
      <trkpt lat="60.160761277909" lon="21.569240164764">
        <ele>24.4</ele>
        <time>2017-07-26T18:41:51Z</time>
      </trkpt>
      <trkpt lat="60.160733952915" lon="21.569294479476">
        <ele>24.4</ele>
        <time>2017-07-26T18:41:52Z</time>
      </trkpt>
      <trkpt lat="60.160709142491" lon="21.569343262134">
        <ele>24.4</ele>
        <time>2017-07-26T18:41:53Z</time>
      </trkpt>
      <trkpt lat="60.160682655687" lon="21.569389781679">
        <ele>24.4</ele>
        <time>2017-07-26T18:41:54Z</time>
      </trkpt>
      <trkpt lat="60.160653738132" lon="21.56944166564">
        <ele>24.4</ele>
        <time>2017-07-26T18:41:55Z</time>
      </trkpt>
      <trkpt lat="60.160627167509" lon="21.569491035031">
        <ele>24.4</ele>
        <time>2017-07-26T18:41:56Z</time>
      </trkpt>
      <trkpt lat="60.160600513067" lon="21.569541158793">
        <ele>24.4</ele>
        <time>2017-07-26T18:41:57Z</time>
      </trkpt>
      <trkpt lat="60.160572936616" lon="21.569589438537">
        <ele>24.4</ele>
        <time>2017-07-26T18:41:58Z</time>
      </trkpt>
      <trkpt lat="60.16054913202" lon="21.569629671657">
        <ele>24.4</ele>
        <time>2017-07-26T18:41:59Z</time>
      </trkpt>
      <trkpt lat="60.160517113162" lon="21.569682561446">
        <ele>24.4</ele>
        <time>2017-07-26T18:42:00Z</time>
      </trkpt>
      <trkpt lat="60.160488447064" lon="21.569728158982">
        <ele>24.4</ele>
        <time>2017-07-26T18:42:01Z</time>
      </trkpt>
      <trkpt lat="60.160461038251" lon="21.56977358888">
        <ele>24.4</ele>
        <time>2017-07-26T18:42:02Z</time>
      </trkpt>
      <trkpt lat="60.160434970542" lon="21.569820778977">
        <ele>24.4</ele>
        <time>2017-07-26T18:42:03Z</time>
      </trkpt>
      <trkpt lat="60.160411585041" lon="21.569863861943">
        <ele>24.4</ele>
        <time>2017-07-26T18:42:04Z</time>
      </trkpt>
      <trkpt lat="60.160386858436" lon="21.569910968221">
        <ele>24.4</ele>
        <time>2017-07-26T18:42:05Z</time>
      </trkpt>
      <trkpt lat="60.160361461279" lon="21.569956062843">
        <ele>24.4</ele>
        <time>2017-07-26T18:42:06Z</time>
      </trkpt>
      <trkpt lat="60.160336734674" lon="21.569997134153">
        <ele>24.4</ele>
        <time>2017-07-26T18:42:07Z</time>
      </trkpt>
      <trkpt lat="60.160312678621" lon="21.570037031997">
        <ele>24.4</ele>
        <time>2017-07-26T18:42:08Z</time>
      </trkpt>
      <trkpt lat="60.160292562061" lon="21.570072319796">
        <ele>24</ele>
        <time>2017-07-26T18:42:09Z</time>
      </trkpt>
      <trkpt lat="60.16027001475" lon="21.57011473221">
        <ele>23.6</ele>
        <time>2017-07-26T18:42:10Z</time>
      </trkpt>
      <trkpt lat="60.160250652561" lon="21.570152869855">
        <ele>23.2</ele>
        <time>2017-07-26T18:42:11Z</time>
      </trkpt>
      <trkpt lat="60.160229446354" lon="21.570194779355">
        <ele>22.8</ele>
        <time>2017-07-26T18:42:12Z</time>
      </trkpt>
      <trkpt lat="60.160206228491" lon="21.570234928656">
        <ele>22.4</ele>
        <time>2017-07-26T18:42:13Z</time>
      </trkpt>
      <trkpt lat="60.160186363388" lon="21.570269462084">
        <ele>22.4</ele>
        <time>2017-07-26T18:42:14Z</time>
      </trkpt>
      <trkpt lat="60.160163648439" lon="21.570310281937">
        <ele>22.4</ele>
        <time>2017-07-26T18:42:15Z</time>
      </trkpt>
      <trkpt lat="60.160143615698" lon="21.570346994659">
        <ele>22.4</ele>
        <time>2017-07-26T18:42:16Z</time>
      </trkpt>
      <trkpt lat="60.160125175518" lon="21.570379767888">
        <ele>22.4</ele>
        <time>2017-07-26T18:42:17Z</time>
      </trkpt>
      <trkpt lat="60.160105058958" lon="21.570413714583">
        <ele>22.4</ele>
        <time>2017-07-26T18:42:18Z</time>
      </trkpt>
      <trkpt lat="60.160085193855" lon="21.57044749364">
        <ele>22.4</ele>
        <time>2017-07-26T18:42:19Z</time>
      </trkpt>
      <trkpt lat="60.160063317096" lon="21.570486385656">
        <ele>22.4</ele>
        <time>2017-07-26T18:42:20Z</time>
      </trkpt>
      <trkpt lat="60.160042613803" lon="21.570520499989">
        <ele>22.4</ele>
        <time>2017-07-26T18:42:21Z</time>
      </trkpt>
      <trkpt lat="60.160021659053" lon="21.570554949598">
        <ele>22.4</ele>
        <time>2017-07-26T18:42:22Z</time>
      </trkpt>
      <trkpt lat="60.16000263214" lon="21.570586465542">
        <ele>22.4</ele>
        <time>2017-07-26T18:42:23Z</time>
      </trkpt>
      <trkpt lat="60.159982850856" lon="21.570619490228">
        <ele>22.4</ele>
        <time>2017-07-26T18:42:24Z</time>
      </trkpt>
      <trkpt lat="60.159961141735" lon="21.570660561538">
        <ele>22.4</ele>
        <time>2017-07-26T18:42:25Z</time>
      </trkpt>
      <trkpt lat="60.159939935528" lon="21.570700543201">
        <ele>22.4</ele>
        <time>2017-07-26T18:42:26Z</time>
      </trkpt>
      <trkpt lat="60.159916969122" lon="21.570739435217">
        <ele>22.4</ele>
        <time>2017-07-26T18:42:27Z</time>
      </trkpt>
      <trkpt lat="60.159893499802" lon="21.570780590346">
        <ele>22.4</ele>
        <time>2017-07-26T18:42:28Z</time>
      </trkpt>
      <trkpt lat="60.159873215604" lon="21.570817470706">
        <ele>22.4</ele>
        <time>2017-07-26T18:42:29Z</time>
      </trkpt>
      <trkpt lat="60.159848488999" lon="21.570861978595">
        <ele>22.4</ele>
        <time>2017-07-26T18:42:30Z</time>
      </trkpt>
      <trkpt lat="60.159822253652" lon="21.570907743769">
        <ele>22.4</ele>
        <time>2017-07-26T18:42:31Z</time>
      </trkpt>
      <trkpt lat="60.159797359409" lon="21.570950994373">
        <ele>22.4</ele>
        <time>2017-07-26T18:42:32Z</time>
      </trkpt>
      <trkpt lat="60.159774560641" lon="21.570993406787">
        <ele>22.4</ele>
        <time>2017-07-26T18:42:33Z</time>
      </trkpt>
      <trkpt lat="60.159753270615" lon="21.571034813373">
        <ele>22.4</ele>
        <time>2017-07-26T18:42:34Z</time>
      </trkpt>
      <trkpt lat="60.159730639485" lon="21.571078902167">
        <ele>22.4</ele>
        <time>2017-07-26T18:42:35Z</time>
      </trkpt>
      <trkpt lat="60.159713037495" lon="21.571112429767">
        <ele>22.4</ele>
        <time>2017-07-26T18:42:36Z</time>
      </trkpt>
      <trkpt lat="60.159684203759" lon="21.571165654832">
        <ele>22.4</ele>
        <time>2017-07-26T18:42:37Z</time>
      </trkpt>
      <trkpt lat="60.159661824086" lon="21.571207983427">
        <ele>22.4</ele>
        <time>2017-07-26T18:42:38Z</time>
      </trkpt>
      <trkpt lat="60.159637684214" lon="21.57125467061">
        <ele>22.4</ele>
        <time>2017-07-26T18:42:39Z</time>
      </trkpt>
      <trkpt lat="60.159610694496" lon="21.571309069141">
        <ele>22.4</ele>
        <time>2017-07-26T18:42:40Z</time>
      </trkpt>
      <trkpt lat="60.159585967891" lon="21.571359276722">
        <ele>22.4</ele>
        <time>2017-07-26T18:42:41Z</time>
      </trkpt>
      <trkpt lat="60.159561492743" lon="21.571417530927">
        <ele>22.4</ele>
        <time>2017-07-26T18:42:42Z</time>
      </trkpt>
      <trkpt lat="60.159538777794" lon="21.57147679096">
        <ele>22.4</ele>
        <time>2017-07-26T18:42:43Z</time>
      </trkpt>
      <trkpt lat="60.159517571587" lon="21.571529680749">
        <ele>22.4</ele>
        <time>2017-07-26T18:42:44Z</time>
      </trkpt>
      <trkpt lat="60.159492342068" lon="21.571590449524">
        <ele>22.4</ele>
        <time>2017-07-26T18:42:45Z</time>
      </trkpt>
      <trkpt lat="60.159470046214" lon="21.571644848055">
        <ele>22.4</ele>
        <time>2017-07-26T18:42:46Z</time>
      </trkpt>
      <trkpt lat="60.159447247446" lon="21.57170394045">
        <ele>22.4</ele>
        <time>2017-07-26T18:42:47Z</time>
      </trkpt>
      <trkpt lat="60.159426879429" lon="21.571766301786">
        <ele>22.4</ele>
        <time>2017-07-26T18:42:48Z</time>
      </trkpt>
      <trkpt lat="60.159409947991" lon="21.571825394181">
        <ele>22.4</ele>
        <time>2017-07-26T18:42:49Z</time>
      </trkpt>
      <trkpt lat="60.159392262182" lon="21.571891946467">
        <ele>22.4</ele>
        <time>2017-07-26T18:42:50Z</time>
      </trkpt>
      <trkpt lat="60.159376420391" lon="21.571953804889">
        <ele>22.4</ele>
        <time>2017-07-26T18:42:51Z</time>
      </trkpt>
      <trkpt lat="60.159362506437" lon="21.572008957791">
        <ele>22.4</ele>
        <time>2017-07-26T18:42:52Z</time>
      </trkpt>
      <trkpt lat="60.159349095397" lon="21.572063775417">
        <ele>22.4</ele>
        <time>2017-07-26T18:42:53Z</time>
      </trkpt>
      <trkpt lat="60.159339791488" lon="21.572107277478">
        <ele>22.4</ele>
        <time>2017-07-26T18:42:54Z</time>
      </trkpt>
      <trkpt lat="60.159327470095" lon="21.572168968262">
        <ele>22.4</ele>
        <time>2017-07-26T18:42:55Z</time>
      </trkpt>
      <trkpt lat="60.159317076539" lon="21.572222444784">
        <ele>22.4</ele>
        <time>2017-07-26T18:42:56Z</time>
      </trkpt>
      <trkpt lat="60.159307185897" lon="21.572278268238">
        <ele>22.4</ele>
        <time>2017-07-26T18:42:57Z</time>
      </trkpt>
      <trkpt lat="60.159297043798" lon="21.57233509752">
        <ele>22.4</ele>
        <time>2017-07-26T18:42:58Z</time>
      </trkpt>
      <trkpt lat="60.15928933245" lon="21.572384215454">
        <ele>22.4</ele>
        <time>2017-07-26T18:42:59Z</time>
      </trkpt>
      <trkpt lat="60.159280363817" lon="21.572442469659">
        <ele>22.4</ele>
        <time>2017-07-26T18:43:00Z</time>
      </trkpt>
      <trkpt lat="60.15927256865" lon="21.572493347792">
        <ele>22.4</ele>
        <time>2017-07-26T18:43:01Z</time>
      </trkpt>
      <trkpt lat="60.159264941121" lon="21.572541459898">
        <ele>22.4</ele>
        <time>2017-07-26T18:43:02Z</time>
      </trkpt>
      <trkpt lat="60.15925748123" lon="21.5725966128">
        <ele>22.4</ele>
        <time>2017-07-26T18:43:03Z</time>
      </trkpt>
      <trkpt lat="60.159252200633" lon="21.572647826209">
        <ele>22.4</ele>
        <time>2017-07-26T18:43:04Z</time>
      </trkpt>
      <trkpt lat="60.159244405466" lon="21.572705409862">
        <ele>22.4</ele>
        <time>2017-07-26T18:43:05Z</time>
      </trkpt>
      <trkpt lat="60.159236358842" lon="21.572762239144">
        <ele>22.4</ele>
        <time>2017-07-26T18:43:06Z</time>
      </trkpt>
      <trkpt lat="60.159228312218" lon="21.572823929928">
        <ele>22.4</ele>
        <time>2017-07-26T18:43:07Z</time>
      </trkpt>
      <trkpt lat="60.159221019965" lon="21.572882854685">
        <ele>22.4</ele>
        <time>2017-07-26T18:43:08Z</time>
      </trkpt>
      <trkpt lat="60.159214984997" lon="21.572937253216">
        <ele>22.4</ele>
        <time>2017-07-26T18:43:09Z</time>
      </trkpt>
      <trkpt lat="60.159210123495" lon="21.572998944">
        <ele>22.4</ele>
        <time>2017-07-26T18:43:10Z</time>
      </trkpt>
      <trkpt lat="60.159206938373" lon="21.573053593988">
        <ele>22.4</ele>
        <time>2017-07-26T18:43:11Z</time>
      </trkpt>
      <trkpt lat="60.159200819586" lon="21.57311042327">
        <ele>22.4</ele>
        <time>2017-07-26T18:43:12Z</time>
      </trkpt>
      <trkpt lat="60.159194114066" lon="21.573170353855">
        <ele>22.4</ele>
        <time>2017-07-26T18:43:13Z</time>
      </trkpt>
      <trkpt lat="60.159188917288" lon="21.573223746558">
        <ele>22.4</ele>
        <time>2017-07-26T18:43:14Z</time>
      </trkpt>
      <trkpt lat="60.159183888148" lon="21.573287868093">
        <ele>22.4</ele>
        <time>2017-07-26T18:43:15Z</time>
      </trkpt>
      <trkpt lat="60.159178523732" lon="21.573349139782">
        <ele>22.4</ele>
        <time>2017-07-26T18:43:16Z</time>
      </trkpt>
      <trkpt lat="60.159172991678" lon="21.573407393987">
        <ele>22.4</ele>
        <time>2017-07-26T18:43:17Z</time>
      </trkpt>
      <trkpt lat="60.159166705253" lon="21.57347000678">
        <ele>22.4</ele>
        <time>2017-07-26T18:43:18Z</time>
      </trkpt>
      <trkpt lat="60.159162179027" lon="21.573527422795">
        <ele>22.4</ele>
        <time>2017-07-26T18:43:19Z</time>
      </trkpt>
      <trkpt lat="60.159157233706" lon="21.573590873778">
        <ele>22.4</ele>
        <time>2017-07-26T18:43:20Z</time>
      </trkpt>
      <trkpt lat="60.159152791299" lon="21.573650133811">
        <ele>22.4</ele>
        <time>2017-07-26T18:43:21Z</time>
      </trkpt>
      <trkpt lat="60.159148013616" lon="21.573708723292">
        <ele>22.4</ele>
        <time>2017-07-26T18:43:22Z</time>
      </trkpt>
      <trkpt lat="60.159141978648" lon="21.573761193986">
        <ele>22.4</ele>
        <time>2017-07-26T18:43:23Z</time>
      </trkpt>
      <trkpt lat="60.159134351119" lon="21.573814838146">
        <ele>22.4</ele>
        <time>2017-07-26T18:43:24Z</time>
      </trkpt>
      <trkpt lat="60.159126304495" lon="21.573877450939">
        <ele>22.4</ele>
        <time>2017-07-26T18:43:25Z</time>
      </trkpt>
      <trkpt lat="60.15912001807" lon="21.57393017309">
        <ele>22.4</ele>
        <time>2017-07-26T18:43:26Z</time>
      </trkpt>
      <trkpt lat="60.159113983102" lon="21.57398884639">
        <ele>22.4</ele>
        <time>2017-07-26T18:43:27Z</time>
      </trkpt>
      <trkpt lat="60.159105936478" lon="21.574043664016">
        <ele>22.4</ele>
        <time>2017-07-26T18:43:28Z</time>
      </trkpt>
      <trkpt lat="60.159097973673" lon="21.57409110557">
        <ele>22.4</ele>
        <time>2017-07-26T18:43:29Z</time>
      </trkpt>
      <trkpt lat="60.15908900504" lon="21.574154305096">
        <ele>22.4</ele>
        <time>2017-07-26T18:43:30Z</time>
      </trkpt>
      <trkpt lat="60.159081293692" lon="21.574213900405">
        <ele>22.4</ele>
        <time>2017-07-26T18:43:31Z</time>
      </trkpt>
      <trkpt lat="60.159073414706" lon="21.574270897325">
        <ele>22.4</ele>
        <time>2017-07-26T18:43:32Z</time>
      </trkpt>
      <trkpt lat="60.15906302115" lon="21.574324709123">
        <ele>22.4</ele>
        <time>2017-07-26T18:43:33Z</time>
      </trkpt>
      <trkpt lat="60.159054303974" lon="21.574373407962">
        <ele>22.4</ele>
        <time>2017-07-26T18:43:34Z</time>
      </trkpt>
      <trkpt lat="60.159042820771" lon="21.574425711018">
        <ele>22.4</ele>
        <time>2017-07-26T18:43:35Z</time>
      </trkpt>
      <trkpt lat="60.15903116993" lon="21.574473152572">
        <ele>22.4</ele>
        <time>2017-07-26T18:43:36Z</time>
      </trkpt>
      <trkpt lat="60.159019770546" lon="21.574522689601">
        <ele>22.4</ele>
        <time>2017-07-26T18:43:37Z</time>
      </trkpt>
      <trkpt lat="60.15901021518" lon="21.574570131155">
        <ele>22.4</ele>
        <time>2017-07-26T18:43:38Z</time>
      </trkpt>
      <trkpt lat="60.159001749461" lon="21.574613046483">
        <ele>22.4</ele>
        <time>2017-07-26T18:43:39Z</time>
      </trkpt>
      <trkpt lat="60.158993032285" lon="21.574661242408">
        <ele>22.4</ele>
        <time>2017-07-26T18:43:40Z</time>
      </trkpt>
      <trkpt lat="60.158983979833" lon="21.574704325374">
        <ele>22.4</ele>
        <time>2017-07-26T18:43:41Z</time>
      </trkpt>
      <trkpt lat="60.158973167182" lon="21.574745312865">
        <ele>22.4</ele>
        <time>2017-07-26T18:43:42Z</time>
      </trkpt>
      <trkpt lat="60.158960594332" lon="21.574797783559">
        <ele>22.4</ele>
        <time>2017-07-26T18:43:43Z</time>
      </trkpt>
      <trkpt lat="60.158949362586" lon="21.574843464914">
        <ele>22.4</ele>
        <time>2017-07-26T18:43:44Z</time>
      </trkpt>
      <trkpt lat="60.158935197175" lon="21.574898701635">
        <ele>22.4</ele>
        <time>2017-07-26T18:43:45Z</time>
      </trkpt>
      <trkpt lat="60.158920025936" lon="21.574953016347">
        <ele>22.4</ele>
        <time>2017-07-26T18:43:46Z</time>
      </trkpt>
      <trkpt lat="60.158906363439" lon="21.57500724724">
        <ele>22.4</ele>
        <time>2017-07-26T18:43:47Z</time>
      </trkpt>
      <trkpt lat="60.158891443657" lon="21.575069440938">
        <ele>22.4</ele>
        <time>2017-07-26T18:43:48Z</time>
      </trkpt>
      <trkpt lat="60.15887945754" lon="21.575125264392">
        <ele>22.4</ele>
        <time>2017-07-26T18:43:49Z</time>
      </trkpt>
      <trkpt lat="60.158866549414" lon="21.57518913447">
        <ele>22.4</ele>
        <time>2017-07-26T18:43:50Z</time>
      </trkpt>
      <trkpt lat="60.158853222193" lon="21.575246466666">
        <ele>22.4</ele>
        <time>2017-07-26T18:43:51Z</time>
      </trkpt>
      <trkpt lat="60.158838637687" lon="21.5753039665">
        <ele>22.4</ele>
        <time>2017-07-26T18:43:52Z</time>
      </trkpt>
      <trkpt lat="60.15882581338" lon="21.57535761066">
        <ele>22.4</ele>
        <time>2017-07-26T18:43:53Z</time>
      </trkpt>
      <trkpt lat="60.158815000729" lon="21.575411171001">
        <ele>22.4</ele>
        <time>2017-07-26T18:43:54Z</time>
      </trkpt>
      <trkpt lat="60.158802427879" lon="21.5754716045">
        <ele>22.4</ele>
        <time>2017-07-26T18:43:55Z</time>
      </trkpt>
      <trkpt lat="60.158793794522" lon="21.575523739918">
        <ele>22.4</ele>
        <time>2017-07-26T18:43:56Z</time>
      </trkpt>
      <trkpt lat="60.158784490613" lon="21.575571516748">
        <ele>22.4</ele>
        <time>2017-07-26T18:43:57Z</time>
      </trkpt>
      <trkpt lat="60.158777785093" lon="21.575618958302">
        <ele>22.4</ele>
        <time>2017-07-26T18:43:58Z</time>
      </trkpt>
      <trkpt lat="60.158771247211" lon="21.575660700164">
        <ele>22.4</ele>
        <time>2017-07-26T18:43:59Z</time>
      </trkpt>
      <trkpt lat="60.158763535863" lon="21.57571132684">
        <ele>22.4</ele>
        <time>2017-07-26T18:44:00Z</time>
      </trkpt>
      <trkpt lat="60.1587570818" lon="21.57575910367">
        <ele>22.4</ele>
        <time>2017-07-26T18:44:01Z</time>
      </trkpt>
      <trkpt lat="60.15874953809" lon="21.575806796681">
        <ele>22.4</ele>
        <time>2017-07-26T18:44:02Z</time>
      </trkpt>
      <trkpt lat="60.158741407647" lon="21.575857926271">
        <ele>22.4</ele>
        <time>2017-07-26T18:44:03Z</time>
      </trkpt>
      <trkpt lat="60.15873361248" lon="21.57590662511">
        <ele>22.4</ele>
        <time>2017-07-26T18:44:04Z</time>
      </trkpt>
      <trkpt lat="60.158726404046" lon="21.575957670881">
        <ele>22.4</ele>
        <time>2017-07-26T18:44:05Z</time>
      </trkpt>
      <trkpt lat="60.158718776517" lon="21.576015841267">
        <ele>22.4</ele>
        <time>2017-07-26T18:44:06Z</time>
      </trkpt>
      <trkpt lat="60.158713663558" lon="21.576066048848">
        <ele>22.4</ele>
        <time>2017-07-26T18:44:07Z</time>
      </trkpt>
      <trkpt lat="60.158709221151" lon="21.576118351904">
        <ele>22.4</ele>
        <time>2017-07-26T18:44:08Z</time>
      </trkpt>
      <trkpt lat="60.15870595221" lon="21.576165961096">
        <ele>22.4</ele>
        <time>2017-07-26T18:44:09Z</time>
      </trkpt>
      <trkpt lat="60.158701174527" lon="21.576223544749">
        <ele>22.4</ele>
        <time>2017-07-26T18:44:10Z</time>
      </trkpt>
      <trkpt lat="60.15869673212" lon="21.57627961966">
        <ele>22.4</ele>
        <time>2017-07-26T18:44:11Z</time>
      </trkpt>
      <trkpt lat="60.158690948609" lon="21.576343238281">
        <ele>22.4</ele>
        <time>2017-07-26T18:44:12Z</time>
      </trkpt>
      <trkpt lat="60.158684075451" lon="21.576407695092">
        <ele>22.4</ele>
        <time>2017-07-26T18:44:13Z</time>
      </trkpt>
      <trkpt lat="60.158676783198" lon="21.576475001749">
        <ele>22.4</ele>
        <time>2017-07-26T18:44:14Z</time>
      </trkpt>
      <trkpt lat="60.158669490945" lon="21.576547337546">
        <ele>22.4</ele>
        <time>2017-07-26T18:44:15Z</time>
      </trkpt>
      <trkpt lat="60.15866320452" lon="21.576613722194">
        <ele>22.4</ele>
        <time>2017-07-26T18:44:16Z</time>
      </trkpt>
      <trkpt lat="60.158656331362" lon="21.576675412978">
        <ele>22.4</ele>
        <time>2017-07-26T18:44:17Z</time>
      </trkpt>
      <trkpt lat="60.158648620014" lon="21.57673559502">
        <ele>22.4</ele>
        <time>2017-07-26T18:44:18Z</time>
      </trkpt>
      <trkpt lat="60.158641076304" lon="21.576793681587">
        <ele>22.4</ele>
        <time>2017-07-26T18:44:19Z</time>
      </trkpt>
      <trkpt lat="60.158633616413" lon="21.576856629656">
        <ele>22.4</ele>
        <time>2017-07-26T18:44:20Z</time>
      </trkpt>
      <trkpt lat="60.158627749083" lon="21.576910273816">
        <ele>22.4</ele>
        <time>2017-07-26T18:44:21Z</time>
      </trkpt>
      <trkpt lat="60.158620959744" lon="21.576972886609">
        <ele>22.4</ele>
        <time>2017-07-26T18:44:22Z</time>
      </trkpt>
      <trkpt lat="60.158613080758" lon="21.577030554081">
        <ele>22.4</ele>
        <time>2017-07-26T18:44:23Z</time>
      </trkpt>
      <trkpt lat="60.158603944487" lon="21.577087299544">
        <ele>22.4</ele>
        <time>2017-07-26T18:44:24Z</time>
      </trkpt>
      <trkpt lat="60.158593467112" lon="21.577150415251">
        <ele>22.4</ele>
        <time>2017-07-26T18:44:25Z</time>
      </trkpt>
      <trkpt lat="60.15858525285" lon="21.577205735791">
        <ele>22.4</ele>
        <time>2017-07-26T18:44:26Z</time>
      </trkpt>
      <trkpt lat="60.158576284217" lon="21.577255859553">
        <ele>22.4</ele>
        <time>2017-07-26T18:44:27Z</time>
      </trkpt>
      <trkpt lat="60.158567902317" lon="21.577302965831">
        <ele>22.4</ele>
        <time>2017-07-26T18:44:28Z</time>
      </trkpt>
      <trkpt lat="60.158561699711" lon="21.577337080164">
        <ele>22.4</ele>
        <time>2017-07-26T18:44:29Z</time>
      </trkpt>
      <trkpt lat="60.158551306155" lon="21.577388880306">
        <ele>22.4</ele>
        <time>2017-07-26T18:44:30Z</time>
      </trkpt>
      <trkpt lat="60.158543846264" lon="21.577431963272">
        <ele>22.4</ele>
        <time>2017-07-26T18:44:31Z</time>
      </trkpt>
      <trkpt lat="60.158535715821" lon="21.577475213876">
        <ele>22.4</ele>
        <time>2017-07-26T18:44:32Z</time>
      </trkpt>
      <trkpt lat="60.158525992817" lon="21.577520643774">
        <ele>22.4</ele>
        <time>2017-07-26T18:44:33Z</time>
      </trkpt>
      <trkpt lat="60.158516856546" lon="21.57756121217">
        <ele>22.4</ele>
        <time>2017-07-26T18:44:34Z</time>
      </trkpt>
      <trkpt lat="60.158505876257" lon="21.577604965688">
        <ele>22.4</ele>
        <time>2017-07-26T18:44:35Z</time>
      </trkpt>
      <trkpt lat="60.158493806321" lon="21.57764838393">
        <ele>22.4</ele>
        <time>2017-07-26T18:44:36Z</time>
      </trkpt>
      <trkpt lat="60.158483161308" lon="21.57769113162">
        <ele>22.4</ele>
        <time>2017-07-26T18:44:37Z</time>
      </trkpt>
      <trkpt lat="60.158472181019" lon="21.57773639388">
        <ele>22.4</ele>
        <time>2017-07-26T18:44:38Z</time>
      </trkpt>
      <trkpt lat="60.158461368368" lon="21.577775956448">
        <ele>22.4</ele>
        <time>2017-07-26T18:44:39Z</time>
      </trkpt>
      <trkpt lat="60.158450052803" lon="21.577820296699">
        <ele>22.4</ele>
        <time>2017-07-26T18:44:40Z</time>
      </trkpt>
      <trkpt lat="60.158441251808" lon="21.577863212027">
        <ele>22.4</ele>
        <time>2017-07-26T18:44:41Z</time>
      </trkpt>
      <trkpt lat="60.158432366994" lon="21.577907468459">
        <ele>22.4</ele>
        <time>2017-07-26T18:44:42Z</time>
      </trkpt>
      <trkpt lat="60.158426499664" lon="21.577951557253">
        <ele>22.4</ele>
        <time>2017-07-26T18:44:43Z</time>
      </trkpt>
      <trkpt lat="60.158420297058" lon="21.577986425957">
        <ele>22.4</ele>
        <time>2017-07-26T18:44:44Z</time>
      </trkpt>
      <trkpt lat="60.15841090933" lon="21.578019953557">
        <ele>22.4</ele>
        <time>2017-07-26T18:44:45Z</time>
      </trkpt>
      <trkpt lat="60.158399929041" lon="21.57805155332">
        <ele>22.4</ele>
        <time>2017-07-26T18:44:46Z</time>
      </trkpt>
      <trkpt lat="60.158385344535" lon="21.578089188051">
        <ele>22.4</ele>
        <time>2017-07-26T18:44:47Z</time>
      </trkpt>
      <trkpt lat="60.158372855504" lon="21.578129085895">
        <ele>22.4</ele>
        <time>2017-07-26T18:44:48Z</time>
      </trkpt>
      <trkpt lat="60.158361372301" lon="21.578168816101">
        <ele>22.4</ele>
        <time>2017-07-26T18:44:49Z</time>
      </trkpt>
      <trkpt lat="60.15834720689" lon="21.578213072533">
        <ele>22.4</ele>
        <time>2017-07-26T18:44:50Z</time>
      </trkpt>
      <trkpt lat="60.158331197461" lon="21.578250371988">
        <ele>22.4</ele>
        <time>2017-07-26T18:44:51Z</time>
      </trkpt>
      <trkpt lat="60.158315607127" lon="21.578285156873">
        <ele>22.4</ele>
        <time>2017-07-26T18:44:52Z</time>
      </trkpt>
      <trkpt lat="60.158300938802" lon="21.578324719441">
        <ele>22.4</ele>
        <time>2017-07-26T18:44:53Z</time>
      </trkpt>
      <trkpt lat="60.158287276305" lon="21.578363862914">
        <ele>22.4</ele>
        <time>2017-07-26T18:44:54Z</time>
      </trkpt>
      <trkpt lat="60.158268500849" lon="21.578408538441">
        <ele>22.4</ele>
        <time>2017-07-26T18:44:55Z</time>
      </trkpt>
      <trkpt lat="60.158251569411" lon="21.578446843724">
        <ele>22.4</ele>
        <time>2017-07-26T18:44:56Z</time>
      </trkpt>
      <trkpt lat="60.158233883602" lon="21.578488753224">
        <ele>22.4</ele>
        <time>2017-07-26T18:44:57Z</time>
      </trkpt>
      <trkpt lat="60.158217622716" lon="21.578532506742">
        <ele>22.4</ele>
        <time>2017-07-26T18:44:58Z</time>
      </trkpt>
      <trkpt lat="60.158203541124" lon="21.578574667699">
        <ele>22.4</ele>
        <time>2017-07-26T18:44:59Z</time>
      </trkpt>
      <trkpt lat="60.158185184763" lon="21.578625964927">
        <ele>22.4</ele>
        <time>2017-07-26T18:45:00Z</time>
      </trkpt>
      <trkpt lat="60.158165906393" lon="21.578681536924">
        <ele>22.4</ele>
        <time>2017-07-26T18:45:01Z</time>
      </trkpt>
      <trkpt lat="60.15814687948" lon="21.57873383998">
        <ele>22.4</ele>
        <time>2017-07-26T18:45:02Z</time>
      </trkpt>
      <trkpt lat="60.158127433472" lon="21.578787819416">
        <ele>22.4</ele>
        <time>2017-07-26T18:45:03Z</time>
      </trkpt>
      <trkpt lat="60.158109663844" lon="21.578839871015">
        <ele>22.4</ele>
        <time>2017-07-26T18:45:04Z</time>
      </trkpt>
      <trkpt lat="60.158092480949" lon="21.578893598994">
        <ele>22.6</ele>
        <time>2017-07-26T18:45:05Z</time>
      </trkpt>
      <trkpt lat="60.158075214235" lon="21.578947243154">
        <ele>22.8</ele>
        <time>2017-07-26T18:45:06Z</time>
      </trkpt>
      <trkpt lat="60.158057863702" lon="21.578998121287">
        <ele>23.2</ele>
        <time>2017-07-26T18:45:07Z</time>
      </trkpt>
      <trkpt lat="60.158040848445" lon="21.579050591981">
        <ele>23.6</ele>
        <time>2017-07-26T18:45:08Z</time>
      </trkpt>
      <trkpt lat="60.15802450374" lon="21.579096021879">
        <ele>24</ele>
        <time>2017-07-26T18:45:09Z</time>
      </trkpt>
      <trkpt lat="60.158007907578" lon="21.579146313279">
        <ele>24.4</ele>
        <time>2017-07-26T18:45:10Z</time>
      </trkpt>
      <trkpt lat="60.157993406891" lon="21.579189144788">
        <ele>24.6</ele>
        <time>2017-07-26T18:45:11Z</time>
      </trkpt>
      <trkpt lat="60.157979912032" lon="21.579232646849">
        <ele>24.6</ele>
        <time>2017-07-26T18:45:12Z</time>
      </trkpt>
      <trkpt lat="60.157969267019" lon="21.579272879969">
        <ele>24.6</ele>
        <time>2017-07-26T18:45:13Z</time>
      </trkpt>
      <trkpt lat="60.157959460196" lon="21.57931386746">
        <ele>24.6</ele>
        <time>2017-07-26T18:45:14Z</time>
      </trkpt>
      <trkpt lat="60.157952838495" lon="21.579361225195">
        <ele>24.6</ele>
        <time>2017-07-26T18:45:15Z</time>
      </trkpt>
      <trkpt lat="60.157942947853" lon="21.579408247654">
        <ele>24.6</ele>
        <time>2017-07-26T18:45:16Z</time>
      </trkpt>
      <trkpt lat="60.15793146465" lon="21.57945552157">
        <ele>24.6</ele>
        <time>2017-07-26T18:45:17Z</time>
      </trkpt>
      <trkpt lat="60.157919059438" lon="21.579505310056">
        <ele>24.6</ele>
        <time>2017-07-26T18:45:18Z</time>
      </trkpt>
      <trkpt lat="60.157907911511" lon="21.579555517637">
        <ele>24.6</ele>
        <time>2017-07-26T18:45:19Z</time>
      </trkpt>
      <trkpt lat="60.15789626067" lon="21.579614442394">
        <ele>24.6</ele>
        <time>2017-07-26T18:45:20Z</time>
      </trkpt>
      <trkpt lat="60.157885280381" lon="21.579674708255">
        <ele>24.6</ele>
        <time>2017-07-26T18:45:21Z</time>
      </trkpt>
      <trkpt lat="60.157873713359" lon="21.579738410695">
        <ele>24.6</ele>
        <time>2017-07-26T18:45:22Z</time>
      </trkpt>
      <trkpt lat="60.157864157993" lon="21.579796748719">
        <ele>24.6</ele>
        <time>2017-07-26T18:45:23Z</time>
      </trkpt>
      <trkpt lat="60.1578518366" lon="21.579865731756">
        <ele>24.6</ele>
        <time>2017-07-26T18:45:24Z</time>
      </trkpt>
      <trkpt lat="60.157837671189" lon="21.579940414485">
        <ele>24.6</ele>
        <time>2017-07-26T18:45:25Z</time>
      </trkpt>
      <trkpt lat="60.157824008692" lon="21.580012247368">
        <ele>24.6</ele>
        <time>2017-07-26T18:45:26Z</time>
      </trkpt>
      <trkpt lat="60.157809675643" lon="21.580087935925">
        <ele>24.6</ele>
        <time>2017-07-26T18:45:27Z</time>
      </trkpt>
      <trkpt lat="60.157796432241" lon="21.580170413821">
        <ele>24.6</ele>
        <time>2017-07-26T18:45:28Z</time>
      </trkpt>
      <trkpt lat="60.157782769744" lon="21.580245348007">
        <ele>24.6</ele>
        <time>2017-07-26T18:45:29Z</time>
      </trkpt>
      <trkpt lat="60.15776131208" lon="21.58034819392">
        <ele>24.6</ele>
        <time>2017-07-26T18:45:30Z</time>
      </trkpt>
      <trkpt lat="60.157740189692" lon="21.580437544974">
        <ele>24.6</ele>
        <time>2017-07-26T18:45:31Z</time>
      </trkpt>
      <trkpt lat="60.15771437344" lon="21.580532176625">
        <ele>24.6</ele>
        <time>2017-07-26T18:45:32Z</time>
      </trkpt>
      <trkpt lat="60.157685958799" lon="21.58061557653">
        <ele>24.6</ele>
        <time>2017-07-26T18:45:33Z</time>
      </trkpt>
      <trkpt lat="60.157657711796" lon="21.580688750517">
        <ele>24.6</ele>
        <time>2017-07-26T18:45:34Z</time>
      </trkpt>
      <trkpt lat="60.157626195852" lon="21.580771982784">
        <ele>24.6</ele>
        <time>2017-07-26T18:45:35Z</time>
      </trkpt>
      <trkpt lat="60.157596356288" lon="21.580845743504">
        <ele>24.2</ele>
        <time>2017-07-26T18:45:36Z</time>
      </trkpt>
      <trkpt lat="60.157563415421" lon="21.580925120097">
        <ele>23.8</ele>
        <time>2017-07-26T18:45:37Z</time>
      </trkpt>
      <trkpt lat="60.157532318572" lon="21.580998964636">
        <ele>23.4</ele>
        <time>2017-07-26T18:45:38Z</time>
      </trkpt>
      <trkpt lat="60.157504909759" lon="21.581063589085">
        <ele>23.2</ele>
        <time>2017-07-26T18:45:39Z</time>
      </trkpt>
      <trkpt lat="60.15746794558" lon="21.581153610691">
        <ele>22.8</ele>
        <time>2017-07-26T18:45:40Z</time>
      </trkpt>
      <trkpt lat="60.157437854559" lon="21.581230053619">
        <ele>22.6</ele>
        <time>2017-07-26T18:45:41Z</time>
      </trkpt>
      <trkpt lat="60.157408266452" lon="21.581304149615">
        <ele>22.6</ele>
        <time>2017-07-26T18:45:42Z</time>
      </trkpt>
      <trkpt lat="60.157376079956" lon="21.581383023294">
        <ele>22.6</ele>
        <time>2017-07-26T18:45:43Z</time>
      </trkpt>
      <trkpt lat="60.157349090238" lon="21.581452257788">
        <ele>22.6</ele>
        <time>2017-07-26T18:45:44Z</time>
      </trkpt>
      <trkpt lat="60.157320088864" lon="21.581527694888">
        <ele>22.6</ele>
        <time>2017-07-26T18:45:45Z</time>
      </trkpt>
      <trkpt lat="60.157296284268" lon="21.581596594106">
        <ele>22.6</ele>
        <time>2017-07-26T18:45:46Z</time>
      </trkpt>
      <trkpt lat="60.157275245699" lon="21.581660715641">
        <ele>22.6</ele>
        <time>2017-07-26T18:45:47Z</time>
      </trkpt>
      <trkpt lat="60.157257643709" lon="21.581722574063">
        <ele>22.6</ele>
        <time>2017-07-26T18:45:48Z</time>
      </trkpt>
      <trkpt lat="60.157241215185" lon="21.581782923743">
        <ele>22.6</ele>
        <time>2017-07-26T18:45:49Z</time>
      </trkpt>
      <trkpt lat="60.157225121937" lon="21.581849811305">
        <ele>22.6</ele>
        <time>2017-07-26T18:45:50Z</time>
      </trkpt>
      <trkpt lat="60.157210705069" lon="21.581911921184">
        <ele>22.6</ele>
        <time>2017-07-26T18:45:51Z</time>
      </trkpt>
      <trkpt lat="60.157197461667" lon="21.581973695787">
        <ele>22.6</ele>
        <time>2017-07-26T18:45:52Z</time>
      </trkpt>
      <trkpt lat="60.15718547555" lon="21.582031949992">
        <ele>22.6</ele>
        <time>2017-07-26T18:45:53Z</time>
      </trkpt>
      <trkpt lat="60.157173992347" lon="21.582091377663">
        <ele>22.6</ele>
        <time>2017-07-26T18:45:54Z</time>
      </trkpt>
      <trkpt lat="60.157160665126" lon="21.582155834474">
        <ele>22.6</ele>
        <time>2017-07-26T18:45:55Z</time>
      </trkpt>
      <trkpt lat="60.157150020113" lon="21.582215513602">
        <ele>22.6</ele>
        <time>2017-07-26T18:45:56Z</time>
      </trkpt>
      <trkpt lat="60.157139458919" lon="21.582274522178">
        <ele>22.6</ele>
        <time>2017-07-26T18:45:57Z</time>
      </trkpt>
      <trkpt lat="60.157130490286" lon="21.582331770555">
        <ele>22.6</ele>
        <time>2017-07-26T18:45:58Z</time>
      </trkpt>
      <trkpt lat="60.15712009673" lon="21.582383654516">
        <ele>22.6</ele>
        <time>2017-07-26T18:45:59Z</time>
      </trkpt>
      <trkpt lat="60.157108613527" lon="21.582450961173">
        <ele>22.6</ele>
        <time>2017-07-26T18:46:00Z</time>
      </trkpt>
      <trkpt lat="60.157100231627" lon="21.582515501803">
        <ele>22.6</ele>
        <time>2017-07-26T18:46:01Z</time>
      </trkpt>
      <trkpt lat="60.15709076008" lon="21.582577024949">
        <ele>22.6</ele>
        <time>2017-07-26T18:46:02Z</time>
      </trkpt>
      <trkpt lat="60.157075337384" lon="21.582644247787">
        <ele>22.6</ele>
        <time>2017-07-26T18:46:03Z</time>
      </trkpt>
      <trkpt lat="60.157060249964" lon="21.582702753449">
        <ele>22.6</ele>
        <time>2017-07-26T18:46:04Z</time>
      </trkpt>
      <trkpt lat="60.157046084553" lon="21.582766874984">
        <ele>22.6</ele>
        <time>2017-07-26T18:46:05Z</time>
      </trkpt>
      <trkpt lat="60.157032254418" lon="21.58283258908">
        <ele>22.6</ele>
        <time>2017-07-26T18:46:06Z</time>
      </trkpt>
      <trkpt lat="60.15701951393" lon="21.582899895737">
        <ele>22.6</ele>
        <time>2017-07-26T18:46:07Z</time>
      </trkpt>
      <trkpt lat="60.157009036555" lon="21.582964604005">
        <ele>22.6</ele>
        <time>2017-07-26T18:46:08Z</time>
      </trkpt>
      <trkpt lat="60.156999229732" lon="21.583023444943">
        <ele>22.6</ele>
        <time>2017-07-26T18:46:09Z</time>
      </trkpt>
      <trkpt lat="60.156986489244" lon="21.583085051908">
        <ele>22.6</ele>
        <time>2017-07-26T18:46:10Z</time>
      </trkpt>
      <trkpt lat="60.156972240014" lon="21.58314020481">
        <ele>22.6</ele>
        <time>2017-07-26T18:46:11Z</time>
      </trkpt>
      <trkpt lat="60.156957906965" lon="21.583196698816">
        <ele>22.6</ele>
        <time>2017-07-26T18:46:12Z</time>
      </trkpt>
      <trkpt lat="60.156946172305" lon="21.583251935537">
        <ele>22.6</ele>
        <time>2017-07-26T18:46:13Z</time>
      </trkpt>
      <trkpt lat="60.156934270007" lon="21.583301891661">
        <ele>22.6</ele>
        <time>2017-07-26T18:46:14Z</time>
      </trkpt>
      <trkpt lat="60.15692228389" lon="21.583348578844">
        <ele>22.6</ele>
        <time>2017-07-26T18:46:15Z</time>
      </trkpt>
      <trkpt lat="60.156911722696" lon="21.583395433665">
        <ele>22.6</ele>
        <time>2017-07-26T18:46:16Z</time>
      </trkpt>
      <trkpt lat="60.156899736579" lon="21.58344195321">
        <ele>22.6</ele>
        <time>2017-07-26T18:46:17Z</time>
      </trkpt>
      <trkpt lat="60.156886828453" lon="21.583484365624">
        <ele>22.6</ele>
        <time>2017-07-26T18:46:18Z</time>
      </trkpt>
      <trkpt lat="60.156872746861" lon="21.583527783866">
        <ele>22.6</ele>
        <time>2017-07-26T18:46:19Z</time>
      </trkpt>
      <trkpt lat="60.156857827079" lon="21.58357187266">
        <ele>22.6</ele>
        <time>2017-07-26T18:46:20Z</time>
      </trkpt>
      <trkpt lat="60.156844164582" lon="21.583615877635">
        <ele>22.6</ele>
        <time>2017-07-26T18:46:21Z</time>
      </trkpt>
      <trkpt lat="60.156830837361" lon="21.583655021108">
        <ele>22.6</ele>
        <time>2017-07-26T18:46:22Z</time>
      </trkpt>
      <trkpt lat="60.156816755769" lon="21.583690811821">
        <ele>22.6</ele>
        <time>2017-07-26T18:46:23Z</time>
      </trkpt>
      <trkpt lat="60.156803428548" lon="21.583725093792">
        <ele>22.6</ele>
        <time>2017-07-26T18:46:24Z</time>
      </trkpt>
      <trkpt lat="60.156787502938" lon="21.583765159274">
        <ele>22.6</ele>
        <time>2017-07-26T18:46:25Z</time>
      </trkpt>
      <trkpt lat="60.156774510993" lon="21.583800866168">
        <ele>22.6</ele>
        <time>2017-07-26T18:46:26Z</time>
      </trkpt>
      <trkpt lat="60.156759926487" lon="21.583833052664">
        <ele>22.6</ele>
        <time>2017-07-26T18:46:27Z</time>
      </trkpt>
      <trkpt lat="60.156744671429" lon="21.583866664083">
        <ele>22.6</ele>
        <time>2017-07-26T18:46:28Z</time>
      </trkpt>
      <trkpt lat="60.156730757475" lon="21.583898850579">
        <ele>22.6</ele>
        <time>2017-07-26T18:46:29Z</time>
      </trkpt>
      <trkpt lat="60.15671944191" lon="21.583925672659">
        <ele>22.6</ele>
        <time>2017-07-26T18:46:30Z</time>
      </trkpt>
      <trkpt lat="60.156700331178" lon="21.583966911607">
        <ele>22.6</ele>
        <time>2017-07-26T18:46:31Z</time>
      </trkpt>
      <trkpt lat="60.156684740844" lon="21.584000774483">
        <ele>22.6</ele>
        <time>2017-07-26T18:46:32Z</time>
      </trkpt>
      <trkpt lat="60.156669401967" lon="21.584034050626">
        <ele>22.6</ele>
        <time>2017-07-26T18:46:33Z</time>
      </trkpt>
      <trkpt lat="60.15665406309" lon="21.584062716724">
        <ele>22.8</ele>
        <time>2017-07-26T18:46:34Z</time>
      </trkpt>
      <trkpt lat="60.156639143308" lon="21.584089287347">
        <ele>23.2</ele>
        <time>2017-07-26T18:46:35Z</time>
      </trkpt>
      <trkpt lat="60.156618440015" lon="21.584126838259">
        <ele>23.4</ele>
        <time>2017-07-26T18:46:36Z</time>
      </trkpt>
      <trkpt lat="60.156600670387" lon="21.58416028204">
        <ele>23.6</ele>
        <time>2017-07-26T18:46:37Z</time>
      </trkpt>
      <trkpt lat="60.156583152216" lon="21.584192049441">
        <ele>24</ele>
        <time>2017-07-26T18:46:38Z</time>
      </trkpt>
      <trkpt lat="60.156565047312" lon="21.584215770218">
        <ele>24.2</ele>
        <time>2017-07-26T18:46:39Z</time>
      </trkpt>
      <trkpt lat="60.15654342201" lon="21.584245442144">
        <ele>24.4</ele>
        <time>2017-07-26T18:46:40Z</time>
      </trkpt>
      <trkpt lat="60.156524227459" lon="21.584276203717">
        <ele>24.6</ele>
        <time>2017-07-26T18:46:41Z</time>
      </trkpt>
      <trkpt lat="60.15650402708" lon="21.584310569507">
        <ele>24.6</ele>
        <time>2017-07-26T18:46:42Z</time>
      </trkpt>
      <trkpt lat="60.156483323787" lon="21.584347533686">
        <ele>24.6</ele>
        <time>2017-07-26T18:46:43Z</time>
      </trkpt>
      <trkpt lat="60.156462704313" lon="21.584377121793">
        <ele>24.6</ele>
        <time>2017-07-26T18:46:44Z</time>
      </trkpt>
      <trkpt lat="60.156436636604" lon="21.584410733212">
        <ele>24.6</ele>
        <time>2017-07-26T18:46:45Z</time>
      </trkpt>
      <trkpt lat="60.156411155628" lon="21.584438644939">
        <ele>24.6</ele>
        <time>2017-07-26T18:46:46Z</time>
      </trkpt>
      <trkpt lat="60.156383579177" lon="21.584466640485">
        <ele>24.6</ele>
        <time>2017-07-26T18:46:47Z</time>
      </trkpt>
      <trkpt lat="60.156356421821" lon="21.584498575524">
        <ele>24.6</ele>
        <time>2017-07-26T18:46:48Z</time>
      </trkpt>
      <trkpt lat="60.156331024664" lon="21.58453327659">
        <ele>24.6</ele>
        <time>2017-07-26T18:46:49Z</time>
      </trkpt>
      <trkpt lat="60.156301268919" lon="21.584564205801">
        <ele>24.6</ele>
        <time>2017-07-26T18:46:50Z</time>
      </trkpt>
      <trkpt lat="60.156269250061" lon="21.584589770596">
        <ele>24.6</ele>
        <time>2017-07-26T18:46:51Z</time>
      </trkpt>
      <trkpt lat="60.156236309194" lon="21.584613910468">
        <ele>24.6</ele>
        <time>2017-07-26T18:46:52Z</time>
      </trkpt>
      <trkpt lat="60.156203284508" lon="21.58463721215">
        <ele>24.6</ele>
        <time>2017-07-26T18:46:53Z</time>
      </trkpt>
      <trkpt lat="60.156173864039" lon="21.584660262375">
        <ele>24.6</ele>
        <time>2017-07-26T18:46:54Z</time>
      </trkpt>
      <trkpt lat="60.156131619263" lon="21.584690772491">
        <ele>24.6</ele>
        <time>2017-07-26T18:46:55Z</time>
      </trkpt>
      <trkpt lat="60.156093481618" lon="21.584717343114">
        <ele>24.6</ele>
        <time>2017-07-26T18:46:56Z</time>
      </trkpt>
      <trkpt lat="60.156055763068" lon="21.584745757755">
        <ele>24.6</ele>
        <time>2017-07-26T18:46:57Z</time>
      </trkpt>
      <trkpt lat="60.156010249351" lon="21.584784901228">
        <ele>24.6</ele>
        <time>2017-07-26T18:46:58Z</time>
      </trkpt>
      <trkpt lat="60.155976302656" lon="21.584816500991">
        <ele>24.6</ele>
        <time>2017-07-26T18:46:59Z</time>
      </trkpt>
      <trkpt lat="60.155935147527" lon="21.584855895921">
        <ele>24.6</ele>
        <time>2017-07-26T18:47:00Z</time>
      </trkpt>
      <trkpt lat="60.155893238027" lon="21.584902415466">
        <ele>24.6</ele>
        <time>2017-07-26T18:47:01Z</time>
      </trkpt>
      <trkpt lat="60.155853256364" lon="21.584939295826">
        <ele>24.6</ele>
        <time>2017-07-26T18:47:02Z</time>
      </trkpt>
      <trkpt lat="60.155810760131" lon="21.584975757091">
        <ele>24.6</ele>
        <time>2017-07-26T18:47:03Z</time>
      </trkpt>
      <trkpt lat="60.155773460676" lon="21.585012972727">
        <ele>24.6</ele>
        <time>2017-07-26T18:47:04Z</time>
      </trkpt>
      <trkpt lat="60.155733395194" lon="21.585049685449">
        <ele>24.6</ele>
        <time>2017-07-26T18:47:05Z</time>
      </trkpt>
      <trkpt lat="60.155688803486" lon="21.585094780071">
        <ele>24.2</ele>
        <time>2017-07-26T18:47:06Z</time>
      </trkpt>
      <trkpt lat="60.155645385244" lon="21.585147921317">
        <ele>24</ele>
        <time>2017-07-26T18:47:07Z</time>
      </trkpt>
      <trkpt lat="60.15561051654" lon="21.585196787794">
        <ele>23.8</ele>
        <time>2017-07-26T18:47:08Z</time>
      </trkpt>
      <trkpt lat="60.155582269537" lon="21.58524070895">
        <ele>23.4</ele>
        <time>2017-07-26T18:47:09Z</time>
      </trkpt>
      <trkpt lat="60.155550502136" lon="21.585293263463">
        <ele>23.2</ele>
        <time>2017-07-26T18:47:10Z</time>
      </trkpt>
      <trkpt lat="60.15552334478" lon="21.585337436076">
        <ele>22.8</ele>
        <time>2017-07-26T18:47:11Z</time>
      </trkpt>
      <trkpt lat="60.155496438881" lon="21.585387559838">
        <ele>22.4</ele>
        <time>2017-07-26T18:47:12Z</time>
      </trkpt>
      <trkpt lat="60.15546802424" lon="21.585440449627">
        <ele>22.4</ele>
        <time>2017-07-26T18:47:13Z</time>
      </trkpt>
      <trkpt lat="60.155439944875" lon="21.585496775995">
        <ele>22.4</ele>
        <time>2017-07-26T18:47:14Z</time>
      </trkpt>
      <trkpt lat="60.155412033148" lon="21.585555616933">
        <ele>22.4</ele>
        <time>2017-07-26T18:47:15Z</time>
      </trkpt>
      <trkpt lat="60.155386971267" lon="21.585611272749">
        <ele>22.4</ele>
        <time>2017-07-26T18:47:16Z</time>
      </trkpt>
      <trkpt lat="60.155365932698" lon="21.585665000728">
        <ele>22.4</ele>
        <time>2017-07-26T18:47:17Z</time>
      </trkpt>
      <trkpt lat="60.1553456485" lon="21.585721243277">
        <ele>22.4</ele>
        <time>2017-07-26T18:47:18Z</time>
      </trkpt>
      <trkpt lat="60.15532637013" lon="21.585773462514">
        <ele>22.4</ele>
        <time>2017-07-26T18:47:19Z</time>
      </trkpt>
      <trkpt lat="60.155306505027" lon="21.585832722547">
        <ele>22.4</ele>
        <time>2017-07-26T18:47:20Z</time>
      </trkpt>
      <trkpt lat="60.155287981028" lon="21.585885947612">
        <ele>22.4</ele>
        <time>2017-07-26T18:47:21Z</time>
      </trkpt>
      <trkpt lat="60.155266942459" lon="21.585947889853">
        <ele>22.4</ele>
        <time>2017-07-26T18:47:22Z</time>
      </trkpt>
      <trkpt lat="60.155248586098" lon="21.586000360547">
        <ele>22.4</ele>
        <time>2017-07-26T18:47:23Z</time>
      </trkpt>
      <trkpt lat="60.15523249285" lon="21.586051154861">
        <ele>22.4</ele>
        <time>2017-07-26T18:47:24Z</time>
      </trkpt>
      <trkpt lat="60.155214471765" lon="21.586109157609">
        <ele>22.4</ele>
        <time>2017-07-26T18:47:25Z</time>
      </trkpt>
      <trkpt lat="60.15519728887" lon="21.586157940267">
        <ele>22.4</ele>
        <time>2017-07-26T18:47:26Z</time>
      </trkpt>
      <trkpt lat="60.155180608889" lon="21.58621133297">
        <ele>22.4</ele>
        <time>2017-07-26T18:47:27Z</time>
      </trkpt>
      <trkpt lat="60.155165521469" lon="21.586265060949">
        <ele>22.4</ele>
        <time>2017-07-26T18:47:28Z</time>
      </trkpt>
      <trkpt lat="60.155151775153" lon="21.586308395372">
        <ele>22.4</ele>
        <time>2017-07-26T18:47:29Z</time>
      </trkpt>
      <trkpt lat="60.155131239498" lon="21.586376540219">
        <ele>22.4</ele>
        <time>2017-07-26T18:47:30Z</time>
      </trkpt>
      <trkpt lat="60.155116068259" lon="21.586431944578">
        <ele>22.4</ele>
        <time>2017-07-26T18:47:31Z</time>
      </trkpt>
      <trkpt lat="60.155100980839" lon="21.58648290653">
        <ele>22.4</ele>
        <time>2017-07-26T18:47:32Z</time>
      </trkpt>
      <trkpt lat="60.155085306686" lon="21.586533784663">
        <ele>22.4</ele>
        <time>2017-07-26T18:47:33Z</time>
      </trkpt>
      <trkpt lat="60.155069464895" lon="21.586579549837">
        <ele>22.4</ele>
        <time>2017-07-26T18:47:34Z</time>
      </trkpt>
      <trkpt lat="60.15504976743" lon="21.586628164857">
        <ele>22.4</ele>
        <time>2017-07-26T18:47:35Z</time>
      </trkpt>
      <trkpt lat="60.155034847648" lon="21.586677450429">
        <ele>22.4</ele>
        <time>2017-07-26T18:47:36Z</time>
      </trkpt>
      <trkpt lat="60.155014228174" lon="21.58672514344">
        <ele>22.4</ele>
        <time>2017-07-26T18:47:37Z</time>
      </trkpt>
      <trkpt lat="60.154996039451" lon="21.586773255546">
        <ele>22.4</ele>
        <time>2017-07-26T18:47:38Z</time>
      </trkpt>
      <trkpt lat="60.154982209316" lon="21.586817763435">
        <ele>22.4</ele>
        <time>2017-07-26T18:47:39Z</time>
      </trkpt>
      <trkpt lat="60.154964691145" lon="21.58686679755">
        <ele>22.4</ele>
        <time>2017-07-26T18:47:40Z</time>
      </trkpt>
      <trkpt lat="60.154946586241" lon="21.586911724534">
        <ele>22.4</ele>
        <time>2017-07-26T18:47:41Z</time>
      </trkpt>
      <trkpt lat="60.154927978423" lon="21.5869548075">
        <ele>22.4</ele>
        <time>2017-07-26T18:47:42Z</time>
      </trkpt>
      <trkpt lat="60.154907442768" lon="21.587000572674">
        <ele>22.4</ele>
        <time>2017-07-26T18:47:43Z</time>
      </trkpt>
      <trkpt lat="60.154886152742" lon="21.587043990916">
        <ele>22.4</ele>
        <time>2017-07-26T18:47:44Z</time>
      </trkpt>
      <trkpt lat="60.154860839404" lon="21.587095120506">
        <ele>22.4</ele>
        <time>2017-07-26T18:47:45Z</time>
      </trkpt>
      <trkpt lat="60.154836950989" lon="21.587139963671">
        <ele>22.4</ele>
        <time>2017-07-26T18:47:46Z</time>
      </trkpt>
      <trkpt lat="60.154813900764" lon="21.58718195699">
        <ele>22.4</ele>
        <time>2017-07-26T18:47:47Z</time>
      </trkpt>
      <trkpt lat="60.154795041489" lon="21.587224620861">
        <ele>22.4</ele>
        <time>2017-07-26T18:47:48Z</time>
      </trkpt>
      <trkpt lat="60.154775008748" lon="21.587260914488">
        <ele>22.4</ele>
        <time>2017-07-26T18:47:49Z</time>
      </trkpt>
      <trkpt lat="60.154749276315" lon="21.587296705201">
        <ele>22.4</ele>
        <time>2017-07-26T18:47:50Z</time>
      </trkpt>
      <trkpt lat="60.15472203514" lon="21.587332160638">
        <ele>22.4</ele>
        <time>2017-07-26T18:47:51Z</time>
      </trkpt>
      <trkpt lat="60.154697979087" lon="21.587364933867">
        <ele>22.4</ele>
        <time>2017-07-26T18:47:52Z</time>
      </trkpt>
      <trkpt lat="60.154669899722" lon="21.587397120363">
        <ele>22.4</ele>
        <time>2017-07-26T18:47:53Z</time>
      </trkpt>
      <trkpt lat="60.15464324528" lon="21.58742754666">
        <ele>22.4</ele>
        <time>2017-07-26T18:47:54Z</time>
      </trkpt>
      <trkpt lat="60.154613824811" lon="21.587465013753">
        <ele>22.4</ele>
        <time>2017-07-26T18:47:55Z</time>
      </trkpt>
      <trkpt lat="60.154586667455" lon="21.587495942964">
        <ele>22.4</ele>
        <time>2017-07-26T18:47:56Z</time>
      </trkpt>
      <trkpt lat="60.154560348289" lon="21.587526117804">
        <ele>22.4</ele>
        <time>2017-07-26T18:47:57Z</time>
      </trkpt>
      <trkpt lat="60.154533358571" lon="21.587552353151">
        <ele>22.4</ele>
        <time>2017-07-26T18:47:58Z</time>
      </trkpt>
      <trkpt lat="60.154507626138" lon="21.587573224082">
        <ele>22.4</ele>
        <time>2017-07-26T18:47:59Z</time>
      </trkpt>
      <trkpt lat="60.154477954212" lon="21.587599543248">
        <ele>22.4</ele>
        <time>2017-07-26T18:48:00Z</time>
      </trkpt>
      <trkpt lat="60.154444510431" lon="21.587626449147">
        <ele>22.4</ele>
        <time>2017-07-26T18:48:01Z</time>
      </trkpt>
      <trkpt lat="60.154413916496" lon="21.587647068621">
        <ele>22.4</ele>
        <time>2017-07-26T18:48:02Z</time>
      </trkpt>
      <trkpt lat="60.154384496027" lon="21.587665844077">
        <ele>22.4</ele>
        <time>2017-07-26T18:48:03Z</time>
      </trkpt>
      <trkpt lat="60.154357087214" lon="21.587683529886">
        <ele>22.4</ele>
        <time>2017-07-26T18:48:04Z</time>
      </trkpt>
      <trkpt lat="60.1543230567" lon="21.587703394989">
        <ele>22.4</ele>
        <time>2017-07-26T18:48:05Z</time>
      </trkpt>
      <trkpt lat="60.154288020358" lon="21.587722505721">
        <ele>22.4</ele>
        <time>2017-07-26T18:48:06Z</time>
      </trkpt>
      <trkpt lat="60.154251475274" lon="21.587743125195">
        <ele>22.4</ele>
        <time>2017-07-26T18:48:07Z</time>
      </trkpt>
      <trkpt lat="60.154215014009" lon="21.587763912307">
        <ele>22.4</ele>
        <time>2017-07-26T18:48:08Z</time>
      </trkpt>
      <trkpt lat="60.154182576056" lon="21.587784447962">
        <ele>22.4</ele>
        <time>2017-07-26T18:48:09Z</time>
      </trkpt>
      <trkpt lat="60.154146114791" lon="21.587812946422">
        <ele>22.4</ele>
        <time>2017-07-26T18:48:10Z</time>
      </trkpt>
      <trkpt lat="60.154113844476" lon="21.58783825976">
        <ele>22.4</ele>
        <time>2017-07-26T18:48:11Z</time>
      </trkpt>
      <trkpt lat="60.154080903609" lon="21.587862399632">
        <ele>22.4</ele>
        <time>2017-07-26T18:48:12Z</time>
      </trkpt>
      <trkpt lat="60.154046873095" lon="21.587883941115">
        <ele>22.4</ele>
        <time>2017-07-26T18:48:13Z</time>
      </trkpt>
      <trkpt lat="60.154017787902" lon="21.587904812046">
        <ele>22.4</ele>
        <time>2017-07-26T18:48:14Z</time>
      </trkpt>
      <trkpt lat="60.153983422112" lon="21.587927024081">
        <ele>22.4</ele>
        <time>2017-07-26T18:48:15Z</time>
      </trkpt>
      <trkpt lat="60.15395257672" lon="21.587949319935">
        <ele>22.4</ele>
        <time>2017-07-26T18:48:16Z</time>
      </trkpt>
      <trkpt lat="60.153922150423" lon="21.587971699608">
        <ele>22.4</ele>
        <time>2017-07-26T18:48:17Z</time>
      </trkpt>
      <trkpt lat="60.153892394678" lon="21.587994666014">
        <ele>22.4</ele>
        <time>2017-07-26T18:48:18Z</time>
      </trkpt>
      <trkpt lat="60.15386372858" lon="21.588018386791">
        <ele>22.4</ele>
        <time>2017-07-26T18:48:19Z</time>
      </trkpt>
      <trkpt lat="60.153830368618" lon="21.588049064545">
        <ele>22.4</ele>
        <time>2017-07-26T18:48:20Z</time>
      </trkpt>
      <trkpt lat="60.153799271769" lon="21.588078485014">
        <ele>22.4</ele>
        <time>2017-07-26T18:48:21Z</time>
      </trkpt>
      <trkpt lat="60.153768342558" lon="21.588110587691">
        <ele>22.4</ele>
        <time>2017-07-26T18:48:22Z</time>
      </trkpt>
      <trkpt lat="60.153738335356" lon="21.588140091979">
        <ele>22.4</ele>
        <time>2017-07-26T18:48:23Z</time>
      </trkpt>
      <trkpt lat="60.153708998706" lon="21.588170266819">
        <ele>22.4</ele>
        <time>2017-07-26T18:48:24Z</time>
      </trkpt>
      <trkpt lat="60.153676644572" lon="21.588204129695">
        <ele>22.4</ele>
        <time>2017-07-26T18:48:25Z</time>
      </trkpt>
      <trkpt lat="60.153647140284" lon="21.588238160209">
        <ele>22.4</ele>
        <time>2017-07-26T18:48:26Z</time>
      </trkpt>
      <trkpt lat="60.153621659308" lon="21.58827328037">
        <ele>22.4</ele>
        <time>2017-07-26T18:48:27Z</time>
      </trkpt>
      <trkpt lat="60.15359802235" lon="21.588309657816">
        <ele>22.4</ele>
        <time>2017-07-26T18:48:28Z</time>
      </trkpt>
      <trkpt lat="60.153575726496" lon="21.588339078285">
        <ele>22.4</ele>
        <time>2017-07-26T18:48:29Z</time>
      </trkpt>
      <trkpt lat="60.153547814769" lon="21.588373276437">
        <ele>22.4</ele>
        <time>2017-07-26T18:48:30Z</time>
      </trkpt>
      <trkpt lat="60.153520489775" lon="21.588408648055">
        <ele>22.4</ele>
        <time>2017-07-26T18:48:31Z</time>
      </trkpt>
      <trkpt lat="60.153497523369" lon="21.588439744904">
        <ele>22.4</ele>
        <time>2017-07-26T18:48:32Z</time>
      </trkpt>
      <trkpt lat="60.153473718773" lon="21.588477547273">
        <ele>22.4</ele>
        <time>2017-07-26T18:48:33Z</time>
      </trkpt>
      <trkpt lat="60.153453099299" lon="21.588514762909">
        <ele>22.4</ele>
        <time>2017-07-26T18:48:34Z</time>
      </trkpt>
      <trkpt lat="60.153430719626" lon="21.588557510599">
        <ele>22.4</ele>
        <time>2017-07-26T18:48:35Z</time>
      </trkpt>
      <trkpt lat="60.153408926686" lon="21.588600006832">
        <ele>22.4</ele>
        <time>2017-07-26T18:48:36Z</time>
      </trkpt>
      <trkpt lat="60.153385876461" lon="21.58864627492">
        <ele>22.4</ele>
        <time>2017-07-26T18:48:37Z</time>
      </trkpt>
      <trkpt lat="60.153365173168" lon="21.588695141397">
        <ele>22.4</ele>
        <time>2017-07-26T18:48:38Z</time>
      </trkpt>
      <trkpt lat="60.153346230074" lon="21.588746103349">
        <ele>22.4</ele>
        <time>2017-07-26T18:48:39Z</time>
      </trkpt>
      <trkpt lat="60.153325023867" lon="21.588803938459">
        <ele>22.4</ele>
        <time>2017-07-26T18:48:40Z</time>
      </trkpt>
      <trkpt lat="60.153302308918" lon="21.588864036682">
        <ele>22.4</ele>
        <time>2017-07-26T18:48:41Z</time>
      </trkpt>
      <trkpt lat="60.153282108539" lon="21.588926649475">
        <ele>22.4</ele>
        <time>2017-07-26T18:48:42Z</time>
      </trkpt>
      <trkpt lat="60.153261740522" lon="21.588992615028">
        <ele>22.4</ele>
        <time>2017-07-26T18:48:43Z</time>
      </trkpt>
      <trkpt lat="60.153242462152" lon="21.589049611948">
        <ele>22.4</ele>
        <time>2017-07-26T18:48:44Z</time>
      </trkpt>
      <trkpt lat="60.153220333936" lon="21.589114571673">
        <ele>22.4</ele>
        <time>2017-07-26T18:48:45Z</time>
      </trkpt>
      <trkpt lat="60.153199965919" lon="21.589173244973">
        <ele>22.4</ele>
        <time>2017-07-26T18:48:46Z</time>
      </trkpt>
      <trkpt lat="60.153183453576" lon="21.589229906617">
        <ele>22.4</ele>
        <time>2017-07-26T18:48:47Z</time>
      </trkpt>
      <trkpt lat="60.153167025052" lon="21.589287238813">
        <ele>22.4</ele>
        <time>2017-07-26T18:48:48Z</time>
      </trkpt>
      <trkpt lat="60.153148165777" lon="21.589347420855">
        <ele>22.4</ele>
        <time>2017-07-26T18:48:49Z</time>
      </trkpt>
      <trkpt lat="60.153127630122" lon="21.589408860182">
        <ele>22.4</ele>
        <time>2017-07-26T18:48:50Z</time>
      </trkpt>
      <trkpt lat="60.153108351752" lon="21.589464683636">
        <ele>22.4</ele>
        <time>2017-07-26T18:48:51Z</time>
      </trkpt>
      <trkpt lat="60.153088905744" lon="21.5895196689">
        <ele>22.4</ele>
        <time>2017-07-26T18:48:52Z</time>
      </trkpt>
      <trkpt lat="60.153072644858" lon="21.589571133766">
        <ele>22.4</ele>
        <time>2017-07-26T18:48:53Z</time>
      </trkpt>
      <trkpt lat="60.153055378144" lon="21.589621592804">
        <ele>22.4</ele>
        <time>2017-07-26T18:48:54Z</time>
      </trkpt>
      <trkpt lat="60.153034674851" lon="21.589679679371">
        <ele>22.4</ele>
        <time>2017-07-26T18:48:55Z</time>
      </trkpt>
      <trkpt lat="60.153016905223" lon="21.589726953287">
        <ele>22.4</ele>
        <time>2017-07-26T18:48:56Z</time>
      </trkpt>
      <trkpt lat="60.152996621025" lon="21.589786045682">
        <ele>22.4</ele>
        <time>2017-07-26T18:48:57Z</time>
      </trkpt>
      <trkpt lat="60.152975750094" lon="21.589841198584">
        <ele>22.4</ele>
        <time>2017-07-26T18:48:58Z</time>
      </trkpt>
      <trkpt lat="60.152957896647" lon="21.589891070889">
        <ele>22.4</ele>
        <time>2017-07-26T18:48:59Z</time>
      </trkpt>
      <trkpt lat="60.152937193354" lon="21.589951672026">
        <ele>22.4</ele>
        <time>2017-07-26T18:49:00Z</time>
      </trkpt>
      <trkpt lat="60.152914646043" lon="21.590011015878">
        <ele>22.4</ele>
        <time>2017-07-26T18:49:01Z</time>
      </trkpt>
      <trkpt lat="60.152894110388" lon="21.590064324762">
        <ele>22.4</ele>
        <time>2017-07-26T18:49:02Z</time>
      </trkpt>
      <trkpt lat="60.152872652724" lon="21.590119896759">
        <ele>22.4</ele>
        <time>2017-07-26T18:49:03Z</time>
      </trkpt>
      <trkpt lat="60.152851697974" lon="21.590168008865">
        <ele>22.4</ele>
        <time>2017-07-26T18:49:04Z</time>
      </trkpt>
      <trkpt lat="60.152826133179" lon="21.590224754328">
        <ele>22.4</ele>
        <time>2017-07-26T18:49:05Z</time>
      </trkpt>
      <trkpt lat="60.152804340239" lon="21.590270184226">
        <ele>22.4</ele>
        <time>2017-07-26T18:49:06Z</time>
      </trkpt>
      <trkpt lat="60.152780032729" lon="21.590322822558">
        <ele>22.4</ele>
        <time>2017-07-26T18:49:07Z</time>
      </trkpt>
      <trkpt lat="60.152756311952" lon="21.590372862501">
        <ele>22.4</ele>
        <time>2017-07-26T18:49:08Z</time>
      </trkpt>
      <trkpt lat="60.152734602831" lon="21.590418962951">
        <ele>22.4</ele>
        <time>2017-07-26T18:49:09Z</time>
      </trkpt>
      <trkpt lat="60.152710965873" lon="21.590469924903">
        <ele>22.4</ele>
        <time>2017-07-26T18:49:10Z</time>
      </trkpt>
      <trkpt lat="60.152688921476" lon="21.590515270982">
        <ele>22.4</ele>
        <time>2017-07-26T18:49:11Z</time>
      </trkpt>
      <trkpt lat="60.152667044717" lon="21.590561622889">
        <ele>22.4</ele>
        <time>2017-07-26T18:49:12Z</time>
      </trkpt>
      <trkpt lat="60.152644916501" lon="21.59060596314">
        <ele>22.4</ele>
        <time>2017-07-26T18:49:13Z</time>
      </trkpt>
      <trkpt lat="60.152625051398" lon="21.590645860984">
        <ele>22.4</ele>
        <time>2017-07-26T18:49:14Z</time>
      </trkpt>
      <trkpt lat="60.152602671725" lon="21.590692464348">
        <ele>22.4</ele>
        <time>2017-07-26T18:49:15Z</time>
      </trkpt>
      <trkpt lat="60.152581046423" lon="21.590734122391">
        <ele>22.4</ele>
        <time>2017-07-26T18:49:16Z</time>
      </trkpt>
      <trkpt lat="60.152560929863" lon="21.59077192476">
        <ele>22.4</ele>
        <time>2017-07-26T18:49:17Z</time>
      </trkpt>
      <trkpt lat="60.15253938838" lon="21.590814923907">
        <ele>22.4</ele>
        <time>2017-07-26T18:49:18Z</time>
      </trkpt>
      <trkpt lat="60.152520361467" lon="21.590852474819">
        <ele>22.4</ele>
        <time>2017-07-26T18:49:19Z</time>
      </trkpt>
      <trkpt lat="60.152499490536" lon="21.590894468138">
        <ele>22.4</ele>
        <time>2017-07-26T18:49:20Z</time>
      </trkpt>
      <trkpt lat="60.152479373976" lon="21.590932689602">
        <ele>22.4</ele>
        <time>2017-07-26T18:49:21Z</time>
      </trkpt>
      <trkpt lat="60.152458670683" lon="21.59096889941">
        <ele>22.4</ele>
        <time>2017-07-26T18:49:22Z</time>
      </trkpt>
      <trkpt lat="60.152440314322" lon="21.59100242701">
        <ele>22.4</ele>
        <time>2017-07-26T18:49:23Z</time>
      </trkpt>
      <trkpt lat="60.152421371228" lon="21.591030254918">
        <ele>22.4</ele>
        <time>2017-07-26T18:49:24Z</time>
      </trkpt>
      <trkpt lat="60.152402679591" lon="21.591067638192">
        <ele>22.4</ele>
        <time>2017-07-26T18:49:25Z</time>
      </trkpt>
      <trkpt lat="60.152388849456" lon="21.591097896851">
        <ele>22.4</ele>
        <time>2017-07-26T18:49:26Z</time>
      </trkpt>
      <trkpt lat="60.152373342941" lon="21.591131172994">
        <ele>22.4</ele>
        <time>2017-07-26T18:49:27Z</time>
      </trkpt>
      <trkpt lat="60.152355489494" lon="21.59116335949">
        <ele>22.4</ele>
        <time>2017-07-26T18:49:28Z</time>
      </trkpt>
      <trkpt lat="60.152340569712" lon="21.591189846294">
        <ele>22.4</ele>
        <time>2017-07-26T18:49:29Z</time>
      </trkpt>
      <trkpt lat="60.152316094564" lon="21.591232007251">
        <ele>22.4</ele>
        <time>2017-07-26T18:49:30Z</time>
      </trkpt>
      <trkpt lat="60.152296816194" lon="21.591266373041">
        <ele>22.4</ele>
        <time>2017-07-26T18:49:31Z</time>
      </trkpt>
      <trkpt lat="60.152279884756" lon="21.591298140442">
        <ele>22.4</ele>
        <time>2017-07-26T18:49:32Z</time>
      </trkpt>
      <trkpt lat="60.152263456232" lon="21.591333931155">
        <ele>22.4</ele>
        <time>2017-07-26T18:49:33Z</time>
      </trkpt>
      <trkpt lat="60.15224769826" lon="21.591366033832">
        <ele>22.4</ele>
        <time>2017-07-26T18:49:34Z</time>
      </trkpt>
      <trkpt lat="60.152229760994" lon="21.591397968871">
        <ele>22.4</ele>
        <time>2017-07-26T18:49:35Z</time>
      </trkpt>
      <trkpt lat="60.152211069357" lon="21.591429484815">
        <ele>22.4</ele>
        <time>2017-07-26T18:49:36Z</time>
      </trkpt>
      <trkpt lat="60.152190868978" lon="21.591461419854">
        <ele>22.4</ele>
        <time>2017-07-26T18:49:37Z</time>
      </trkpt>
      <trkpt lat="60.152173518445" lon="21.591490505047">
        <ele>22.4</ele>
        <time>2017-07-26T18:49:38Z</time>
      </trkpt>
      <trkpt lat="60.152156587007" lon="21.591522020991">
        <ele>22.4</ele>
        <time>2017-07-26T18:49:39Z</time>
      </trkpt>
      <trkpt lat="60.152135883714" lon="21.591556889695">
        <ele>22.4</ele>
        <time>2017-07-26T18:49:40Z</time>
      </trkpt>
      <trkpt lat="60.152116270068" lon="21.591587818906">
        <ele>22.4</ele>
        <time>2017-07-26T18:49:41Z</time>
      </trkpt>
      <trkpt lat="60.152098668078" lon="21.591616736461">
        <ele>22.4</ele>
        <time>2017-07-26T18:49:42Z</time>
      </trkpt>
      <trkpt lat="60.152076288405" lon="21.591654287373">
        <ele>22.4</ele>
        <time>2017-07-26T18:49:43Z</time>
      </trkpt>
      <trkpt lat="60.152059273148" lon="21.591680355082">
        <ele>22.4</ele>
        <time>2017-07-26T18:49:44Z</time>
      </trkpt>
      <trkpt lat="60.152038737493" lon="21.591717654537">
        <ele>22.4</ele>
        <time>2017-07-26T18:49:45Z</time>
      </trkpt>
      <trkpt lat="60.152020967865" lon="21.591749589576">
        <ele>22.4</ele>
        <time>2017-07-26T18:49:46Z</time>
      </trkpt>
      <trkpt lat="60.152003868789" lon="21.591780686425">
        <ele>22.4</ele>
        <time>2017-07-26T18:49:47Z</time>
      </trkpt>
      <trkpt lat="60.151984255143" lon="21.591811364179">
        <ele>22.4</ele>
        <time>2017-07-26T18:49:48Z</time>
      </trkpt>
      <trkpt lat="60.151965312049" lon="21.591839359725">
        <ele>22.4</ele>
        <time>2017-07-26T18:49:49Z</time>
      </trkpt>
      <trkpt lat="60.151943854385" lon="21.591870288936">
        <ele>22.4</ele>
        <time>2017-07-26T18:49:50Z</time>
      </trkpt>
      <trkpt lat="60.151926755309" lon="21.591901553423">
        <ele>22.4</ele>
        <time>2017-07-26T18:49:51Z</time>
      </trkpt>
      <trkpt lat="60.151905968197" lon="21.591939858706">
        <ele>22.4</ele>
        <time>2017-07-26T18:49:52Z</time>
      </trkpt>
      <trkpt lat="60.151886270732" lon="21.591974224496">
        <ele>22.4</ele>
        <time>2017-07-26T18:49:53Z</time>
      </trkpt>
      <trkpt lat="60.151865232163" lon="21.592009177019">
        <ele>22.4</ele>
        <time>2017-07-26T18:49:54Z</time>
      </trkpt>
      <trkpt lat="60.151839667368" lon="21.592053601089">
        <ele>22.4</ele>
        <time>2017-07-26T18:49:55Z</time>
      </trkpt>
      <trkpt lat="60.151814102573" lon="21.592094085666">
        <ele>22.4</ele>
        <time>2017-07-26T18:49:56Z</time>
      </trkpt>
      <trkpt lat="60.151789878882" lon="21.592137587727">
        <ele>22.4</ele>
        <time>2017-07-26T18:49:57Z</time>
      </trkpt>
      <trkpt lat="60.151765822829" lon="21.592177737028">
        <ele>22.4</ele>
        <time>2017-07-26T18:49:58Z</time>
      </trkpt>
      <trkpt lat="60.151746795916" lon="21.59220942061">
        <ele>22.4</ele>
        <time>2017-07-26T18:49:59Z</time>
      </trkpt>
      <trkpt lat="60.151719135646" lon="21.592258538544">
        <ele>22.4</ele>
        <time>2017-07-26T18:50:00Z</time>
      </trkpt>
      <trkpt lat="60.151696253059" lon="21.592298017293">
        <ele>22.4</ele>
        <time>2017-07-26T18:50:01Z</time>
      </trkpt>
      <trkpt lat="60.151672867558" lon="21.592337076947">
        <ele>22.4</ele>
        <time>2017-07-26T18:50:02Z</time>
      </trkpt>
      <trkpt lat="60.15165090698" lon="21.59237119128">
        <ele>22.4</ele>
        <time>2017-07-26T18:50:03Z</time>
      </trkpt>
      <trkpt lat="60.151627689117" lon="21.592409831839">
        <ele>22.4</ele>
        <time>2017-07-26T18:50:04Z</time>
      </trkpt>
      <trkpt lat="60.151605728539" lon="21.592450567873">
        <ele>22.4</ele>
        <time>2017-07-26T18:50:05Z</time>
      </trkpt>
      <trkpt lat="60.151586450169" lon="21.592487783509">
        <ele>22.4</ele>
        <time>2017-07-26T18:50:06Z</time>
      </trkpt>
      <trkpt lat="60.151562394116" lon="21.592528687181">
        <ele>22.4</ele>
        <time>2017-07-26T18:50:07Z</time>
      </trkpt>
      <trkpt lat="60.151542109918" lon="21.592565483722">
        <ele>22.4</ele>
        <time>2017-07-26T18:50:08Z</time>
      </trkpt>
      <trkpt lat="60.151522831548" lon="21.592600268607">
        <ele>22.4</ele>
        <time>2017-07-26T18:50:09Z</time>
      </trkpt>
      <trkpt lat="60.151499865142" lon="21.592639914994">
        <ele>22.4</ele>
        <time>2017-07-26T18:50:10Z</time>
      </trkpt>
      <trkpt lat="60.151479245668" lon="21.592675370431">
        <ele>22.4</ele>
        <time>2017-07-26T18:50:11Z</time>
      </trkpt>
      <trkpt lat="60.151458458556" lon="21.592710239135">
        <ele>22.4</ele>
        <time>2017-07-26T18:50:12Z</time>
      </trkpt>
      <trkpt lat="60.151438174358" lon="21.592747790047">
        <ele>22.4</ele>
        <time>2017-07-26T18:50:13Z</time>
      </trkpt>
      <trkpt lat="60.151421662015" lon="21.592776791421">
        <ele>22.4</ele>
        <time>2017-07-26T18:50:14Z</time>
      </trkpt>
      <trkpt lat="60.151399785256" lon="21.5928137556">
        <ele>22.4</ele>
        <time>2017-07-26T18:50:15Z</time>
      </trkpt>
      <trkpt lat="60.151381764171" lon="21.592843511345">
        <ele>22.4</ele>
        <time>2017-07-26T18:50:16Z</time>
      </trkpt>
      <trkpt lat="60.15136173143" lon="21.592876368393">
        <ele>22.4</ele>
        <time>2017-07-26T18:50:17Z</time>
      </trkpt>
      <trkpt lat="60.15134161487" lon="21.592910063631">
        <ele>22.4</ele>
        <time>2017-07-26T18:50:18Z</time>
      </trkpt>
      <trkpt lat="60.151321163034" lon="21.592942417765">
        <ele>22.4</ele>
        <time>2017-07-26T18:50:19Z</time>
      </trkpt>
      <trkpt lat="60.151296436429" lon="21.592978795211">
        <ele>22.4</ele>
        <time>2017-07-26T18:50:20Z</time>
      </trkpt>
      <trkpt lat="60.151271793643" lon="21.593011819897">
        <ele>22.4</ele>
        <time>2017-07-26T18:50:21Z</time>
      </trkpt>
      <trkpt lat="60.151250671255" lon="21.593043754936">
        <ele>22.4</ele>
        <time>2017-07-26T18:50:22Z</time>
      </trkpt>
      <trkpt lat="60.151228794496" lon="21.5930819764">
        <ele>22.4</ele>
        <time>2017-07-26T18:50:23Z</time>
      </trkpt>
      <trkpt lat="60.151209935221" lon="21.593114581991">
        <ele>22.4</ele>
        <time>2017-07-26T18:50:24Z</time>
      </trkpt>
      <trkpt lat="60.151184202788" lon="21.593156072396">
        <ele>22.4</ele>
        <time>2017-07-26T18:50:25Z</time>
      </trkpt>
      <trkpt lat="60.151160901106" lon="21.593191024919">
        <ele>22.4</ele>
        <time>2017-07-26T18:50:26Z</time>
      </trkpt>
      <trkpt lat="60.151136845053" lon="21.593224720157">
        <ele>22.4</ele>
        <time>2017-07-26T18:50:27Z</time>
      </trkpt>
      <trkpt lat="60.151115890303" lon="21.593261684336">
        <ele>22.4</ele>
        <time>2017-07-26T18:50:28Z</time>
      </trkpt>
      <trkpt lat="60.151097617761" lon="21.593295379574">
        <ele>22.4</ele>
        <time>2017-07-26T18:50:29Z</time>
      </trkpt>
      <trkpt lat="60.151077165925" lon="21.593337540531">
        <ele>22.4</ele>
        <time>2017-07-26T18:50:30Z</time>
      </trkpt>
      <trkpt lat="60.151055121528" lon="21.593381713144">
        <ele>22.4</ele>
        <time>2017-07-26T18:50:31Z</time>
      </trkpt>
      <trkpt lat="60.151034753511" lon="21.593418677323">
        <ele>22.4</ele>
        <time>2017-07-26T18:50:32Z</time>
      </trkpt>
      <trkpt lat="60.151012457657" lon="21.593451450552">
        <ele>22.4</ele>
        <time>2017-07-26T18:50:33Z</time>
      </trkpt>
      <trkpt lat="60.150991586726" lon="21.593481373935">
        <ele>22.4</ele>
        <time>2017-07-26T18:50:34Z</time>
      </trkpt>
      <trkpt lat="60.150969039415" lon="21.593518505752">
        <ele>22.4</ele>
        <time>2017-07-26T18:50:35Z</time>
      </trkpt>
      <trkpt lat="60.150945905371" lon="21.59355723013">
        <ele>22.4</ele>
        <time>2017-07-26T18:50:36Z</time>
      </trkpt>
      <trkpt lat="60.150924112431" lon="21.593592937024">
        <ele>22.4</ele>
        <time>2017-07-26T18:50:37Z</time>
      </trkpt>
      <trkpt lat="60.150904834061" lon="21.593626296986">
        <ele>22.4</ele>
        <time>2017-07-26T18:50:38Z</time>
      </trkpt>
      <trkpt lat="60.150884382225" lon="21.593661500966">
        <ele>22.4</ele>
        <time>2017-07-26T18:50:39Z</time>
      </trkpt>
      <trkpt lat="60.150861415819" lon="21.593696285851">
        <ele>22.4</ele>
        <time>2017-07-26T18:50:40Z</time>
      </trkpt>
      <trkpt lat="60.150841550716" lon="21.59372319175">
        <ele>22.4</ele>
        <time>2017-07-26T18:50:41Z</time>
      </trkpt>
      <trkpt lat="60.150820931242" lon="21.593755378246">
        <ele>22.4</ele>
        <time>2017-07-26T18:50:42Z</time>
      </trkpt>
      <trkpt lat="60.150799641216" lon="21.593784966353">
        <ele>22.4</ele>
        <time>2017-07-26T18:50:43Z</time>
      </trkpt>
      <trkpt lat="60.150780446665" lon="21.593811620795">
        <ele>22.4</ele>
        <time>2017-07-26T18:50:44Z</time>
      </trkpt>
      <trkpt lat="60.150757731716" lon="21.593844896938">
        <ele>22.4</ele>
        <time>2017-07-26T18:50:45Z</time>
      </trkpt>
      <trkpt lat="60.150740716459" lon="21.593871299923">
        <ele>22.4</ele>
        <time>2017-07-26T18:50:46Z</time>
      </trkpt>
      <trkpt lat="60.150720935175" lon="21.593900217478">
        <ele>22.4</ele>
        <time>2017-07-26T18:50:47Z</time>
      </trkpt>
      <trkpt lat="60.150702327357" lon="21.593925866092">
        <ele>22.4</ele>
        <time>2017-07-26T18:50:48Z</time>
      </trkpt>
      <trkpt lat="60.150683803358" lon="21.593952939629">
        <ele>22.4</ele>
        <time>2017-07-26T18:50:49Z</time>
      </trkpt>
      <trkpt lat="60.150663770617" lon="21.593981941003">
        <ele>22.4</ele>
        <time>2017-07-26T18:50:50Z</time>
      </trkpt>
      <trkpt lat="60.15064424079" lon="21.594010271825">
        <ele>22.4</ele>
        <time>2017-07-26T18:50:51Z</time>
      </trkpt>
      <trkpt lat="60.15062580061" lon="21.594037010086">
        <ele>22.4</ele>
        <time>2017-07-26T18:50:52Z</time>
      </trkpt>
      <trkpt lat="60.150606103145" lon="21.594059222121">
        <ele>22.4</ele>
        <time>2017-07-26T18:50:53Z</time>
      </trkpt>
      <trkpt lat="60.150587746784" lon="21.594080512147">
        <ele>22.4</ele>
        <time>2017-07-26T18:50:54Z</time>
      </trkpt>
      <trkpt lat="60.15056545093" lon="21.594107837141">
        <ele>22.4</ele>
        <time>2017-07-26T18:50:55Z</time>
      </trkpt>
      <trkpt lat="60.150544244723" lon="21.594136754696">
        <ele>22.4</ele>
        <time>2017-07-26T18:50:56Z</time>
      </trkpt>
      <trkpt lat="60.150523960525" lon="21.594160894568">
        <ele>22.8</ele>
        <time>2017-07-26T18:50:57Z</time>
      </trkpt>
      <trkpt lat="60.15050510125" lon="21.594183274241">
        <ele>23</ele>
        <time>2017-07-26T18:50:58Z</time>
      </trkpt>
      <trkpt lat="60.150489427097" lon="21.594202301154">
        <ele>23.4</ele>
        <time>2017-07-26T18:50:59Z</time>
      </trkpt>
      <trkpt lat="60.150467466519" lon="21.594223172085">
        <ele>23.6</ele>
        <time>2017-07-26T18:51:00Z</time>
      </trkpt>
      <trkpt lat="60.15045397166" lon="21.59424957507">
        <ele>24</ele>
        <time>2017-07-26T18:51:01Z</time>
      </trkpt>
      <trkpt lat="60.150437124041" lon="21.594268601983">
        <ele>24.2</ele>
        <time>2017-07-26T18:51:02Z</time>
      </trkpt>
      <trkpt lat="60.150418935318" lon="21.594289892009">
        <ele>24.4</ele>
        <time>2017-07-26T18:51:03Z</time>
      </trkpt>
      <trkpt lat="60.150403093527" lon="21.594308164551">
        <ele>24.4</ele>
        <time>2017-07-26T18:51:04Z</time>
      </trkpt>
      <trkpt lat="60.150386497365" lon="21.594331466233">
        <ele>24.6</ele>
        <time>2017-07-26T18:51:05Z</time>
      </trkpt>
      <trkpt lat="60.150370404117" lon="21.594359210322">
        <ele>24.6</ele>
        <time>2017-07-26T18:51:06Z</time>
      </trkpt>
      <trkpt lat="60.150352802127" lon="21.594385780945">
        <ele>24.6</ele>
        <time>2017-07-26T18:51:07Z</time>
      </trkpt>
      <trkpt lat="60.150334529585" lon="21.594403299116">
        <ele>24.4</ele>
        <time>2017-07-26T18:51:08Z</time>
      </trkpt>
      <trkpt lat="60.150317514328" lon="21.594414530862">
        <ele>24.4</ele>
        <time>2017-07-26T18:51:09Z</time>
      </trkpt>
      <trkpt lat="60.150297565406" lon="21.594424924418">
        <ele>24.4</ele>
        <time>2017-07-26T18:51:10Z</time>
      </trkpt>
      <trkpt lat="60.150280885425" lon="21.59443565325">
        <ele>24.6</ele>
        <time>2017-07-26T18:51:11Z</time>
      </trkpt>
      <trkpt lat="60.15026537891" lon="21.594448980471">
        <ele>24.4</ele>
        <time>2017-07-26T18:51:12Z</time>
      </trkpt>
      <trkpt lat="60.150249620938" lon="21.594464319348">
        <ele>24.4</ele>
        <time>2017-07-26T18:51:13Z</time>
      </trkpt>
      <trkpt lat="60.150233862966" lon="21.594484687365">
        <ele>24.4</ele>
        <time>2017-07-26T18:51:14Z</time>
      </trkpt>
      <trkpt lat="60.150214081682" lon="21.5945068994">
        <ele>24.4</ele>
        <time>2017-07-26T18:51:15Z</time>
      </trkpt>
      <trkpt lat="60.150195473864" lon="21.59452785415">
        <ele>24.4</ele>
        <time>2017-07-26T18:51:16Z</time>
      </trkpt>
      <trkpt lat="60.150177871874" lon="21.594546713425">
        <ele>24.4</ele>
        <time>2017-07-26T18:51:17Z</time>
      </trkpt>
      <trkpt lat="60.150158761142" lon="21.594569344555">
        <ele>24.4</ele>
        <time>2017-07-26T18:51:18Z</time>
      </trkpt>
      <trkpt lat="60.150140320962" lon="21.594593903522">
        <ele>24.4</ele>
        <time>2017-07-26T18:51:19Z</time>
      </trkpt>
      <trkpt lat="60.150118863298" lon="21.594619887412">
        <ele>24.4</ele>
        <time>2017-07-26T18:51:20Z</time>
      </trkpt>
      <trkpt lat="60.150095561616" lon="21.594646541854">
        <ele>24.4</ele>
        <time>2017-07-26T18:51:21Z</time>
      </trkpt>
      <trkpt lat="60.150074355409" lon="21.594671436097">
        <ele>24.4</ele>
        <time>2017-07-26T18:51:22Z</time>
      </trkpt>
      <trkpt lat="60.150056166686" lon="21.594697000892">
        <ele>24.4</ele>
        <time>2017-07-26T18:51:23Z</time>
      </trkpt>
      <trkpt lat="60.150037223592" lon="21.594720721669">
        <ele>24.4</ele>
        <time>2017-07-26T18:51:24Z</time>
      </trkpt>
      <trkpt lat="60.150017442308" lon="21.594749303948">
        <ele>24.4</ele>
        <time>2017-07-26T18:51:25Z</time>
      </trkpt>
      <trkpt lat="60.149998331576" lon="21.594772940906">
        <ele>24.4</ele>
        <time>2017-07-26T18:51:26Z</time>
      </trkpt>
      <trkpt lat="60.149983327975" lon="21.594794566208">
        <ele>24.4</ele>
        <time>2017-07-26T18:51:27Z</time>
      </trkpt>
      <trkpt lat="60.149965642166" lon="21.594823232306">
        <ele>24.4</ele>
        <time>2017-07-26T18:51:28Z</time>
      </trkpt>
      <trkpt lat="60.149950387108" lon="21.594848713282">
        <ele>24.4</ele>
        <time>2017-07-26T18:51:29Z</time>
      </trkpt>
      <trkpt lat="60.149929432358" lon="21.594876122095">
        <ele>24.4</ele>
        <time>2017-07-26T18:51:30Z</time>
      </trkpt>
      <trkpt lat="60.149910573083" lon="21.594905961659">
        <ele>24.4</ele>
        <time>2017-07-26T18:51:31Z</time>
      </trkpt>
      <trkpt lat="60.14989489893" lon="21.59492850897">
        <ele>24.4</ele>
        <time>2017-07-26T18:51:32Z</time>
      </trkpt>
      <trkpt lat="60.149879392415" lon="21.594954157584">
        <ele>24.4</ele>
        <time>2017-07-26T18:51:33Z</time>
      </trkpt>
      <trkpt lat="60.149864304995" lon="21.594981063483">
        <ele>24.4</ele>
        <time>2017-07-26T18:51:34Z</time>
      </trkpt>
      <trkpt lat="60.149850391041" lon="21.595006963554">
        <ele>24.4</ele>
        <time>2017-07-26T18:51:35Z</time>
      </trkpt>
      <trkpt lat="60.149838069648" lon="21.595031354883">
        <ele>24.6</ele>
        <time>2017-07-26T18:51:36Z</time>
      </trkpt>
      <trkpt lat="60.149822479314" lon="21.595055159479">
        <ele>24.4</ele>
        <time>2017-07-26T18:51:37Z</time>
      </trkpt>
      <trkpt lat="60.149812504853" lon="21.595080556636">
        <ele>24.4</ele>
        <time>2017-07-26T18:51:38Z</time>
      </trkpt>
      <trkpt lat="60.14980185984" lon="21.595105869974">
        <ele>24.4</ele>
        <time>2017-07-26T18:51:39Z</time>
      </trkpt>
      <trkpt lat="60.149786437144" lon="21.595135458081">
        <ele>24.4</ele>
        <time>2017-07-26T18:51:40Z</time>
      </trkpt>
      <trkpt lat="60.149772104095" lon="21.595162447799">
        <ele>24.4</ele>
        <time>2017-07-26T18:51:41Z</time>
      </trkpt>
      <trkpt lat="60.149753915372" lon="21.595200501625">
        <ele>24.4</ele>
        <time>2017-07-26T18:51:42Z</time>
      </trkpt>
      <trkpt lat="60.149732792984" lon="21.595241405297">
        <ele>24.4</ele>
        <time>2017-07-26T18:51:43Z</time>
      </trkpt>
      <trkpt lat="60.149712760243" lon="21.595280129675">
        <ele>24.4</ele>
        <time>2017-07-26T18:51:44Z</time>
      </trkpt>
      <trkpt lat="60.14969038057" lon="21.595329750523">
        <ele>24.4</ele>
        <time>2017-07-26T18:51:45Z</time>
      </trkpt>
      <trkpt lat="60.149667246526" lon="21.595382221217">
        <ele>24.4</ele>
        <time>2017-07-26T18:51:46Z</time>
      </trkpt>
      <trkpt lat="60.149646459414" lon="21.595436368291">
        <ele>24.4</ele>
        <time>2017-07-26T18:51:47Z</time>
      </trkpt>
      <trkpt lat="60.149626426673" lon="21.595493532849">
        <ele>24.6</ele>
        <time>2017-07-26T18:51:48Z</time>
      </trkpt>
      <trkpt lat="60.149605220466" lon="21.595548266656">
        <ele>24.6</ele>
        <time>2017-07-26T18:51:49Z</time>
      </trkpt>
      <trkpt lat="60.149578733662" lon="21.595615992408">
        <ele>24.6</ele>
        <time>2017-07-26T18:51:50Z</time>
      </trkpt>
      <trkpt lat="60.1495537556" lon="21.595679694848">
        <ele>24.6</ele>
        <time>2017-07-26T18:51:51Z</time>
      </trkpt>
      <trkpt lat="60.149532549393" lon="21.595742056184">
        <ele>24.6</ele>
        <time>2017-07-26T18:51:52Z</time>
      </trkpt>
      <trkpt lat="60.149512432833" lon="21.59579938838">
        <ele>24.4</ele>
        <time>2017-07-26T18:51:53Z</time>
      </trkpt>
      <trkpt lat="60.149494663205" lon="21.595858564594">
        <ele>24.4</ele>
        <time>2017-07-26T18:51:54Z</time>
      </trkpt>
      <trkpt lat="60.149473121722" lon="21.59592679326">
        <ele>24.4</ele>
        <time>2017-07-26T18:51:55Z</time>
      </trkpt>
      <trkpt lat="60.149455184456" lon="21.595988148768">
        <ele>24.4</ele>
        <time>2017-07-26T18:51:56Z</time>
      </trkpt>
      <trkpt lat="60.149437582466" lon="21.596043050213">
        <ele>24.4</ele>
        <time>2017-07-26T18:51:57Z</time>
      </trkpt>
      <trkpt lat="60.149418304096" lon="21.596103064617">
        <ele>24.4</ele>
        <time>2017-07-26T18:51:58Z</time>
      </trkpt>
      <trkpt lat="60.149403300495" lon="21.596150003257">
        <ele>24.4</ele>
        <time>2017-07-26T18:51:59Z</time>
      </trkpt>
      <trkpt lat="60.149386788152" lon="21.596204569426">
        <ele>24.4</ele>
        <time>2017-07-26T18:52:00Z</time>
      </trkpt>
      <trkpt lat="60.14936767742" lon="21.596254357912">
        <ele>24.4</ele>
        <time>2017-07-26T18:52:01Z</time>
      </trkpt>
      <trkpt lat="60.14935007543" lon="21.596302637656">
        <ele>24.4</ele>
        <time>2017-07-26T18:52:02Z</time>
      </trkpt>
      <trkpt lat="60.149335323286" lon="21.596351923228">
        <ele>24.4</ele>
        <time>2017-07-26T18:52:03Z</time>
      </trkpt>
      <trkpt lat="60.149318894762" lon="21.596394838556">
        <ele>24.4</ele>
        <time>2017-07-26T18:52:04Z</time>
      </trkpt>
      <trkpt lat="60.149299364935" lon="21.596439933178">
        <ele>24.4</ele>
        <time>2017-07-26T18:52:05Z</time>
      </trkpt>
      <trkpt lat="60.149279499832" lon="21.596488632017">
        <ele>24.4</ele>
        <time>2017-07-26T18:52:06Z</time>
      </trkpt>
      <trkpt lat="60.149261562566" lon="21.59653280463">
        <ele>24.4</ele>
        <time>2017-07-26T18:52:07Z</time>
      </trkpt>
      <trkpt lat="60.149246056051" lon="21.596574630311">
        <ele>24.4</ele>
        <time>2017-07-26T18:52:08Z</time>
      </trkpt>
      <trkpt lat="60.14923021426" lon="21.596612013585">
        <ele>24.4</ele>
        <time>2017-07-26T18:52:09Z</time>
      </trkpt>
      <trkpt lat="60.14921596503" lon="21.596652917257">
        <ele>24.4</ele>
        <time>2017-07-26T18:52:10Z</time>
      </trkpt>
      <trkpt lat="60.149198782135" lon="21.596691725454">
        <ele>24.4</ele>
        <time>2017-07-26T18:52:11Z</time>
      </trkpt>
      <trkpt lat="60.149179168489" lon="21.596732042393">
        <ele>24.4</ele>
        <time>2017-07-26T18:52:12Z</time>
      </trkpt>
      <trkpt lat="60.149160225395" lon="21.596770599133">
        <ele>24.4</ele>
        <time>2017-07-26T18:52:13Z</time>
      </trkpt>
      <trkpt lat="60.149140444111" lon="21.596810329339">
        <ele>24.4</ele>
        <time>2017-07-26T18:52:14Z</time>
      </trkpt>
      <trkpt lat="60.149119824637" lon="21.596852238839">
        <ele>24.4</ele>
        <time>2017-07-26T18:52:15Z</time>
      </trkpt>
      <trkpt lat="60.149100965362" lon="21.596891466131">
        <ele>24.4</ele>
        <time>2017-07-26T18:52:16Z</time>
      </trkpt>
      <trkpt lat="60.149083111915" lon="21.596925999559">
        <ele>24.4</ele>
        <time>2017-07-26T18:52:17Z</time>
      </trkpt>
      <trkpt lat="60.149065593744" lon="21.596963550471">
        <ele>24.4</ele>
        <time>2017-07-26T18:52:18Z</time>
      </trkpt>
      <trkpt lat="60.149048075573" lon="21.597000347012">
        <ele>24.4</ele>
        <time>2017-07-26T18:52:19Z</time>
      </trkpt>
      <trkpt lat="60.149029803031" lon="21.597040915408">
        <ele>24.4</ele>
        <time>2017-07-26T18:52:20Z</time>
      </trkpt>
      <trkpt lat="60.14901312305" lon="21.597078885415">
        <ele>24.4</ele>
        <time>2017-07-26T18:52:21Z</time>
      </trkpt>
      <trkpt lat="60.148995604879" lon="21.597112748291">
        <ele>24.4</ele>
        <time>2017-07-26T18:52:22Z</time>
      </trkpt>
      <trkpt lat="60.148979846907" lon="21.597143426045">
        <ele>24.4</ele>
        <time>2017-07-26T18:52:23Z</time>
      </trkpt>
      <trkpt lat="60.148962077279" lon="21.59717401998">
        <ele>24.4</ele>
        <time>2017-07-26T18:52:24Z</time>
      </trkpt>
      <trkpt lat="60.148943218004" lon="21.597210565064">
        <ele>24.4</ele>
        <time>2017-07-26T18:52:25Z</time>
      </trkpt>
      <trkpt lat="60.148923017625" lon="21.597245349949">
        <ele>24.4</ele>
        <time>2017-07-26T18:52:26Z</time>
      </trkpt>
      <trkpt lat="60.148903823074" lon="21.597276195341">
        <ele>24.8</ele>
        <time>2017-07-26T18:52:27Z</time>
      </trkpt>
      <trkpt lat="60.148884209428" lon="21.597311566959">
        <ele>25.2</ele>
        <time>2017-07-26T18:52:28Z</time>
      </trkpt>
      <trkpt lat="60.148868283818" lon="21.597339478686">
        <ele>25.4</ele>
        <time>2017-07-26T18:52:29Z</time>
      </trkpt>
      <trkpt lat="60.148858225538" lon="21.59736261273">
        <ele>25.8</ele>
        <time>2017-07-26T18:52:30Z</time>
      </trkpt>
      <trkpt lat="60.148838444254" lon="21.59739949309">
        <ele>26.2</ele>
        <time>2017-07-26T18:52:31Z</time>
      </trkpt>
      <trkpt lat="60.148819836436" lon="21.597425812256">
        <ele>26.4</ele>
        <time>2017-07-26T18:52:32Z</time>
      </trkpt>
      <trkpt lat="60.148802402084" lon="21.597449700671">
        <ele>26.4</ele>
        <time>2017-07-26T18:52:33Z</time>
      </trkpt>
      <trkpt lat="60.148787817578" lon="21.59747493019">
        <ele>26.4</ele>
        <time>2017-07-26T18:52:34Z</time>
      </trkpt>
      <trkpt lat="60.148771221416" lon="21.597506027039">
        <ele>26.4</ele>
        <time>2017-07-26T18:52:35Z</time>
      </trkpt>
      <trkpt lat="60.148757810376" lon="21.597539889915">
        <ele>26.4</ele>
        <time>2017-07-26T18:52:36Z</time>
      </trkpt>
      <trkpt lat="60.148736855626" lon="21.597563443054">
        <ele>26.4</ele>
        <time>2017-07-26T18:52:37Z</time>
      </trkpt>
      <trkpt lat="60.148717996351" lon="21.597592947342">
        <ele>26.4</ele>
        <time>2017-07-26T18:52:38Z</time>
      </trkpt>
      <trkpt lat="60.148698215067" lon="21.597619266508">
        <ele>26.4</ele>
        <time>2017-07-26T18:52:39Z</time>
      </trkpt>
      <trkpt lat="60.14867700886" lon="21.597647681149">
        <ele>26.4</ele>
        <time>2017-07-26T18:52:40Z</time>
      </trkpt>
      <trkpt lat="60.148657814309" lon="21.597673748858">
        <ele>26.4</ele>
        <time>2017-07-26T18:52:41Z</time>
      </trkpt>
      <trkpt lat="60.148637949206" lon="21.597703253146">
        <ele>26.4</ele>
        <time>2017-07-26T18:52:42Z</time>
      </trkpt>
      <trkpt lat="60.1486149828" lon="21.597732338339">
        <ele>26.4</ele>
        <time>2017-07-26T18:52:43Z</time>
      </trkpt>
      <trkpt lat="60.148595452973" lon="21.597759244238">
        <ele>26.4</ele>
        <time>2017-07-26T18:52:44Z</time>
      </trkpt>
      <trkpt lat="60.1485730733" lon="21.597791346915">
        <ele>26.4</ele>
        <time>2017-07-26T18:52:45Z</time>
      </trkpt>
      <trkpt lat="60.148552286188" lon="21.597818755728">
        <ele>26.6</ele>
        <time>2017-07-26T18:52:46Z</time>
      </trkpt>
      <trkpt lat="60.148532085809" lon="21.597845242532">
        <ele>26.4</ele>
        <time>2017-07-26T18:52:47Z</time>
      </trkpt>
      <trkpt lat="60.148510711964" lon="21.597870891146">
        <ele>26.4</ele>
        <time>2017-07-26T18:52:48Z</time>
      </trkpt>
      <trkpt lat="60.148489757214" lon="21.597898886692">
        <ele>26.6</ele>
        <time>2017-07-26T18:52:49Z</time>
      </trkpt>
      <trkpt lat="60.148466287894" lon="21.597918835614">
        <ele>26.4</ele>
        <time>2017-07-26T18:52:50Z</time>
      </trkpt>
      <trkpt lat="60.148446758067" lon="21.597944819504">
        <ele>26.4</ele>
        <time>2017-07-26T18:52:51Z</time>
      </trkpt>
      <trkpt lat="60.148426976783" lon="21.597968875557">
        <ele>26.4</ele>
        <time>2017-07-26T18:52:52Z</time>
      </trkpt>
      <trkpt lat="60.148408955698" lon="21.597992261058">
        <ele>26.6</ele>
        <time>2017-07-26T18:52:53Z</time>
      </trkpt>
      <trkpt lat="60.14839370064" lon="21.598016736206">
        <ele>26.4</ele>
        <time>2017-07-26T18:52:54Z</time>
      </trkpt>
      <trkpt lat="60.148373416442" lon="21.59803987025">
        <ele>26.4</ele>
        <time>2017-07-26T18:52:55Z</time>
      </trkpt>
      <trkpt lat="60.148355730633" lon="21.598060070629">
        <ele>26.4</ele>
        <time>2017-07-26T18:52:56Z</time>
      </trkpt>
      <trkpt lat="60.148337038996" lon="21.598080271008">
        <ele>26.4</ele>
        <time>2017-07-26T18:52:57Z</time>
      </trkpt>
      <trkpt lat="60.148318347359" lon="21.598096783351">
        <ele>26.4</ele>
        <time>2017-07-26T18:52:58Z</time>
      </trkpt>
      <trkpt lat="60.148301415921" lon="21.598112457504">
        <ele>26.4</ele>
        <time>2017-07-26T18:52:59Z</time>
      </trkpt>
      <trkpt lat="60.14828138318" lon="21.598130981503">
        <ele>26.4</ele>
        <time>2017-07-26T18:53:00Z</time>
      </trkpt>
      <trkpt lat="60.14826042843" lon="21.598151684796">
        <ele>26.4</ele>
        <time>2017-07-26T18:53:01Z</time>
      </trkpt>
      <trkpt lat="60.148239389861" lon="21.598172136632">
        <ele>26.4</ele>
        <time>2017-07-26T18:53:02Z</time>
      </trkpt>
      <trkpt lat="60.148216507274" lon="21.598189319527">
        <ele>26.4</ele>
        <time>2017-07-26T18:53:03Z</time>
      </trkpt>
      <trkpt lat="60.1481958878" lon="21.598204239309">
        <ele>26.4</ele>
        <time>2017-07-26T18:53:04Z</time>
      </trkpt>
      <trkpt lat="60.148177950534" lon="21.598220248738">
        <ele>26.6</ele>
        <time>2017-07-26T18:53:05Z</time>
      </trkpt>
      <trkpt lat="60.148152804834" lon="21.598237347814">
        <ele>26.4</ele>
        <time>2017-07-26T18:53:06Z</time>
      </trkpt>
      <trkpt lat="60.148133442645" lon="21.598256458546">
        <ele>26.4</ele>
        <time>2017-07-26T18:53:07Z</time>
      </trkpt>
      <trkpt lat="60.148109973325" lon="21.598273892898">
        <ele>26.4</ele>
        <time>2017-07-26T18:53:08Z</time>
      </trkpt>
      <trkpt lat="60.148082145417" lon="21.59829132725">
        <ele>26.4</ele>
        <time>2017-07-26T18:53:09Z</time>
      </trkpt>
      <trkpt lat="60.148055323337" lon="21.598313455466">
        <ele>26.8</ele>
        <time>2017-07-26T18:53:10Z</time>
      </trkpt>
      <trkpt lat="60.148029423266" lon="21.598333320569">
        <ele>27.2</ele>
        <time>2017-07-26T18:53:11Z</time>
      </trkpt>
      <trkpt lat="60.1480031041" lon="21.598350922559">
        <ele>27.6</ele>
        <time>2017-07-26T18:53:12Z</time>
      </trkpt>
      <trkpt lat="60.147978461314" lon="21.598375062431">
        <ele>28</ele>
        <time>2017-07-26T18:53:13Z</time>
      </trkpt>
      <trkpt lat="60.147957087469" lon="21.598396520095">
        <ele>28.4</ele>
        <time>2017-07-26T18:53:14Z</time>
      </trkpt>
      <trkpt lat="60.14793437252" lon="21.598416385198">
        <ele>28.6</ele>
        <time>2017-07-26T18:53:15Z</time>
      </trkpt>
      <trkpt lat="60.147908472449" lon="21.598431472618">
        <ele>28.6</ele>
        <time>2017-07-26T18:53:16Z</time>
      </trkpt>
      <trkpt lat="60.147877962333" lon="21.598449326065">
        <ele>28.6</ele>
        <time>2017-07-26T18:53:17Z</time>
      </trkpt>
      <trkpt lat="60.147848960959" lon="21.598469358806">
        <ele>28.6</ele>
        <time>2017-07-26T18:53:18Z</time>
      </trkpt>
      <trkpt lat="60.147820797775" lon="21.598491235565">
        <ele>28.6</ele>
        <time>2017-07-26T18:53:19Z</time>
      </trkpt>
      <trkpt lat="60.147790706754" lon="21.598511435944">
        <ele>28.6</ele>
        <time>2017-07-26T18:53:20Z</time>
      </trkpt>
      <trkpt lat="60.147764974321" lon="21.598528367382">
        <ele>28.6</ele>
        <time>2017-07-26T18:53:21Z</time>
      </trkpt>
      <trkpt lat="60.147742259372" lon="21.598543287164">
        <ele>28.6</ele>
        <time>2017-07-26T18:53:22Z</time>
      </trkpt>
      <trkpt lat="60.147718706233" lon="21.598558542222">
        <ele>28.6</ele>
        <time>2017-07-26T18:53:23Z</time>
      </trkpt>
      <trkpt lat="60.147695823646" lon="21.59857547366">
        <ele>28.6</ele>
        <time>2017-07-26T18:53:24Z</time>
      </trkpt>
      <trkpt lat="60.147671432317" lon="21.59859810479">
        <ele>28.6</ele>
        <time>2017-07-26T18:53:25Z</time>
      </trkpt>
      <trkpt lat="60.147644694056" lon="21.598618891902">
        <ele>28.6</ele>
        <time>2017-07-26T18:53:26Z</time>
      </trkpt>
      <trkpt lat="60.147618039614" lon="21.598639427557">
        <ele>28.6</ele>
        <time>2017-07-26T18:53:27Z</time>
      </trkpt>
      <trkpt lat="60.147588702964" lon="21.598662980696">
        <ele>28.6</ele>
        <time>2017-07-26T18:53:28Z</time>
      </trkpt>
      <trkpt lat="60.147557689934" lon="21.598685360369">
        <ele>28.6</ele>
        <time>2017-07-26T18:53:29Z</time>
      </trkpt>
      <trkpt lat="60.147523072687" lon="21.598713104458">
        <ele>28.6</ele>
        <time>2017-07-26T18:53:30Z</time>
      </trkpt>
      <trkpt lat="60.147487533431" lon="21.598743363117">
        <ele>28.6</ele>
        <time>2017-07-26T18:53:31Z</time>
      </trkpt>
      <trkpt lat="60.147455514573" lon="21.598777812726">
        <ele>28.6</ele>
        <time>2017-07-26T18:53:32Z</time>
      </trkpt>
      <trkpt lat="60.147416454919" lon="21.598815866552">
        <ele>28.6</ele>
        <time>2017-07-26T18:53:33Z</time>
      </trkpt>
      <trkpt lat="60.14738032893" lon="21.59884704722">
        <ele>28.6</ele>
        <time>2017-07-26T18:53:34Z</time>
      </trkpt>
      <trkpt lat="60.147345711683" lon="21.598879820449">
        <ele>28.6</ele>
        <time>2017-07-26T18:53:35Z</time>
      </trkpt>
      <trkpt lat="60.147310591522" lon="21.598914270058">
        <ele>28.6</ele>
        <time>2017-07-26T18:53:36Z</time>
      </trkpt>
      <trkpt lat="60.147267424737" lon="21.598964226182">
        <ele>28.6</ele>
        <time>2017-07-26T18:53:37Z</time>
      </trkpt>
      <trkpt lat="60.147232639852" lon="21.599005884225">
        <ele>28.6</ele>
        <time>2017-07-26T18:53:38Z</time>
      </trkpt>
      <trkpt lat="60.147206404505" lon="21.599042261671">
        <ele>28.6</ele>
        <time>2017-07-26T18:53:39Z</time>
      </trkpt>
      <trkpt lat="60.147170697611" lon="21.599090289958">
        <ele>28.6</ele>
        <time>2017-07-26T18:53:40Z</time>
      </trkpt>
      <trkpt lat="60.147141612418" lon="21.599130523078">
        <ele>28.6</ele>
        <time>2017-07-26T18:53:41Z</time>
      </trkpt>
      <trkpt lat="60.147109761198" lon="21.599179473374">
        <ele>28.6</ele>
        <time>2017-07-26T18:53:42Z</time>
      </trkpt>
      <trkpt lat="60.14708025691" lon="21.599227669299">
        <ele>28.6</ele>
        <time>2017-07-26T18:53:43Z</time>
      </trkpt>
      <trkpt lat="60.147052764278" lon="21.599273434473">
        <ele>28.6</ele>
        <time>2017-07-26T18:53:44Z</time>
      </trkpt>
      <trkpt lat="60.147023846723" lon="21.599329174108">
        <ele>28.6</ele>
        <time>2017-07-26T18:53:45Z</time>
      </trkpt>
      <trkpt lat="60.146996857005" lon="21.599381980078">
        <ele>28.6</ele>
        <time>2017-07-26T18:53:46Z</time>
      </trkpt>
      <trkpt lat="60.146973303866" lon="21.599433193487">
        <ele>28.6</ele>
        <time>2017-07-26T18:53:47Z</time>
      </trkpt>
      <trkpt lat="60.146948744899" lon="21.599487508199">
        <ele>28.6</ele>
        <time>2017-07-26T18:53:48Z</time>
      </trkpt>
      <trkpt lat="60.146930388538" lon="21.59953352483">
        <ele>28.6</ele>
        <time>2017-07-26T18:53:49Z</time>
      </trkpt>
      <trkpt lat="60.146909601426" lon="21.599582810402">
        <ele>28.6</ele>
        <time>2017-07-26T18:53:50Z</time>
      </trkpt>
      <trkpt lat="60.146891161246" lon="21.599629246128">
        <ele>28.6</ele>
        <time>2017-07-26T18:53:51Z</time>
      </trkpt>
      <trkpt lat="60.146873307799" lon="21.599674592207">
        <ele>28.6</ele>
        <time>2017-07-26T18:53:52Z</time>
      </trkpt>
      <trkpt lat="60.146857046913" lon="21.599717842811">
        <ele>28.6</ele>
        <time>2017-07-26T18:53:53Z</time>
      </trkpt>
      <trkpt lat="60.146841205122" lon="21.599762183062">
        <ele>28.6</ele>
        <time>2017-07-26T18:53:54Z</time>
      </trkpt>
      <trkpt lat="60.146823938408" lon="21.599811887729">
        <ele>28.8</ele>
        <time>2017-07-26T18:53:55Z</time>
      </trkpt>
      <trkpt lat="60.146809772997" lon="21.599857317627">
        <ele>29.2</ele>
        <time>2017-07-26T18:53:56Z</time>
      </trkpt>
      <trkpt lat="60.146795775224" lon="21.599903250439">
        <ele>29.4</ele>
        <time>2017-07-26T18:53:57Z</time>
      </trkpt>
      <trkpt lat="60.146780436347" lon="21.599950440536">
        <ele>29.6</ele>
        <time>2017-07-26T18:53:58Z</time>
      </trkpt>
      <trkpt lat="60.146767444402" lon="21.599993774959">
        <ele>30</ele>
        <time>2017-07-26T18:53:59Z</time>
      </trkpt>
      <trkpt lat="60.146750596783" lon="21.600050771879">
        <ele>30.4</ele>
        <time>2017-07-26T18:54:00Z</time>
      </trkpt>
      <trkpt lat="60.146737185743" lon="21.600100392727">
        <ele>30.6</ele>
        <time>2017-07-26T18:54:01Z</time>
      </trkpt>
      <trkpt lat="60.146724361436" lon="21.600149259204">
        <ele>30.6</ele>
        <time>2017-07-26T18:54:02Z</time>
      </trkpt>
      <trkpt lat="60.146704663971" lon="21.600206004667">
        <ele>30.6</ele>
        <time>2017-07-26T18:54:03Z</time>
      </trkpt>
      <trkpt lat="60.146688151628" lon="21.600252105117">
        <ele>30.6</ele>
        <time>2017-07-26T18:54:04Z</time>
      </trkpt>
      <trkpt lat="60.146671304009" lon="21.600301055413">
        <ele>30.6</ele>
        <time>2017-07-26T18:54:05Z</time>
      </trkpt>
      <trkpt lat="60.146654624028" lon="21.600353777564">
        <ele>30.6</ele>
        <time>2017-07-26T18:54:06Z</time>
      </trkpt>
      <trkpt lat="60.146639117513" lon="21.600404823335">
        <ele>30.6</ele>
        <time>2017-07-26T18:54:07Z</time>
      </trkpt>
      <trkpt lat="60.146622521351" lon="21.600453270717">
        <ele>30.6</ele>
        <time>2017-07-26T18:54:08Z</time>
      </trkpt>
      <trkpt lat="60.146607098655" lon="21.600501466642">
        <ele>30.6</ele>
        <time>2017-07-26T18:54:09Z</time>
      </trkpt>
      <trkpt lat="60.146591340683" lon="21.60055695482">
        <ele>30.6</ele>
        <time>2017-07-26T18:54:10Z</time>
      </trkpt>
      <trkpt lat="60.146576756177" lon="21.600605318383">
        <ele>30.6</ele>
        <time>2017-07-26T18:54:11Z</time>
      </trkpt>
      <trkpt lat="60.146561836395" lon="21.60065502305">
        <ele>30.6</ele>
        <time>2017-07-26T18:54:12Z</time>
      </trkpt>
      <trkpt lat="60.146547503346" lon="21.600700788224">
        <ele>30.6</ele>
        <time>2017-07-26T18:54:13Z</time>
      </trkpt>
      <trkpt lat="60.14653208065" lon="21.600747307769">
        <ele>30.6</ele>
        <time>2017-07-26T18:54:14Z</time>
      </trkpt>
      <trkpt lat="60.146515903583" lon="21.600801287205">
        <ele>30.6</ele>
        <time>2017-07-26T18:54:15Z</time>
      </trkpt>
      <trkpt lat="60.14649687667" lon="21.600853422623">
        <ele>30.6</ele>
        <time>2017-07-26T18:54:16Z</time>
      </trkpt>
      <trkpt lat="60.146481118698" lon="21.600902121462">
        <ele>30.6</ele>
        <time>2017-07-26T18:54:17Z</time>
      </trkpt>
      <trkpt lat="60.146463935803" lon="21.600947383722">
        <ele>30.6</ele>
        <time>2017-07-26T18:54:18Z</time>
      </trkpt>
      <trkpt lat="60.146446333813" lon="21.600995412009">
        <ele>30.6</ele>
        <time>2017-07-26T18:54:19Z</time>
      </trkpt>
      <trkpt lat="60.146422529217" lon="21.60104394321">
        <ele>30.6</ele>
        <time>2017-07-26T18:54:20Z</time>
      </trkpt>
      <trkpt lat="60.14640467577" lon="21.60109172004">
        <ele>30.6</ele>
        <time>2017-07-26T18:54:21Z</time>
      </trkpt>
      <trkpt lat="60.146387744332" lon="21.601137652852">
        <ele>30.6</ele>
        <time>2017-07-26T18:54:22Z</time>
      </trkpt>
      <trkpt lat="60.146369723247" lon="21.601178388886">
        <ele>30.6</ele>
        <time>2017-07-26T18:54:23Z</time>
      </trkpt>
      <trkpt lat="60.146350696334" lon="21.601216861807">
        <ele>30.6</ele>
        <time>2017-07-26T18:54:24Z</time>
      </trkpt>
      <trkpt lat="60.146327897566" lon="21.60125684347">
        <ele>30.6</ele>
        <time>2017-07-26T18:54:25Z</time>
      </trkpt>
      <trkpt lat="60.146305936988" lon="21.601289113785">
        <ele>30.6</ele>
        <time>2017-07-26T18:54:26Z</time>
      </trkpt>
      <trkpt lat="60.14628649098" lon="21.601325407412">
        <ele>30.6</ele>
        <time>2017-07-26T18:54:27Z</time>
      </trkpt>
      <trkpt lat="60.146267631705" lon="21.601358683555">
        <ele>30.6</ele>
        <time>2017-07-26T18:54:28Z</time>
      </trkpt>
      <trkpt lat="60.146251370819" lon="21.601387098196">
        <ele>30.6</ele>
        <time>2017-07-26T18:54:29Z</time>
      </trkpt>
      <trkpt lat="60.146230164612" lon="21.601421296348">
        <ele>30.6</ele>
        <time>2017-07-26T18:54:30Z</time>
      </trkpt>
      <trkpt lat="60.14620770112" lon="21.601456165052">
        <ele>30.6</ele>
        <time>2017-07-26T18:54:31Z</time>
      </trkpt>
      <trkpt lat="60.146184818533" lon="21.601484160598">
        <ele>30.6</ele>
        <time>2017-07-26T18:54:32Z</time>
      </trkpt>
      <trkpt lat="60.146164199059" lon="21.601508719565">
        <ele>30.6</ele>
        <time>2017-07-26T18:54:33Z</time>
      </trkpt>
      <trkpt lat="60.146140897377" lon="21.601535038731">
        <ele>30.6</ele>
        <time>2017-07-26T18:54:34Z</time>
      </trkpt>
      <trkpt lat="60.146113907659" lon="21.601564962114">
        <ele>30.6</ele>
        <time>2017-07-26T18:54:35Z</time>
      </trkpt>
      <trkpt lat="60.146088007588" lon="21.60159211947">
        <ele>30.6</ele>
        <time>2017-07-26T18:54:36Z</time>
      </trkpt>
      <trkpt lat="60.146063197164" lon="21.601616259342">
        <ele>30.6</ele>
        <time>2017-07-26T18:54:37Z</time>
      </trkpt>
      <trkpt lat="60.146039476387" lon="21.601636878816">
        <ele>30.6</ele>
        <time>2017-07-26T18:54:38Z</time>
      </trkpt>
      <trkpt lat="60.146018521637" lon="21.601646350363">
        <ele>30.6</ele>
        <time>2017-07-26T18:54:39Z</time>
      </trkpt>
      <trkpt lat="60.14599983" lon="21.601651379503">
        <ele>30.6</ele>
        <time>2017-07-26T18:54:40Z</time>
      </trkpt>
      <trkpt lat="60.145983820571" lon="21.60165582191">
        <ele>30.6</ele>
        <time>2017-07-26T18:54:41Z</time>
      </trkpt>
      <trkpt lat="60.145965045115" lon="21.601667724208">
        <ele>30.6</ele>
        <time>2017-07-26T18:54:42Z</time>
      </trkpt>
      <trkpt lat="60.145950963523" lon="21.601679961782">
        <ele>30.6</ele>
        <time>2017-07-26T18:54:43Z</time>
      </trkpt>
      <trkpt lat="60.145941491976" lon="21.601692115537">
        <ele>30.6</ele>
        <time>2017-07-26T18:54:44Z</time>
      </trkpt>
      <trkpt lat="60.145929841135" lon="21.601709046975">
        <ele>30.6</ele>
        <time>2017-07-26T18:54:45Z</time>
      </trkpt>
      <trkpt lat="60.145919615217" lon="21.601725307861">
        <ele>30.6</ele>
        <time>2017-07-26T18:54:46Z</time>
      </trkpt>
      <trkpt lat="60.145906958548" lon="21.601741652566">
        <ele>30.6</ele>
        <time>2017-07-26T18:54:47Z</time>
      </trkpt>
      <trkpt lat="60.145894134241" lon="21.601762439678">
        <ele>30.6</ele>
        <time>2017-07-26T18:54:48Z</time>
      </trkpt>
      <trkpt lat="60.145885249427" lon="21.601781131315">
        <ele>30.6</ele>
        <time>2017-07-26T18:54:49Z</time>
      </trkpt>
      <trkpt lat="60.145872760396" lon="21.601800325866">
        <ele>30.6</ele>
        <time>2017-07-26T18:54:50Z</time>
      </trkpt>
      <trkpt lat="60.145860606641" lon="21.601813485449">
        <ele>30.6</ele>
        <time>2017-07-26T18:54:51Z</time>
      </trkpt>
      <trkpt lat="60.145846273592" lon="21.601823879005">
        <ele>30.6</ele>
        <time>2017-07-26T18:54:52Z</time>
      </trkpt>
      <trkpt lat="60.145831772905" lon="21.60183268">
        <ele>30.6</ele>
        <time>2017-07-26T18:54:53Z</time>
      </trkpt>
      <trkpt lat="60.145816936942" lon="21.601840810443">
        <ele>30.6</ele>
        <time>2017-07-26T18:54:54Z</time>
      </trkpt>
      <trkpt lat="60.145799586409" lon="21.601847851239">
        <ele>30.6</ele>
        <time>2017-07-26T18:54:55Z</time>
      </trkpt>
      <trkpt lat="60.145784918084" lon="21.601854892035">
        <ele>30.6</ele>
        <time>2017-07-26T18:54:56Z</time>
      </trkpt>
      <trkpt lat="60.145770249759" lon="21.601862771021">
        <ele>30.6</ele>
        <time>2017-07-26T18:54:57Z</time>
      </trkpt>
      <trkpt lat="60.145754827063" lon="21.601873416034">
        <ele>30.6</ele>
        <time>2017-07-26T18:54:58Z</time>
      </trkpt>
      <trkpt lat="60.145741332204" lon="21.601881127382">
        <ele>30.6</ele>
        <time>2017-07-26T18:54:59Z</time>
      </trkpt>
      <trkpt lat="60.145723059662" lon="21.601889928377">
        <ele>30.6</ele>
        <time>2017-07-26T18:55:00Z</time>
      </trkpt>
      <trkpt lat="60.145704954758" lon="21.601895376612">
        <ele>30.6</ele>
        <time>2017-07-26T18:55:01Z</time>
      </trkpt>
      <trkpt lat="60.14568550875" lon="21.601903507055">
        <ele>30.6</ele>
        <time>2017-07-26T18:55:02Z</time>
      </trkpt>
      <trkpt lat="60.145663464353" lon="21.601914403525">
        <ele>30.6</ele>
        <time>2017-07-26T18:55:03Z</time>
      </trkpt>
      <trkpt lat="60.145641671413" lon="21.601923707434">
        <ele>30.6</ele>
        <time>2017-07-26T18:55:04Z</time>
      </trkpt>
      <trkpt lat="60.145618872645" lon="21.601934017171">
        <ele>30.6</ele>
        <time>2017-07-26T18:55:05Z</time>
      </trkpt>
      <trkpt lat="60.145591296194" lon="21.601943656356">
        <ele>30.6</ele>
        <time>2017-07-26T18:55:06Z</time>
      </trkpt>
      <trkpt lat="60.145564222657" lon="21.601947092935">
        <ele>30.6</ele>
        <time>2017-07-26T18:55:07Z</time>
      </trkpt>
      <trkpt lat="60.145537735853" lon="21.601947847306">
        <ele>30.6</ele>
        <time>2017-07-26T18:55:08Z</time>
      </trkpt>
      <trkpt lat="60.145511584325" lon="21.601948098763">
        <ele>30.6</ele>
        <time>2017-07-26T18:55:09Z</time>
      </trkpt>
      <trkpt lat="60.145480738933" lon="21.601950361876">
        <ele>30.6</ele>
        <time>2017-07-26T18:55:10Z</time>
      </trkpt>
      <trkpt lat="60.145452575749" lon="21.601951451523">
        <ele>30.6</ele>
        <time>2017-07-26T18:55:11Z</time>
      </trkpt>
      <trkpt lat="60.145422820004" lon="21.601951535342">
        <ele>30.6</ele>
        <time>2017-07-26T18:55:12Z</time>
      </trkpt>
      <trkpt lat="60.145391220241" lon="21.601950780971">
        <ele>30.6</ele>
        <time>2017-07-26T18:55:13Z</time>
      </trkpt>
      <trkpt lat="60.14536699655" lon="21.601948517858">
        <ele>30.6</ele>
        <time>2017-07-26T18:55:14Z</time>
      </trkpt>
      <trkpt lat="60.145328272172" lon="21.601944494546">
        <ele>30.6</ele>
        <time>2017-07-26T18:55:15Z</time>
      </trkpt>
      <trkpt lat="60.1452957504" lon="21.601941225605">
        <ele>30.6</ele>
        <time>2017-07-26T18:55:16Z</time>
      </trkpt>
      <trkpt lat="60.145262809533" lon="21.601939884501">
        <ele>30.6</ele>
        <time>2017-07-26T18:55:17Z</time>
      </trkpt>
      <trkpt lat="60.145228276105" lon="21.601934520085">
        <ele>30.6</ele>
        <time>2017-07-26T18:55:18Z</time>
      </trkpt>
      <trkpt lat="60.145197933627" lon="21.601926808737">
        <ele>30.6</ele>
        <time>2017-07-26T18:55:19Z</time>
      </trkpt>
      <trkpt lat="60.145165663312" lon="21.601921109045">
        <ele>30.6</ele>
        <time>2017-07-26T18:55:20Z</time>
      </trkpt>
      <trkpt lat="60.14513230335" lon="21.601913565335">
        <ele>30.6</ele>
        <time>2017-07-26T18:55:21Z</time>
      </trkpt>
      <trkpt lat="60.145101625596" lon="21.60190644072">
        <ele>30.6</ele>
        <time>2017-07-26T18:55:22Z</time>
      </trkpt>
      <trkpt lat="60.145074049145" lon="21.60189722063">
        <ele>30.6</ele>
        <time>2017-07-26T18:55:23Z</time>
      </trkpt>
      <trkpt lat="60.145045634504" lon="21.601888084359">
        <ele>30.6</ele>
        <time>2017-07-26T18:55:24Z</time>
      </trkpt>
      <trkpt lat="60.145010681981" lon="21.60187710407">
        <ele>30.6</ele>
        <time>2017-07-26T18:55:25Z</time>
      </trkpt>
      <trkpt lat="60.144976819105" lon="21.601870230912">
        <ele>30.6</ele>
        <time>2017-07-26T18:55:26Z</time>
      </trkpt>
      <trkpt lat="60.144940609297" lon="21.601861513736">
        <ele>30.6</ele>
        <time>2017-07-26T18:55:27Z</time>
      </trkpt>
      <trkpt lat="60.144903226023" lon="21.601852964198">
        <ele>30.6</ele>
        <time>2017-07-26T18:55:28Z</time>
      </trkpt>
      <trkpt lat="60.144870368975" lon="21.601844582298">
        <ele>30.6</ele>
        <time>2017-07-26T18:55:29Z</time>
      </trkpt>
      <trkpt lat="60.144827872742" lon="21.601829159602">
        <ele>30.6</ele>
        <time>2017-07-26T18:55:30Z</time>
      </trkpt>
      <trkpt lat="60.14479199821" lon="21.601811054698">
        <ele>30.6</ele>
        <time>2017-07-26T18:55:31Z</time>
      </trkpt>
      <trkpt lat="60.144754028203" lon="21.601793955622">
        <ele>30.6</ele>
        <time>2017-07-26T18:55:32Z</time>
      </trkpt>
      <trkpt lat="60.144717566938" lon="21.601781047496">
        <ele>30.6</ele>
        <time>2017-07-26T18:55:33Z</time>
      </trkpt>
      <trkpt lat="60.144685715718" lon="21.60176897756">
        <ele>30.6</ele>
        <time>2017-07-26T18:55:34Z</time>
      </trkpt>
      <trkpt lat="60.14465202048" lon="21.601756823805">
        <ele>30.6</ele>
        <time>2017-07-26T18:55:35Z</time>
      </trkpt>
      <trkpt lat="60.144619163432" lon="21.601741401109">
        <ele>30.6</ele>
        <time>2017-07-26T18:55:36Z</time>
      </trkpt>
      <trkpt lat="60.14458747985" lon="21.601726900422">
        <ele>30.6</ele>
        <time>2017-07-26T18:55:37Z</time>
      </trkpt>
      <trkpt lat="60.144555880087" lon="21.601711058631">
        <ele>30.6</ele>
        <time>2017-07-26T18:55:38Z</time>
      </trkpt>
      <trkpt lat="60.14452713017" lon="21.60170108417">
        <ele>30.6</ele>
        <time>2017-07-26T18:55:39Z</time>
      </trkpt>
      <trkpt lat="60.144494021665" lon="21.601689181872">
        <ele>30.6</ele>
        <time>2017-07-26T18:55:40Z</time>
      </trkpt>
      <trkpt lat="60.144463846825" lon="21.601681889619">
        <ele>30.6</ele>
        <time>2017-07-26T18:55:41Z</time>
      </trkpt>
      <trkpt lat="60.144429648673" lon="21.601669903502">
        <ele>30.6</ele>
        <time>2017-07-26T18:55:42Z</time>
      </trkpt>
      <trkpt lat="60.144397462177" lon="21.601658504118">
        <ele>30.6</ele>
        <time>2017-07-26T18:55:43Z</time>
      </trkpt>
      <trkpt lat="60.144368125527" lon="21.601649200209">
        <ele>30.6</ele>
        <time>2017-07-26T18:55:44Z</time>
      </trkpt>
      <trkpt lat="60.144336106669" lon="21.601640315395">
        <ele>30.6</ele>
        <time>2017-07-26T18:55:45Z</time>
      </trkpt>
      <trkpt lat="60.144307021476" lon="21.601631262943">
        <ele>30.6</ele>
        <time>2017-07-26T18:55:46Z</time>
      </trkpt>
      <trkpt lat="60.144278690654" lon="21.601622042853">
        <ele>30.6</ele>
        <time>2017-07-26T18:55:47Z</time>
      </trkpt>
      <trkpt lat="60.144247845262" lon="21.601610056736">
        <ele>30.6</ele>
        <time>2017-07-26T18:55:48Z</time>
      </trkpt>
      <trkpt lat="60.144220184992" lon="21.601599914637">
        <ele>30.6</ele>
        <time>2017-07-26T18:55:49Z</time>
      </trkpt>
      <trkpt lat="60.144187327944" lon="21.601591951832">
        <ele>30.6</ele>
        <time>2017-07-26T18:55:50Z</time>
      </trkpt>
      <trkpt lat="60.144155979638" lon="21.601583989027">
        <ele>30.6</ele>
        <time>2017-07-26T18:55:51Z</time>
      </trkpt>
      <trkpt lat="60.144125972436" lon="21.601573930747">
        <ele>30.6</ele>
        <time>2017-07-26T18:55:52Z</time>
      </trkpt>
      <trkpt lat="60.144094707949" lon="21.60156194463">
        <ele>30.6</ele>
        <time>2017-07-26T18:55:53Z</time>
      </trkpt>
      <trkpt lat="60.144063275824" lon="21.601548365952">
        <ele>30.6</ele>
        <time>2017-07-26T18:55:54Z</time>
      </trkpt>
      <trkpt lat="60.144027652749" lon="21.601538056215">
        <ele>30.6</ele>
        <time>2017-07-26T18:55:55Z</time>
      </trkpt>
      <trkpt lat="60.143995801529" lon="21.601527411202">
        <ele>30.6</ele>
        <time>2017-07-26T18:55:56Z</time>
      </trkpt>
      <trkpt lat="60.143963363576" lon="21.601517436741">
        <ele>30.6</ele>
        <time>2017-07-26T18:55:57Z</time>
      </trkpt>
      <trkpt lat="60.143931344718" lon="21.601504025701">
        <ele>30.6</ele>
        <time>2017-07-26T18:55:58Z</time>
      </trkpt>
      <trkpt lat="60.143903265353" lon="21.601495308525">
        <ele>30.6</ele>
        <time>2017-07-26T18:55:59Z</time>
      </trkpt>
      <trkpt lat="60.143866049717" lon="21.601481981304">
        <ele>30.6</ele>
        <time>2017-07-26T18:56:00Z</time>
      </trkpt>
      <trkpt lat="60.143832605936" lon="21.601470833377">
        <ele>30.6</ele>
        <time>2017-07-26T18:56:01Z</time>
      </trkpt>
      <trkpt lat="60.143800587078" lon="21.601457338518">
        <ele>30.6</ele>
        <time>2017-07-26T18:56:02Z</time>
      </trkpt>
      <trkpt lat="60.143768232944" lon="21.601445939134">
        <ele>30.6</ele>
        <time>2017-07-26T18:56:03Z</time>
      </trkpt>
      <trkpt lat="60.143739734484" lon="21.601438646881">
        <ele>30.6</ele>
        <time>2017-07-26T18:56:04Z</time>
      </trkpt>
      <trkpt lat="60.143707715626" lon="21.601430935533">
        <ele>30.6</ele>
        <time>2017-07-26T18:56:05Z</time>
      </trkpt>
      <trkpt lat="60.143675361492" lon="21.601421380167">
        <ele>30.6</ele>
        <time>2017-07-26T18:56:06Z</time>
      </trkpt>
      <trkpt lat="60.143644097005" lon="21.601410986611">
        <ele>30.8</ele>
        <time>2017-07-26T18:56:07Z</time>
      </trkpt>
      <trkpt lat="60.143613922165" lon="21.601397156476">
        <ele>31.2</ele>
        <time>2017-07-26T18:56:08Z</time>
      </trkpt>
      <trkpt lat="60.143586178076" lon="21.601386343825">
        <ele>31.6</ele>
        <time>2017-07-26T18:56:09Z</time>
      </trkpt>
      <trkpt lat="60.143556422331" lon="21.601374860622">
        <ele>32</ele>
        <time>2017-07-26T18:56:10Z</time>
      </trkpt>
      <trkpt lat="60.143530019346" lon="21.601363628876">
        <ele>32.4</ele>
        <time>2017-07-26T18:56:11Z</time>
      </trkpt>
      <trkpt lat="60.143503364904" lon="21.601357342451">
        <ele>32.6</ele>
        <time>2017-07-26T18:56:12Z</time>
      </trkpt>
      <trkpt lat="60.143477548652" lon="21.601342590307">
        <ele>32.6</ele>
        <time>2017-07-26T18:56:13Z</time>
      </trkpt>
      <trkpt lat="60.143451983857" lon="21.601331693837">
        <ele>32.6</ele>
        <time>2017-07-26T18:56:14Z</time>
      </trkpt>
      <trkpt lat="60.143421306103" lon="21.601322809023">
        <ele>32.6</ele>
        <time>2017-07-26T18:56:15Z</time>
      </trkpt>
      <trkpt lat="60.143391131263" lon="21.601313505114">
        <ele>32.6</ele>
        <time>2017-07-26T18:56:16Z</time>
      </trkpt>
      <trkpt lat="60.143362213708" lon="21.601304033567">
        <ele>32.6</ele>
        <time>2017-07-26T18:56:17Z</time>
      </trkpt>
      <trkpt lat="60.143330613945" lon="21.601292466545">
        <ele>32.6</ele>
        <time>2017-07-26T18:56:18Z</time>
      </trkpt>
      <trkpt lat="60.143301864028" lon="21.601280815704">
        <ele>32.6</ele>
        <time>2017-07-26T18:56:19Z</time>
      </trkpt>
      <trkpt lat="60.143268001152" lon="21.601268242854">
        <ele>32.6</ele>
        <time>2017-07-26T18:56:20Z</time>
      </trkpt>
      <trkpt lat="60.14323631757" lon="21.601257514022">
        <ele>32.6</ele>
        <time>2017-07-26T18:56:21Z</time>
      </trkpt>
      <trkpt lat="60.143201700323" lon="21.601247204285">
        <ele>32.6</ele>
        <time>2017-07-26T18:56:22Z</time>
      </trkpt>
      <trkpt lat="60.143170519655" lon="21.6012375651">
        <ele>32.6</ele>
        <time>2017-07-26T18:56:23Z</time>
      </trkpt>
      <trkpt lat="60.143138165521" lon="21.601226584811">
        <ele>32.6</ele>
        <time>2017-07-26T18:56:24Z</time>
      </trkpt>
      <trkpt lat="60.143101033704" lon="21.601212335581">
        <ele>32.6</ele>
        <time>2017-07-26T18:56:25Z</time>
      </trkpt>
      <trkpt lat="60.143065997362" lon="21.601198421627">
        <ele>32.6</ele>
        <time>2017-07-26T18:56:26Z</time>
      </trkpt>
      <trkpt lat="60.143031296296" lon="21.601186854605">
        <ele>32.6</ele>
        <time>2017-07-26T18:56:27Z</time>
      </trkpt>
      <trkpt lat="60.142996427592" lon="21.601173275927">
        <ele>32.6</ele>
        <time>2017-07-26T18:56:28Z</time>
      </trkpt>
      <trkpt lat="60.142965330743" lon="21.601162379457">
        <ele>32.6</ele>
        <time>2017-07-26T18:56:29Z</time>
      </trkpt>
      <trkpt lat="60.14292786365" lon="21.601149219874">
        <ele>32.6</ele>
        <time>2017-07-26T18:56:30Z</time>
      </trkpt>
      <trkpt lat="60.142894503688" lon="21.601139999784">
        <ele>32.6</ele>
        <time>2017-07-26T18:56:31Z</time>
      </trkpt>
      <trkpt lat="60.142859802622" lon="21.60113027678">
        <ele>32.6</ele>
        <time>2017-07-26T18:56:32Z</time>
      </trkpt>
      <trkpt lat="60.14282644266" lon="21.601122397794">
        <ele>32.6</ele>
        <time>2017-07-26T18:56:33Z</time>
      </trkpt>
      <trkpt lat="60.142796686915" lon="21.601114015894">
        <ele>32.6</ele>
        <time>2017-07-26T18:56:34Z</time>
      </trkpt>
      <trkpt lat="60.142763662229" lon="21.601101945958">
        <ele>32.6</ele>
        <time>2017-07-26T18:56:35Z</time>
      </trkpt>
      <trkpt lat="60.142730721362" lon="21.601091049488">
        <ele>32.6</ele>
        <time>2017-07-26T18:56:36Z</time>
      </trkpt>
      <trkpt lat="60.142698367228" lon="21.601079566285">
        <ele>32.6</ele>
        <time>2017-07-26T18:56:37Z</time>
      </trkpt>
      <trkpt lat="60.142665091085" lon="21.601076297344">
        <ele>32.6</ele>
        <time>2017-07-26T18:56:38Z</time>
      </trkpt>
      <trkpt lat="60.142634245693" lon="21.601064730322">
        <ele>32.6</ele>
        <time>2017-07-26T18:56:39Z</time>
      </trkpt>
      <trkpt lat="60.142597784428" lon="21.601050816368">
        <ele>32.6</ele>
        <time>2017-07-26T18:56:40Z</time>
      </trkpt>
      <trkpt lat="60.142564005371" lon="21.601040506631">
        <ele>32.6</ele>
        <time>2017-07-26T18:56:41Z</time>
      </trkpt>
      <trkpt lat="60.14253307616" lon="21.601032040912">
        <ele>32.6</ele>
        <time>2017-07-26T18:56:42Z</time>
      </trkpt>
      <trkpt lat="60.142490579927" lon="21.601023491374">
        <ele>32.6</ele>
        <time>2017-07-26T18:56:43Z</time>
      </trkpt>
      <trkpt lat="60.14245680087" lon="21.601017624044">
        <ele>32.6</ele>
        <time>2017-07-26T18:56:44Z</time>
      </trkpt>
      <trkpt lat="60.142419836691" lon="21.601011924352">
        <ele>32.6</ele>
        <time>2017-07-26T18:56:45Z</time>
      </trkpt>
      <trkpt lat="60.142389242756" lon="21.601006727574">
        <ele>32.6</ele>
        <time>2017-07-26T18:56:46Z</time>
      </trkpt>
      <trkpt lat="60.142361331029" lon="21.601001279339">
        <ele>32.6</ele>
        <time>2017-07-26T18:56:47Z</time>
      </trkpt>
      <trkpt lat="60.142331491465" lon="21.600992059249">
        <ele>32.6</ele>
        <time>2017-07-26T18:56:48Z</time>
      </trkpt>
      <trkpt lat="60.14230425029" lon="21.600984850815">
        <ele>32.6</ele>
        <time>2017-07-26T18:56:49Z</time>
      </trkpt>
      <trkpt lat="60.142271141785" lon="21.600977390924">
        <ele>32.6</ele>
        <time>2017-07-26T18:56:50Z</time>
      </trkpt>
      <trkpt lat="60.142237781823" lon="21.60097185887">
        <ele>32.6</ele>
        <time>2017-07-26T18:56:51Z</time>
      </trkpt>
      <trkpt lat="60.142203918947" lon="21.600968170834">
        <ele>32.6</ele>
        <time>2017-07-26T18:56:52Z</time>
      </trkpt>
      <trkpt lat="60.142172570641" lon="21.600963560789">
        <ele>32.6</ele>
        <time>2017-07-26T18:56:53Z</time>
      </trkpt>
      <trkpt lat="60.142144910371" lon="21.600957022907">
        <ele>32.6</ele>
        <time>2017-07-26T18:56:54Z</time>
      </trkpt>
      <trkpt lat="60.142108616744" lon="21.600947383722">
        <ele>32.6</ele>
        <time>2017-07-26T18:56:55Z</time>
      </trkpt>
      <trkpt lat="60.142076597886" lon="21.600939337098">
        <ele>32.6</ele>
        <time>2017-07-26T18:56:56Z</time>
      </trkpt>
      <trkpt lat="60.142042818829" lon="21.600932966854">
        <ele>32.6</ele>
        <time>2017-07-26T18:56:57Z</time>
      </trkpt>
      <trkpt lat="60.142007363392" lon="21.60092659661">
        <ele>32.6</ele>
        <time>2017-07-26T18:56:58Z</time>
      </trkpt>
      <trkpt lat="60.141975428353" lon="21.600921148375">
        <ele>32.6</ele>
        <time>2017-07-26T18:56:59Z</time>
      </trkpt>
      <trkpt lat="60.141934943776" lon="21.600913101751">
        <ele>32.6</ele>
        <time>2017-07-26T18:57:00Z</time>
      </trkpt>
      <trkpt lat="60.141896806131" lon="21.60090983281">
        <ele>32.6</ele>
        <time>2017-07-26T18:57:01Z</time>
      </trkpt>
      <trkpt lat="60.141858417029" lon="21.600901953824">
        <ele>32.6</ele>
        <time>2017-07-26T18:57:02Z</time>
      </trkpt>
      <trkpt lat="60.141820866117" lon="21.600893991019">
        <ele>32.6</ele>
        <time>2017-07-26T18:57:03Z</time>
      </trkpt>
      <trkpt lat="60.141784069576" lon="21.600889045698">
        <ele>32.6</ele>
        <time>2017-07-26T18:57:04Z</time>
      </trkpt>
      <trkpt lat="60.141743082085" lon="21.600884435653">
        <ele>32.6</ele>
        <time>2017-07-26T18:57:05Z</time>
      </trkpt>
      <trkpt lat="60.14170159168" lon="21.600878065409">
        <ele>32.6</ele>
        <time>2017-07-26T18:57:06Z</time>
      </trkpt>
      <trkpt lat="60.141657502886" lon="21.600873036269">
        <ele>32.6</ele>
        <time>2017-07-26T18:57:07Z</time>
      </trkpt>
      <trkpt lat="60.141613749368" lon="21.600865492559">
        <ele>32.6</ele>
        <time>2017-07-26T18:57:08Z</time>
      </trkpt>
      <trkpt lat="60.141575779361" lon="21.600859792867">
        <ele>32.6</ele>
        <time>2017-07-26T18:57:09Z</time>
      </trkpt>
      <trkpt lat="60.141530517101" lon="21.600855099003">
        <ele>32.6</ele>
        <time>2017-07-26T18:57:10Z</time>
      </trkpt>
      <trkpt lat="60.141483829918" lon="21.600852416795">
        <ele>32.4</ele>
        <time>2017-07-26T18:57:11Z</time>
      </trkpt>
      <trkpt lat="60.141436556002" lon="21.600849315492">
        <ele>32</ele>
        <time>2017-07-26T18:57:12Z</time>
      </trkpt>
      <trkpt lat="60.141391293742" lon="21.600844621628">
        <ele>31.8</ele>
        <time>2017-07-26T18:57:13Z</time>
      </trkpt>
      <trkpt lat="60.141351563536" lon="21.600839760126">
        <ele>31.6</ele>
        <time>2017-07-26T18:57:14Z</time>
      </trkpt>
      <trkpt lat="60.141306720371" lon="21.600833808977">
        <ele>31.2</ele>
        <time>2017-07-26T18:57:15Z</time>
      </trkpt>
      <trkpt lat="60.141267241622" lon="21.600829869484">
        <ele>31</ele>
        <time>2017-07-26T18:57:16Z</time>
      </trkpt>
      <trkpt lat="60.141230864176" lon="21.600825510896">
        <ele>30.6</ele>
        <time>2017-07-26T18:57:17Z</time>
      </trkpt>
      <trkpt lat="60.141190463418" lon="21.600819643566">
        <ele>30.6</ele>
        <time>2017-07-26T18:57:18Z</time>
      </trkpt>
      <trkpt lat="60.141152325773" lon="21.600814446788">
        <ele>30.6</ele>
        <time>2017-07-26T18:57:19Z</time>
      </trkpt>
      <trkpt lat="60.141109158988" lon="21.600813105684">
        <ele>30.6</ele>
        <time>2017-07-26T18:57:20Z</time>
      </trkpt>
      <trkpt lat="60.14106708185" lon="21.600812686589">
        <ele>30.6</ele>
        <time>2017-07-26T18:57:21Z</time>
      </trkpt>
      <trkpt lat="60.141025423807" lon="21.600809501467">
        <ele>30.6</ele>
        <time>2017-07-26T18:57:22Z</time>
      </trkpt>
      <trkpt lat="60.140985693601" lon="21.600805226698">
        <ele>30.6</ele>
        <time>2017-07-26T18:57:23Z</time>
      </trkpt>
      <trkpt lat="60.140946633947" lon="21.600802293033">
        <ele>30.6</ele>
        <time>2017-07-26T18:57:24Z</time>
      </trkpt>
      <trkpt lat="60.140902712791" lon="21.600804472327">
        <ele>30.6</ele>
        <time>2017-07-26T18:57:25Z</time>
      </trkpt>
      <trkpt lat="60.140864826603" lon="21.600800951929">
        <ele>30.6</ele>
        <time>2017-07-26T18:57:26Z</time>
      </trkpt>
      <trkpt lat="60.140823084741" lon="21.60079500078">
        <ele>30.6</ele>
        <time>2017-07-26T18:57:27Z</time>
      </trkpt>
      <trkpt lat="60.140783522173" lon="21.600790893649">
        <ele>30.6</ele>
        <time>2017-07-26T18:57:28Z</time>
      </trkpt>
      <trkpt lat="60.140746390356" lon="21.600789301088">
        <ele>30.6</ele>
        <time>2017-07-26T18:57:29Z</time>
      </trkpt>
      <trkpt lat="60.140700625182" lon="21.600788127622">
        <ele>30.6</ele>
        <time>2017-07-26T18:57:30Z</time>
      </trkpt>
      <trkpt lat="60.140658296587" lon="21.600785445414">
        <ele>30.6</ele>
        <time>2017-07-26T18:57:31Z</time>
      </trkpt>
      <trkpt lat="60.140617979648" lon="21.600781757378">
        <ele>30.2</ele>
        <time>2017-07-26T18:57:32Z</time>
      </trkpt>
      <trkpt lat="60.140578584718" lon="21.600777734066">
        <ele>29.8</ele>
        <time>2017-07-26T18:57:33Z</time>
      </trkpt>
      <trkpt lat="60.140542794005" lon="21.600776057686">
        <ele>29.6</ele>
        <time>2017-07-26T18:57:34Z</time>
      </trkpt>
      <trkpt lat="60.140499459582" lon="21.600774129849">
        <ele>29.2</ele>
        <time>2017-07-26T18:57:35Z</time>
      </trkpt>
      <trkpt lat="60.140457885358" lon="21.600770609451">
        <ele>28.8</ele>
        <time>2017-07-26T18:57:36Z</time>
      </trkpt>
      <trkpt lat="60.140417568419" lon="21.600765831768">
        <ele>28.6</ele>
        <time>2017-07-26T18:57:37Z</time>
      </trkpt>
      <trkpt lat="60.140375072186" lon="21.600762562827">
        <ele>28.6</ele>
        <time>2017-07-26T18:57:38Z</time>
      </trkpt>
      <trkpt lat="60.14033618017" lon="21.600759964438">
        <ele>28.6</ele>
        <time>2017-07-26T18:57:39Z</time>
      </trkpt>
      <trkpt lat="60.14029007972" lon="21.600755102936">
        <ele>28.6</ele>
        <time>2017-07-26T18:57:40Z</time>
      </trkpt>
      <trkpt lat="60.140248421677" lon="21.6007514149">
        <ele>28.6</ele>
        <time>2017-07-26T18:57:41Z</time>
      </trkpt>
      <trkpt lat="60.140208607652" lon="21.600748145959">
        <ele>28.6</ele>
        <time>2017-07-26T18:57:42Z</time>
      </trkpt>
      <trkpt lat="60.140164937953" lon="21.600742697724">
        <ele>28.6</ele>
        <time>2017-07-26T18:57:43Z</time>
      </trkpt>
      <trkpt lat="60.140126213575" lon="21.600739261145">
        <ele>28.6</ele>
        <time>2017-07-26T18:57:44Z</time>
      </trkpt>
      <trkpt lat="60.140083465885" lon="21.600732890901">
        <ele>28.6</ele>
        <time>2017-07-26T18:57:45Z</time>
      </trkpt>
      <trkpt lat="60.14004365186" lon="21.600726520657">
        <ele>28.6</ele>
        <time>2017-07-26T18:57:46Z</time>
      </trkpt>
      <trkpt lat="60.140005430396" lon="21.600716294739">
        <ele>28.6</ele>
        <time>2017-07-26T18:57:47Z</time>
      </trkpt>
      <trkpt lat="60.139963520896" lon="21.600703470432">
        <ele>28.6</ele>
        <time>2017-07-26T18:57:48Z</time>
      </trkpt>
      <trkpt lat="60.139921695215" lon="21.60069106522">
        <ele>28.6</ele>
        <time>2017-07-26T18:57:49Z</time>
      </trkpt>
      <trkpt lat="60.13987433748" lon="21.600671032479">
        <ele>28.6</ele>
        <time>2017-07-26T18:57:50Z</time>
      </trkpt>
      <trkpt lat="60.1398307516" lon="21.6006508321">
        <ele>28.4</ele>
        <time>2017-07-26T18:57:51Z</time>
      </trkpt>
      <trkpt lat="60.139787752453" lon="21.600627614237">
        <ele>28</ele>
        <time>2017-07-26T18:57:52Z</time>
      </trkpt>
      <trkpt lat="60.139747184057" lon="21.600602468537">
        <ele>27.6</ele>
        <time>2017-07-26T18:57:53Z</time>
      </trkpt>
      <trkpt lat="60.139705526014" lon="21.600577741932">
        <ele>27.2</ele>
        <time>2017-07-26T18:57:54Z</time>
      </trkpt>
      <trkpt lat="60.139659257926" lon="21.600548070006">
        <ele>26.8</ele>
        <time>2017-07-26T18:57:55Z</time>
      </trkpt>
      <trkpt lat="60.139619443901" lon="21.600516134967">
        <ele>26.4</ele>
        <time>2017-07-26T18:57:56Z</time>
      </trkpt>
      <trkpt lat="60.139579126962" lon="21.600481685358">
        <ele>26.4</ele>
        <time>2017-07-26T18:57:57Z</time>
      </trkpt>
      <trkpt lat="60.139542498059" lon="21.600441955152">
        <ele>26.4</ele>
        <time>2017-07-26T18:57:58Z</time>
      </trkpt>
      <trkpt lat="60.139510646839" lon="21.600405661525">
        <ele>26.4</ele>
        <time>2017-07-26T18:57:59Z</time>
      </trkpt>
      <trkpt lat="60.139475861954" lon="21.600361405093">
        <ele>26.4</ele>
        <time>2017-07-26T18:58:00Z</time>
      </trkpt>
      <trkpt lat="60.139443004906" lon="21.600324273276">
        <ele>26.4</ele>
        <time>2017-07-26T18:58:01Z</time>
      </trkpt>
      <trkpt lat="60.139412243333" lon="21.600289236934">
        <ele>26.4</ele>
        <time>2017-07-26T18:58:02Z</time>
      </trkpt>
      <trkpt lat="60.139384583063" lon="21.600253110945">
        <ele>26.4</ele>
        <time>2017-07-26T18:58:03Z</time>
      </trkpt>
      <trkpt lat="60.139357006612" lon="21.600219415707">
        <ele>26.4</ele>
        <time>2017-07-26T18:58:04Z</time>
      </trkpt>
      <trkpt lat="60.139328927247" lon="21.600182032433">
        <ele>26.4</ele>
        <time>2017-07-26T18:58:05Z</time>
      </trkpt>
      <trkpt lat="60.139298752407" lon="21.600140122933">
        <ele>26.4</ele>
        <time>2017-07-26T18:58:06Z</time>
      </trkpt>
      <trkpt lat="60.13927167887" lon="21.600098632528">
        <ele>26.4</ele>
        <time>2017-07-26T18:58:07Z</time>
      </trkpt>
      <trkpt lat="60.1392440186" lon="21.600059405236">
        <ele>26.4</ele>
        <time>2017-07-26T18:58:08Z</time>
      </trkpt>
      <trkpt lat="60.139218286167" lon="21.600022608695">
        <ele>26.4</ele>
        <time>2017-07-26T18:58:09Z</time>
      </trkpt>
      <trkpt lat="60.139190458259" lon="21.599980196281">
        <ele>26.4</ele>
        <time>2017-07-26T18:58:10Z</time>
      </trkpt>
      <trkpt lat="60.139164642007" lon="21.59993920879">
        <ele>26.4</ele>
        <time>2017-07-26T18:58:11Z</time>
      </trkpt>
      <trkpt lat="60.13913756847" lon="21.599894365625">
        <ele>26.4</ele>
        <time>2017-07-26T18:58:12Z</time>
      </trkpt>
      <trkpt lat="60.139111752218" lon="21.599848348994">
        <ele>26.4</ele>
        <time>2017-07-26T18:58:13Z</time>
      </trkpt>
      <trkpt lat="60.139083505215" lon="21.599799650155">
        <ele>26.4</ele>
        <time>2017-07-26T18:58:14Z</time>
      </trkpt>
      <trkpt lat="60.13905374947" lon="21.59974642509">
        <ele>26.4</ele>
        <time>2017-07-26T18:58:15Z</time>
      </trkpt>
      <trkpt lat="60.139026173019" lon="21.599691356007">
        <ele>26.4</ele>
        <time>2017-07-26T18:58:16Z</time>
      </trkpt>
      <trkpt lat="60.138998512749" lon="21.599633604716">
        <ele>26.4</ele>
        <time>2017-07-26T18:58:17Z</time>
      </trkpt>
      <trkpt lat="60.138971271574" lon="21.599571997751">
        <ele>26.2</ele>
        <time>2017-07-26T18:58:18Z</time>
      </trkpt>
      <trkpt lat="60.138946628788" lon="21.599511648071">
        <ele>25.8</ele>
        <time>2017-07-26T18:58:19Z</time>
      </trkpt>
      <trkpt lat="60.138919555251" lon="21.599442329758">
        <ele>25.4</ele>
        <time>2017-07-26T18:58:20Z</time>
      </trkpt>
      <trkpt lat="60.138895247741" lon="21.599379968422">
        <ele>25</ele>
        <time>2017-07-26T18:58:21Z</time>
      </trkpt>
      <trkpt lat="60.138869431489" lon="21.599309811919">
        <ele>24.6</ele>
        <time>2017-07-26T18:58:22Z</time>
      </trkpt>
      <trkpt lat="60.138845962169" lon="21.599240745063">
        <ele>24.4</ele>
        <time>2017-07-26T18:58:23Z</time>
      </trkpt>
      <trkpt lat="60.138822911944" lon="21.599172935492">
        <ele>24.4</ele>
        <time>2017-07-26T18:58:24Z</time>
      </trkpt>
      <trkpt lat="60.138796341321" lon="21.599088110664">
        <ele>24.4</ele>
        <time>2017-07-26T18:58:25Z</time>
      </trkpt>
      <trkpt lat="60.138772620544" lon="21.599008482614">
        <ele>24.4</ele>
        <time>2017-07-26T18:58:26Z</time>
      </trkpt>
      <trkpt lat="60.138750492328" lon="21.598920640302">
        <ele>24.4</ele>
        <time>2017-07-26T18:58:27Z</time>
      </trkpt>
      <trkpt lat="60.138728699388" lon="21.598832127438">
        <ele>24.4</ele>
        <time>2017-07-26T18:58:28Z</time>
      </trkpt>
      <trkpt lat="60.138709672475" lon="21.598753337578">
        <ele>24.2</ele>
        <time>2017-07-26T18:58:29Z</time>
      </trkpt>
      <trkpt lat="60.138688466268" lon="21.598660717583">
        <ele>24</ele>
        <time>2017-07-26T18:58:30Z</time>
      </trkpt>
      <trkpt lat="60.138668349708" lon="21.598579832248">
        <ele>23.6</ele>
        <time>2017-07-26T18:58:31Z</time>
      </trkpt>
      <trkpt lat="60.138650160985" lon="21.598502718768">
        <ele>23.2</ele>
        <time>2017-07-26T18:58:32Z</time>
      </trkpt>
      <trkpt lat="60.138633564823" lon="21.598426443478">
        <ele>23</ele>
        <time>2017-07-26T18:58:33Z</time>
      </trkpt>
      <trkpt lat="60.138618393584" lon="21.598358466269">
        <ele>22.8</ele>
        <time>2017-07-26T18:58:34Z</time>
      </trkpt>
      <trkpt lat="60.138602635612" lon="21.598282610074">
        <ele>22.4</ele>
        <time>2017-07-26T18:58:35Z</time>
      </trkpt>
      <trkpt lat="60.138587883468" lon="21.598210106639">
        <ele>22.2</ele>
        <time>2017-07-26T18:58:36Z</time>
      </trkpt>
      <trkpt lat="60.138572041677" lon="21.598136681195">
        <ele>22.2</ele>
        <time>2017-07-26T18:58:37Z</time>
      </trkpt>
      <trkpt lat="60.138557792447" lon="21.598069039262">
        <ele>22.2</ele>
        <time>2017-07-26T18:58:38Z</time>
      </trkpt>
      <trkpt lat="60.138544800502" lon="21.598008270487">
        <ele>22.2</ele>
        <time>2017-07-26T18:58:39Z</time>
      </trkpt>
      <trkpt lat="60.138530802729" lon="21.597938868355">
        <ele>22.2</ele>
        <time>2017-07-26T18:58:40Z</time>
      </trkpt>
      <trkpt lat="60.138518062241" lon="21.597882877263">
        <ele>22.2</ele>
        <time>2017-07-26T18:58:41Z</time>
      </trkpt>
      <trkpt lat="60.138507920142" lon="21.597836525356">
        <ele>22.2</ele>
        <time>2017-07-26T18:58:42Z</time>
      </trkpt>
      <trkpt lat="60.138501801355" lon="21.597803249213">
        <ele>22.2</ele>
        <time>2017-07-26T18:58:43Z</time>
      </trkpt>
      <trkpt lat="60.138498113319" lon="21.597777768237">
        <ele>22.2</ele>
        <time>2017-07-26T18:58:44Z</time>
      </trkpt>
      <trkpt lat="60.138488725591" lon="21.597746839026">
        <ele>21.6</ele>
        <time>2017-07-26T18:58:45Z</time>
      </trkpt>
      <trkpt lat="60.138478164397" lon="21.597714149616">
        <ele>21.2</ele>
        <time>2017-07-26T18:58:46Z</time>
      </trkpt>
      <trkpt lat="60.138469279583" lon="21.597677939808">
        <ele>20.8</ele>
        <time>2017-07-26T18:58:47Z</time>
      </trkpt>
      <trkpt lat="60.138461568235" lon="21.597635946489">
        <ele>20.4</ele>
        <time>2017-07-26T18:58:48Z</time>
      </trkpt>
      <trkpt lat="60.138451845231" lon="21.597596048645">
        <ele>20.2</ele>
        <time>2017-07-26T18:58:49Z</time>
      </trkpt>
      <trkpt lat="60.138439188562" lon="21.597553133317">
        <ele>20.2</ele>
        <time>2017-07-26T18:58:50Z</time>
      </trkpt>
      <trkpt lat="60.138425358427" lon="21.597513570749">
        <ele>20.2</ele>
        <time>2017-07-26T18:58:51Z</time>
      </trkpt>
      <trkpt lat="60.138409935731" lon="21.59747660657">
        <ele>20.2</ele>
        <time>2017-07-26T18:58:52Z</time>
      </trkpt>
      <trkpt lat="60.138402643478" lon="21.59744978449">
        <ele>20.2</ele>
        <time>2017-07-26T18:58:53Z</time>
      </trkpt>
      <trkpt lat="60.138386047316" lon="21.59740536042">
        <ele>20.2</ele>
        <time>2017-07-26T18:58:54Z</time>
      </trkpt>
      <trkpt lat="60.138372636276" lon="21.597359511427">
        <ele>20.2</ele>
        <time>2017-07-26T18:58:55Z</time>
      </trkpt>
      <trkpt lat="60.138361153073" lon="21.59731902685">
        <ele>20.2</ele>
        <time>2017-07-26T18:58:56Z</time>
      </trkpt>
      <trkpt lat="60.138352268259" lon="21.597277536445">
        <ele>20.2</ele>
        <time>2017-07-26T18:58:57Z</time>
      </trkpt>
      <trkpt lat="60.138335755916" lon="21.597240907542">
        <ele>20.2</ele>
        <time>2017-07-26T18:58:58Z</time>
      </trkpt>
      <trkpt lat="60.138315723175" lon="21.597212241444">
        <ele>20.2</ele>
        <time>2017-07-26T18:58:59Z</time>
      </trkpt>
      <trkpt lat="60.138292505312" lon="21.597172930333">
        <ele>20.2</ele>
        <time>2017-07-26T18:59:00Z</time>
      </trkpt>
      <trkpt lat="60.138273981313" lon="21.597139067457">
        <ele>20.2</ele>
        <time>2017-07-26T18:59:01Z</time>
      </trkpt>
      <trkpt lat="60.138252523649" lon="21.597110233721">
        <ele>20.2</ele>
        <time>2017-07-26T18:59:02Z</time>
      </trkpt>
      <trkpt lat="60.138231652718" lon="21.597080226519">
        <ele>20.2</ele>
        <time>2017-07-26T18:59:03Z</time>
      </trkpt>
      <trkpt lat="60.138209021588" lon="21.597049297308">
        <ele>20.2</ele>
        <time>2017-07-26T18:59:04Z</time>
      </trkpt>
      <trkpt lat="60.138182283327" lon="21.597013255138">
        <ele>20.2</ele>
        <time>2017-07-26T18:59:05Z</time>
      </trkpt>
      <trkpt lat="60.138152108487" lon="21.596974195484">
        <ele>20.2</ele>
        <time>2017-07-26T18:59:06Z</time>
      </trkpt>
      <trkpt lat="60.138126376054" lon="21.596932453622">
        <ele>20.2</ele>
        <time>2017-07-26T18:59:07Z</time>
      </trkpt>
      <trkpt lat="60.138096201214" lon="21.596880569661">
        <ele>20.2</ele>
        <time>2017-07-26T18:59:08Z</time>
      </trkpt>
      <trkpt lat="60.138069211496" lon="21.596836145591">
        <ele>20.2</ele>
        <time>2017-07-26T18:59:09Z</time>
      </trkpt>
      <trkpt lat="60.13803367224" lon="21.596785770372">
        <ele>20.2</ele>
        <time>2017-07-26T18:59:10Z</time>
      </trkpt>
      <trkpt lat="60.138004251771" lon="21.596734054049">
        <ele>20.2</ele>
        <time>2017-07-26T18:59:11Z</time>
      </trkpt>
      <trkpt lat="60.137976172406" lon="21.596682421545">
        <ele>20.2</ele>
        <time>2017-07-26T18:59:12Z</time>
      </trkpt>
      <trkpt lat="60.13794566229" lon="21.59663254924">
        <ele>20.2</ele>
        <time>2017-07-26T18:59:13Z</time>
      </trkpt>
      <trkpt lat="60.137915822726" lon="21.596592232301">
        <ele>20.2</ele>
        <time>2017-07-26T18:59:14Z</time>
      </trkpt>
      <trkpt lat="60.137883217135" lon="21.596550238982">
        <ele>20.2</ele>
        <time>2017-07-26T18:59:15Z</time>
      </trkpt>
      <trkpt lat="60.137850443906" lon="21.596500785772">
        <ele>20.2</ele>
        <time>2017-07-26T18:59:16Z</time>
      </trkpt>
      <trkpt lat="60.13782328655" lon="21.596459798281">
        <ele>20.2</ele>
        <time>2017-07-26T18:59:17Z</time>
      </trkpt>
      <trkpt lat="60.137795039547" lon="21.596422750283">
        <ele>20.2</ele>
        <time>2017-07-26T18:59:18Z</time>
      </trkpt>
      <trkpt lat="60.137769893847" lon="21.596390899063">
        <ele>20.2</ele>
        <time>2017-07-26T18:59:19Z</time>
      </trkpt>
      <trkpt lat="60.137743323224" lon="21.596348738106">
        <ele>20.2</ele>
        <time>2017-07-26T18:59:20Z</time>
      </trkpt>
      <trkpt lat="60.137719602447" lon="21.596310349004">
        <ele>20.2</ele>
        <time>2017-07-26T18:59:21Z</time>
      </trkpt>
      <trkpt lat="60.137698563878" lon="21.596270870255">
        <ele>20.2</ele>
        <time>2017-07-26T18:59:22Z</time>
      </trkpt>
      <trkpt lat="60.137679620784" lon="21.596233319343">
        <ele>20.2</ele>
        <time>2017-07-26T18:59:23Z</time>
      </trkpt>
      <trkpt lat="60.137660342414" lon="21.596199037372">
        <ele>20.2</ele>
        <time>2017-07-26T18:59:24Z</time>
      </trkpt>
      <trkpt lat="60.137639387664" lon="21.596156876415">
        <ele>20.2</ele>
        <time>2017-07-26T18:59:25Z</time>
      </trkpt>
      <trkpt lat="60.137622707683" lon="21.596115553648">
        <ele>20.2</ele>
        <time>2017-07-26T18:59:26Z</time>
      </trkpt>
      <trkpt lat="60.137604016046" lon="21.596077248365">
        <ele>20.2</ele>
        <time>2017-07-26T18:59:27Z</time>
      </trkpt>
      <trkpt lat="60.137584905314" lon="21.596038188711">
        <ele>20.2</ele>
        <time>2017-07-26T18:59:28Z</time>
      </trkpt>
      <trkpt lat="60.137568812066" lon="21.596002146541">
        <ele>20.2</ele>
        <time>2017-07-26T18:59:29Z</time>
      </trkpt>
      <trkpt lat="60.137549282239" lon="21.595957051919">
        <ele>20.2</ele>
        <time>2017-07-26T18:59:30Z</time>
      </trkpt>
      <trkpt lat="60.137532602258" lon="21.595915477695">
        <ele>20.2</ele>
        <time>2017-07-26T18:59:31Z</time>
      </trkpt>
      <trkpt lat="60.137512569517" lon="21.595868790512">
        <ele>20.2</ele>
        <time>2017-07-26T18:59:32Z</time>
      </trkpt>
      <trkpt lat="60.137496643907" lon="21.595823276795">
        <ele>20.2</ele>
        <time>2017-07-26T18:59:33Z</time>
      </trkpt>
      <trkpt lat="60.137480550659" lon="21.595782876037">
        <ele>20.2</ele>
        <time>2017-07-26T18:59:34Z</time>
      </trkpt>
      <trkpt lat="60.137463200126" lon="21.595736607949">
        <ele>20.2</ele>
        <time>2017-07-26T18:59:35Z</time>
      </trkpt>
      <trkpt lat="60.137447023059" lon="21.595688328205">
        <ele>20.2</ele>
        <time>2017-07-26T18:59:36Z</time>
      </trkpt>
      <trkpt lat="60.137431432725" lon="21.595644155592">
        <ele>20.2</ele>
        <time>2017-07-26T18:59:37Z</time>
      </trkpt>
      <trkpt lat="60.137418859875" lon="21.595603838653">
        <ele>20.2</ele>
        <time>2017-07-26T18:59:38Z</time>
      </trkpt>
      <trkpt lat="60.137407711948" lon="21.595571065424">
        <ele>20.2</ele>
        <time>2017-07-26T18:59:39Z</time>
      </trkpt>
      <trkpt lat="60.137396228745" lon="21.595536699634">
        <ele>20.2</ele>
        <time>2017-07-26T18:59:40Z</time>
      </trkpt>
      <trkpt lat="60.137385835189" lon="21.595506357156">
        <ele>20.2</ele>
        <time>2017-07-26T18:59:41Z</time>
      </trkpt>
      <trkpt lat="60.137376698918" lon="21.595474003022">
        <ele>20.2</ele>
        <time>2017-07-26T18:59:42Z</time>
      </trkpt>
      <trkpt lat="60.137367227371" lon="21.595441397431">
        <ele>20.2</ele>
        <time>2017-07-26T18:59:43Z</time>
      </trkpt>
      <trkpt lat="60.137357839643" lon="21.595411390229">
        <ele>20.2</ele>
        <time>2017-07-26T18:59:44Z</time>
      </trkpt>
      <trkpt lat="60.137347362268" lon="21.595375767154">
        <ele>20.2</ele>
        <time>2017-07-26T18:59:45Z</time>
      </trkpt>
      <trkpt lat="60.137338896549" lon="21.595339641165">
        <ele>20.2</ele>
        <time>2017-07-26T18:59:46Z</time>
      </trkpt>
      <trkpt lat="60.137329341183" lon="21.595305275375">
        <ele>20.2</ele>
        <time>2017-07-26T18:59:47Z</time>
      </trkpt>
      <trkpt lat="60.137317187428" lon="21.595266467178">
        <ele>20.2</ele>
        <time>2017-07-26T18:59:48Z</time>
      </trkpt>
      <trkpt lat="60.137304530759" lon="21.595225814963">
        <ele>20.2</ele>
        <time>2017-07-26T18:59:49Z</time>
      </trkpt>
      <trkpt lat="60.137288437511" lon="21.595178457228">
        <ele>20.2</ele>
        <time>2017-07-26T18:59:50Z</time>
      </trkpt>
      <trkpt lat="60.137273517729" lon="21.595129339294">
        <ele>20.2</ele>
        <time>2017-07-26T18:59:51Z</time>
      </trkpt>
      <trkpt lat="60.137259017042" lon="21.595078042066">
        <ele>20.2</ele>
        <time>2017-07-26T18:59:52Z</time>
      </trkpt>
      <trkpt lat="60.137245438364" lon="21.595030935788">
        <ele>20.2</ele>
        <time>2017-07-26T18:59:53Z</time>
      </trkpt>
      <trkpt lat="60.13723152441" lon="21.594985673528">
        <ele>20.2</ele>
        <time>2017-07-26T18:59:54Z</time>
      </trkpt>
      <trkpt lat="60.137214928248" lon="21.594935633585">
        <ele>20.2</ele>
        <time>2017-07-26T18:59:55Z</time>
      </trkpt>
      <trkpt lat="60.137199924647" lon="21.59488995223">
        <ele>20.2</ele>
        <time>2017-07-26T18:59:56Z</time>
      </trkpt>
      <trkpt lat="60.137186429788" lon="21.594846533988">
        <ele>20.2</ele>
        <time>2017-07-26T18:59:57Z</time>
      </trkpt>
      <trkpt lat="60.137174443671" lon="21.594804624488">
        <ele>20.2</ele>
        <time>2017-07-26T18:59:58Z</time>
      </trkpt>
      <trkpt lat="60.137162709011" lon="21.594762798807">
        <ele>20.2</ele>
        <time>2017-07-26T18:59:59Z</time>
      </trkpt>
      <trkpt lat="60.137146699582" lon="21.594712926502">
        <ele>20.2</ele>
        <time>2017-07-26T19:00:00Z</time>
      </trkpt>
      <trkpt lat="60.13713094161" lon="21.594669675898">
        <ele>20.2</ele>
        <time>2017-07-26T19:00:01Z</time>
      </trkpt>
      <trkpt lat="60.137116189466" lon="21.594629610416">
        <ele>20.2</ele>
        <time>2017-07-26T19:00:02Z</time>
      </trkpt>
      <trkpt lat="60.137101940236" lon="21.594589712572">
        <ele>20.2</ele>
        <time>2017-07-26T19:00:03Z</time>
      </trkpt>
      <trkpt lat="60.137088445377" lon="21.594558196628">
        <ele>20.2</ele>
        <time>2017-07-26T19:00:04Z</time>
      </trkpt>
      <trkpt lat="60.137074363785" lon="21.594528105607">
        <ele>20.2</ele>
        <time>2017-07-26T19:00:05Z</time>
      </trkpt>
      <trkpt lat="60.137060868926" lon="21.594495416197">
        <ele>20.2</ele>
        <time>2017-07-26T19:00:06Z</time>
      </trkpt>
      <trkpt lat="60.137044356583" lon="21.594461134226">
        <ele>20.2</ele>
        <time>2017-07-26T19:00:07Z</time>
      </trkpt>
      <trkpt lat="60.137023485652" lon="21.594433054861">
        <ele>20.2</ele>
        <time>2017-07-26T19:00:08Z</time>
      </trkpt>
      <trkpt lat="60.137007643861" lon="21.594402544745">
        <ele>20.2</ele>
        <time>2017-07-26T19:00:09Z</time>
      </trkpt>
      <trkpt lat="60.136994149002" lon="21.594360467607">
        <ele>20.2</ele>
        <time>2017-07-26T19:00:10Z</time>
      </trkpt>
      <trkpt lat="60.136975960279" lon="21.59432417398">
        <ele>20.2</ele>
        <time>2017-07-26T19:00:11Z</time>
      </trkpt>
      <trkpt lat="60.136959867031" lon="21.594283270308">
        <ele>20.2</ele>
        <time>2017-07-26T19:00:12Z</time>
      </trkpt>
      <trkpt lat="60.136941929765" lon="21.594247311957">
        <ele>20.2</ele>
        <time>2017-07-26T19:00:13Z</time>
      </trkpt>
      <trkpt lat="60.136925333603" lon="21.594212359434">
        <ele>20.2</ele>
        <time>2017-07-26T19:00:14Z</time>
      </trkpt>
      <trkpt lat="60.136904797948" lon="21.594173048323">
        <ele>20.4</ele>
        <time>2017-07-26T19:00:15Z</time>
      </trkpt>
      <trkpt lat="60.136885100483" lon="21.59413893399">
        <ele>20.6</ele>
        <time>2017-07-26T19:00:16Z</time>
      </trkpt>
      <trkpt lat="60.136864732466" lon="21.594105825485">
        <ele>21</ele>
        <time>2017-07-26T19:00:17Z</time>
      </trkpt>
      <trkpt lat="60.136847214295" lon="21.594072633161">
        <ele>21.2</ele>
        <time>2017-07-26T19:00:18Z</time>
      </trkpt>
      <trkpt lat="60.136831037228" lon="21.59404086576">
        <ele>21.6</ele>
        <time>2017-07-26T19:00:19Z</time>
      </trkpt>
      <trkpt lat="60.136810166297" lon="21.594009936549">
        <ele>21.8</ele>
        <time>2017-07-26T19:00:20Z</time>
      </trkpt>
      <trkpt lat="60.136790804108" lon="21.593979594071">
        <ele>22.2</ele>
        <time>2017-07-26T19:00:21Z</time>
      </trkpt>
      <trkpt lat="60.136770184634" lon="21.593951011792">
        <ele>22.2</ele>
        <time>2017-07-26T19:00:22Z</time>
      </trkpt>
      <trkpt lat="60.136751073902" lon="21.593919076753">
        <ele>22.2</ele>
        <time>2017-07-26T19:00:23Z</time>
      </trkpt>
      <trkpt lat="60.136733555731" lon="21.593892757587">
        <ele>22.2</ele>
        <time>2017-07-26T19:00:24Z</time>
      </trkpt>
      <trkpt lat="60.136711762791" lon="21.593867025154">
        <ele>22.2</ele>
        <time>2017-07-26T19:00:25Z</time>
      </trkpt>
      <trkpt lat="60.136693322611" lon="21.593843639653">
        <ele>22.2</ele>
        <time>2017-07-26T19:00:26Z</time>
      </trkpt>
      <trkpt lat="60.136672786956" lon="21.593817739582">
        <ele>22.2</ele>
        <time>2017-07-26T19:00:27Z</time>
      </trkpt>
      <trkpt lat="60.136653089491" lon="21.593790163131">
        <ele>22.2</ele>
        <time>2017-07-26T19:00:28Z</time>
      </trkpt>
      <trkpt lat="60.136637080062" lon="21.593765855621">
        <ele>22.2</ele>
        <time>2017-07-26T19:00:29Z</time>
      </trkpt>
      <trkpt lat="60.13661713114" lon="21.59373911736">
        <ele>22.2</ele>
        <time>2017-07-26T19:00:30Z</time>
      </trkpt>
      <trkpt lat="60.136597266037" lon="21.593719336076">
        <ele>22.2</ele>
        <time>2017-07-26T19:00:31Z</time>
      </trkpt>
      <trkpt lat="60.136580669875" lon="21.593695950575">
        <ele>22.2</ele>
        <time>2017-07-26T19:00:32Z</time>
      </trkpt>
      <trkpt lat="60.136566420645" lon="21.593675582558">
        <ele>22.2</ele>
        <time>2017-07-26T19:00:33Z</time>
      </trkpt>
      <trkpt lat="60.136553093424" lon="21.593660076043">
        <ele>22.2</ele>
        <time>2017-07-26T19:00:34Z</time>
      </trkpt>
      <trkpt lat="60.136532893045" lon="21.593639791845">
        <ele>22.2</ele>
        <time>2017-07-26T19:00:35Z</time>
      </trkpt>
      <trkpt lat="60.136512525028" lon="21.593623028045">
        <ele>22.2</ele>
        <time>2017-07-26T19:00:36Z</time>
      </trkpt>
      <trkpt lat="60.136492659925" lon="21.593601318924">
        <ele>22.2</ele>
        <time>2017-07-26T19:00:37Z</time>
      </trkpt>
      <trkpt lat="60.136471118442" lon="21.593575083577">
        <ele>22.2</ele>
        <time>2017-07-26T19:00:38Z</time>
      </trkpt>
      <trkpt lat="60.136450834244" lon="21.593557397768">
        <ele>22.2</ele>
        <time>2017-07-26T19:00:39Z</time>
      </trkpt>
      <trkpt lat="60.136425101811" lon="21.593534263724">
        <ele>22.2</ele>
        <time>2017-07-26T19:00:40Z</time>
      </trkpt>
      <trkpt lat="60.136402051586" lon="21.593514650078">
        <ele>22.2</ele>
        <time>2017-07-26T19:00:41Z</time>
      </trkpt>
      <trkpt lat="60.136381683569" lon="21.593492354224">
        <ele>22.2</ele>
        <time>2017-07-26T19:00:42Z</time>
      </trkpt>
      <trkpt lat="60.136358298068" lon="21.593467376162">
        <ele>22.2</ele>
        <time>2017-07-26T19:00:43Z</time>
      </trkpt>
      <trkpt lat="60.136338265327" lon="21.593452875475">
        <ele>22.2</ele>
        <time>2017-07-26T19:00:44Z</time>
      </trkpt>
      <trkpt lat="60.136317226758" lon="21.593436866046">
        <ele>22.4</ele>
        <time>2017-07-26T19:00:45Z</time>
      </trkpt>
      <trkpt lat="60.136299708587" lon="21.59342228154">
        <ele>22.6</ele>
        <time>2017-07-26T19:00:46Z</time>
      </trkpt>
      <trkpt lat="60.136281687502" lon="21.593405433921">
        <ele>23</ele>
        <time>2017-07-26T19:00:47Z</time>
      </trkpt>
      <trkpt lat="60.13626341496" lon="21.593387412836">
        <ele>23.4</ele>
        <time>2017-07-26T19:00:48Z</time>
      </trkpt>
      <trkpt lat="60.136245477694" lon="21.59337115195">
        <ele>23.8</ele>
        <time>2017-07-26T19:00:49Z</time>
      </trkpt>
      <trkpt lat="60.136221337822" lon="21.593352208856">
        <ele>24.2</ele>
        <time>2017-07-26T19:00:50Z</time>
      </trkpt>
      <trkpt lat="60.13619468338" lon="21.59332672788">
        <ele>24.2</ele>
        <time>2017-07-26T19:00:51Z</time>
      </trkpt>
      <trkpt lat="60.136166939291" lon="21.59329906761">
        <ele>24.2</ele>
        <time>2017-07-26T19:00:52Z</time>
      </trkpt>
      <trkpt lat="60.136136764451" lon="21.593270820607">
        <ele>24.2</ele>
        <time>2017-07-26T19:00:53Z</time>
      </trkpt>
      <trkpt lat="60.136105164688" lon="21.593245507269">
        <ele>24.2</ele>
        <time>2017-07-26T19:00:54Z</time>
      </trkpt>
      <trkpt lat="60.136068451966" lon="21.593215416248">
        <ele>24.2</ele>
        <time>2017-07-26T19:00:55Z</time>
      </trkpt>
      <trkpt lat="60.136034840547" lon="21.593188091254">
        <ele>24.2</ele>
        <time>2017-07-26T19:00:56Z</time>
      </trkpt>
      <trkpt lat="60.136000977671" lon="21.593161101536">
        <ele>24.2</ele>
        <time>2017-07-26T19:00:57Z</time>
      </trkpt>
      <trkpt lat="60.135966863338" lon="21.593138889501">
        <ele>24.2</ele>
        <time>2017-07-26T19:00:58Z</time>
      </trkpt>
      <trkpt lat="60.135935598851" lon="21.593117264199">
        <ele>24.2</ele>
        <time>2017-07-26T19:00:59Z</time>
      </trkpt>
      <trkpt lat="60.135896539197" lon="21.593089017196">
        <ele>24.2</ele>
        <time>2017-07-26T19:01:00Z</time>
      </trkpt>
      <trkpt lat="60.135859658837" lon="21.593066637523">
        <ele>24.2</ele>
        <time>2017-07-26T19:01:01Z</time>
      </trkpt>
      <trkpt lat="60.135824119581" lon="21.593045012221">
        <ele>24.2</ele>
        <time>2017-07-26T19:01:02Z</time>
      </trkpt>
      <trkpt lat="60.135789250877" lon="21.59302665586">
        <ele>24.2</ele>
        <time>2017-07-26T19:01:03Z</time>
      </trkpt>
      <trkpt lat="60.135758321666" lon="21.593011903716">
        <ele>24.2</ele>
        <time>2017-07-26T19:01:04Z</time>
      </trkpt>
      <trkpt lat="60.13572445879" lon="21.592996983934">
        <ele>24.2</ele>
        <time>2017-07-26T19:01:05Z</time>
      </trkpt>
      <trkpt lat="60.135688919534" lon="21.592980136315">
        <ele>24.2</ele>
        <time>2017-07-26T19:01:06Z</time>
      </trkpt>
      <trkpt lat="60.135657487409" lon="21.592967898741">
        <ele>24.2</ele>
        <time>2017-07-26T19:01:07Z</time>
      </trkpt>
      <trkpt lat="60.13563058151" lon="21.592957589004">
        <ele>24.2</ele>
        <time>2017-07-26T19:01:08Z</time>
      </trkpt>
      <trkpt lat="60.13560543581" lon="21.592951805493">
        <ele>24.2</ele>
        <time>2017-07-26T19:01:09Z</time>
      </trkpt>
      <trkpt lat="60.135578446092" lon="21.592950464389">
        <ele>24.2</ele>
        <time>2017-07-26T19:01:10Z</time>
      </trkpt>
      <trkpt lat="60.135553132754" lon="21.592949710018">
        <ele>24.2</ele>
        <time>2017-07-26T19:01:11Z</time>
      </trkpt>
      <trkpt lat="60.135529244339" lon="21.592946524896">
        <ele>24.2</ele>
        <time>2017-07-26T19:01:12Z</time>
      </trkpt>
      <trkpt lat="60.135506361752" lon="21.592946860172">
        <ele>24.2</ele>
        <time>2017-07-26T19:01:13Z</time>
      </trkpt>
      <trkpt lat="60.135483562984" lon="21.592944345602">
        <ele>24.2</ele>
        <time>2017-07-26T19:01:14Z</time>
      </trkpt>
      <trkpt lat="60.135457579094" lon="21.592945519068">
        <ele>24.2</ele>
        <time>2017-07-26T19:01:15Z</time>
      </trkpt>
      <trkpt lat="60.13543276867" lon="21.592948368914">
        <ele>24.2</ele>
        <time>2017-07-26T19:01:16Z</time>
      </trkpt>
      <trkpt lat="60.135408544979" lon="21.592952811321">
        <ele>24.2</ele>
        <time>2017-07-26T19:01:17Z</time>
      </trkpt>
      <trkpt lat="60.135381471442" lon="21.592957756642">
        <ele>24.2</ele>
        <time>2017-07-26T19:01:18Z</time>
      </trkpt>
      <trkpt lat="60.135356828656" lon="21.59296798256">
        <ele>24.2</ele>
        <time>2017-07-26T19:01:19Z</time>
      </trkpt>
      <trkpt lat="60.135328414015" lon="21.592979465763">
        <ele>24.2</ele>
        <time>2017-07-26T19:01:20Z</time>
      </trkpt>
      <trkpt lat="60.135302597763" lon="21.592995307554">
        <ele>24.2</ele>
        <time>2017-07-26T19:01:21Z</time>
      </trkpt>
      <trkpt lat="60.135271333276" lon="21.593011736078">
        <ele>24.2</ele>
        <time>2017-07-26T19:01:22Z</time>
      </trkpt>
      <trkpt lat="60.135240990798" lon="21.593023470738">
        <ele>24.2</ele>
        <time>2017-07-26T19:01:23Z</time>
      </trkpt>
      <trkpt lat="60.135209391035" lon="21.593040318357">
        <ele>24.2</ele>
        <time>2017-07-26T19:01:24Z</time>
      </trkpt>
      <trkpt lat="60.135172510675" lon="21.593063787677">
        <ele>24.2</ele>
        <time>2017-07-26T19:01:25Z</time>
      </trkpt>
      <trkpt lat="60.135138144885" lon="21.593090442119">
        <ele>24.2</ele>
        <time>2017-07-26T19:01:26Z</time>
      </trkpt>
      <trkpt lat="60.135101767439" lon="21.593117767113">
        <ele>24.2</ele>
        <time>2017-07-26T19:01:27Z</time>
      </trkpt>
      <trkpt lat="60.135064216527" lon="21.593145930297">
        <ele>24.2</ele>
        <time>2017-07-26T19:01:28Z</time>
      </trkpt>
      <trkpt lat="60.135030353651" lon="21.593169399617">
        <ele>24.2</ele>
        <time>2017-07-26T19:01:29Z</time>
      </trkpt>
      <trkpt lat="60.134990120531" lon="21.59319848481">
        <ele>24.2</ele>
        <time>2017-07-26T19:01:30Z</time>
      </trkpt>
      <trkpt lat="60.134951731429" lon="21.593229833116">
        <ele>24.2</ele>
        <time>2017-07-26T19:01:31Z</time>
      </trkpt>
      <trkpt lat="60.13491812001" lon="21.593258750671">
        <ele>24.2</ele>
        <time>2017-07-26T19:01:32Z</time>
      </trkpt>
      <trkpt lat="60.134885011505" lon="21.593288590235">
        <ele>24.2</ele>
        <time>2017-07-26T19:01:33Z</time>
      </trkpt>
      <trkpt lat="60.134856680683" lon="21.593312394831">
        <ele>24.2</ele>
        <time>2017-07-26T19:01:34Z</time>
      </trkpt>
      <trkpt lat="60.134825667653" lon="21.593334187771">
        <ele>24.2</ele>
        <time>2017-07-26T19:01:35Z</time>
      </trkpt>
      <trkpt lat="60.134797169193" lon="21.59335690272">
        <ele>24.2</ele>
        <time>2017-07-26T19:01:36Z</time>
      </trkpt>
      <trkpt lat="60.134771772036" lon="21.593375929633">
        <ele>24.2</ele>
        <time>2017-07-26T19:01:37Z</time>
      </trkpt>
      <trkpt lat="60.134745369051" lon="21.593394369813">
        <ele>24.2</ele>
        <time>2017-07-26T19:01:38Z</time>
      </trkpt>
      <trkpt lat="60.13472282174" lon="21.59340970869">
        <ele>24.2</ele>
        <time>2017-07-26T19:01:39Z</time>
      </trkpt>
      <trkpt lat="60.134696251117" lon="21.593424628472">
        <ele>24.2</ele>
        <time>2017-07-26T19:01:40Z</time>
      </trkpt>
      <trkpt lat="60.134671775969" lon="21.593437788055">
        <ele>24.2</ele>
        <time>2017-07-26T19:01:41Z</time>
      </trkpt>
      <trkpt lat="60.134648055192" lon="21.593451702009">
        <ele>24.2</ele>
        <time>2017-07-26T19:01:42Z</time>
      </trkpt>
      <trkpt lat="60.134623831501" lon="21.593468801085">
        <ele>24.2</ele>
        <time>2017-07-26T19:01:43Z</time>
      </trkpt>
      <trkpt lat="60.134601200371" lon="21.593481876849">
        <ele>24.2</ele>
        <time>2017-07-26T19:01:44Z</time>
      </trkpt>
      <trkpt lat="60.1345753003" lon="21.59349771864">
        <ele>24.2</ele>
        <time>2017-07-26T19:01:45Z</time>
      </trkpt>
      <trkpt lat="60.1345501546" lon="21.593511381137">
        <ele>24.2</ele>
        <time>2017-07-26T19:01:46Z</time>
      </trkpt>
      <trkpt lat="60.134526182366" lon="21.593525546548">
        <ele>24.2</ele>
        <time>2017-07-26T19:01:47Z</time>
      </trkpt>
      <trkpt lat="60.134498605915" lon="21.593541136882">
        <ele>24.2</ele>
        <time>2017-07-26T19:01:48Z</time>
      </trkpt>
      <trkpt lat="60.134471280921" lon="21.593551278981">
        <ele>24.2</ele>
        <time>2017-07-26T19:01:49Z</time>
      </trkpt>
      <trkpt lat="60.134439597339" lon="21.593562846003">
        <ele>24.2</ele>
        <time>2017-07-26T19:01:50Z</time>
      </trkpt>
      <trkpt lat="60.134408081395" lon="21.593572401369">
        <ele>24.2</ele>
        <time>2017-07-26T19:01:51Z</time>
      </trkpt>
      <trkpt lat="60.134375727261" lon="21.593581286183">
        <ele>24.2</ele>
        <time>2017-07-26T19:01:52Z</time>
      </trkpt>
      <trkpt lat="60.134347731715" lon="21.593587740246">
        <ele>24.2</ele>
        <time>2017-07-26T19:01:53Z</time>
      </trkpt>
      <trkpt lat="60.134318311246" lon="21.593591931196">
        <ele>24.2</ele>
        <time>2017-07-26T19:01:54Z</time>
      </trkpt>
      <trkpt lat="60.134290734795" lon="21.593598469078">
        <ele>24.2</ele>
        <time>2017-07-26T19:01:55Z</time>
      </trkpt>
      <trkpt lat="60.134265337638" lon="21.593602324752">
        <ele>24.2</ele>
        <time>2017-07-26T19:01:56Z</time>
      </trkpt>
      <trkpt lat="60.134239102291" lon="21.593607437711">
        <ele>24.2</ele>
        <time>2017-07-26T19:01:57Z</time>
      </trkpt>
      <trkpt lat="60.134213453677" lon="21.593612383032">
        <ele>24.2</ele>
        <time>2017-07-26T19:01:58Z</time>
      </trkpt>
      <trkpt lat="60.134190151995" lon="21.593616238706">
        <ele>24.2</ele>
        <time>2017-07-26T19:01:59Z</time>
      </trkpt>
      <trkpt lat="60.134159306603" lon="21.593619591466">
        <ele>24.2</ele>
        <time>2017-07-26T19:02:00Z</time>
      </trkpt>
      <trkpt lat="60.134131646333" lon="21.59361925619">
        <ele>24.2</ele>
        <time>2017-07-26T19:02:01Z</time>
      </trkpt>
      <trkpt lat="60.134099627475" lon="21.59362009438">
        <ele>24.2</ele>
        <time>2017-07-26T19:02:02Z</time>
      </trkpt>
      <trkpt lat="60.134069955549" lon="21.59361757981">
        <ele>24.2</ele>
        <time>2017-07-26T19:02:03Z</time>
      </trkpt>
      <trkpt lat="60.134043636383" lon="21.593612885946">
        <ele>24.2</ele>
        <time>2017-07-26T19:02:04Z</time>
      </trkpt>
      <trkpt lat="60.134015221742" lon="21.593605509874">
        <ele>24.2</ele>
        <time>2017-07-26T19:02:05Z</time>
      </trkpt>
      <trkpt lat="60.133990159861" lon="21.593593356119">
        <ele>24.2</ele>
        <time>2017-07-26T19:02:06Z</time>
      </trkpt>
      <trkpt lat="60.133966941998" lon="21.593585141857">
        <ele>24.2</ele>
        <time>2017-07-26T19:02:07Z</time>
      </trkpt>
      <trkpt lat="60.133946993076" lon="21.593576340862">
        <ele>24.2</ele>
        <time>2017-07-26T19:02:08Z</time>
      </trkpt>
      <trkpt lat="60.13392905581" lon="21.593564354745">
        <ele>24.2</ele>
        <time>2017-07-26T19:02:09Z</time>
      </trkpt>
      <trkpt lat="60.133906927594" lon="21.593549434963">
        <ele>24.2</ele>
        <time>2017-07-26T19:02:10Z</time>
      </trkpt>
      <trkpt lat="60.133887397767" lon="21.593537448846">
        <ele>24.2</ele>
        <time>2017-07-26T19:02:11Z</time>
      </trkpt>
      <trkpt lat="60.133868370854" lon="21.593520265951">
        <ele>24.2</ele>
        <time>2017-07-26T19:02:12Z</time>
      </trkpt>
      <trkpt lat="60.133849511579" lon="21.593505597626">
        <ele>24.2</ele>
        <time>2017-07-26T19:02:13Z</time>
      </trkpt>
      <trkpt lat="60.133830233209" lon="21.593490007292">
        <ele>24.2</ele>
        <time>2017-07-26T19:02:14Z</time>
      </trkpt>
      <trkpt lat="60.133807769717" lon="21.593475506605">
        <ele>24.6</ele>
        <time>2017-07-26T19:02:15Z</time>
      </trkpt>
      <trkpt lat="60.1337874017" lon="21.593459078081">
        <ele>25</ele>
        <time>2017-07-26T19:02:16Z</time>
      </trkpt>
      <trkpt lat="60.133770134986" lon="21.593443739204">
        <ele>25.4</ele>
        <time>2017-07-26T19:02:17Z</time>
      </trkpt>
      <trkpt lat="60.133748677322" lon="21.593424293196">
        <ele>25.6</ele>
        <time>2017-07-26T19:02:18Z</time>
      </trkpt>
      <trkpt lat="60.133730488599" lon="21.593406439749">
        <ele>25.8</ele>
        <time>2017-07-26T19:02:19Z</time>
      </trkpt>
      <trkpt lat="60.133713305704" lon="21.593393363985">
        <ele>26.2</ele>
        <time>2017-07-26T19:02:20Z</time>
      </trkpt>
      <trkpt lat="60.133695955171" lon="21.593379701488">
        <ele>26.2</ele>
        <time>2017-07-26T19:02:21Z</time>
      </trkpt>
      <trkpt lat="60.133676592982" lon="21.593358914376">
        <ele>26.2</ele>
        <time>2017-07-26T19:02:22Z</time>
      </trkpt>
      <trkpt lat="60.133655722051" lon="21.593333768676">
        <ele>26.2</ele>
        <time>2017-07-26T19:02:23Z</time>
      </trkpt>
      <trkpt lat="60.133637700966" lon="21.593312562469">
        <ele>26.2</ele>
        <time>2017-07-26T19:02:24Z</time>
      </trkpt>
      <trkpt lat="60.133609789239" lon="21.59328062743">
        <ele>26.2</ele>
        <time>2017-07-26T19:02:25Z</time>
      </trkpt>
      <trkpt lat="60.133585062634" lon="21.5932496144">
        <ele>26.2</ele>
        <time>2017-07-26T19:02:26Z</time>
      </trkpt>
      <trkpt lat="60.133561760952" lon="21.593222457044">
        <ele>26.2</ele>
        <time>2017-07-26T19:02:27Z</time>
      </trkpt>
      <trkpt lat="60.133536196157" lon="21.593195802602">
        <ele>26.2</ele>
        <time>2017-07-26T19:02:28Z</time>
      </trkpt>
      <trkpt lat="60.133514738493" lon="21.593168058513">
        <ele>26.2</ele>
        <time>2017-07-26T19:02:29Z</time>
      </trkpt>
      <trkpt lat="60.133488754603" lon="21.593136291112">
        <ele>26.2</ele>
        <time>2017-07-26T19:02:30Z</time>
      </trkpt>
      <trkpt lat="60.133468638043" lon="21.593104691349">
        <ele>26.2</ele>
        <time>2017-07-26T19:02:31Z</time>
      </trkpt>
      <trkpt lat="60.133448353845" lon="21.593074097414">
        <ele>26.2</ele>
        <time>2017-07-26T19:02:32Z</time>
      </trkpt>
      <trkpt lat="60.133427482914" lon="21.593042162375">
        <ele>26.2</ele>
        <time>2017-07-26T19:02:33Z</time>
      </trkpt>
      <trkpt lat="60.133407953087" lon="21.593010646431">
        <ele>26.2</ele>
        <time>2017-07-26T19:02:34Z</time>
      </trkpt>
      <trkpt lat="60.133384819043" lon="21.592972005872">
        <ele>26.2</ele>
        <time>2017-07-26T19:02:35Z</time>
      </trkpt>
      <trkpt lat="60.133361265904" lon="21.592931186019">
        <ele>26.2</ele>
        <time>2017-07-26T19:02:36Z</time>
      </trkpt>
      <trkpt lat="60.133338718593" lon="21.59288751632">
        <ele>26.2</ele>
        <time>2017-07-26T19:02:37Z</time>
      </trkpt>
      <trkpt lat="60.133315165454" lon="21.592841080594">
        <ele>26.2</ele>
        <time>2017-07-26T19:02:38Z</time>
      </trkpt>
      <trkpt lat="60.133291696134" lon="21.592793974316">
        <ele>26.2</ele>
        <time>2017-07-26T19:02:39Z</time>
      </trkpt>
      <trkpt lat="60.133263449131" lon="21.592742090355">
        <ele>26.2</ele>
        <time>2017-07-26T19:02:40Z</time>
      </trkpt>
      <trkpt lat="60.133237465241" lon="21.592694900258">
        <ele>26.2</ele>
        <time>2017-07-26T19:02:41Z</time>
      </trkpt>
      <trkpt lat="60.133210894618" lon="21.592645698505">
        <ele>26.2</ele>
        <time>2017-07-26T19:02:42Z</time>
      </trkpt>
      <trkpt lat="60.133184407814" lon="21.592590294146">
        <ele>26.2</ele>
        <time>2017-07-26T19:02:43Z</time>
      </trkpt>
      <trkpt lat="60.133159178295" lon="21.59253631471">
        <ele>26.2</ele>
        <time>2017-07-26T19:02:44Z</time>
      </trkpt>
      <trkpt lat="60.133129171093" lon="21.592473115184">
        <ele>26.2</ele>
        <time>2017-07-26T19:02:45Z</time>
      </trkpt>
      <trkpt lat="60.133099834443" lon="21.592406562898">
        <ele>26.2</ele>
        <time>2017-07-26T19:02:46Z</time>
      </trkpt>
      <trkpt lat="60.133070078698" lon="21.592339591517">
        <ele>26.2</ele>
        <time>2017-07-26T19:02:47Z</time>
      </trkpt>
      <trkpt lat="60.133040909686" lon="21.592274883249">
        <ele>26.2</ele>
        <time>2017-07-26T19:02:48Z</time>
      </trkpt>
      <trkpt lat="60.133008304095" lon="21.592199949063">
        <ele>26.2</ele>
        <time>2017-07-26T19:02:49Z</time>
      </trkpt>
      <trkpt lat="60.13297603378" lon="21.592123589954">
        <ele>26.2</ele>
        <time>2017-07-26T19:02:50Z</time>
      </trkpt>
      <trkpt lat="60.132948541148" lon="21.592053936365">
        <ele>26.2</ele>
        <time>2017-07-26T19:02:51Z</time>
      </trkpt>
      <trkpt lat="60.132920461783" lon="21.591983696043">
        <ele>26.2</ele>
        <time>2017-07-26T19:02:52Z</time>
      </trkpt>
      <trkpt lat="60.132894226436" lon="21.59191437773">
        <ele>26.2</ele>
        <time>2017-07-26T19:02:53Z</time>
      </trkpt>
      <trkpt lat="60.132867488175" lon="21.591845394693">
        <ele>26.2</ele>
        <time>2017-07-26T19:02:54Z</time>
      </trkpt>
      <trkpt lat="60.132837145697" lon="21.591772975077">
        <ele>26.2</ele>
        <time>2017-07-26T19:02:55Z</time>
      </trkpt>
      <trkpt lat="60.132811497083" lon="21.591711032836">
        <ele>26.2</ele>
        <time>2017-07-26T19:02:56Z</time>
      </trkpt>
      <trkpt lat="60.132783501537" lon="21.591643223265">
        <ele>26.2</ele>
        <time>2017-07-26T19:02:57Z</time>
      </trkpt>
      <trkpt lat="60.132758858751" lon="21.5915816163">
        <ele>26.2</ele>
        <time>2017-07-26T19:02:58Z</time>
      </trkpt>
      <trkpt lat="60.132737233449" lon="21.591526966312">
        <ele>26.2</ele>
        <time>2017-07-26T19:02:59Z</time>
      </trkpt>
      <trkpt lat="60.132710159912" lon="21.591460414026">
        <ele>26.2</ele>
        <time>2017-07-26T19:03:00Z</time>
      </trkpt>
      <trkpt lat="60.13268602004" lon="21.591401321631">
        <ele>26.2</ele>
        <time>2017-07-26T19:03:01Z</time>
      </trkpt>
      <trkpt lat="60.132662718358" lon="21.591342396874">
        <ele>26.2</ele>
        <time>2017-07-26T19:03:02Z</time>
      </trkpt>
      <trkpt lat="60.132640590142" lon="21.591283723574">
        <ele>26.2</ele>
        <time>2017-07-26T19:03:03Z</time>
      </trkpt>
      <trkpt lat="60.132621814686" lon="21.591235695287">
        <ele>26</ele>
        <time>2017-07-26T19:03:04Z</time>
      </trkpt>
      <trkpt lat="60.132595998434" lon="21.591176099978">
        <ele>25.6</ele>
        <time>2017-07-26T19:03:05Z</time>
      </trkpt>
      <trkpt lat="60.132573954037" lon="21.591121366171">
        <ele>25.2</ele>
        <time>2017-07-26T19:03:06Z</time>
      </trkpt>
      <trkpt lat="60.132554591848" lon="21.591063950156">
        <ele>24.8</ele>
        <time>2017-07-26T19:03:07Z</time>
      </trkpt>
      <trkpt lat="60.132537325134" lon="21.591007959064">
        <ele>24.4</ele>
        <time>2017-07-26T19:03:08Z</time>
      </trkpt>
      <trkpt lat="60.132519304049" lon="21.590958589673">
        <ele>24.2</ele>
        <time>2017-07-26T19:03:09Z</time>
      </trkpt>
      <trkpt lat="60.132499438946" lon="21.590897820898">
        <ele>24.2</ele>
        <time>2017-07-26T19:03:10Z</time>
      </trkpt>
      <trkpt lat="60.1324798253" lon="21.590839901969">
        <ele>24.2</ele>
        <time>2017-07-26T19:03:11Z</time>
      </trkpt>
      <trkpt lat="60.132458199998" lon="21.590778043547">
        <ele>24.2</ele>
        <time>2017-07-26T19:03:12Z</time>
      </trkpt>
      <trkpt lat="60.132436993791" lon="21.59071744241">
        <ele>24.2</ele>
        <time>2017-07-26T19:03:13Z</time>
      </trkpt>
      <trkpt lat="60.132415955222" lon="21.590664887897">
        <ele>24.2</ele>
        <time>2017-07-26T19:03:14Z</time>
      </trkpt>
      <trkpt lat="60.132393240273" lon="21.590606214597">
        <ele>24.2</ele>
        <time>2017-07-26T19:03:15Z</time>
      </trkpt>
      <trkpt lat="60.132372704618" lon="21.590554414455">
        <ele>24.2</ele>
        <time>2017-07-26T19:03:16Z</time>
      </trkpt>
      <trkpt lat="60.132355186447" lon="21.590505631797">
        <ele>24.2</ele>
        <time>2017-07-26T19:03:17Z</time>
      </trkpt>
      <trkpt lat="60.13233817119" lon="21.59045508894">
        <ele>24.2</ele>
        <time>2017-07-26T19:03:18Z</time>
      </trkpt>
      <trkpt lat="60.132322580856" lon="21.590415945467">
        <ele>24.2</ele>
        <time>2017-07-26T19:03:19Z</time>
      </trkpt>
      <trkpt lat="60.132307325798" lon="21.590375125614">
        <ele>24.2</ele>
        <time>2017-07-26T19:03:20Z</time>
      </trkpt>
      <trkpt lat="60.132291819283" lon="21.590328019336">
        <ele>24.2</ele>
        <time>2017-07-26T19:03:21Z</time>
      </trkpt>
      <trkpt lat="60.132277150958" lon="21.590284265818">
        <ele>24.2</ele>
        <time>2017-07-26T19:03:22Z</time>
      </trkpt>
      <trkpt lat="60.132263404642" lon="21.590246044354">
        <ele>24.2</ele>
        <time>2017-07-26T19:03:23Z</time>
      </trkpt>
      <trkpt lat="60.132249825964" lon="21.590205978872">
        <ele>24.2</ele>
        <time>2017-07-26T19:03:24Z</time>
      </trkpt>
      <trkpt lat="60.132235492915" lon="21.590164404648">
        <ele>24.2</ele>
        <time>2017-07-26T19:03:25Z</time>
      </trkpt>
      <trkpt lat="60.132221495142" lon="21.590126434641">
        <ele>24.2</ele>
        <time>2017-07-26T19:03:26Z</time>
      </trkpt>
      <trkpt lat="60.132208335559" lon="21.590085866245">
        <ele>24.2</ele>
        <time>2017-07-26T19:03:27Z</time>
      </trkpt>
      <trkpt lat="60.132194924519" lon="21.590045046392">
        <ele>24.2</ele>
        <time>2017-07-26T19:03:28Z</time>
      </trkpt>
      <trkpt lat="60.132183022221" lon="21.590007830756">
        <ele>24.2</ele>
        <time>2017-07-26T19:03:29Z</time>
      </trkpt>
      <trkpt lat="60.132168270077" lon="21.589962652315">
        <ele>24.2</ele>
        <time>2017-07-26T19:03:30Z</time>
      </trkpt>
      <trkpt lat="60.132152763562" lon="21.589921748643">
        <ele>24.2</ele>
        <time>2017-07-26T19:03:31Z</time>
      </trkpt>
      <trkpt lat="60.132138430513" lon="21.589878917134">
        <ele>24.2</ele>
        <time>2017-07-26T19:03:32Z</time>
      </trkpt>
      <trkpt lat="60.13212443274" lon="21.58983734291">
        <ele>24.2</ele>
        <time>2017-07-26T19:03:33Z</time>
      </trkpt>
      <trkpt lat="60.132110267329" lon="21.589800294912">
        <ele>24.2</ele>
        <time>2017-07-26T19:03:34Z</time>
      </trkpt>
      <trkpt lat="60.132097359203" lon="21.589760564706">
        <ele>24.2</ele>
        <time>2017-07-26T19:03:35Z</time>
      </trkpt>
      <trkpt lat="60.132084870172" lon="21.58972334907">
        <ele>24.2</ele>
        <time>2017-07-26T19:03:36Z</time>
      </trkpt>
      <trkpt lat="60.132071207675" lon="21.589687642176">
        <ele>24.2</ele>
        <time>2017-07-26T19:03:37Z</time>
      </trkpt>
      <trkpt lat="60.132057712816" lon="21.589650258902">
        <ele>24.2</ele>
        <time>2017-07-26T19:03:38Z</time>
      </trkpt>
      <trkpt lat="60.132046983984" lon="21.589610277239">
        <ele>24.2</ele>
        <time>2017-07-26T19:03:39Z</time>
      </trkpt>
      <trkpt lat="60.132032483297" lon="21.589566020807">
        <ele>24.2</ele>
        <time>2017-07-26T19:03:40Z</time>
      </trkpt>
      <trkpt lat="60.132019323714" lon="21.589525033316">
        <ele>24.2</ele>
        <time>2017-07-26T19:03:41Z</time>
      </trkpt>
      <trkpt lat="60.132005493579" lon="21.589479016685">
        <ele>24.2</ele>
        <time>2017-07-26T19:03:42Z</time>
      </trkpt>
      <trkpt lat="60.131992333996" lon="21.589436352814">
        <ele>24.2</ele>
        <time>2017-07-26T19:03:43Z</time>
      </trkpt>
      <trkpt lat="60.131980012603" lon="21.589395449142">
        <ele>24.2</ele>
        <time>2017-07-26T19:03:44Z</time>
      </trkpt>
      <trkpt lat="60.131964003174" lon="21.589349264873">
        <ele>24.6</ele>
        <time>2017-07-26T19:03:45Z</time>
      </trkpt>
      <trkpt lat="60.131948748116" lon="21.58930593045">
        <ele>25</ele>
        <time>2017-07-26T19:03:46Z</time>
      </trkpt>
      <trkpt lat="60.131935756171" lon="21.589265613511">
        <ele>25.4</ele>
        <time>2017-07-26T19:03:47Z</time>
      </trkpt>
      <trkpt lat="60.131922345131" lon="21.589225296572">
        <ele>25.8</ele>
        <time>2017-07-26T19:03:48Z</time>
      </trkpt>
      <trkpt lat="60.131910526652" lon="21.589189673497">
        <ele>26.2</ele>
        <time>2017-07-26T19:03:49Z</time>
      </trkpt>
      <trkpt lat="60.131896864155" lon="21.589150781481">
        <ele>26.2</ele>
        <time>2017-07-26T19:03:50Z</time>
      </trkpt>
      <trkpt lat="60.13188554859" lon="21.589115326044">
        <ele>26.2</ele>
        <time>2017-07-26T19:03:51Z</time>
      </trkpt>
      <trkpt lat="60.131872808102" lon="21.589076182571">
        <ele>26.2</ele>
        <time>2017-07-26T19:03:52Z</time>
      </trkpt>
      <trkpt lat="60.131860905804" lon="21.589043325523">
        <ele>26.2</ele>
        <time>2017-07-26T19:03:53Z</time>
      </trkpt>
      <trkpt lat="60.131850847524" lon="21.589010384656">
        <ele>26.2</ele>
        <time>2017-07-26T19:03:54Z</time>
      </trkpt>
      <trkpt lat="60.131839364321" lon="21.588976186504">
        <ele>26.2</ele>
        <time>2017-07-26T19:03:55Z</time>
      </trkpt>
      <trkpt lat="60.131830647145" lon="21.588942323628">
        <ele>26.2</ele>
        <time>2017-07-26T19:03:56Z</time>
      </trkpt>
      <trkpt lat="60.131819918313" lon="21.588911478236">
        <ele>26.2</ele>
        <time>2017-07-26T19:03:57Z</time>
      </trkpt>
      <trkpt lat="60.131812039327" lon="21.588878285912">
        <ele>26.2</ele>
        <time>2017-07-26T19:03:58Z</time>
      </trkpt>
      <trkpt lat="60.131800975219" lon="21.588850960918">
        <ele>26.2</ele>
        <time>2017-07-26T19:03:59Z</time>
      </trkpt>
      <trkpt lat="60.13178999493" lon="21.588822713915">
        <ele>26.2</ele>
        <time>2017-07-26T19:04:00Z</time>
      </trkpt>
      <trkpt lat="60.131775661881" lon="21.588788515763">
        <ele>26.2</ele>
        <time>2017-07-26T19:04:01Z</time>
      </trkpt>
      <trkpt lat="60.131764094859" lon="21.588755742534">
        <ele>26.2</ele>
        <time>2017-07-26T19:04:02Z</time>
      </trkpt>
      <trkpt lat="60.131752360199" lon="21.588719700364">
        <ele>26.2</ele>
        <time>2017-07-26T19:04:03Z</time>
      </trkpt>
      <trkpt lat="60.13173970353" lon="21.588691369542">
        <ele>26.2</ele>
        <time>2017-07-26T19:04:04Z</time>
      </trkpt>
      <trkpt lat="60.131730399621" lon="21.588667564946">
        <ele>26.2</ele>
        <time>2017-07-26T19:04:05Z</time>
      </trkpt>
      <trkpt lat="60.13171371964" lon="21.588624314342">
        <ele>26.2</ele>
        <time>2017-07-26T19:04:06Z</time>
      </trkpt>
      <trkpt lat="60.131703493722" lon="21.588589948552">
        <ele>26.2</ele>
        <time>2017-07-26T19:04:07Z</time>
      </trkpt>
      <trkpt lat="60.131689076854" lon="21.588553654925">
        <ele>26.2</ele>
        <time>2017-07-26T19:04:08Z</time>
      </trkpt>
      <trkpt lat="60.13167767747" lon="21.588519959687">
        <ele>26.2</ele>
        <time>2017-07-26T19:04:09Z</time>
      </trkpt>
      <trkpt lat="60.13166426643" lon="21.588482408775">
        <ele>26.6</ele>
        <time>2017-07-26T19:04:10Z</time>
      </trkpt>
      <trkpt lat="60.131652280313" lon="21.588447959166">
        <ele>27</ele>
        <time>2017-07-26T19:04:11Z</time>
      </trkpt>
      <trkpt lat="60.131639623644" lon="21.588410072978">
        <ele>27.4</ele>
        <time>2017-07-26T19:04:12Z</time>
      </trkpt>
      <trkpt lat="60.131624620043" lon="21.588372354428">
        <ele>27.8</ele>
        <time>2017-07-26T19:04:13Z</time>
      </trkpt>
      <trkpt lat="60.131613807392" lon="21.588335390249">
        <ele>28.2</ele>
        <time>2017-07-26T19:04:14Z</time>
      </trkpt>
      <trkpt lat="60.131602575646" lon="21.588294654215">
        <ele>28.4</ele>
        <time>2017-07-26T19:04:15Z</time>
      </trkpt>
      <trkpt lat="60.131590002796" lon="21.588259534054">
        <ele>28.4</ele>
        <time>2017-07-26T19:04:16Z</time>
      </trkpt>
      <trkpt lat="60.131578687231" lon="21.588227431377">
        <ele>28.4</ele>
        <time>2017-07-26T19:04:17Z</time>
      </trkpt>
      <trkpt lat="60.131565946743" lon="21.588195161062">
        <ele>28.4</ele>
        <time>2017-07-26T19:04:18Z</time>
      </trkpt>
      <trkpt lat="60.131556307558" lon="21.588172446113">
        <ele>28.4</ele>
        <time>2017-07-26T19:04:19Z</time>
      </trkpt>
      <trkpt lat="60.131544237622" lon="21.588145707852">
        <ele>28.4</ele>
        <time>2017-07-26T19:04:20Z</time>
      </trkpt>
      <trkpt lat="60.131534263161" lon="21.58811570065">
        <ele>28.4</ele>
        <time>2017-07-26T19:04:21Z</time>
      </trkpt>
      <trkpt lat="60.131523785786" lon="21.58807965848">
        <ele>28.4</ele>
        <time>2017-07-26T19:04:22Z</time>
      </trkpt>
      <trkpt lat="60.131511632031" lon="21.588048226355">
        <ele>28.4</ele>
        <time>2017-07-26T19:04:23Z</time>
      </trkpt>
      <trkpt lat="60.13149662843" lon="21.588011597452">
        <ele>28.4</ele>
        <time>2017-07-26T19:04:24Z</time>
      </trkpt>
      <trkpt lat="60.131480199906" lon="21.587970945237">
        <ele>28.4</ele>
        <time>2017-07-26T19:04:25Z</time>
      </trkpt>
      <trkpt lat="60.131465196305" lon="21.587930125384">
        <ele>28.4</ele>
        <time>2017-07-26T19:04:26Z</time>
      </trkpt>
      <trkpt lat="60.131448516324" lon="21.587889892264">
        <ele>28.4</ele>
        <time>2017-07-26T19:04:27Z</time>
      </trkpt>
      <trkpt lat="60.131432003981" lon="21.587849323868">
        <ele>28.4</ele>
        <time>2017-07-26T19:04:28Z</time>
      </trkpt>
      <trkpt lat="60.131416329828" lon="21.587813616974">
        <ele>28.4</ele>
        <time>2017-07-26T19:04:29Z</time>
      </trkpt>
      <trkpt lat="60.131396716182" lon="21.587770617827">
        <ele>28.4</ele>
        <time>2017-07-26T19:04:30Z</time>
      </trkpt>
      <trkpt lat="60.131378359821" lon="21.587731893449">
        <ele>28.4</ele>
        <time>2017-07-26T19:04:31Z</time>
      </trkpt>
      <trkpt lat="60.13135916527" lon="21.587693755804">
        <ele>28.4</ele>
        <time>2017-07-26T19:04:32Z</time>
      </trkpt>
      <trkpt lat="60.131338797253" lon="21.587655701978">
        <ele>28.4</ele>
        <time>2017-07-26T19:04:33Z</time>
      </trkpt>
      <trkpt lat="60.131321530539" lon="21.587619827446">
        <ele>28.6</ele>
        <time>2017-07-26T19:04:34Z</time>
      </trkpt>
      <trkpt lat="60.131305269653" lon="21.587579510507">
        <ele>29</ele>
        <time>2017-07-26T19:04:35Z</time>
      </trkpt>
      <trkpt lat="60.131288924948" lon="21.587541037586">
        <ele>29.4</ele>
        <time>2017-07-26T19:04:36Z</time>
      </trkpt>
      <trkpt lat="60.13127115532" lon="21.587504073407">
        <ele>29.8</ele>
        <time>2017-07-26T19:04:37Z</time>
      </trkpt>
      <trkpt lat="60.131254559158" lon="21.587463924106">
        <ele>30.2</ele>
        <time>2017-07-26T19:04:38Z</time>
      </trkpt>
      <trkpt lat="60.131237460082" lon="21.58743089942">
        <ele>30.4</ele>
        <time>2017-07-26T19:04:39Z</time>
      </trkpt>
      <trkpt lat="60.131217427341" lon="21.587396868906">
        <ele>30.4</ele>
        <time>2017-07-26T19:04:40Z</time>
      </trkpt>
      <trkpt lat="60.131199490075" lon="21.587363089849">
        <ele>30.4</ele>
        <time>2017-07-26T19:04:41Z</time>
      </trkpt>
      <trkpt lat="60.131178451506" lon="21.587326293308">
        <ele>30.4</ele>
        <time>2017-07-26T19:04:42Z</time>
      </trkpt>
      <trkpt lat="60.131157664394" lon="21.587286395464">
        <ele>30.4</ele>
        <time>2017-07-26T19:04:43Z</time>
      </trkpt>
      <trkpt lat="60.13114123587" lon="21.587246581439">
        <ele>30.4</ele>
        <time>2017-07-26T19:04:44Z</time>
      </trkpt>
      <trkpt lat="60.131120364939" lon="21.587199223704">
        <ele>30.4</ele>
        <time>2017-07-26T19:04:45Z</time>
      </trkpt>
      <trkpt lat="60.131100918931" lon="21.587152452702">
        <ele>30.4</ele>
        <time>2017-07-26T19:04:46Z</time>
      </trkpt>
      <trkpt lat="60.131080299457" lon="21.587102999492">
        <ele>30.4</ele>
        <time>2017-07-26T19:04:47Z</time>
      </trkpt>
      <trkpt lat="60.131059260888" lon="21.587053294825">
        <ele>30.4</ele>
        <time>2017-07-26T19:04:48Z</time>
      </trkpt>
      <trkpt lat="60.131040485432" lon="21.587005015081">
        <ele>30.4</ele>
        <time>2017-07-26T19:04:49Z</time>
      </trkpt>
      <trkpt lat="60.131021458519" lon="21.586949610722">
        <ele>30.4</ele>
        <time>2017-07-26T19:04:50Z</time>
      </trkpt>
      <trkpt lat="60.131002263968" lon="21.586897307666">
        <ele>30.4</ele>
        <time>2017-07-26T19:04:51Z</time>
      </trkpt>
      <trkpt lat="60.130985248711" lon="21.586843579687">
        <ele>30.4</ele>
        <time>2017-07-26T19:04:52Z</time>
      </trkpt>
      <trkpt lat="60.130969574558" lon="21.586796557228">
        <ele>30.4</ele>
        <time>2017-07-26T19:04:53Z</time>
      </trkpt>
      <trkpt lat="60.130952140206" lon="21.586759341592">
        <ele>30.4</ele>
        <time>2017-07-26T19:04:54Z</time>
      </trkpt>
      <trkpt lat="60.13092498285" lon="21.586738303023">
        <ele>30.4</ele>
        <time>2017-07-26T19:04:55Z</time>
      </trkpt>
      <trkpt lat="60.130902938453" lon="21.586733022426">
        <ele>30.4</ele>
        <time>2017-07-26T19:04:56Z</time>
      </trkpt>
      <trkpt lat="60.130886090834" lon="21.586717180635">
        <ele>30.4</ele>
        <time>2017-07-26T19:04:57Z</time>
      </trkpt>
      <trkpt lat="60.130874272355" lon="21.586701506482">
        <ele>30.4</ele>
        <time>2017-07-26T19:04:58Z</time>
      </trkpt>
      <trkpt lat="60.130867818292" lon="21.586693543677">
        <ele>30.4</ele>
        <time>2017-07-26T19:04:59Z</time>
      </trkpt>
      <trkpt lat="60.130862872971" lon="21.586684491225">
        <ele>30.4</ele>
        <time>2017-07-26T19:05:00Z</time>
      </trkpt>
      <trkpt lat="60.130864297894" lon="21.586687173433">
        <ele>30.4</ele>
        <time>2017-07-26T19:05:01Z</time>
      </trkpt>
      <trkpt lat="60.130861531867" lon="21.586678456257">
        <ele>30.4</ele>
        <time>2017-07-26T19:05:02Z</time>
      </trkpt>
      <trkpt lat="60.13083110557" lon="21.586598995845">
        <ele>30.4</ele>
        <time>2017-07-26T19:06:32Z</time>
      </trkpt>
      <trkpt lat="60.130832195217" lon="21.58658516571">
        <ele>30.4</ele>
        <time>2017-07-26T19:06:33Z</time>
      </trkpt>
      <trkpt lat="60.130834206873" lon="21.586570329747">
        <ele>30.4</ele>
        <time>2017-07-26T19:06:34Z</time>
      </trkpt>
      <trkpt lat="60.130839152194" lon="21.586548201531">
        <ele>30.4</ele>
        <time>2017-07-26T19:06:35Z</time>
      </trkpt>
      <trkpt lat="60.130841582945" lon="21.586521295632">
        <ele>30.4</ele>
        <time>2017-07-26T19:06:36Z</time>
      </trkpt>
      <trkpt lat="60.13084116385" lon="21.586483409444">
        <ele>30.4</ele>
        <time>2017-07-26T19:06:37Z</time>
      </trkpt>
      <trkpt lat="60.130839068375" lon="21.586433118044">
        <ele>30.4</ele>
        <time>2017-07-26T19:06:38Z</time>
      </trkpt>
      <trkpt lat="60.13082942919" lon="21.586384083929">
        <ele>30.4</ele>
        <time>2017-07-26T19:06:39Z</time>
      </trkpt>
      <trkpt lat="60.130813419761" lon="21.586325997362">
        <ele>30.4</ele>
        <time>2017-07-26T19:06:40Z</time>
      </trkpt>
      <trkpt lat="60.130798080884" lon="21.58627419722">
        <ele>30.4</ele>
        <time>2017-07-26T19:06:41Z</time>
      </trkpt>
      <trkpt lat="60.130779473066" lon="21.586215188644">
        <ele>30.4</ele>
        <time>2017-07-26T19:06:42Z</time>
      </trkpt>
      <trkpt lat="60.130765559112" lon="21.586162215036">
        <ele>30.4</ele>
        <time>2017-07-26T19:06:43Z</time>
      </trkpt>
      <trkpt lat="60.13075399209" lon="21.586106307763">
        <ele>30.4</ele>
        <time>2017-07-26T19:06:44Z</time>
      </trkpt>
      <trkpt lat="60.130739575222" lon="21.58605040049">
        <ele>30.4</ele>
        <time>2017-07-26T19:06:45Z</time>
      </trkpt>
      <trkpt lat="60.13072549363" lon="21.58600346185">
        <ele>30.4</ele>
        <time>2017-07-26T19:06:46Z</time>
      </trkpt>
      <trkpt lat="60.130712585504" lon="21.585960881798">
        <ele>30.4</ele>
        <time>2017-07-26T19:06:47Z</time>
      </trkpt>
      <trkpt lat="60.130697581903" lon="21.585908578742">
        <ele>30.4</ele>
        <time>2017-07-26T19:06:48Z</time>
      </trkpt>
      <trkpt lat="60.130684003225" lon="21.585860801912">
        <ele>30.4</ele>
        <time>2017-07-26T19:06:49Z</time>
      </trkpt>
      <trkpt lat="60.130667742339" lon="21.585805565191">
        <ele>30.4</ele>
        <time>2017-07-26T19:06:50Z</time>
      </trkpt>
      <trkpt lat="60.130652152005" lon="21.58576206313">
        <ele>30.4</ele>
        <time>2017-07-26T19:06:51Z</time>
      </trkpt>
      <trkpt lat="60.130636729309" lon="21.58571177173">
        <ele>30.4</ele>
        <time>2017-07-26T19:06:52Z</time>
      </trkpt>
      <trkpt lat="60.130624324097" lon="21.585668269669">
        <ele>30.4</ele>
        <time>2017-07-26T19:06:53Z</time>
      </trkpt>
      <trkpt lat="60.130608230849" lon="21.585622839771">
        <ele>30.4</ele>
        <time>2017-07-26T19:06:54Z</time>
      </trkpt>
      <trkpt lat="60.130591215592" lon="21.585575230579">
        <ele>30</ele>
        <time>2017-07-26T19:06:55Z</time>
      </trkpt>
      <trkpt lat="60.130575038525" lon="21.58552820812">
        <ele>29.6</ele>
        <time>2017-07-26T19:06:56Z</time>
      </trkpt>
      <trkpt lat="60.130556682164" lon="21.585484286964">
        <ele>29.2</ele>
        <time>2017-07-26T19:06:57Z</time>
      </trkpt>
      <trkpt lat="60.130539499269" lon="21.585439024704">
        <ele>28.8</ele>
        <time>2017-07-26T19:06:58Z</time>
      </trkpt>
      <trkpt lat="60.130525333858" lon="21.585400300326">
        <ele>28.6</ele>
        <time>2017-07-26T19:06:59Z</time>
      </trkpt>
      <trkpt lat="60.130504798203" lon="21.585354367514">
        <ele>28.4</ele>
        <time>2017-07-26T19:07:00Z</time>
      </trkpt>
      <trkpt lat="60.130484430186" lon="21.585321761923">
        <ele>28.4</ele>
        <time>2017-07-26T19:07:01Z</time>
      </trkpt>
      <trkpt lat="60.130464313626" lon="21.585287396133">
        <ele>28.4</ele>
        <time>2017-07-26T19:07:02Z</time>
      </trkpt>
      <trkpt lat="60.130444280885" lon="21.585247582108">
        <ele>28.4</ele>
        <time>2017-07-26T19:07:03Z</time>
      </trkpt>
      <trkpt lat="60.130426511257" lon="21.585208270997">
        <ele>28.4</ele>
        <time>2017-07-26T19:07:04Z</time>
      </trkpt>
      <trkpt lat="60.130406729973" lon="21.585172061189">
        <ele>28.4</ele>
        <time>2017-07-26T19:07:05Z</time>
      </trkpt>
      <trkpt lat="60.130395498227" lon="21.585149597697">
        <ele>28.4</ele>
        <time>2017-07-26T19:07:06Z</time>
      </trkpt>
      <trkpt lat="60.130376974228" lon="21.58511498045">
        <ele>28.4</ele>
        <time>2017-07-26T19:07:07Z</time>
      </trkpt>
      <trkpt lat="60.130359456057" lon="21.585090924397">
        <ele>28.4</ele>
        <time>2017-07-26T19:07:08Z</time>
      </trkpt>
      <trkpt lat="60.130340932058" lon="21.585066449249">
        <ele>28.4</ele>
        <time>2017-07-26T19:07:09Z</time>
      </trkpt>
      <trkpt lat="60.130318887661" lon="21.5850353524">
        <ele>28.4</ele>
        <time>2017-07-26T19:07:10Z</time>
      </trkpt>
      <trkpt lat="60.130300363662" lon="21.585010541976">
        <ele>28.4</ele>
        <time>2017-07-26T19:07:11Z</time>
      </trkpt>
      <trkpt lat="60.130281672025" lon="21.584985480095">
        <ele>28.4</ele>
        <time>2017-07-26T19:07:12Z</time>
      </trkpt>
      <trkpt lat="60.13026197456" lon="21.584962681327">
        <ele>28.4</ele>
        <time>2017-07-26T19:07:13Z</time>
      </trkpt>
      <trkpt lat="60.130244540208" lon="21.584940972206">
        <ele>28.4</ele>
        <time>2017-07-26T19:07:14Z</time>
      </trkpt>
      <trkpt lat="60.130223334001" lon="21.584919765999">
        <ele>28.4</ele>
        <time>2017-07-26T19:07:15Z</time>
      </trkpt>
      <trkpt lat="60.130204558545" lon="21.584902499285">
        <ele>28.4</ele>
        <time>2017-07-26T19:07:16Z</time>
      </trkpt>
      <trkpt lat="60.130187627107" lon="21.584885735485">
        <ele>28.4</ele>
        <time>2017-07-26T19:07:17Z</time>
      </trkpt>
      <trkpt lat="60.130169941298" lon="21.5848677144">
        <ele>28.4</ele>
        <time>2017-07-26T19:07:18Z</time>
      </trkpt>
      <trkpt lat="60.130154183326" lon="21.584852962256">
        <ele>28.4</ele>
        <time>2017-07-26T19:07:19Z</time>
      </trkpt>
      <trkpt lat="60.130137251888" lon="21.584833683886">
        <ele>28.4</ele>
        <time>2017-07-26T19:07:20Z</time>
      </trkpt>
      <trkpt lat="60.130119985174" lon="21.584821362493">
        <ele>28.4</ele>
        <time>2017-07-26T19:07:21Z</time>
      </trkpt>
      <trkpt lat="60.130104730116" lon="21.58480736472">
        <ele>28.4</ele>
        <time>2017-07-26T19:07:22Z</time>
      </trkpt>
      <trkpt lat="60.130087463402" lon="21.584787415798">
        <ele>28.4</ele>
        <time>2017-07-26T19:07:23Z</time>
      </trkpt>
      <trkpt lat="60.130068771765" lon="21.584769310894">
        <ele>28.4</ele>
        <time>2017-07-26T19:07:24Z</time>
      </trkpt>
      <trkpt lat="60.130048906662" lon="21.584753301465">
        <ele>28.4</ele>
        <time>2017-07-26T19:07:25Z</time>
      </trkpt>
      <trkpt lat="60.130030047387" lon="21.58473779495">
        <ele>28.4</ele>
        <time>2017-07-26T19:07:26Z</time>
      </trkpt>
      <trkpt lat="60.13001051756" lon="21.584722456073">
        <ele>28.4</ele>
        <time>2017-07-26T19:07:27Z</time>
      </trkpt>
      <trkpt lat="60.129990652457" lon="21.584707117196">
        <ele>28.4</ele>
        <time>2017-07-26T19:07:28Z</time>
      </trkpt>
      <trkpt lat="60.129973888657" lon="21.584693287061">
        <ele>28.6</ele>
        <time>2017-07-26T19:07:29Z</time>
      </trkpt>
      <trkpt lat="60.129955951391" lon="21.584675182157">
        <ele>28.8</ele>
        <time>2017-07-26T19:07:30Z</time>
      </trkpt>
      <trkpt lat="60.129934577546" lon="21.584664369506">
        <ele>29.4</ele>
        <time>2017-07-26T19:07:31Z</time>
      </trkpt>
      <trkpt lat="60.129913622796" lon="21.584650707009">
        <ele>29.8</ele>
        <time>2017-07-26T19:07:32Z</time>
      </trkpt>
      <trkpt lat="60.129895350254" lon="21.584635787227">
        <ele>30.2</ele>
        <time>2017-07-26T19:07:33Z</time>
      </trkpt>
      <trkpt lat="60.129874814599" lon="21.584622711463">
        <ele>30.4</ele>
        <time>2017-07-26T19:07:34Z</time>
      </trkpt>
      <trkpt lat="60.129852602564" lon="21.584606031482">
        <ele>30.4</ele>
        <time>2017-07-26T19:07:35Z</time>
      </trkpt>
      <trkpt lat="60.129828965606" lon="21.584586753112">
        <ele>30.4</ele>
        <time>2017-07-26T19:07:36Z</time>
      </trkpt>
      <trkpt lat="60.129808932865" lon="21.584569989312">
        <ele>30.4</ele>
        <time>2017-07-26T19:07:37Z</time>
      </trkpt>
      <trkpt lat="60.129784541536" lon="21.584551297675">
        <ele>30.4</ele>
        <time>2017-07-26T19:07:38Z</time>
      </trkpt>
      <trkpt lat="60.129761239854" lon="21.58453579116">
        <ele>30.4</ele>
        <time>2017-07-26T19:07:39Z</time>
      </trkpt>
      <trkpt lat="60.129736094154" lon="21.584517518618">
        <ele>30.4</ele>
        <time>2017-07-26T19:07:40Z</time>
      </trkpt>
      <trkpt lat="60.129713211567" lon="21.584504191397">
        <ele>30.4</ele>
        <time>2017-07-26T19:07:41Z</time>
      </trkpt>
      <trkpt lat="60.129688233505" lon="21.584489103977">
        <ele>30.4</ele>
        <time>2017-07-26T19:07:42Z</time>
      </trkpt>
      <trkpt lat="60.129663003986" lon="21.584473513643">
        <ele>30.4</ele>
        <time>2017-07-26T19:07:43Z</time>
      </trkpt>
      <trkpt lat="60.129638025924" lon="21.584457085119">
        <ele>30.4</ele>
        <time>2017-07-26T19:07:44Z</time>
      </trkpt>
      <trkpt lat="60.129608940731" lon="21.584435543636">
        <ele>30.4</ele>
        <time>2017-07-26T19:07:45Z</time>
      </trkpt>
      <trkpt lat="60.129579604081" lon="21.58441676818">
        <ele>30.4</ele>
        <time>2017-07-26T19:07:46Z</time>
      </trkpt>
      <trkpt lat="60.129553368734" lon="21.584396567801">
        <ele>30.4</ele>
        <time>2017-07-26T19:07:47Z</time>
      </trkpt>
      <trkpt lat="60.129526630473" lon="21.584372511748">
        <ele>30.4</ele>
        <time>2017-07-26T19:07:48Z</time>
      </trkpt>
      <trkpt lat="60.129501065678" lon="21.584352479007">
        <ele>30.4</ele>
        <time>2017-07-26T19:07:49Z</time>
      </trkpt>
      <trkpt lat="60.12946988501" lon="21.584326746574">
        <ele>30.4</ele>
        <time>2017-07-26T19:07:50Z</time>
      </trkpt>
      <trkpt lat="60.12943887198" lon="21.584299673037">
        <ele>30.4</ele>
        <time>2017-07-26T19:07:51Z</time>
      </trkpt>
      <trkpt lat="60.129409451511" lon="21.584272934776">
        <ele>30.4</ele>
        <time>2017-07-26T19:07:52Z</time>
      </trkpt>
      <trkpt lat="60.129382880888" lon="21.584247789076">
        <ele>30.4</ele>
        <time>2017-07-26T19:07:53Z</time>
      </trkpt>
      <trkpt lat="60.129353125143" lon="21.584222894833">
        <ele>30.4</ele>
        <time>2017-07-26T19:07:54Z</time>
      </trkpt>
      <trkpt lat="60.129321944475" lon="21.584192887631">
        <ele>30.4</ele>
        <time>2017-07-26T19:07:55Z</time>
      </trkpt>
      <trkpt lat="60.129291434359" lon="21.58416531118">
        <ele>30.4</ele>
        <time>2017-07-26T19:07:56Z</time>
      </trkpt>
      <trkpt lat="60.129260588967" lon="21.584129688105">
        <ele>30.4</ele>
        <time>2017-07-26T19:07:57Z</time>
      </trkpt>
      <trkpt lat="60.129231252317" lon="21.584093143021">
        <ele>30.4</ele>
        <time>2017-07-26T19:07:58Z</time>
      </trkpt>
      <trkpt lat="60.129205687522" lon="21.584056681756">
        <ele>30.4</ele>
        <time>2017-07-26T19:07:59Z</time>
      </trkpt>
      <trkpt lat="60.129171573189" lon="21.584009826935">
        <ele>30.4</ele>
        <time>2017-07-26T19:08:00Z</time>
      </trkpt>
      <trkpt lat="60.129143996738" lon="21.583973449489">
        <ele>30.4</ele>
        <time>2017-07-26T19:08:01Z</time>
      </trkpt>
      <trkpt lat="60.129114911545" lon="21.583931372351">
        <ele>30.4</ele>
        <time>2017-07-26T19:08:02Z</time>
      </trkpt>
      <trkpt lat="60.129086077809" lon="21.583891977421">
        <ele>30.4</ele>
        <time>2017-07-26T19:08:03Z</time>
      </trkpt>
      <trkpt lat="60.129059423367" lon="21.583851744301">
        <ele>30.4</ele>
        <time>2017-07-26T19:08:04Z</time>
      </trkpt>
      <trkpt lat="60.129034277667" lon="21.583804805661">
        <ele>30.4</ele>
        <time>2017-07-26T19:08:05Z</time>
      </trkpt>
      <trkpt lat="60.129006449759" lon="21.583754765718">
        <ele>30.4</ele>
        <time>2017-07-26T19:08:06Z</time>
      </trkpt>
      <trkpt lat="60.128980633507" lon="21.583709000544">
        <ele>30.4</ele>
        <time>2017-07-26T19:08:07Z</time>
      </trkpt>
      <trkpt lat="60.1289594273" lon="21.583664660293">
        <ele>30.4</ele>
        <time>2017-07-26T19:08:08Z</time>
      </trkpt>
      <trkpt lat="60.128945680984" lon="21.583631300331">
        <ele>30.4</ele>
        <time>2017-07-26T19:08:09Z</time>
      </trkpt>
      <trkpt lat="60.128924810053" lon="21.583588049727">
        <ele>30.4</ele>
        <time>2017-07-26T19:08:10Z</time>
      </trkpt>
      <trkpt lat="60.128910728461" lon="21.58355343248">
        <ele>30.4</ele>
        <time>2017-07-26T19:08:11Z</time>
      </trkpt>
      <trkpt lat="60.128895473403" lon="21.583510014238">
        <ele>30.4</ele>
        <time>2017-07-26T19:08:12Z</time>
      </trkpt>
      <trkpt lat="60.128881643268" lon="21.583467853281">
        <ele>30.4</ele>
        <time>2017-07-26T19:08:13Z</time>
      </trkpt>
      <trkpt lat="60.128867058762" lon="21.583431811111">
        <ele>30.4</ele>
        <time>2017-07-26T19:08:14Z</time>
      </trkpt>
      <trkpt lat="60.128851887523" lon="21.583394427837">
        <ele>30.4</ele>
        <time>2017-07-26T19:08:15Z</time>
      </trkpt>
      <trkpt lat="60.128840488139" lon="21.583356290192">
        <ele>30.4</ele>
        <time>2017-07-26T19:08:16Z</time>
      </trkpt>
      <trkpt lat="60.12883286061" lon="21.58332376842">
        <ele>30.4</ele>
        <time>2017-07-26T19:08:17Z</time>
      </trkpt>
      <trkpt lat="60.128819868665" lon="21.583281775101">
        <ele>30.4</ele>
        <time>2017-07-26T19:08:18Z</time>
      </trkpt>
      <trkpt lat="60.128808050186" lon="21.583245230017">
        <ele>30.4</ele>
        <time>2017-07-26T19:08:19Z</time>
      </trkpt>
      <trkpt lat="60.128793800956" lon="21.583198961929">
        <ele>30.4</ele>
        <time>2017-07-26T19:08:20Z</time>
      </trkpt>
      <trkpt lat="60.128781898658" lon="21.58315193947">
        <ele>30.4</ele>
        <time>2017-07-26T19:08:21Z</time>
      </trkpt>
      <trkpt lat="60.128769912541" lon="21.583104246459">
        <ele>30.4</ele>
        <time>2017-07-26T19:08:22Z</time>
      </trkpt>
      <trkpt lat="60.128759854261" lon="21.58305973857">
        <ele>30.4</ele>
        <time>2017-07-26T19:08:23Z</time>
      </trkpt>
      <trkpt lat="60.128749209248" lon="21.583015063043">
        <ele>30.4</ele>
        <time>2017-07-26T19:08:24Z</time>
      </trkpt>
      <trkpt lat="60.128739486244" lon="21.582973153543">
        <ele>30.4</ele>
        <time>2017-07-26T19:08:25Z</time>
      </trkpt>
      <trkpt lat="60.128730266154" lon="21.582929483844">
        <ele>30.4</ele>
        <time>2017-07-26T19:08:26Z</time>
      </trkpt>
      <trkpt lat="60.128722303349" lon="21.582888412534">
        <ele>30.4</ele>
        <time>2017-07-26T19:08:27Z</time>
      </trkpt>
      <trkpt lat="60.12871132306" lon="21.582846754491">
        <ele>30.4</ele>
        <time>2017-07-26T19:08:28Z</time>
      </trkpt>
      <trkpt lat="60.128701180961" lon="21.58280911976">
        <ele>30.4</ele>
        <time>2017-07-26T19:08:29Z</time>
      </trkpt>
      <trkpt lat="60.128689697758" lon="21.582760672378">
        <ele>30.4</ele>
        <time>2017-07-26T19:08:30Z</time>
      </trkpt>
      <trkpt lat="60.128681483496" lon="21.582715577756">
        <ele>30.4</ele>
        <time>2017-07-26T19:08:31Z</time>
      </trkpt>
      <trkpt lat="60.128672514863" lon="21.58267081841">
        <ele>30.4</ele>
        <time>2017-07-26T19:08:32Z</time>
      </trkpt>
      <trkpt lat="60.128665557886" lon="21.582623628313">
        <ele>30.4</ele>
        <time>2017-07-26T19:08:33Z</time>
      </trkpt>
      <trkpt lat="60.12865600252" lon="21.582584736297">
        <ele>30.4</ele>
        <time>2017-07-26T19:08:34Z</time>
      </trkpt>
      <trkpt lat="60.128643094394" lon="21.582541653331">
        <ele>30.4</ele>
        <time>2017-07-26T19:08:35Z</time>
      </trkpt>
      <trkpt lat="60.128637227064" lon="21.582500162926">
        <ele>30.4</ele>
        <time>2017-07-26T19:08:36Z</time>
      </trkpt>
      <trkpt lat="60.128627336422" lon="21.582460684177">
        <ele>30.4</ele>
        <time>2017-07-26T19:08:37Z</time>
      </trkpt>
      <trkpt lat="60.128621385273" lon="21.582421289247">
        <ele>30.4</ele>
        <time>2017-07-26T19:08:38Z</time>
      </trkpt>
      <trkpt lat="60.128615434124" lon="21.582386923457">
        <ele>30.4</ele>
        <time>2017-07-26T19:08:39Z</time>
      </trkpt>
      <trkpt lat="60.128612500459" lon="21.582351635658">
        <ele>30.4</ele>
        <time>2017-07-26T19:08:40Z</time>
      </trkpt>
      <trkpt lat="60.128607303681" lon="21.582315509669">
        <ele>30.4</ele>
        <time>2017-07-26T19:08:41Z</time>
      </trkpt>
      <trkpt lat="60.128601184894" lon="21.582274522178">
        <ele>30.6</ele>
        <time>2017-07-26T19:08:42Z</time>
      </trkpt>
      <trkpt lat="60.128595904297" lon="21.582233367049">
        <ele>31</ele>
        <time>2017-07-26T19:08:43Z</time>
      </trkpt>
      <trkpt lat="60.128587857673" lon="21.582195983775">
        <ele>31.4</ele>
        <time>2017-07-26T19:08:44Z</time>
      </trkpt>
      <trkpt lat="60.128579475773" lon="21.582152146438">
        <ele>32</ele>
        <time>2017-07-26T19:08:45Z</time>
      </trkpt>
      <trkpt lat="60.12856966895" lon="21.582112667689">
        <ele>32.4</ele>
        <time>2017-07-26T19:08:46Z</time>
      </trkpt>
      <trkpt lat="60.128559191575" lon="21.582079726822">
        <ele>32.4</ele>
        <time>2017-07-26T19:08:47Z</time>
      </trkpt>
      <trkpt lat="60.128550055304" lon="21.582038152598">
        <ele>32.4</ele>
        <time>2017-07-26T19:08:48Z</time>
      </trkpt>
      <trkpt lat="60.128544774707" lon="21.582000601686">
        <ele>32.4</ele>
        <time>2017-07-26T19:08:49Z</time>
      </trkpt>
      <trkpt lat="60.128536895721" lon="21.581957183444">
        <ele>32.4</ele>
        <time>2017-07-26T19:08:50Z</time>
      </trkpt>
      <trkpt lat="60.128528010907" lon="21.5819172856">
        <ele>32.4</ele>
        <time>2017-07-26T19:08:51Z</time>
      </trkpt>
      <trkpt lat="60.128520551016" lon="21.581879315593">
        <ele>32.4</ele>
        <time>2017-07-26T19:08:52Z</time>
      </trkpt>
      <trkpt lat="60.128513845496" lon="21.581848051106">
        <ele>32.4</ele>
        <time>2017-07-26T19:08:53Z</time>
      </trkpt>
      <trkpt lat="60.128506888519" lon="21.581813433859">
        <ele>32.4</ele>
        <time>2017-07-26T19:08:54Z</time>
      </trkpt>
      <trkpt lat="60.128499428628" lon="21.581775547671">
        <ele>32.4</ele>
        <time>2017-07-26T19:08:55Z</time>
      </trkpt>
      <trkpt lat="60.128490292357" lon="21.581740595148">
        <ele>32.4</ele>
        <time>2017-07-26T19:08:56Z</time>
      </trkpt>
      <trkpt lat="60.128480653172" lon="21.581698769467">
        <ele>32.4</ele>
        <time>2017-07-26T19:08:57Z</time>
      </trkpt>
      <trkpt lat="60.128470427254" lon="21.581657111424">
        <ele>32.4</ele>
        <time>2017-07-26T19:08:58Z</time>
      </trkpt>
      <trkpt lat="60.128458944051" lon="21.581620482521">
        <ele>32.4</ele>
        <time>2017-07-26T19:08:59Z</time>
      </trkpt>
      <trkpt lat="60.128444946278" lon="21.581569269112">
        <ele>32.4</ele>
        <time>2017-07-26T19:09:00Z</time>
      </trkpt>
      <trkpt lat="60.128430445591" lon="21.581519564445">
        <ele>32.6</ele>
        <time>2017-07-26T19:09:01Z</time>
      </trkpt>
      <trkpt lat="60.128416028723" lon="21.581467429027">
        <ele>32.4</ele>
        <time>2017-07-26T19:09:02Z</time>
      </trkpt>
      <trkpt lat="60.128401779493" lon="21.581412779039">
        <ele>32.6</ele>
        <time>2017-07-26T19:09:03Z</time>
      </trkpt>
      <trkpt lat="60.128388033177" lon="21.581364750752">
        <ele>32.4</ele>
        <time>2017-07-26T19:09:04Z</time>
      </trkpt>
      <trkpt lat="60.128374705956" lon="21.581322505976">
        <ele>32.4</ele>
        <time>2017-07-26T19:09:05Z</time>
      </trkpt>
      <trkpt lat="60.12836095964" lon="21.581279255372">
        <ele>32.4</ele>
        <time>2017-07-26T19:09:06Z</time>
      </trkpt>
      <trkpt lat="60.128346626591" lon="21.581234663664">
        <ele>32.4</ele>
        <time>2017-07-26T19:09:07Z</time>
      </trkpt>
      <trkpt lat="60.128330030429" lon="21.581190071956">
        <ele>32.4</ele>
        <time>2017-07-26T19:09:08Z</time>
      </trkpt>
      <trkpt lat="60.128315194466" lon="21.581145396429">
        <ele>32.4</ele>
        <time>2017-07-26T19:09:09Z</time>
      </trkpt>
      <trkpt lat="60.128296670467" lon="21.581093009554">
        <ele>32.4</ele>
        <time>2017-07-26T19:09:10Z</time>
      </trkpt>
      <trkpt lat="60.128280996314" lon="21.58104640619">
        <ele>32.4</ele>
        <time>2017-07-26T19:09:11Z</time>
      </trkpt>
      <trkpt lat="60.128264651609" lon="21.580998377903">
        <ele>32.4</ele>
        <time>2017-07-26T19:09:12Z</time>
      </trkpt>
      <trkpt lat="60.128244954144" lon="21.580948589417">
        <ele>32.4</ele>
        <time>2017-07-26T19:09:13Z</time>
      </trkpt>
      <trkpt lat="60.128224586127" lon="21.580902488967">
        <ele>32.4</ele>
        <time>2017-07-26T19:09:14Z</time>
      </trkpt>
      <trkpt lat="60.12820002716" lon="21.580844150943">
        <ele>32.4</ele>
        <time>2017-07-26T19:09:15Z</time>
      </trkpt>
      <trkpt lat="60.128175384374" lon="21.580787908394">
        <ele>32.4</ele>
        <time>2017-07-26T19:09:16Z</time>
      </trkpt>
      <trkpt lat="60.128151328321" lon="21.580735270062">
        <ele>32.4</ele>
        <time>2017-07-26T19:09:17Z</time>
      </trkpt>
      <trkpt lat="60.128123835689" lon="21.580676848219">
        <ele>32.4</ele>
        <time>2017-07-26T19:09:18Z</time>
      </trkpt>
      <trkpt lat="60.128100031093" lon="21.580626305362">
        <ele>32.4</ele>
        <time>2017-07-26T19:09:19Z</time>
      </trkpt>
      <trkpt lat="60.12807262228" lon="21.580571823012">
        <ele>32.4</ele>
        <time>2017-07-26T19:09:20Z</time>
      </trkpt>
      <trkpt lat="60.128047895675" lon="21.580524549096">
        <ele>32.4</ele>
        <time>2017-07-26T19:09:21Z</time>
      </trkpt>
      <trkpt lat="60.128022163242" lon="21.580474928248">
        <ele>32.4</ele>
        <time>2017-07-26T19:09:22Z</time>
      </trkpt>
      <trkpt lat="60.127997520456" lon="21.580432180558">
        <ele>32.4</ele>
        <time>2017-07-26T19:09:23Z</time>
      </trkpt>
      <trkpt lat="60.127970949833" lon="21.580384403728">
        <ele>32.4</ele>
        <time>2017-07-26T19:09:24Z</time>
      </trkpt>
      <trkpt lat="60.127943289563" lon="21.580333274138">
        <ele>32.4</ele>
        <time>2017-07-26T19:09:25Z</time>
      </trkpt>
      <trkpt lat="60.127915713112" lon="21.580290023534">
        <ele>32.4</ele>
        <time>2017-07-26T19:09:26Z</time>
      </trkpt>
      <trkpt lat="60.127888723394" lon="21.580245599464">
        <ele>32.4</ele>
        <time>2017-07-26T19:09:27Z</time>
      </trkpt>
      <trkpt lat="60.127863242418" lon="21.580202181222">
        <ele>32.4</ele>
        <time>2017-07-26T19:09:28Z</time>
      </trkpt>
      <trkpt lat="60.127834157225" lon="21.580157421876">
        <ele>32.4</ele>
        <time>2017-07-26T19:09:29Z</time>
      </trkpt>
      <trkpt lat="60.127800545806" lon="21.580098161843">
        <ele>32.4</ele>
        <time>2017-07-26T19:09:30Z</time>
      </trkpt>
      <trkpt lat="60.127775316287" lon="21.580046696977">
        <ele>32.4</ele>
        <time>2017-07-26T19:09:31Z</time>
      </trkpt>
      <trkpt lat="60.127745392904" lon="21.580000093613">
        <ele>32.4</ele>
        <time>2017-07-26T19:09:32Z</time>
      </trkpt>
      <trkpt lat="60.127717984091" lon="21.579949131661">
        <ele>32.4</ele>
        <time>2017-07-26T19:09:33Z</time>
      </trkpt>
      <trkpt lat="60.127689653269" lon="21.57990143865">
        <ele>32</ele>
        <time>2017-07-26T19:09:34Z</time>
      </trkpt>
      <trkpt lat="60.127658053506" lon="21.579851063431">
        <ele>31.6</ele>
        <time>2017-07-26T19:09:35Z</time>
      </trkpt>
      <trkpt lat="60.127627794847" lon="21.579802196954">
        <ele>31.2</ele>
        <time>2017-07-26T19:09:36Z</time>
      </trkpt>
      <trkpt lat="60.12759653036" lon="21.579753833391">
        <ele>30.6</ele>
        <time>2017-07-26T19:09:37Z</time>
      </trkpt>
      <trkpt lat="60.127569121547" lon="21.579706894751">
        <ele>30.4</ele>
        <time>2017-07-26T19:09:38Z</time>
      </trkpt>
      <trkpt lat="60.127546322779" lon="21.579662219224">
        <ele>30.4</ele>
        <time>2017-07-26T19:09:39Z</time>
      </trkpt>
      <trkpt lat="60.12751606412" lon="21.579609413254">
        <ele>30.4</ele>
        <time>2017-07-26T19:09:40Z</time>
      </trkpt>
      <trkpt lat="60.127490750782" lon="21.579563480442">
        <ele>30.4</ele>
        <time>2017-07-26T19:09:41Z</time>
      </trkpt>
      <trkpt lat="60.127459570114" lon="21.579510339196">
        <ele>30.4</ele>
        <time>2017-07-26T19:09:42Z</time>
      </trkpt>
      <trkpt lat="60.127432077482" lon="21.579460718348">
        <ele>30.2</ele>
        <time>2017-07-26T19:09:43Z</time>
      </trkpt>
      <trkpt lat="60.127411122732" lon="21.579422161608">
        <ele>30.4</ele>
        <time>2017-07-26T19:09:44Z</time>
      </trkpt>
      <trkpt lat="60.127382205177" lon="21.579369104181">
        <ele>30</ele>
        <time>2017-07-26T19:09:45Z</time>
      </trkpt>
      <trkpt lat="60.127355802192" lon="21.579324261016">
        <ele>29.8</ele>
        <time>2017-07-26T19:09:46Z</time>
      </trkpt>
      <trkpt lat="60.127330488854" lon="21.579281680964">
        <ele>29.4</ele>
        <time>2017-07-26T19:09:47Z</time>
      </trkpt>
      <trkpt lat="60.127299392005" lon="21.579228874994">
        <ele>29.2</ele>
        <time>2017-07-26T19:09:48Z</time>
      </trkpt>
      <trkpt lat="60.127270725907" lon="21.57918059525">
        <ele>28.8</ele>
        <time>2017-07-26T19:09:49Z</time>
      </trkpt>
      <trkpt lat="60.127238455592" lon="21.579125358529">
        <ele>28.6</ele>
        <time>2017-07-26T19:09:50Z</time>
      </trkpt>
      <trkpt lat="60.127207107286" lon="21.579074228939">
        <ele>28.4</ele>
        <time>2017-07-26T19:09:51Z</time>
      </trkpt>
      <trkpt lat="60.127179530835" lon="21.579019076037">
        <ele>28.2</ele>
        <time>2017-07-26T19:09:52Z</time>
      </trkpt>
      <trkpt lat="60.12714977509" lon="21.578959564547">
        <ele>28.2</ele>
        <time>2017-07-26T19:09:53Z</time>
      </trkpt>
      <trkpt lat="60.127120186983" lon="21.578906255663">
        <ele>28.2</ele>
        <time>2017-07-26T19:09:54Z</time>
      </trkpt>
      <trkpt lat="60.127089090134" lon="21.578852192408">
        <ele>28.2</ele>
        <time>2017-07-26T19:09:55Z</time>
      </trkpt>
      <trkpt lat="60.127058915294" lon="21.578803242112">
        <ele>27.8</ele>
        <time>2017-07-26T19:09:56Z</time>
      </trkpt>
      <trkpt lat="60.127027818445" lon="21.578751274332">
        <ele>27.4</ele>
        <time>2017-07-26T19:09:57Z</time>
      </trkpt>
      <trkpt lat="60.126999236166" lon="21.578702743131">
        <ele>27</ele>
        <time>2017-07-26T19:09:58Z</time>
      </trkpt>
      <trkpt lat="60.126977778502" lon="21.578664354029">
        <ele>26.8</ele>
        <time>2017-07-26T19:09:59Z</time>
      </trkpt>
      <trkpt lat="60.126950872603" lon="21.578620265235">
        <ele>26.4</ele>
        <time>2017-07-26T19:10:00Z</time>
      </trkpt>
      <trkpt lat="60.126925223989" lon="21.578577769002">
        <ele>26.2</ele>
        <time>2017-07-26T19:10:01Z</time>
      </trkpt>
      <trkpt lat="60.126902089945" lon="21.578540804823">
        <ele>26.2</ele>
        <time>2017-07-26T19:10:02Z</time>
      </trkpt>
      <trkpt lat="60.126877447159" lon="21.578503002454">
        <ele>26.2</ele>
        <time>2017-07-26T19:10:03Z</time>
      </trkpt>
      <trkpt lat="60.126856240952" lon="21.578466960284">
        <ele>26.2</ele>
        <time>2017-07-26T19:10:04Z</time>
      </trkpt>
      <trkpt lat="60.126834280374" lon="21.578430582838">
        <ele>26.2</ele>
        <time>2017-07-26T19:10:05Z</time>
      </trkpt>
      <trkpt lat="60.126812068339" lon="21.578389427709">
        <ele>26.2</ele>
        <time>2017-07-26T19:10:06Z</time>
      </trkpt>
      <trkpt lat="60.126797316195" lon="21.578362186534">
        <ele>26.2</ele>
        <time>2017-07-26T19:10:07Z</time>
      </trkpt>
      <trkpt lat="60.126769404468" lon="21.578313739152">
        <ele>26.2</ele>
        <time>2017-07-26T19:10:08Z</time>
      </trkpt>
      <trkpt lat="60.126750712831" lon="21.578283312855">
        <ele>26.2</ele>
        <time>2017-07-26T19:10:09Z</time>
      </trkpt>
      <trkpt lat="60.126730260995" lon="21.578254562938">
        <ele>26.2</ele>
        <time>2017-07-26T19:10:10Z</time>
      </trkpt>
      <trkpt lat="60.126711904634" lon="21.578232434722">
        <ele>26.2</ele>
        <time>2017-07-26T19:10:11Z</time>
      </trkpt>
      <trkpt lat="60.126690027875" lon="21.578202595158">
        <ele>26.2</ele>
        <time>2017-07-26T19:10:12Z</time>
      </trkpt>
      <trkpt lat="60.126672258247" lon="21.578173426146">
        <ele>26.2</ele>
        <time>2017-07-26T19:10:13Z</time>
      </trkpt>
      <trkpt lat="60.126652476963" lon="21.578146604066">
        <ele>26.2</ele>
        <time>2017-07-26T19:10:14Z</time>
      </trkpt>
      <trkpt lat="60.126630348747" lon="21.578115004303">
        <ele>26.2</ele>
        <time>2017-07-26T19:10:15Z</time>
      </trkpt>
      <trkpt lat="60.12660662797" lon="21.578084829463">
        <ele>26.2</ele>
        <time>2017-07-26T19:10:16Z</time>
      </trkpt>
      <trkpt lat="60.126585002668" lon="21.578055157537">
        <ele>26.2</ele>
        <time>2017-07-26T19:10:17Z</time>
      </trkpt>
      <trkpt lat="60.126561868624" lon="21.578023222498">
        <ele>26.2</ele>
        <time>2017-07-26T19:10:18Z</time>
      </trkpt>
      <trkpt lat="60.126540159503" lon="21.577995059314">
        <ele>26.2</ele>
        <time>2017-07-26T19:10:19Z</time>
      </trkpt>
      <trkpt lat="60.126513840337" lon="21.577968404872">
        <ele>26.2</ele>
        <time>2017-07-26T19:10:20Z</time>
      </trkpt>
      <trkpt lat="60.126495819252" lon="21.577938146213">
        <ele>26.2</ele>
        <time>2017-07-26T19:10:21Z</time>
      </trkpt>
      <trkpt lat="60.126474110131" lon="21.577916185635">
        <ele>26.2</ele>
        <time>2017-07-26T19:10:22Z</time>
      </trkpt>
      <trkpt lat="60.126455167037" lon="21.577893554505">
        <ele>26.2</ele>
        <time>2017-07-26T19:10:23Z</time>
      </trkpt>
      <trkpt lat="60.126435553391" lon="21.577866900063">
        <ele>26.2</ele>
        <time>2017-07-26T19:10:24Z</time>
      </trkpt>
      <trkpt lat="60.126415436831" lon="21.577843514562">
        <ele>26.2</ele>
        <time>2017-07-26T19:10:25Z</time>
      </trkpt>
      <trkpt lat="60.126398086298" lon="21.577827086038">
        <ele>26.2</ele>
        <time>2017-07-26T19:10:26Z</time>
      </trkpt>
      <trkpt lat="60.126379310842" lon="21.577808059125">
        <ele>26.2</ele>
        <time>2017-07-26T19:10:27Z</time>
      </trkpt>
      <trkpt lat="60.126355925341" lon="21.577789786583">
        <ele>26.2</ele>
        <time>2017-07-26T19:10:28Z</time>
      </trkpt>
      <trkpt lat="60.12633505441" lon="21.577771011127">
        <ele>26.2</ele>
        <time>2017-07-26T19:10:29Z</time>
      </trkpt>
      <trkpt lat="60.126305633941" lon="21.577745278694">
        <ele>26.2</ele>
        <time>2017-07-26T19:10:30Z</time>
      </trkpt>
      <trkpt lat="60.126278728042" lon="21.577721138822">
        <ele>26.2</ele>
        <time>2017-07-26T19:10:31Z</time>
      </trkpt>
      <trkpt lat="60.126245284261" lon="21.577692891819">
        <ele>26.2</ele>
        <time>2017-07-26T19:10:32Z</time>
      </trkpt>
      <trkpt lat="60.126211337566" lon="21.577665650644">
        <ele>26.2</ele>
        <time>2017-07-26T19:10:33Z</time>
      </trkpt>
      <trkpt lat="60.126178983432" lon="21.577648132473">
        <ele>26.2</ele>
        <time>2017-07-26T19:10:34Z</time>
      </trkpt>
      <trkpt lat="60.126143527995" lon="21.577628435008">
        <ele>26.2</ele>
        <time>2017-07-26T19:10:35Z</time>
      </trkpt>
      <trkpt lat="60.126109916576" lon="21.577607480258">
        <ele>26.2</ele>
        <time>2017-07-26T19:10:36Z</time>
      </trkpt>
      <trkpt lat="60.126076556614" lon="21.577590045906">
        <ele>26.2</ele>
        <time>2017-07-26T19:10:37Z</time>
      </trkpt>
      <trkpt lat="60.126045208308" lon="21.577575042305">
        <ele>26.2</ele>
        <time>2017-07-26T19:10:38Z</time>
      </trkpt>
      <trkpt lat="60.126019224418" lon="21.577562134179">
        <ele>26.2</ele>
        <time>2017-07-26T19:10:39Z</time>
      </trkpt>
      <trkpt lat="60.125986786465" lon="21.577544783646">
        <ele>26.2</ele>
        <time>2017-07-26T19:10:40Z</time>
      </trkpt>
      <trkpt lat="60.125959126195" lon="21.577530115321">
        <ele>26.2</ele>
        <time>2017-07-26T19:10:41Z</time>
      </trkpt>
      <trkpt lat="60.125930543916" lon="21.577514524987">
        <ele>26.2</ele>
        <time>2017-07-26T19:10:42Z</time>
      </trkpt>
      <trkpt lat="60.125904727664" lon="21.577497593549">
        <ele>26.2</ele>
        <time>2017-07-26T19:10:43Z</time>
      </trkpt>
      <trkpt lat="60.125881928896" lon="21.577483428138">
        <ele>26.2</ele>
        <time>2017-07-26T19:10:44Z</time>
      </trkpt>
      <trkpt lat="60.12585644792" lon="21.577466999614">
        <ele>26.2</ele>
        <time>2017-07-26T19:10:45Z</time>
      </trkpt>
      <trkpt lat="60.125831134582" lon="21.577453588574">
        <ele>26.2</ele>
        <time>2017-07-26T19:10:46Z</time>
      </trkpt>
      <trkpt lat="60.125805905063" lon="21.577436657136">
        <ele>26.2</ele>
        <time>2017-07-26T19:10:47Z</time>
      </trkpt>
      <trkpt lat="60.125776987508" lon="21.577423078458">
        <ele>26.2</ele>
        <time>2017-07-26T19:10:48Z</time>
      </trkpt>
      <trkpt lat="60.125751338894" lon="21.577406230839">
        <ele>26.2</ele>
        <time>2017-07-26T19:10:49Z</time>
      </trkpt>
      <trkpt lat="60.125721750787" lon="21.577387371564">
        <ele>26.2</ele>
        <time>2017-07-26T19:10:50Z</time>
      </trkpt>
      <trkpt lat="60.125693671422" lon="21.577370272488">
        <ele>26.2</ele>
        <time>2017-07-26T19:10:51Z</time>
      </trkpt>
      <trkpt lat="60.125663915677" lon="21.577353508688">
        <ele>26.2</ele>
        <time>2017-07-26T19:10:52Z</time>
      </trkpt>
      <trkpt lat="60.125636590683" lon="21.577335906698">
        <ele>26.2</ele>
        <time>2017-07-26T19:10:53Z</time>
      </trkpt>
      <trkpt lat="60.125607002576" lon="21.57731478431">
        <ele>26.2</ele>
        <time>2017-07-26T19:10:54Z</time>
      </trkpt>
      <trkpt lat="60.125574648442" lon="21.577293242827">
        <ele>26.2</ele>
        <time>2017-07-26T19:10:55Z</time>
      </trkpt>
      <trkpt lat="60.125543886869" lon="21.577273964457">
        <ele>26.2</ele>
        <time>2017-07-26T19:10:56Z</time>
      </trkpt>
      <trkpt lat="60.125511868011" lon="21.577257535933">
        <ele>26.2</ele>
        <time>2017-07-26T19:10:57Z</time>
      </trkpt>
      <trkpt lat="60.125481274076" lon="21.577240604495">
        <ele>26.2</ele>
        <time>2017-07-26T19:10:58Z</time>
      </trkpt>
      <trkpt lat="60.125453781444" lon="21.577227025817">
        <ele>26.2</ele>
        <time>2017-07-26T19:10:59Z</time>
      </trkpt>
      <trkpt lat="60.125417571636" lon="21.577211854578">
        <ele>26.2</ele>
        <time>2017-07-26T19:11:00Z</time>
      </trkpt>
      <trkpt lat="60.125383205846" lon="21.577198024443">
        <ele>26.2</ele>
        <time>2017-07-26T19:11:01Z</time>
      </trkpt>
      <trkpt lat="60.125348169504" lon="21.577185200136">
        <ele>26.2</ele>
        <time>2017-07-26T19:11:02Z</time>
      </trkpt>
      <trkpt lat="60.125316402103" lon="21.577175393313">
        <ele>26.2</ele>
        <time>2017-07-26T19:11:03Z</time>
      </trkpt>
      <trkpt lat="60.125274073508" lon="21.577161982273">
        <ele>26.2</ele>
        <time>2017-07-26T19:11:04Z</time>
      </trkpt>
      <trkpt lat="60.125234259483" lon="21.577152007812">
        <ele>26.2</ele>
        <time>2017-07-26T19:11:05Z</time>
      </trkpt>
      <trkpt lat="60.125191511793" lon="21.577146056663">
        <ele>26.2</ele>
        <time>2017-07-26T19:11:06Z</time>
      </trkpt>
      <trkpt lat="60.125150021388" lon="21.577135830745">
        <ele>26.2</ele>
        <time>2017-07-26T19:11:07Z</time>
      </trkpt>
      <trkpt lat="60.12510542968" lon="21.577128119397">
        <ele>26.2</ele>
        <time>2017-07-26T19:11:08Z</time>
      </trkpt>
      <trkpt lat="60.125062430533" lon="21.577121916791">
        <ele>26.2</ele>
        <time>2017-07-26T19:11:09Z</time>
      </trkpt>
      <trkpt lat="60.125011300943" lon="21.577121078601">
        <ele>26.2</ele>
        <time>2017-07-26T19:11:10Z</time>
      </trkpt>
      <trkpt lat="60.12496629014" lon="21.577124179904">
        <ele>26.2</ele>
        <time>2017-07-26T19:11:11Z</time>
      </trkpt>
      <trkpt lat="60.124918680948" lon="21.577132477985">
        <ele>26</ele>
        <time>2017-07-26T19:11:12Z</time>
      </trkpt>
      <trkpt lat="60.124870317385" lon="21.577141111342">
        <ele>26.2</ele>
        <time>2017-07-26T19:11:13Z</time>
      </trkpt>
      <trkpt lat="60.124825055125" lon="21.577147733043">
        <ele>26</ele>
        <time>2017-07-26T19:11:14Z</time>
      </trkpt>
      <trkpt lat="60.124772416793" lon="21.577158545694">
        <ele>26.2</ele>
        <time>2017-07-26T19:11:15Z</time>
      </trkpt>
      <trkpt lat="60.124723885592" lon="21.577169945078">
        <ele>25.6</ele>
        <time>2017-07-26T19:11:16Z</time>
      </trkpt>
      <trkpt lat="60.124677449866" lon="21.577183439937">
        <ele>25.2</ele>
        <time>2017-07-26T19:11:17Z</time>
      </trkpt>
      <trkpt lat="60.124628583389" lon="21.577198527357">
        <ele>24.8</ele>
        <time>2017-07-26T19:11:18Z</time>
      </trkpt>
      <trkpt lat="60.124590194287" lon="21.577215123519">
        <ele>24.6</ele>
        <time>2017-07-26T19:11:19Z</time>
      </trkpt>
      <trkpt lat="60.124542166" lon="21.577238592839">
        <ele>24.2</ele>
        <time>2017-07-26T19:11:20Z</time>
      </trkpt>
      <trkpt lat="60.124498161025" lon="21.577259379951">
        <ele>24</ele>
        <time>2017-07-26T19:11:21Z</time>
      </trkpt>
      <trkpt lat="60.12445331786" lon="21.57728125671">
        <ele>24</ele>
        <time>2017-07-26T19:11:22Z</time>
      </trkpt>
      <trkpt lat="60.124413168559" lon="21.577300367442">
        <ele>24</ele>
        <time>2017-07-26T19:11:23Z</time>
      </trkpt>
      <trkpt lat="60.124372348706" lon="21.577319729631">
        <ele>24</ele>
        <time>2017-07-26T19:11:24Z</time>
      </trkpt>
      <trkpt lat="60.124328762826" lon="21.577339678553">
        <ele>24</ele>
        <time>2017-07-26T19:11:25Z</time>
      </trkpt>
      <trkpt lat="60.12429322357" lon="21.577359376018">
        <ele>24</ele>
        <time>2017-07-26T19:11:26Z</time>
      </trkpt>
      <trkpt lat="60.124254415373" lon="21.577380414587">
        <ele>24</ele>
        <time>2017-07-26T19:11:27Z</time>
      </trkpt>
      <trkpt lat="60.124219630488" lon="21.577401285518">
        <ele>24</ele>
        <time>2017-07-26T19:11:28Z</time>
      </trkpt>
      <trkpt lat="60.124191718761" lon="21.577419306603">
        <ele>24</ele>
        <time>2017-07-26T19:11:29Z</time>
      </trkpt>
      <trkpt lat="60.124156347143" lon="21.577447888882">
        <ele>24</ele>
        <time>2017-07-26T19:11:30Z</time>
      </trkpt>
      <trkpt lat="60.124122568086" lon="21.577469598003">
        <ele>24</ele>
        <time>2017-07-26T19:11:31Z</time>
      </trkpt>
      <trkpt lat="60.124088537572" lon="21.577489463106">
        <ele>24</ele>
        <time>2017-07-26T19:11:32Z</time>
      </trkpt>
      <trkpt lat="60.124057775999" lon="21.577506813639">
        <ele>24</ele>
        <time>2017-07-26T19:11:33Z</time>
      </trkpt>
      <trkpt lat="60.124027768797" lon="21.577525756733">
        <ele>24</ele>
        <time>2017-07-26T19:11:34Z</time>
      </trkpt>
      <trkpt lat="60.123995917577" lon="21.577544196913">
        <ele>24</ele>
        <time>2017-07-26T19:11:35Z</time>
      </trkpt>
      <trkpt lat="60.123963060529" lon="21.577565654577">
        <ele>24</ele>
        <time>2017-07-26T19:11:36Z</time>
      </trkpt>
      <trkpt lat="60.123930119662" lon="21.577588201888">
        <ele>24</ele>
        <time>2017-07-26T19:11:37Z</time>
      </trkpt>
      <trkpt lat="60.123896005329" lon="21.577611168294">
        <ele>24</ele>
        <time>2017-07-26T19:11:38Z</time>
      </trkpt>
      <trkpt lat="60.123864992299" lon="21.577633799424">
        <ele>24</ele>
        <time>2017-07-26T19:11:39Z</time>
      </trkpt>
      <trkpt lat="60.123830039776" lon="21.577656430554">
        <ele>24</ele>
        <time>2017-07-26T19:11:40Z</time>
      </trkpt>
      <trkpt lat="60.123799781117" lon="21.577674032544">
        <ele>24</ele>
        <time>2017-07-26T19:11:41Z</time>
      </trkpt>
      <trkpt lat="60.12376767844" lon="21.577693730009">
        <ele>24</ele>
        <time>2017-07-26T19:11:42Z</time>
      </trkpt>
      <trkpt lat="60.123734318478" lon="21.577716612596">
        <ele>24</ele>
        <time>2017-07-26T19:11:43Z</time>
      </trkpt>
      <trkpt lat="60.123706322932" lon="21.577735471871">
        <ele>24</ele>
        <time>2017-07-26T19:11:44Z</time>
      </trkpt>
      <trkpt lat="60.12367380116" lon="21.577760282295">
        <ele>24</ele>
        <time>2017-07-26T19:11:45Z</time>
      </trkpt>
      <trkpt lat="60.123645386519" lon="21.577776878457">
        <ele>24</ele>
        <time>2017-07-26T19:11:46Z</time>
      </trkpt>
      <trkpt lat="60.123618229163" lon="21.577793306981">
        <ele>24</ele>
        <time>2017-07-26T19:11:47Z</time>
      </trkpt>
      <trkpt lat="60.123586880857" lon="21.577807807668">
        <ele>24</ele>
        <time>2017-07-26T19:11:48Z</time>
      </trkpt>
      <trkpt lat="60.123560058777" lon="21.577819793785">
        <ele>24</ele>
        <time>2017-07-26T19:11:49Z</time>
      </trkpt>
      <trkpt lat="60.12353047067" lon="21.577837395775">
        <ele>24</ele>
        <time>2017-07-26T19:11:50Z</time>
      </trkpt>
      <trkpt lat="60.123502726581" lon="21.577854075756">
        <ele>24</ele>
        <time>2017-07-26T19:11:51Z</time>
      </trkpt>
      <trkpt lat="60.123474395759" lon="21.577869917547">
        <ele>24</ele>
        <time>2017-07-26T19:11:52Z</time>
      </trkpt>
      <trkpt lat="60.123448411869" lon="21.57787888618">
        <ele>24</ele>
        <time>2017-07-26T19:11:53Z</time>
      </trkpt>
      <trkpt lat="60.123421086875" lon="21.577891123754">
        <ele>24</ele>
        <time>2017-07-26T19:11:54Z</time>
      </trkpt>
      <trkpt lat="60.123390995854" lon="21.577898667464">
        <ele>24</ele>
        <time>2017-07-26T19:11:55Z</time>
      </trkpt>
      <trkpt lat="60.123362665032" lon="21.577906127355">
        <ele>24</ele>
        <time>2017-07-26T19:11:56Z</time>
      </trkpt>
      <trkpt lat="60.123333915115" lon="21.577916269454">
        <ele>24</ele>
        <time>2017-07-26T19:11:57Z</time>
      </trkpt>
      <trkpt lat="60.123307009216" lon="21.577924399897">
        <ele>24</ele>
        <time>2017-07-26T19:11:58Z</time>
      </trkpt>
      <trkpt lat="60.12328069005" lon="21.57793336853">
        <ele>24</ele>
        <time>2017-07-26T19:11:59Z</time>
      </trkpt>
      <trkpt lat="60.123248755011" lon="21.57794677957">
        <ele>24</ele>
        <time>2017-07-26T19:12:00Z</time>
      </trkpt>
      <trkpt lat="60.123219250723" lon="21.577957173126">
        <ele>24</ele>
        <time>2017-07-26T19:12:01Z</time>
      </trkpt>
      <trkpt lat="60.123187902417" lon="21.577966477035">
        <ele>24</ele>
        <time>2017-07-26T19:12:02Z</time>
      </trkpt>
      <trkpt lat="60.123154039541" lon="21.577973685469">
        <ele>24</ele>
        <time>2017-07-26T19:12:03Z</time>
      </trkpt>
      <trkpt lat="60.12312311033" lon="21.577980642446">
        <ele>24</ele>
        <time>2017-07-26T19:12:04Z</time>
      </trkpt>
      <trkpt lat="60.123089415092" lon="21.577987683242">
        <ele>24</ele>
        <time>2017-07-26T19:12:05Z</time>
      </trkpt>
      <trkpt lat="60.123055300759" lon="21.577993131477">
        <ele>24</ele>
        <time>2017-07-26T19:12:06Z</time>
      </trkpt>
      <trkpt lat="60.123018588037" lon="21.578005201413">
        <ele>24</ele>
        <time>2017-07-26T19:12:07Z</time>
      </trkpt>
      <trkpt lat="60.122981959134" lon="21.578011990752">
        <ele>24</ele>
        <time>2017-07-26T19:12:08Z</time>
      </trkpt>
      <trkpt lat="60.122951449018" lon="21.57801886391">
        <ele>24</ele>
        <time>2017-07-26T19:12:09Z</time>
      </trkpt>
      <trkpt lat="60.122914987753" lon="21.578022132851">
        <ele>24</ele>
        <time>2017-07-26T19:12:10Z</time>
      </trkpt>
      <trkpt lat="60.122881879248" lon="21.578025401792">
        <ele>24</ele>
        <time>2017-07-26T19:12:11Z</time>
      </trkpt>
      <trkpt lat="60.122847262001" lon="21.578028754552">
        <ele>24</ele>
        <time>2017-07-26T19:12:12Z</time>
      </trkpt>
      <trkpt lat="60.122813985858" lon="21.578034705701">
        <ele>24</ele>
        <time>2017-07-26T19:12:13Z</time>
      </trkpt>
      <trkpt lat="60.122784816846" lon="21.578040992126">
        <ele>24</ele>
        <time>2017-07-26T19:12:14Z</time>
      </trkpt>
      <trkpt lat="60.122744164631" lon="21.578049206388">
        <ele>24</ele>
        <time>2017-07-26T19:12:15Z</time>
      </trkpt>
      <trkpt lat="60.122711475221" lon="21.578055073718">
        <ele>24</ele>
        <time>2017-07-26T19:12:16Z</time>
      </trkpt>
      <trkpt lat="60.122678785811" lon="21.578060857229">
        <ele>24</ele>
        <time>2017-07-26T19:12:17Z</time>
      </trkpt>
      <trkpt lat="60.122644839116" lon="21.578069909681">
        <ele>24</ele>
        <time>2017-07-26T19:12:18Z</time>
      </trkpt>
      <trkpt lat="60.122618017036" lon="21.57808088997">
        <ele>24</ele>
        <time>2017-07-26T19:12:19Z</time>
      </trkpt>
      <trkpt lat="60.122589770033" lon="21.57809597739">
        <ele>24</ele>
        <time>2017-07-26T19:12:20Z</time>
      </trkpt>
      <trkpt lat="60.122560265745" lon="21.578110478077">
        <ele>24</ele>
        <time>2017-07-26T19:12:21Z</time>
      </trkpt>
      <trkpt lat="60.122528330706" lon="21.578130594637">
        <ele>24</ele>
        <time>2017-07-26T19:12:22Z</time>
      </trkpt>
      <trkpt lat="60.1224969824" lon="21.578149537731">
        <ele>24</ele>
        <time>2017-07-26T19:12:23Z</time>
      </trkpt>
      <trkpt lat="60.122460772592" lon="21.578171917404">
        <ele>24</ele>
        <time>2017-07-26T19:12:24Z</time>
      </trkpt>
      <trkpt lat="60.122421964395" lon="21.578197985113">
        <ele>24</ele>
        <time>2017-07-26T19:12:25Z</time>
      </trkpt>
      <trkpt lat="60.122384497302" lon="21.578222795537">
        <ele>24</ele>
        <time>2017-07-26T19:12:26Z</time>
      </trkpt>
      <trkpt lat="60.122345856743" lon="21.578249533798">
        <ele>24</ele>
        <time>2017-07-26T19:12:27Z</time>
      </trkpt>
      <trkpt lat="60.122306042718" lon="21.578277780801">
        <ele>24</ele>
        <time>2017-07-26T19:12:28Z</time>
      </trkpt>
      <trkpt lat="60.122271928385" lon="21.578303094139">
        <ele>24</ele>
        <time>2017-07-26T19:12:29Z</time>
      </trkpt>
      <trkpt lat="60.122223229546" lon="21.578345003639">
        <ele>24</ele>
        <time>2017-07-26T19:12:30Z</time>
      </trkpt>
      <trkpt lat="60.122182744969" lon="21.578379453248">
        <ele>24</ele>
        <time>2017-07-26T19:12:31Z</time>
      </trkpt>
      <trkpt lat="60.12214075165" lon="21.578416333608">
        <ele>24</ele>
        <time>2017-07-26T19:12:32Z</time>
      </trkpt>
      <trkpt lat="60.122098339236" lon="21.578450112665">
        <ele>24</ele>
        <time>2017-07-26T19:12:33Z</time>
      </trkpt>
      <trkpt lat="60.122057351745" lon="21.578481209514">
        <ele>24</ele>
        <time>2017-07-26T19:12:34Z</time>
      </trkpt>
      <trkpt lat="60.122012843856" lon="21.578517167865">
        <ele>24</ele>
        <time>2017-07-26T19:12:35Z</time>
      </trkpt>
      <trkpt lat="60.121968252148" lon="21.578554383501">
        <ele>24</ele>
        <time>2017-07-26T19:12:36Z</time>
      </trkpt>
      <trkpt lat="60.121929443951" lon="21.578590928585">
        <ele>24</ele>
        <time>2017-07-26T19:12:37Z</time>
      </trkpt>
      <trkpt lat="60.121887199175" lon="21.578630239696">
        <ele>23.8</ele>
        <time>2017-07-26T19:12:38Z</time>
      </trkpt>
      <trkpt lat="60.12185073791" lon="21.578660498355">
        <ele>23.6</ele>
        <time>2017-07-26T19:12:39Z</time>
      </trkpt>
      <trkpt lat="60.121808576953" lon="21.578697294896">
        <ele>23.4</ele>
        <time>2017-07-26T19:12:40Z</time>
      </trkpt>
      <trkpt lat="60.121771612774" lon="21.578725877175">
        <ele>23</ele>
        <time>2017-07-26T19:12:41Z</time>
      </trkpt>
      <trkpt lat="60.121731631111" lon="21.578760326784">
        <ele>22.8</ele>
        <time>2017-07-26T19:12:42Z</time>
      </trkpt>
      <trkpt lat="60.12169483457" lon="21.578790417805">
        <ele>22.6</ele>
        <time>2017-07-26T19:12:43Z</time>
      </trkpt>
      <trkpt lat="60.121663318626" lon="21.578819083903">
        <ele>22.2</ele>
        <time>2017-07-26T19:12:44Z</time>
      </trkpt>
      <trkpt lat="60.121631886501" lon="21.578848336734">
        <ele>22</ele>
        <time>2017-07-26T19:12:45Z</time>
      </trkpt>
      <trkpt lat="60.12160095729" lon="21.578877924841">
        <ele>22</ele>
        <time>2017-07-26T19:12:46Z</time>
      </trkpt>
      <trkpt lat="60.121574805762" lon="21.578902064713">
        <ele>22</ele>
        <time>2017-07-26T19:12:47Z</time>
      </trkpt>
      <trkpt lat="60.121545133836" lon="21.578930646992">
        <ele>22</ele>
        <time>2017-07-26T19:12:48Z</time>
      </trkpt>
      <trkpt lat="60.121519233765" lon="21.578954535407">
        <ele>22</ele>
        <time>2017-07-26T19:12:49Z</time>
      </trkpt>
      <trkpt lat="60.121486041441" lon="21.57898194422">
        <ele>22</ele>
        <time>2017-07-26T19:12:50Z</time>
      </trkpt>
      <trkpt lat="60.121454357859" lon="21.579006167911">
        <ele>22</ele>
        <time>2017-07-26T19:12:51Z</time>
      </trkpt>
      <trkpt lat="60.121422087544" lon="21.579032906172">
        <ele>22</ele>
        <time>2017-07-26T19:12:52Z</time>
      </trkpt>
      <trkpt lat="60.121395265464" lon="21.579057129863">
        <ele>22</ele>
        <time>2017-07-26T19:12:53Z</time>
      </trkpt>
      <trkpt lat="60.12136458771" lon="21.579084957771">
        <ele>22</ele>
        <time>2017-07-26T19:12:54Z</time>
      </trkpt>
      <trkpt lat="60.12133357468" lon="21.579114545878">
        <ele>22</ele>
        <time>2017-07-26T19:12:55Z</time>
      </trkpt>
      <trkpt lat="60.121304405668" lon="21.579140194492">
        <ele>22</ele>
        <time>2017-07-26T19:12:56Z</time>
      </trkpt>
      <trkpt lat="60.121274985199" lon="21.579165424011">
        <ele>22</ele>
        <time>2017-07-26T19:12:57Z</time>
      </trkpt>
      <trkpt lat="60.121246905834" lon="21.579188306598">
        <ele>22</ele>
        <time>2017-07-26T19:12:58Z</time>
      </trkpt>
      <trkpt lat="60.121223185057" lon="21.579210602452">
        <ele>22</ele>
        <time>2017-07-26T19:12:59Z</time>
      </trkpt>
      <trkpt lat="60.121192591122" lon="21.579240777292">
        <ele>22</ele>
        <time>2017-07-26T19:13:00Z</time>
      </trkpt>
      <trkpt lat="60.121166104318" lon="21.579266006811">
        <ele>22</ele>
        <time>2017-07-26T19:13:01Z</time>
      </trkpt>
      <trkpt lat="60.121144898111" lon="21.579284782267">
        <ele>22</ele>
        <time>2017-07-26T19:13:02Z</time>
      </trkpt>
      <trkpt lat="60.121116148194" lon="21.579311269071">
        <ele>22</ele>
        <time>2017-07-26T19:13:03Z</time>
      </trkpt>
      <trkpt lat="60.121094941987" lon="21.579334151658">
        <ele>22</ele>
        <time>2017-07-26T19:13:04Z</time>
      </trkpt>
      <trkpt lat="60.121072143219" lon="21.579356196055">
        <ele>22</ele>
        <time>2017-07-26T19:13:05Z</time>
      </trkpt>
      <trkpt lat="60.121048925356" lon="21.579377821357">
        <ele>22</ele>
        <time>2017-07-26T19:13:06Z</time>
      </trkpt>
      <trkpt lat="60.121024366389" lon="21.579394668976">
        <ele>22</ele>
        <time>2017-07-26T19:13:07Z</time>
      </trkpt>
      <trkpt lat="60.12100919515" lon="21.579408331473">
        <ele>22</ele>
        <time>2017-07-26T19:13:08Z</time>
      </trkpt>
      <trkpt lat="60.12098153488" lon="21.579431465517">
        <ele>22</ele>
        <time>2017-07-26T19:13:09Z</time>
      </trkpt>
      <trkpt lat="60.120957814103" lon="21.579450157154">
        <ele>22</ele>
        <time>2017-07-26T19:13:10Z</time>
      </trkpt>
      <trkpt lat="60.12093627262" lon="21.579469100248">
        <ele>22</ele>
        <time>2017-07-26T19:13:11Z</time>
      </trkpt>
      <trkpt lat="60.120911629834" lon="21.579491647559">
        <ele>22</ele>
        <time>2017-07-26T19:13:12Z</time>
      </trkpt>
      <trkpt lat="60.12088933398" lon="21.579512015576">
        <ele>22</ele>
        <time>2017-07-26T19:13:13Z</time>
      </trkpt>
      <trkpt lat="60.120866367574" lon="21.579533640878">
        <ele>22</ele>
        <time>2017-07-26T19:13:14Z</time>
      </trkpt>
      <trkpt lat="60.120840299865" lon="21.579558283664">
        <ele>22</ele>
        <time>2017-07-26T19:13:15Z</time>
      </trkpt>
      <trkpt lat="60.120815237984" lon="21.579584770468">
        <ele>22</ele>
        <time>2017-07-26T19:13:16Z</time>
      </trkpt>
      <trkpt lat="60.120792774492" lon="21.579603629743">
        <ele>22</ele>
        <time>2017-07-26T19:13:17Z</time>
      </trkpt>
      <trkpt lat="60.120765700955" lon="21.57962567414">
        <ele>22</ele>
        <time>2017-07-26T19:13:18Z</time>
      </trkpt>
      <trkpt lat="60.120741561083" lon="21.579648053813">
        <ele>22</ele>
        <time>2017-07-26T19:13:19Z</time>
      </trkpt>
      <trkpt lat="60.120718678496" lon="21.579671271676">
        <ele>22</ele>
        <time>2017-07-26T19:13:20Z</time>
      </trkpt>
      <trkpt lat="60.120698142841" lon="21.579690298589">
        <ele>22</ele>
        <time>2017-07-26T19:13:21Z</time>
      </trkpt>
      <trkpt lat="60.120674422064" lon="21.579711923891">
        <ele>22</ele>
        <time>2017-07-26T19:13:22Z</time>
      </trkpt>
      <trkpt lat="60.120650701287" lon="21.579732291908">
        <ele>22</ele>
        <time>2017-07-26T19:13:23Z</time>
      </trkpt>
      <trkpt lat="60.12062698051" lon="21.579752659925">
        <ele>22</ele>
        <time>2017-07-26T19:13:24Z</time>
      </trkpt>
      <trkpt lat="60.120598901145" lon="21.579777805625">
        <ele>22</ele>
        <time>2017-07-26T19:13:25Z</time>
      </trkpt>
      <trkpt lat="60.12057249816" lon="21.579799347108">
        <ele>22</ele>
        <time>2017-07-26T19:13:26Z</time>
      </trkpt>
      <trkpt lat="60.120546011356" lon="21.579818290202">
        <ele>22</ele>
        <time>2017-07-26T19:13:27Z</time>
      </trkpt>
      <trkpt lat="60.120521117113" lon="21.579836562744">
        <ele>22</ele>
        <time>2017-07-26T19:13:28Z</time>
      </trkpt>
      <trkpt lat="60.120496306689" lon="21.579855422019">
        <ele>22</ele>
        <time>2017-07-26T19:13:29Z</time>
      </trkpt>
      <trkpt lat="60.120465545116" lon="21.579875538579">
        <ele>22</ele>
        <time>2017-07-26T19:13:30Z</time>
      </trkpt>
      <trkpt lat="60.120437214294" lon="21.579896996243">
        <ele>22</ele>
        <time>2017-07-26T19:13:31Z</time>
      </trkpt>
      <trkpt lat="60.120410978947" lon="21.579918034812">
        <ele>22</ele>
        <time>2017-07-26T19:13:32Z</time>
      </trkpt>
      <trkpt lat="60.120380133555" lon="21.579941168856">
        <ele>22</ele>
        <time>2017-07-26T19:13:33Z</time>
      </trkpt>
      <trkpt lat="60.12035289238" lon="21.579963213253">
        <ele>22</ele>
        <time>2017-07-26T19:13:34Z</time>
      </trkpt>
      <trkpt lat="60.120325986481" lon="21.57998358127">
        <ele>22</ele>
        <time>2017-07-26T19:13:35Z</time>
      </trkpt>
      <trkpt lat="60.120299332039" lon="21.580001853812">
        <ele>22</ele>
        <time>2017-07-26T19:13:36Z</time>
      </trkpt>
      <trkpt lat="60.120274605434" lon="21.58002213801">
        <ele>22</ele>
        <time>2017-07-26T19:13:37Z</time>
      </trkpt>
      <trkpt lat="60.120251974304" lon="21.580035465231">
        <ele>22</ele>
        <time>2017-07-26T19:13:38Z</time>
      </trkpt>
      <trkpt lat="60.120230432821" lon="21.580051977574">
        <ele>22</ele>
        <time>2017-07-26T19:13:39Z</time>
      </trkpt>
      <trkpt lat="60.120206460587" lon="21.580067903184">
        <ele>22</ele>
        <time>2017-07-26T19:13:40Z</time>
      </trkpt>
      <trkpt lat="60.120186846941" lon="21.580079721663">
        <ele>22</ele>
        <time>2017-07-26T19:13:41Z</time>
      </trkpt>
      <trkpt lat="60.120164634906" lon="21.580091791599">
        <ele>22</ele>
        <time>2017-07-26T19:13:42Z</time>
      </trkpt>
      <trkpt lat="60.120143512518" lon="21.580105454096">
        <ele>22</ele>
        <time>2017-07-26T19:13:43Z</time>
      </trkpt>
      <trkpt lat="60.120121719578" lon="21.580116099109">
        <ele>22</ele>
        <time>2017-07-26T19:13:44Z</time>
      </trkpt>
      <trkpt lat="60.120094981317" lon="21.580128085226">
        <ele>22</ele>
        <time>2017-07-26T19:13:45Z</time>
      </trkpt>
      <trkpt lat="60.120070254712" lon="21.580138478782">
        <ele>22</ele>
        <time>2017-07-26T19:13:46Z</time>
      </trkpt>
      <trkpt lat="60.120045947202" lon="21.580147782691">
        <ele>22</ele>
        <time>2017-07-26T19:13:47Z</time>
      </trkpt>
      <trkpt lat="60.120016023819" lon="21.580159768808">
        <ele>22</ele>
        <time>2017-07-26T19:13:48Z</time>
      </trkpt>
      <trkpt lat="60.119990961938" lon="21.580171419649">
        <ele>22</ele>
        <time>2017-07-26T19:13:49Z</time>
      </trkpt>
      <trkpt lat="60.119963469306" lon="21.580183992499">
        <ele>22</ele>
        <time>2017-07-26T19:13:50Z</time>
      </trkpt>
      <trkpt lat="60.119935557579" lon="21.580198241729">
        <ele>22</ele>
        <time>2017-07-26T19:13:51Z</time>
      </trkpt>
      <trkpt lat="60.119909154594" lon="21.580208551466">
        <ele>22</ele>
        <time>2017-07-26T19:13:52Z</time>
      </trkpt>
      <trkpt lat="60.119884595627" lon="21.580218861203">
        <ele>22</ele>
        <time>2017-07-26T19:13:53Z</time>
      </trkpt>
      <trkpt lat="60.119858695556" lon="21.580228751845">
        <ele>22</ele>
        <time>2017-07-26T19:13:54Z</time>
      </trkpt>
      <trkpt lat="60.119830029458" lon="21.580240151229">
        <ele>22.4</ele>
        <time>2017-07-26T19:13:55Z</time>
      </trkpt>
      <trkpt lat="60.11980471612" lon="21.580248365491">
        <ele>22.8</ele>
        <time>2017-07-26T19:13:56Z</time>
      </trkpt>
      <trkpt lat="60.119780911524" lon="21.580263033816">
        <ele>23</ele>
        <time>2017-07-26T19:13:57Z</time>
      </trkpt>
      <trkpt lat="60.119760878783" lon="21.580273008277">
        <ele>23.2</ele>
        <time>2017-07-26T19:13:58Z</time>
      </trkpt>
      <trkpt lat="60.119745036992" lon="21.580281306358">
        <ele>23.6</ele>
        <time>2017-07-26T19:13:59Z</time>
      </trkpt>
      <trkpt lat="60.11972173531" lon="21.580287676602">
        <ele>23.8</ele>
        <time>2017-07-26T19:14:00Z</time>
      </trkpt>
      <trkpt lat="60.11969910418" lon="21.580292957199">
        <ele>24.2</ele>
        <time>2017-07-26T19:14:01Z</time>
      </trkpt>
      <trkpt lat="60.119675551041" lon="21.580299159805">
        <ele>24.2</ele>
        <time>2017-07-26T19:14:02Z</time>
      </trkpt>
      <trkpt lat="60.119650153884" lon="21.580306452058">
        <ele>24.2</ele>
        <time>2017-07-26T19:14:03Z</time>
      </trkpt>
      <trkpt lat="60.119624924365" lon="21.580315085415">
        <ele>24.2</ele>
        <time>2017-07-26T19:14:04Z</time>
      </trkpt>
      <trkpt lat="60.119599862484" lon="21.580323551134">
        <ele>24.2</ele>
        <time>2017-07-26T19:14:05Z</time>
      </trkpt>
      <trkpt lat="60.119571028748" lon="21.580330005197">
        <ele>24.2</ele>
        <time>2017-07-26T19:14:06Z</time>
      </trkpt>
      <trkpt lat="60.119543703754" lon="21.580338219459">
        <ele>24.2</ele>
        <time>2017-07-26T19:14:07Z</time>
      </trkpt>
      <trkpt lat="60.119516965493" lon="21.580344589703">
        <ele>24.2</ele>
        <time>2017-07-26T19:14:08Z</time>
      </trkpt>
      <trkpt lat="60.119494334363" lon="21.58034903211">
        <ele>24.2</ele>
        <time>2017-07-26T19:14:09Z</time>
      </trkpt>
      <trkpt lat="60.119468518111" lon="21.580353139241">
        <ele>24.2</ele>
        <time>2017-07-26T19:14:10Z</time>
      </trkpt>
      <trkpt lat="60.119446976628" lon="21.580360934408">
        <ele>24.2</ele>
        <time>2017-07-26T19:14:11Z</time>
      </trkpt>
      <trkpt lat="60.119419232539" lon="21.580369316308">
        <ele>24.2</ele>
        <time>2017-07-26T19:14:12Z</time>
      </trkpt>
      <trkpt lat="60.119394086839" lon="21.58037417781">
        <ele>24.2</ele>
        <time>2017-07-26T19:14:13Z</time>
      </trkpt>
      <trkpt lat="60.119372880632" lon="21.580377446751">
        <ele>24.2</ele>
        <time>2017-07-26T19:14:14Z</time>
      </trkpt>
      <trkpt lat="60.119345220362" lon="21.580380212778">
        <ele>24.2</ele>
        <time>2017-07-26T19:14:15Z</time>
      </trkpt>
      <trkpt lat="60.119319739386" lon="21.580385241918">
        <ele>24.2</ele>
        <time>2017-07-26T19:14:16Z</time>
      </trkpt>
      <trkpt lat="60.119294928962" lon="21.580391025429">
        <ele>24.2</ele>
        <time>2017-07-26T19:14:17Z</time>
      </trkpt>
      <trkpt lat="60.119266933416" lon="21.580397982406">
        <ele>24.2</ele>
        <time>2017-07-26T19:14:18Z</time>
      </trkpt>
      <trkpt lat="60.119243631734" lon="21.580404017374">
        <ele>24.2</ele>
        <time>2017-07-26T19:14:19Z</time>
      </trkpt>
      <trkpt lat="60.119215720007" lon="21.58040602903">
        <ele>24.2</ele>
        <time>2017-07-26T19:14:20Z</time>
      </trkpt>
      <trkpt lat="60.119189903755" lon="21.580409633247">
        <ele>24.2</ele>
        <time>2017-07-26T19:14:21Z</time>
      </trkpt>
      <trkpt lat="60.119161740571" lon="21.580418434242">
        <ele>24.2</ele>
        <time>2017-07-26T19:14:22Z</time>
      </trkpt>
      <trkpt lat="60.119136594871" lon="21.58042363102">
        <ele>24.2</ele>
        <time>2017-07-26T19:14:23Z</time>
      </trkpt>
      <trkpt lat="60.119110862438" lon="21.580431510006">
        <ele>24.2</ele>
        <time>2017-07-26T19:14:24Z</time>
      </trkpt>
      <trkpt lat="60.119083118349" lon="21.580436287689">
        <ele>24.2</ele>
        <time>2017-07-26T19:14:25Z</time>
      </trkpt>
      <trkpt lat="60.119058391744" lon="21.580436706784">
        <ele>24.2</ele>
        <time>2017-07-26T19:14:26Z</time>
      </trkpt>
      <trkpt lat="60.119034335691" lon="21.580436455327">
        <ele>24.2</ele>
        <time>2017-07-26T19:14:27Z</time>
      </trkpt>
      <trkpt lat="60.119006256326" lon="21.580438131707">
        <ele>24.4</ele>
        <time>2017-07-26T19:14:28Z</time>
      </trkpt>
      <trkpt lat="60.118982619368" lon="21.580436036232">
        <ele>24.6</ele>
        <time>2017-07-26T19:14:29Z</time>
      </trkpt>
      <trkpt lat="60.118949929958" lon="21.580435198042">
        <ele>25</ele>
        <time>2017-07-26T19:14:30Z</time>
      </trkpt>
      <trkpt lat="60.118919503661" lon="21.580434443671">
        <ele>25.2</ele>
        <time>2017-07-26T19:14:31Z</time>
      </trkpt>
      <trkpt lat="60.118887568622" lon="21.580432432015">
        <ele>25.6</ele>
        <time>2017-07-26T19:14:32Z</time>
      </trkpt>
      <trkpt lat="60.118851861728" lon="21.580436287689">
        <ele>26</ele>
        <time>2017-07-26T19:14:33Z</time>
      </trkpt>
      <trkpt lat="60.118816741567" lon="21.58043620387">
        <ele>26.2</ele>
        <time>2017-07-26T19:14:34Z</time>
      </trkpt>
      <trkpt lat="60.118776843723" lon="21.580434359852">
        <ele>26.2</ele>
        <time>2017-07-26T19:14:35Z</time>
      </trkpt>
      <trkpt lat="60.118737448793" lon="21.580432264377">
        <ele>26.2</ele>
        <time>2017-07-26T19:14:36Z</time>
      </trkpt>
      <trkpt lat="60.118698724415" lon="21.580433018748">
        <ele>26.2</ele>
        <time>2017-07-26T19:14:37Z</time>
      </trkpt>
      <trkpt lat="60.118660670589" lon="21.580433605481">
        <ele>26.2</ele>
        <time>2017-07-26T19:14:38Z</time>
      </trkpt>
      <trkpt lat="60.11862370641" lon="21.580432348196">
        <ele>26.2</ele>
        <time>2017-07-26T19:14:39Z</time>
      </trkpt>
      <trkpt lat="60.118582048367" lon="21.580431007092">
        <ele>26.2</ele>
        <time>2017-07-26T19:14:40Z</time>
      </trkpt>
      <trkpt lat="60.118543994541" lon="21.580430001264">
        <ele>26.2</ele>
        <time>2017-07-26T19:14:41Z</time>
      </trkpt>
      <trkpt lat="60.118504599611" lon="21.580432934929">
        <ele>26.2</ele>
        <time>2017-07-26T19:14:42Z</time>
      </trkpt>
      <trkpt lat="60.118471826382" lon="21.580432767291">
        <ele>26.2</ele>
        <time>2017-07-26T19:14:43Z</time>
      </trkpt>
      <trkpt lat="60.118437712049" lon="21.580434862766">
        <ele>26.2</ele>
        <time>2017-07-26T19:14:44Z</time>
      </trkpt>
      <trkpt lat="60.118394545264" lon="21.580440981553">
        <ele>26.2</ele>
        <time>2017-07-26T19:14:45Z</time>
      </trkpt>
      <trkpt lat="60.118353390135" lon="21.58044961491">
        <ele>26.2</ele>
        <time>2017-07-26T19:14:46Z</time>
      </trkpt>
      <trkpt lat="60.118316761232" lon="21.580459924647">
        <ele>26.2</ele>
        <time>2017-07-26T19:14:47Z</time>
      </trkpt>
      <trkpt lat="60.118279629415" lon="21.580473754782">
        <ele>26.2</ele>
        <time>2017-07-26T19:14:48Z</time>
      </trkpt>
      <trkpt lat="60.118246269453" lon="21.580490853858">
        <ele>26.2</ele>
        <time>2017-07-26T19:14:49Z</time>
      </trkpt>
      <trkpt lat="60.118209975826" lon="21.580510132228">
        <ele>26.2</ele>
        <time>2017-07-26T19:14:50Z</time>
      </trkpt>
      <trkpt lat="60.118172844009" lon="21.580531506073">
        <ele>26.2</ele>
        <time>2017-07-26T19:14:51Z</time>
      </trkpt>
      <trkpt lat="60.118133784355" lon="21.580557825239">
        <ele>25.8</ele>
        <time>2017-07-26T19:14:52Z</time>
      </trkpt>
      <trkpt lat="60.118089108828" lon="21.580588167717">
        <ele>25.6</ele>
        <time>2017-07-26T19:14:53Z</time>
      </trkpt>
      <trkpt lat="60.118045858224" lon="21.580621024765">
        <ele>25.4</ele>
        <time>2017-07-26T19:14:54Z</time>
      </trkpt>
      <trkpt lat="60.118004116362" lon="21.580659330048">
        <ele>25</ele>
        <time>2017-07-26T19:14:55Z</time>
      </trkpt>
      <trkpt lat="60.117971929866" lon="21.580694869304">
        <ele>24.8</ele>
        <time>2017-07-26T19:14:56Z</time>
      </trkpt>
      <trkpt lat="60.11793806699" lon="21.580734012777">
        <ele>24.4</ele>
        <time>2017-07-26T19:14:57Z</time>
      </trkpt>
      <trkpt lat="60.117905126123" lon="21.580774581173">
        <ele>24.2</ele>
        <time>2017-07-26T19:14:58Z</time>
      </trkpt>
      <trkpt lat="60.117875286559" lon="21.580813305551">
        <ele>24.2</ele>
        <time>2017-07-26T19:14:59Z</time>
      </trkpt>
      <trkpt lat="60.11784083695" lon="21.580858567811">
        <ele>24.2</ele>
        <time>2017-07-26T19:15:00Z</time>
      </trkpt>
      <trkpt lat="60.11781066211" lon="21.580898549474">
        <ele>24.2</ele>
        <time>2017-07-26T19:15:01Z</time>
      </trkpt>
      <trkpt lat="60.117781660736" lon="21.580940123698">
        <ele>24.2</ele>
        <time>2017-07-26T19:15:02Z</time>
      </trkpt>
      <trkpt lat="60.117752659362" lon="21.580980943551">
        <ele>24.2</ele>
        <time>2017-07-26T19:15:03Z</time>
      </trkpt>
      <trkpt lat="60.117727848938" lon="21.581016985721">
        <ele>24.2</ele>
        <time>2017-07-26T19:15:04Z</time>
      </trkpt>
      <trkpt lat="60.117700943039" lon="21.581056129194">
        <ele>24.2</ele>
        <time>2017-07-26T19:15:05Z</time>
      </trkpt>
      <trkpt lat="60.117675545882" lon="21.581095440305">
        <ele>24.2</ele>
        <time>2017-07-26T19:15:06Z</time>
      </trkpt>
      <trkpt lat="60.117650735458" lon="21.581135170511">
        <ele>24.2</ele>
        <time>2017-07-26T19:15:07Z</time>
      </trkpt>
      <trkpt lat="60.117626008853" lon="21.58117716383">
        <ele>24.2</ele>
        <time>2017-07-26T19:15:08Z</time>
      </trkpt>
      <trkpt lat="60.117603712999" lon="21.581216894036">
        <ele>24.2</ele>
        <time>2017-07-26T19:15:09Z</time>
      </trkpt>
      <trkpt lat="60.117578986394" lon="21.581265509056">
        <ele>24.2</ele>
        <time>2017-07-26T19:15:10Z</time>
      </trkpt>
      <trkpt lat="60.117558115463" lon="21.581307250918">
        <ele>24.2</ele>
        <time>2017-07-26T19:15:11Z</time>
      </trkpt>
      <trkpt lat="60.117537244532" lon="21.581350166246">
        <ele>24.2</ele>
        <time>2017-07-26T19:15:12Z</time>
      </trkpt>
      <trkpt lat="60.117516708877" lon="21.581388220072">
        <ele>24.2</ele>
        <time>2017-07-26T19:15:13Z</time>
      </trkpt>
      <trkpt lat="60.117500447991" lon="21.581421747672">
        <ele>24.2</ele>
        <time>2017-07-26T19:15:14Z</time>
      </trkpt>
      <trkpt lat="60.117481001983" lon="21.581466590837">
        <ele>24.2</ele>
        <time>2017-07-26T19:15:15Z</time>
      </trkpt>
      <trkpt lat="60.117462477984" lon="21.581506404862">
        <ele>24.2</ele>
        <time>2017-07-26T19:15:16Z</time>
      </trkpt>
      <trkpt lat="60.117443618709" lon="21.581540854471">
        <ele>24.2</ele>
        <time>2017-07-26T19:15:17Z</time>
      </trkpt>
      <trkpt lat="60.117424340339" lon="21.581578405383">
        <ele>24.2</ele>
        <time>2017-07-26T19:15:18Z</time>
      </trkpt>
      <trkpt lat="60.117406570711" lon="21.581613609363">
        <ele>24.2</ele>
        <time>2017-07-26T19:15:19Z</time>
      </trkpt>
      <trkpt lat="60.117388717264" lon="21.581651914646">
        <ele>24.2</ele>
        <time>2017-07-26T19:15:20Z</time>
      </trkpt>
      <trkpt lat="60.117370528541" lon="21.581686448074">
        <ele>24.2</ele>
        <time>2017-07-26T19:15:21Z</time>
      </trkpt>
      <trkpt lat="60.117353932379" lon="21.581719388941">
        <ele>24.2</ele>
        <time>2017-07-26T19:15:22Z</time>
      </trkpt>
      <trkpt lat="60.117337503855" lon="21.581753251817">
        <ele>24.2</ele>
        <time>2017-07-26T19:15:23Z</time>
      </trkpt>
      <trkpt lat="60.117321578245" lon="21.581786276503">
        <ele>24.2</ele>
        <time>2017-07-26T19:15:24Z</time>
      </trkpt>
      <trkpt lat="60.117304814445" lon="21.581825755252">
        <ele>24.2</ele>
        <time>2017-07-26T19:15:25Z</time>
      </trkpt>
      <trkpt lat="60.117290062301" lon="21.581861545965">
        <ele>24.2</ele>
        <time>2017-07-26T19:15:26Z</time>
      </trkpt>
      <trkpt lat="60.117274639605" lon="21.581896833764">
        <ele>24.2</ele>
        <time>2017-07-26T19:15:27Z</time>
      </trkpt>
      <trkpt lat="60.117257372891" lon="21.581930361364">
        <ele>24.2</ele>
        <time>2017-07-26T19:15:28Z</time>
      </trkpt>
      <trkpt lat="60.117240609091" lon="21.581955171788">
        <ele>24.2</ele>
        <time>2017-07-26T19:15:29Z</time>
      </trkpt>
      <trkpt lat="60.117220492531" lon="21.581972773778">
        <ele>24.2</ele>
        <time>2017-07-26T19:15:30Z</time>
      </trkpt>
      <trkpt lat="60.117197777582" lon="21.581977467642">
        <ele>24.2</ele>
        <time>2017-07-26T19:15:31Z</time>
      </trkpt>
      <trkpt lat="60.117175817004" lon="21.581967828457">
        <ele>24.2</ele>
        <time>2017-07-26T19:15:32Z</time>
      </trkpt>
      <trkpt lat="60.117152347684" lon="21.581953411589">
        <ele>24.2</ele>
        <time>2017-07-26T19:15:33Z</time>
      </trkpt>
      <trkpt lat="60.117131476753" lon="21.581934384676">
        <ele>24.2</ele>
        <time>2017-07-26T19:15:34Z</time>
      </trkpt>
      <trkpt lat="60.117109851451" lon="21.581909825709">
        <ele>24.2</ele>
        <time>2017-07-26T19:15:35Z</time>
      </trkpt>
      <trkpt lat="60.117087220321" lon="21.58186950877">
        <ele>24.2</ele>
        <time>2017-07-26T19:15:36Z</time>
      </trkpt>
      <trkpt lat="60.117065678838" lon="21.581825000881">
        <ele>24.2</ele>
        <time>2017-07-26T19:15:37Z</time>
      </trkpt>
      <trkpt lat="60.117046065192" lon="21.581778229879">
        <ele>24.2</ele>
        <time>2017-07-26T19:15:38Z</time>
      </trkpt>
      <trkpt lat="60.11702192532" lon="21.581729111945">
        <ele>24.2</ele>
        <time>2017-07-26T19:15:39Z</time>
      </trkpt>
      <trkpt lat="60.116995270878" lon="21.58167672507">
        <ele>24.2</ele>
        <time>2017-07-26T19:15:40Z</time>
      </trkpt>
      <trkpt lat="60.116972555929" lon="21.58162978643">
        <ele>24.2</ele>
        <time>2017-07-26T19:15:41Z</time>
      </trkpt>
      <trkpt lat="60.116949924799" lon="21.581576561365">
        <ele>24.2</ele>
        <time>2017-07-26T19:15:42Z</time>
      </trkpt>
      <trkpt lat="60.116929808239" lon="21.581522079015">
        <ele>24.2</ele>
        <time>2017-07-26T19:15:43Z</time>
      </trkpt>
      <trkpt lat="60.116910110774" lon="21.581478744592">
        <ele>24</ele>
        <time>2017-07-26T19:15:44Z</time>
      </trkpt>
      <trkpt lat="60.11688781492" lon="21.58142610626">
        <ele>24.2</ele>
        <time>2017-07-26T19:15:45Z</time>
      </trkpt>
      <trkpt lat="60.116867363084" lon="21.58138000581">
        <ele>24.2</ele>
        <time>2017-07-26T19:15:46Z</time>
      </trkpt>
      <trkpt lat="60.116845570144" lon="21.58133139079">
        <ele>24.2</ele>
        <time>2017-07-26T19:15:47Z</time>
      </trkpt>
      <trkpt lat="60.116824866851" lon="21.581279674467">
        <ele>24.2</ele>
        <time>2017-07-26T19:15:48Z</time>
      </trkpt>
      <trkpt lat="60.116804582653" lon="21.581233574017">
        <ele>24.2</ele>
        <time>2017-07-26T19:15:49Z</time>
      </trkpt>
      <trkpt lat="60.116781448609" lon="21.581182025332">
        <ele>24.2</ele>
        <time>2017-07-26T19:15:50Z</time>
      </trkpt>
      <trkpt lat="60.116758985117" lon="21.581134835235">
        <ele>24.2</ele>
        <time>2017-07-26T19:15:51Z</time>
      </trkpt>
      <trkpt lat="60.116738114186" lon="21.581088064233">
        <ele>24.2</ele>
        <time>2017-07-26T19:15:52Z</time>
      </trkpt>
      <trkpt lat="60.116718668178" lon="21.581044310715">
        <ele>24.2</ele>
        <time>2017-07-26T19:15:53Z</time>
      </trkpt>
      <trkpt lat="60.116698719256" lon="21.581002736491">
        <ele>24.2</ele>
        <time>2017-07-26T19:15:54Z</time>
      </trkpt>
      <trkpt lat="60.116674663203" lon="21.580945404295">
        <ele>24.2</ele>
        <time>2017-07-26T19:15:55Z</time>
      </trkpt>
      <trkpt lat="60.116654127548" lon="21.580896956913">
        <ele>24.2</ele>
        <time>2017-07-26T19:15:56Z</time>
      </trkpt>
      <trkpt lat="60.116634513902" lon="21.580845324409">
        <ele>24.2</ele>
        <time>2017-07-26T19:15:57Z</time>
      </trkpt>
      <trkpt lat="60.116613307695" lon="21.580795033009">
        <ele>24.2</ele>
        <time>2017-07-26T19:15:58Z</time>
      </trkpt>
      <trkpt lat="60.116594532239" lon="21.580751614767">
        <ele>24.2</ele>
        <time>2017-07-26T19:15:59Z</time>
      </trkpt>
      <trkpt lat="60.116571314376" lon="21.580694953123">
        <ele>24.2</ele>
        <time>2017-07-26T19:16:00Z</time>
      </trkpt>
      <trkpt lat="60.11654918616" lon="21.58064491318">
        <ele>24.2</ele>
        <time>2017-07-26T19:16:01Z</time>
      </trkpt>
      <trkpt lat="60.116528147591" lon="21.58060048911">
        <ele>24.2</ele>
        <time>2017-07-26T19:16:02Z</time>
      </trkpt>
      <trkpt lat="60.116504678271" lon="21.58055019771">
        <ele>24.2</ele>
        <time>2017-07-26T19:16:03Z</time>
      </trkpt>
      <trkpt lat="60.116484226435" lon="21.580507952934">
        <ele>24.2</ele>
        <time>2017-07-26T19:16:04Z</time>
      </trkpt>
      <trkpt lat="60.116462936409" lon="21.580463528864">
        <ele>24.2</ele>
        <time>2017-07-26T19:16:05Z</time>
      </trkpt>
      <trkpt lat="60.116442903668" lon="21.580420529717">
        <ele>24.2</ele>
        <time>2017-07-26T19:16:06Z</time>
      </trkpt>
      <trkpt lat="60.116426391325" lon="21.580375770371">
        <ele>24.2</ele>
        <time>2017-07-26T19:16:07Z</time>
      </trkpt>
      <trkpt lat="60.116414572846" lon="21.580341404581">
        <ele>24.2</ele>
        <time>2017-07-26T19:16:08Z</time>
      </trkpt>
      <trkpt lat="60.116392193173" lon="21.580284994394">
        <ele>24.2</ele>
        <time>2017-07-26T19:16:09Z</time>
      </trkpt>
      <trkpt lat="60.116372998622" lon="21.580238223392">
        <ele>24.2</ele>
        <time>2017-07-26T19:16:10Z</time>
      </trkpt>
      <trkpt lat="60.116355228994" lon="21.580197906453">
        <ele>24.2</ele>
        <time>2017-07-26T19:16:11Z</time>
      </trkpt>
      <trkpt lat="60.116338129918" lon="21.580155494039">
        <ele>24.2</ele>
        <time>2017-07-26T19:16:12Z</time>
      </trkpt>
      <trkpt lat="60.116321366118" lon="21.58011769167">
        <ele>24.2</ele>
        <time>2017-07-26T19:16:13Z</time>
      </trkpt>
      <trkpt lat="60.116306697793" lon="21.580080895129">
        <ele>24.2</ele>
        <time>2017-07-26T19:16:14Z</time>
      </trkpt>
      <trkpt lat="60.116289095803" lon="21.580036135783">
        <ele>24.2</ele>
        <time>2017-07-26T19:16:15Z</time>
      </trkpt>
      <trkpt lat="60.116272248184" lon="21.579994645378">
        <ele>24.2</ele>
        <time>2017-07-26T19:16:16Z</time>
      </trkpt>
      <trkpt lat="60.116256825488" lon="21.579956256276">
        <ele>24.2</ele>
        <time>2017-07-26T19:16:17Z</time>
      </trkpt>
      <trkpt lat="60.116240313145" lon="21.579913340948">
        <ele>24.2</ele>
        <time>2017-07-26T19:16:18Z</time>
      </trkpt>
      <trkpt lat="60.116226650648" lon="21.57987545476">
        <ele>24.2</ele>
        <time>2017-07-26T19:16:19Z</time>
      </trkpt>
      <trkpt lat="60.116211982323" lon="21.579832958527">
        <ele>24.2</ele>
        <time>2017-07-26T19:16:20Z</time>
      </trkpt>
      <trkpt lat="60.116199325654" lon="21.579791887217">
        <ele>24.2</ele>
        <time>2017-07-26T19:16:21Z</time>
      </trkpt>
      <trkpt lat="60.116186166071" lon="21.57975140264">
        <ele>24.2</ele>
        <time>2017-07-26T19:16:22Z</time>
      </trkpt>
      <trkpt lat="60.116172922669" lon="21.579715192832">
        <ele>24.2</ele>
        <time>2017-07-26T19:16:23Z</time>
      </trkpt>
      <trkpt lat="60.116159343991" lon="21.579676384635">
        <ele>24.2</ele>
        <time>2017-07-26T19:16:24Z</time>
      </trkpt>
      <trkpt lat="60.116142747829" lon="21.579633972221">
        <ele>24.2</ele>
        <time>2017-07-26T19:16:25Z</time>
      </trkpt>
      <trkpt lat="60.116127995685" lon="21.57959382292">
        <ele>24.2</ele>
        <time>2017-07-26T19:16:26Z</time>
      </trkpt>
      <trkpt lat="60.11611248917" lon="21.579551326687">
        <ele>24.2</ele>
        <time>2017-07-26T19:16:27Z</time>
      </trkpt>
      <trkpt lat="60.116097317931" lon="21.579507740807">
        <ele>24.2</ele>
        <time>2017-07-26T19:16:28Z</time>
      </trkpt>
      <trkpt lat="60.116082984882" lon="21.579470944266">
        <ele>24.2</ele>
        <time>2017-07-26T19:16:29Z</time>
      </trkpt>
      <trkpt lat="60.116066472539" lon="21.579423418893">
        <ele>24.2</ele>
        <time>2017-07-26T19:16:30Z</time>
      </trkpt>
      <trkpt lat="60.116052223309" lon="21.579379749194">
        <ele>24.2</ele>
        <time>2017-07-26T19:16:31Z</time>
      </trkpt>
      <trkpt lat="60.11603956664" lon="21.579339683712">
        <ele>24.2</ele>
        <time>2017-07-26T19:16:32Z</time>
      </trkpt>
      <trkpt lat="60.116027077609" lon="21.579299450592">
        <ele>24.2</ele>
        <time>2017-07-26T19:16:33Z</time>
      </trkpt>
      <trkpt lat="60.116014672397" lon="21.579263995155">
        <ele>24.2</ele>
        <time>2017-07-26T19:16:34Z</time>
      </trkpt>
      <trkpt lat="60.116002351004" lon="21.579223929673">
        <ele>24.2</ele>
        <time>2017-07-26T19:16:35Z</time>
      </trkpt>
      <trkpt lat="60.115988939964" lon="21.579181936354">
        <ele>24.2</ele>
        <time>2017-07-26T19:16:36Z</time>
      </trkpt>
      <trkpt lat="60.1159758642" lon="21.579139859216">
        <ele>24.2</ele>
        <time>2017-07-26T19:16:37Z</time>
      </trkpt>
      <trkpt lat="60.115961195875" lon="21.579103062675">
        <ele>24.2</ele>
        <time>2017-07-26T19:16:38Z</time>
      </trkpt>
      <trkpt lat="60.115951640509" lon="21.579068780704">
        <ele>24.2</ele>
        <time>2017-07-26T19:16:39Z</time>
      </trkpt>
      <trkpt lat="60.115942168962" lon="21.579027122661">
        <ele>24.2</ele>
        <time>2017-07-26T19:16:40Z</time>
      </trkpt>
      <trkpt lat="60.115935798718" lon="21.57899367888">
        <ele>24.2</ele>
        <time>2017-07-26T19:16:41Z</time>
      </trkpt>
      <trkpt lat="60.115925405162" lon="21.578946153507">
        <ele>24.2</ele>
        <time>2017-07-26T19:16:42Z</time>
      </trkpt>
      <trkpt lat="60.115916855624" lon="21.578900472152">
        <ele>24.2</ele>
        <time>2017-07-26T19:16:43Z</time>
      </trkpt>
      <trkpt lat="60.115906629706" lon="21.57885956848">
        <ele>24.2</ele>
        <time>2017-07-26T19:16:44Z</time>
      </trkpt>
      <trkpt lat="60.11589455977" lon="21.578813635668">
        <ele>24.2</ele>
        <time>2017-07-26T19:16:45Z</time>
      </trkpt>
      <trkpt lat="60.11587947235" lon="21.578771642349">
        <ele>24.2</ele>
        <time>2017-07-26T19:16:46Z</time>
      </trkpt>
      <trkpt lat="60.115867318595" lon="21.578729565211">
        <ele>24.2</ele>
        <time>2017-07-26T19:16:47Z</time>
      </trkpt>
      <trkpt lat="60.115851979718" lon="21.578684051494">
        <ele>24.2</ele>
        <time>2017-07-26T19:16:48Z</time>
      </trkpt>
      <trkpt lat="60.115841250886" lon="21.578643986012">
        <ele>24.2</ele>
        <time>2017-07-26T19:16:49Z</time>
      </trkpt>
      <trkpt lat="60.115830605873" lon="21.578584558341">
        <ele>24.2</ele>
        <time>2017-07-26T19:16:50Z</time>
      </trkpt>
      <trkpt lat="60.115818787394" lon="21.578539044624">
        <ele>24.2</ele>
        <time>2017-07-26T19:16:51Z</time>
      </trkpt>
      <trkpt lat="60.115807639467" lon="21.57849663221">
        <ele>24.2</ele>
        <time>2017-07-26T19:16:52Z</time>
      </trkpt>
      <trkpt lat="60.115798419377" lon="21.578458159289">
        <ele>24.2</ele>
        <time>2017-07-26T19:16:53Z</time>
      </trkpt>
      <trkpt lat="60.11578643326" lon="21.578419351092">
        <ele>24.2</ele>
        <time>2017-07-26T19:16:54Z</time>
      </trkpt>
      <trkpt lat="60.115774279505" lon="21.57837258009">
        <ele>24.2</ele>
        <time>2017-07-26T19:16:55Z</time>
      </trkpt>
      <trkpt lat="60.115764472682" lon="21.57832815602">
        <ele>24.2</ele>
        <time>2017-07-26T19:16:56Z</time>
      </trkpt>
      <trkpt lat="60.115754665859" lon="21.578283145217">
        <ele>24.2</ele>
        <time>2017-07-26T19:16:57Z</time>
      </trkpt>
      <trkpt lat="60.115740919543" lon="21.578231009799">
        <ele>24.2</ele>
        <time>2017-07-26T19:16:58Z</time>
      </trkpt>
      <trkpt lat="60.115729017245" lon="21.5781873401">
        <ele>24.2</ele>
        <time>2017-07-26T19:16:59Z</time>
      </trkpt>
      <trkpt lat="60.115713929825" lon="21.578137383976">
        <ele>24.2</ele>
        <time>2017-07-26T19:17:00Z</time>
      </trkpt>
      <trkpt lat="60.115702027527" lon="21.578092037897">
        <ele>24.2</ele>
        <time>2017-07-26T19:17:01Z</time>
      </trkpt>
      <trkpt lat="60.11569255598" lon="21.578051637139">
        <ele>24.2</ele>
        <time>2017-07-26T19:17:02Z</time>
      </trkpt>
      <trkpt lat="60.1156824977" lon="21.578009476182">
        <ele>24.2</ele>
        <time>2017-07-26T19:17:03Z</time>
      </trkpt>
      <trkpt lat="60.115674618714" lon="21.577972009089">
        <ele>24.2</ele>
        <time>2017-07-26T19:17:04Z</time>
      </trkpt>
      <trkpt lat="60.115667661737" lon="21.577927585019">
        <ele>24.2</ele>
        <time>2017-07-26T19:17:05Z</time>
      </trkpt>
      <trkpt lat="60.115658860742" lon="21.577880311103">
        <ele>24.2</ele>
        <time>2017-07-26T19:17:06Z</time>
      </trkpt>
      <trkpt lat="60.115650478842" lon="21.577833456282">
        <ele>24.2</ele>
        <time>2017-07-26T19:17:07Z</time>
      </trkpt>
      <trkpt lat="60.115641594028" lon="21.577782242873">
        <ele>24.2</ele>
        <time>2017-07-26T19:17:08Z</time>
      </trkpt>
      <trkpt lat="60.115630865196" lon="21.577736142423">
        <ele>24.2</ele>
        <time>2017-07-26T19:17:09Z</time>
      </trkpt>
      <trkpt lat="60.115619549631" lon="21.577682162987">
        <ele>24.2</ele>
        <time>2017-07-26T19:17:10Z</time>
      </trkpt>
      <trkpt lat="60.115609994265" lon="21.577633547967">
        <ele>24.2</ele>
        <time>2017-07-26T19:17:11Z</time>
      </trkpt>
      <trkpt lat="60.115598259605" lon="21.57758300511">
        <ele>24.2</ele>
        <time>2017-07-26T19:17:12Z</time>
      </trkpt>
      <trkpt lat="60.115590464438" lon="21.577535479737">
        <ele>24.2</ele>
        <time>2017-07-26T19:17:13Z</time>
      </trkpt>
      <trkpt lat="60.11558526766" lon="21.577488457278">
        <ele>24.2</ele>
        <time>2017-07-26T19:17:14Z</time>
      </trkpt>
      <trkpt lat="60.115575628475" lon="21.577437411507">
        <ele>24.2</ele>
        <time>2017-07-26T19:17:15Z</time>
      </trkpt>
      <trkpt lat="60.115562887987" lon="21.577390724324">
        <ele>24.2</ele>
        <time>2017-07-26T19:17:16Z</time>
      </trkpt>
      <trkpt lat="60.115552829707" lon="21.577347306082">
        <ele>24.2</ele>
        <time>2017-07-26T19:17:17Z</time>
      </trkpt>
      <trkpt lat="60.115542939065" lon="21.577293159008">
        <ele>24.2</ele>
        <time>2017-07-26T19:17:18Z</time>
      </trkpt>
      <trkpt lat="60.115534221889" lon="21.577245801273">
        <ele>24.2</ele>
        <time>2017-07-26T19:17:19Z</time>
      </trkpt>
      <trkpt lat="60.115523073962" lon="21.577195509873">
        <ele>24.2</ele>
        <time>2017-07-26T19:17:20Z</time>
      </trkpt>
      <trkpt lat="60.11551653608" lon="21.577145889025">
        <ele>24.2</ele>
        <time>2017-07-26T19:17:21Z</time>
      </trkpt>
      <trkpt lat="60.115507735085" lon="21.577097441643">
        <ele>24.2</ele>
        <time>2017-07-26T19:17:22Z</time>
      </trkpt>
      <trkpt lat="60.115500359013" lon="21.577052598478">
        <ele>24.2</ele>
        <time>2017-07-26T19:17:23Z</time>
      </trkpt>
      <trkpt lat="60.115493150579" lon="21.577003145268">
        <ele>24.2</ele>
        <time>2017-07-26T19:17:24Z</time>
      </trkpt>
      <trkpt lat="60.115484517222" lon="21.576951177488">
        <ele>24.2</ele>
        <time>2017-07-26T19:17:25Z</time>
      </trkpt>
      <trkpt lat="60.115476051503" lon="21.576902143373">
        <ele>24.2</ele>
        <time>2017-07-26T19:17:26Z</time>
      </trkpt>
      <trkpt lat="60.11546540649" lon="21.576859479502">
        <ele>24.2</ele>
        <time>2017-07-26T19:17:27Z</time>
      </trkpt>
      <trkpt lat="60.11546037735" lon="21.576815642165">
        <ele>24.2</ele>
        <time>2017-07-26T19:17:28Z</time>
      </trkpt>
      <trkpt lat="60.115455096753" lon="21.576782198384">
        <ele>24.2</ele>
        <time>2017-07-26T19:17:29Z</time>
      </trkpt>
      <trkpt lat="60.115448894147" lon="21.576725033826">
        <ele>24.2</ele>
        <time>2017-07-26T19:17:30Z</time>
      </trkpt>
      <trkpt lat="60.11544445174" lon="21.576672982227">
        <ele>24.2</ele>
        <time>2017-07-26T19:17:31Z</time>
      </trkpt>
      <trkpt lat="60.115437830039" lon="21.576621517361">
        <ele>24.2</ele>
        <time>2017-07-26T19:17:32Z</time>
      </trkpt>
      <trkpt lat="60.115431375976" lon="21.576566699735">
        <ele>24.2</ele>
        <time>2017-07-26T19:17:33Z</time>
      </trkpt>
      <trkpt lat="60.115423580809" lon="21.576515653964">
        <ele>24.2</ele>
        <time>2017-07-26T19:17:34Z</time>
      </trkpt>
      <trkpt lat="60.115417545841" lon="21.576459411415">
        <ele>24.2</ele>
        <time>2017-07-26T19:17:35Z</time>
      </trkpt>
      <trkpt lat="60.115411427054" lon="21.576399899925">
        <ele>24.2</ele>
        <time>2017-07-26T19:17:36Z</time>
      </trkpt>
      <trkpt lat="60.115403212792" lon="21.576342986824">
        <ele>24.2</ele>
        <time>2017-07-26T19:17:37Z</time>
      </trkpt>
      <trkpt lat="60.115396171996" lon="21.576289510302">
        <ele>24.2</ele>
        <time>2017-07-26T19:17:38Z</time>
      </trkpt>
      <trkpt lat="60.115388879743" lon="21.576240811463">
        <ele>24.2</ele>
        <time>2017-07-26T19:17:39Z</time>
      </trkpt>
      <trkpt lat="60.115380246386" lon="21.576188927502">
        <ele>24.2</ele>
        <time>2017-07-26T19:17:40Z</time>
      </trkpt>
      <trkpt lat="60.115373457047" lon="21.57613964193">
        <ele>24.2</ele>
        <time>2017-07-26T19:17:41Z</time>
      </trkpt>
      <trkpt lat="60.115367002984" lon="21.576082896467">
        <ele>24.2</ele>
        <time>2017-07-26T19:17:42Z</time>
      </trkpt>
      <trkpt lat="60.115361806206" lon="21.576029587583">
        <ele>24.2</ele>
        <time>2017-07-26T19:17:43Z</time>
      </trkpt>
      <trkpt lat="60.115356609428" lon="21.575980804925">
        <ele>24.2</ele>
        <time>2017-07-26T19:17:44Z</time>
      </trkpt>
      <trkpt lat="60.115349568632" lon="21.575927915136">
        <ele>24.2</ele>
        <time>2017-07-26T19:17:45Z</time>
      </trkpt>
      <trkpt lat="60.11534135437" lon="21.575869577112">
        <ele>24.2</ele>
        <time>2017-07-26T19:17:46Z</time>
      </trkpt>
      <trkpt lat="60.115334397393" lon="21.575816854961">
        <ele>24.2</ele>
        <time>2017-07-26T19:17:47Z</time>
      </trkpt>
      <trkpt lat="60.115327188959" lon="21.575759355127">
        <ele>24.2</ele>
        <time>2017-07-26T19:17:48Z</time>
      </trkpt>
      <trkpt lat="60.115320734896" lon="21.575706716795">
        <ele>24.2</ele>
        <time>2017-07-26T19:17:49Z</time>
      </trkpt>
      <trkpt lat="60.115314113195" lon="21.575646534753">
        <ele>24.2</ele>
        <time>2017-07-26T19:17:50Z</time>
      </trkpt>
      <trkpt lat="60.115306820942" lon="21.575589621652">
        <ele>24.2</ele>
        <time>2017-07-26T19:17:51Z</time>
      </trkpt>
      <trkpt lat="60.115300785974" lon="21.575533546741">
        <ele>24.2</ele>
        <time>2017-07-26T19:17:52Z</time>
      </trkpt>
      <trkpt lat="60.115297433214" lon="21.575484093531">
        <ele>24.2</ele>
        <time>2017-07-26T19:17:53Z</time>
      </trkpt>
      <trkpt lat="60.115292320255" lon="21.575426677516">
        <ele>24.2</ele>
        <time>2017-07-26T19:17:54Z</time>
      </trkpt>
      <trkpt lat="60.115287123477" lon="21.575371189338">
        <ele>24.2</ele>
        <time>2017-07-26T19:17:55Z</time>
      </trkpt>
      <trkpt lat="60.115281675242" lon="21.575321400852">
        <ele>24.2</ele>
        <time>2017-07-26T19:17:56Z</time>
      </trkpt>
      <trkpt lat="60.11527765193" lon="21.575270774176">
        <ele>24.2</ele>
        <time>2017-07-26T19:17:57Z</time>
      </trkpt>
      <trkpt lat="60.115272371333" lon="21.575218303482">
        <ele>24.2</ele>
        <time>2017-07-26T19:17:58Z</time>
      </trkpt>
      <trkpt lat="60.115266001089" lon="21.575176142525">
        <ele>24.2</ele>
        <time>2017-07-26T19:17:59Z</time>
      </trkpt>
      <trkpt lat="60.115258876474" lon="21.575121408718">
        <ele>24.2</ele>
        <time>2017-07-26T19:18:00Z</time>
      </trkpt>
      <trkpt lat="60.115254350248" lon="21.575068602748">
        <ele>24.2</ele>
        <time>2017-07-26T19:18:01Z</time>
      </trkpt>
      <trkpt lat="60.115250243117" lon="21.575003475385">
        <ele>24.2</ele>
        <time>2017-07-26T19:18:02Z</time>
      </trkpt>
      <trkpt lat="60.115245716891" lon="21.574942036058">
        <ele>24.2</ele>
        <time>2017-07-26T19:18:03Z</time>
      </trkpt>
      <trkpt lat="60.115240436294" lon="21.574882692206">
        <ele>24.2</ele>
        <time>2017-07-26T19:18:04Z</time>
      </trkpt>
      <trkpt lat="60.115234988059" lon="21.574823096897">
        <ele>24.2</ele>
        <time>2017-07-26T19:18:05Z</time>
      </trkpt>
      <trkpt lat="60.115231132385" lon="21.574761070837">
        <ele>24.2</ele>
        <time>2017-07-26T19:18:06Z</time>
      </trkpt>
      <trkpt lat="60.115227947263" lon="21.574702397537">
        <ele>24.2</ele>
        <time>2017-07-26T19:18:07Z</time>
      </trkpt>
      <trkpt lat="60.115222750485" lon="21.574649423929">
        <ele>24.2</ele>
        <time>2017-07-26T19:18:08Z</time>
      </trkpt>
      <trkpt lat="60.115219481544" lon="21.57460156328">
        <ele>24.2</ele>
        <time>2017-07-26T19:18:09Z</time>
      </trkpt>
      <trkpt lat="60.115215709689" lon="21.574539621039">
        <ele>24.2</ele>
        <time>2017-07-26T19:18:10Z</time>
      </trkpt>
      <trkpt lat="60.115212524567" lon="21.574489916372">
        <ele>24.2</ele>
        <time>2017-07-26T19:18:11Z</time>
      </trkpt>
      <trkpt lat="60.115209087988" lon="21.574432416538">
        <ele>24.2</ele>
        <time>2017-07-26T19:18:12Z</time>
      </trkpt>
      <trkpt lat="60.115206657237" lon="21.574375922532">
        <ele>24.2</ele>
        <time>2017-07-26T19:18:13Z</time>
      </trkpt>
      <trkpt lat="60.115203136839" lon="21.574323368019">
        <ele>24.2</ele>
        <time>2017-07-26T19:18:14Z</time>
      </trkpt>
      <trkpt lat="60.115199197346" lon="21.574264527081">
        <ele>24.2</ele>
        <time>2017-07-26T19:18:15Z</time>
      </trkpt>
      <trkpt lat="60.115192910921" lon="21.574208955084">
        <ele>24.2</ele>
        <time>2017-07-26T19:18:16Z</time>
      </trkpt>
      <trkpt lat="60.115187714143" lon="21.574154053639">
        <ele>24.2</ele>
        <time>2017-07-26T19:18:17Z</time>
      </trkpt>
      <trkpt lat="60.115183187917" lon="21.574093117226">
        <ele>24.2</ele>
        <time>2017-07-26T19:18:18Z</time>
      </trkpt>
      <trkpt lat="60.115180338071" lon="21.574038551057">
        <ele>24.2</ele>
        <time>2017-07-26T19:18:19Z</time>
      </trkpt>
      <trkpt lat="60.115173213456" lon="21.57397543535">
        <ele>24.2</ele>
        <time>2017-07-26T19:18:20Z</time>
      </trkpt>
      <trkpt lat="60.115168184316" lon="21.573916342955">
        <ele>24.2</ele>
        <time>2017-07-26T19:18:21Z</time>
      </trkpt>
      <trkpt lat="60.11516617266" lon="21.573857585836">
        <ele>24.2</ele>
        <time>2017-07-26T19:18:22Z</time>
      </trkpt>
      <trkpt lat="60.115164999194" lon="21.573797571432">
        <ele>24.2</ele>
        <time>2017-07-26T19:18:23Z</time>
      </trkpt>
      <trkpt lat="60.115163406633" lon="21.57373738939">
        <ele>24.2</ele>
        <time>2017-07-26T19:18:24Z</time>
      </trkpt>
      <trkpt lat="60.115159299502" lon="21.573671842932">
        <ele>24.2</ele>
        <time>2017-07-26T19:18:25Z</time>
      </trkpt>
      <trkpt lat="60.115156198199" lon="21.573605625922">
        <ele>24.2</ele>
        <time>2017-07-26T19:18:26Z</time>
      </trkpt>
      <trkpt lat="60.11515359981" lon="21.573541672025">
        <ele>24.2</ele>
        <time>2017-07-26T19:18:27Z</time>
      </trkpt>
      <trkpt lat="60.115152677801" lon="21.573479394508">
        <ele>24.2</ele>
        <time>2017-07-26T19:18:28Z</time>
      </trkpt>
      <trkpt lat="60.115150079412" lon="21.573424995977">
        <ele>24.2</ele>
        <time>2017-07-26T19:18:29Z</time>
      </trkpt>
      <trkpt lat="60.115147900118" lon="21.573361461175">
        <ele>24.2</ele>
        <time>2017-07-26T19:18:30Z</time>
      </trkpt>
      <trkpt lat="60.115146475195" lon="21.573300524762">
        <ele>24.2</ele>
        <time>2017-07-26T19:18:31Z</time>
      </trkpt>
      <trkpt lat="60.115143038616" lon="21.573242102919">
        <ele>24.2</ele>
        <time>2017-07-26T19:18:32Z</time>
      </trkpt>
      <trkpt lat="60.115141194598" lon="21.573185692732">
        <ele>24.2</ele>
        <time>2017-07-26T19:18:33Z</time>
      </trkpt>
      <trkpt lat="60.115139182942" lon="21.573126097423">
        <ele>24.2</ele>
        <time>2017-07-26T19:18:34Z</time>
      </trkpt>
      <trkpt lat="60.115139937313" lon="21.573064909553">
        <ele>24.2</ele>
        <time>2017-07-26T19:18:35Z</time>
      </trkpt>
      <trkpt lat="60.115138847666" lon="21.572999698371">
        <ele>24.2</ele>
        <time>2017-07-26T19:18:36Z</time>
      </trkpt>
      <trkpt lat="60.115137925657" lon="21.572937169397">
        <ele>24.2</ele>
        <time>2017-07-26T19:18:37Z</time>
      </trkpt>
      <trkpt lat="60.11513683601" lon="21.572876735898">
        <ele>24.2</ele>
        <time>2017-07-26T19:18:38Z</time>
      </trkpt>
      <trkpt lat="60.115136249277" lon="21.572824349023">
        <ele>24.2</ele>
        <time>2017-07-26T19:18:39Z</time>
      </trkpt>
      <trkpt lat="60.115137255105" lon="21.572760562764">
        <ele>24.2</ele>
        <time>2017-07-26T19:18:40Z</time>
      </trkpt>
      <trkpt lat="60.115136165458" lon="21.572704655491">
        <ele>24.2</ele>
        <time>2017-07-26T19:18:41Z</time>
      </trkpt>
      <trkpt lat="60.115137003648" lon="21.572644976363">
        <ele>24.2</ele>
        <time>2017-07-26T19:18:42Z</time>
      </trkpt>
      <trkpt lat="60.115137590381" lon="21.572586889796">
        <ele>24.2</ele>
        <time>2017-07-26T19:18:43Z</time>
      </trkpt>
      <trkpt lat="60.11513935058" lon="21.572534754378">
        <ele>24.2</ele>
        <time>2017-07-26T19:18:44Z</time>
      </trkpt>
      <trkpt lat="60.115139182942" lon="21.572478847105">
        <ele>24.2</ele>
        <time>2017-07-26T19:18:45Z</time>
      </trkpt>
      <trkpt lat="60.115140775503" lon="21.572433081931">
        <ele>24.2</ele>
        <time>2017-07-26T19:18:46Z</time>
      </trkpt>
      <trkpt lat="60.11514018877" lon="21.572387484395">
        <ele>24.2</ele>
        <time>2017-07-26T19:18:47Z</time>
      </trkpt>
      <trkpt lat="60.115138763847" lon="21.572338115004">
        <ele>24.2</ele>
        <time>2017-07-26T19:18:48Z</time>
      </trkpt>
      <trkpt lat="60.115139099123" lon="21.572290924907">
        <ele>24.2</ele>
        <time>2017-07-26T19:18:49Z</time>
      </trkpt>
      <trkpt lat="60.115139685856" lon="21.572238035118">
        <ele>24.2</ele>
        <time>2017-07-26T19:18:50Z</time>
      </trkpt>
      <trkpt lat="60.115141110779" lon="21.572188498089">
        <ele>24.2</ele>
        <time>2017-07-26T19:18:51Z</time>
      </trkpt>
      <trkpt lat="60.115141446055" lon="21.572139966888">
        <ele>24.2</ele>
        <time>2017-07-26T19:18:52Z</time>
      </trkpt>
      <trkpt lat="60.115142619521" lon="21.572095123723">
        <ele>24.2</ele>
        <time>2017-07-26T19:18:53Z</time>
      </trkpt>
      <trkpt lat="60.115141529874" lon="21.572042736848">
        <ele>24.2</ele>
        <time>2017-07-26T19:18:54Z</time>
      </trkpt>
      <trkpt lat="60.115139518218" lon="21.571987164851">
        <ele>24.2</ele>
        <time>2017-07-26T19:18:55Z</time>
      </trkpt>
      <trkpt lat="60.115140272589" lon="21.571936454356">
        <ele>24.2</ele>
        <time>2017-07-26T19:18:56Z</time>
      </trkpt>
      <trkpt lat="60.115140775503" lon="21.571883899843">
        <ele>24.2</ele>
        <time>2017-07-26T19:18:57Z</time>
      </trkpt>
      <trkpt lat="60.115142619521" lon="21.57183469809">
        <ele>24.2</ele>
        <time>2017-07-26T19:18:58Z</time>
      </trkpt>
      <trkpt lat="60.115144128263" lon="21.571790357839">
        <ele>24.2</ele>
        <time>2017-07-26T19:18:59Z</time>
      </trkpt>
      <trkpt lat="60.115144547358" lon="21.571733780014">
        <ele>24.2</ele>
        <time>2017-07-26T19:19:00Z</time>
      </trkpt>
      <trkpt lat="60.115146642833" lon="21.571686422279">
        <ele>24.2</ele>
        <time>2017-07-26T19:19:01Z</time>
      </trkpt>
      <trkpt lat="60.115146559014" lon="21.571642249666">
        <ele>24.2</ele>
        <time>2017-07-26T19:19:02Z</time>
      </trkpt>
      <trkpt lat="60.115145804643" lon="21.57159162299">
        <ele>24.2</ele>
        <time>2017-07-26T19:19:03Z</time>
      </trkpt>
      <trkpt lat="60.115145385548" lon="21.571545271083">
        <ele>24.2</ele>
        <time>2017-07-26T19:19:04Z</time>
      </trkpt>
      <trkpt lat="60.11514437972" lon="21.571486933059">
        <ele>24.2</ele>
        <time>2017-07-26T19:19:05Z</time>
      </trkpt>
      <trkpt lat="60.11514354153" lon="21.571433037442">
        <ele>24.2</ele>
        <time>2017-07-26T19:19:06Z</time>
      </trkpt>
      <trkpt lat="60.115142787159" lon="21.571378219816">
        <ele>24.2</ele>
        <time>2017-07-26T19:19:07Z</time>
      </trkpt>
      <trkpt lat="60.11514270334" lon="21.571324575656">
        <ele>24.2</ele>
        <time>2017-07-26T19:19:08Z</time>
      </trkpt>
      <trkpt lat="60.115142116607" lon="21.571287946753">
        <ele>24.2</ele>
        <time>2017-07-26T19:19:09Z</time>
      </trkpt>
      <trkpt lat="60.115143373892" lon="21.57122868672">
        <ele>24.2</ele>
        <time>2017-07-26T19:19:10Z</time>
      </trkpt>
      <trkpt lat="60.115144128263" lon="21.571182250994">
        <ele>24.2</ele>
        <time>2017-07-26T19:19:11Z</time>
      </trkpt>
      <trkpt lat="60.115143038616" lon="21.571132713965">
        <ele>24.2</ele>
        <time>2017-07-26T19:19:12Z</time>
      </trkpt>
      <trkpt lat="60.115143792987" lon="21.571081416737">
        <ele>24.2</ele>
        <time>2017-07-26T19:19:13Z</time>
      </trkpt>
      <trkpt lat="60.115146139919" lon="21.571040345427">
        <ele>24.2</ele>
        <time>2017-07-26T19:19:14Z</time>
      </trkpt>
      <trkpt lat="60.115145385548" lon="21.570989467294">
        <ele>24.2</ele>
        <time>2017-07-26T19:19:15Z</time>
      </trkpt>
      <trkpt lat="60.115144295901" lon="21.570943785939">
        <ele>24.2</ele>
        <time>2017-07-26T19:19:16Z</time>
      </trkpt>
      <trkpt lat="60.115143876806" lon="21.570901289706">
        <ele>24.2</ele>
        <time>2017-07-26T19:19:17Z</time>
      </trkpt>
      <trkpt lat="60.115145553186" lon="21.570855021618">
        <ele>24.2</ele>
        <time>2017-07-26T19:19:18Z</time>
      </trkpt>
      <trkpt lat="60.115147397204" lon="21.570813615032">
        <ele>24.2</ele>
        <time>2017-07-26T19:19:19Z</time>
      </trkpt>
      <trkpt lat="60.115149995593" lon="21.570764245641">
        <ele>24.2</ele>
        <time>2017-07-26T19:19:20Z</time>
      </trkpt>
      <trkpt lat="60.115149995593" lon="21.57070984711">
        <ele>24.2</ele>
        <time>2017-07-26T19:19:21Z</time>
      </trkpt>
      <trkpt lat="60.115148403032" lon="21.570661483547">
        <ele>24.2</ele>
        <time>2017-07-26T19:19:22Z</time>
      </trkpt>
      <trkpt lat="60.115148151575" lon="21.57062183716">
        <ele>24.2</ele>
        <time>2017-07-26T19:19:23Z</time>
      </trkpt>
      <trkpt lat="60.115146726652" lon="21.570577580728">
        <ele>24.2</ele>
        <time>2017-07-26T19:19:24Z</time>
      </trkpt>
      <trkpt lat="60.115146307557" lon="21.570522763102">
        <ele>24.2</ele>
        <time>2017-07-26T19:19:25Z</time>
      </trkpt>
      <trkpt lat="60.115146559014" lon="21.570472555521">
        <ele>24.2</ele>
        <time>2017-07-26T19:19:26Z</time>
      </trkpt>
      <trkpt lat="60.115148905946" lon="21.570422431759">
        <ele>24.2</ele>
        <time>2017-07-26T19:19:27Z</time>
      </trkpt>
      <trkpt lat="60.115148654489" lon="21.570376666585">
        <ele>24.2</ele>
        <time>2017-07-26T19:19:28Z</time>
      </trkpt>
      <trkpt lat="60.115148319213" lon="21.570337271655">
        <ele>24.2</ele>
        <time>2017-07-26T19:19:29Z</time>
      </trkpt>
      <trkpt lat="60.115148319213" lon="21.570291087386">
        <ele>24.2</ele>
        <time>2017-07-26T19:19:30Z</time>
      </trkpt>
      <trkpt lat="60.1151460561" lon="21.570249010248">
        <ele>24.2</ele>
        <time>2017-07-26T19:19:31Z</time>
      </trkpt>
      <trkpt lat="60.11514437972" lon="21.570204083264">
        <ele>24.2</ele>
        <time>2017-07-26T19:19:32Z</time>
      </trkpt>
      <trkpt lat="60.115145888462" lon="21.570155719701">
        <ele>24.2</ele>
        <time>2017-07-26T19:19:33Z</time>
      </trkpt>
      <trkpt lat="60.115146810471" lon="21.570108194328">
        <ele>24.2</ele>
        <time>2017-07-26T19:19:34Z</time>
      </trkpt>
      <trkpt lat="60.115148738308" lon="21.570056561824">
        <ele>24.2</ele>
        <time>2017-07-26T19:19:35Z</time>
      </trkpt>
      <trkpt lat="60.115150163231" lon="21.570009539365">
        <ele>24.2</ele>
        <time>2017-07-26T19:19:36Z</time>
      </trkpt>
      <trkpt lat="60.115150749964" lon="21.5699646962">
        <ele>24.2</ele>
        <time>2017-07-26T19:19:37Z</time>
      </trkpt>
      <trkpt lat="60.115151169059" lon="21.5699227867">
        <ele>24.2</ele>
        <time>2017-07-26T19:19:38Z</time>
      </trkpt>
      <trkpt lat="60.115151001421" lon="21.56988003901">
        <ele>24.2</ele>
        <time>2017-07-26T19:19:39Z</time>
      </trkpt>
      <trkpt lat="60.115150666145" lon="21.569827652135">
        <ele>24.2</ele>
        <time>2017-07-26T19:19:40Z</time>
      </trkpt>
      <trkpt lat="60.115151671973" lon="21.569781886961">
        <ele>24.2</ele>
        <time>2017-07-26T19:19:41Z</time>
      </trkpt>
      <trkpt lat="60.115153013077" lon="21.569728242801">
        <ele>24.2</ele>
        <time>2017-07-26T19:19:42Z</time>
      </trkpt>
      <trkpt lat="60.115154689457" lon="21.569677783763">
        <ele>24.2</ele>
        <time>2017-07-26T19:19:43Z</time>
      </trkpt>
      <trkpt lat="60.115155779104" lon="21.56963696391">
        <ele>24.2</ele>
        <time>2017-07-26T19:19:44Z</time>
      </trkpt>
      <trkpt lat="60.115156617294" lon="21.569586588691">
        <ele>24.2</ele>
        <time>2017-07-26T19:19:45Z</time>
      </trkpt>
      <trkpt lat="60.115155611466" lon="21.569545349743">
        <ele>24.2</ele>
        <time>2017-07-26T19:19:46Z</time>
      </trkpt>
      <trkpt lat="60.115154270362" lon="21.569508553202">
        <ele>24.2</ele>
        <time>2017-07-26T19:19:47Z</time>
      </trkpt>
      <trkpt lat="60.115153264534" lon="21.569461949838">
        <ele>24.2</ele>
        <time>2017-07-26T19:19:48Z</time>
      </trkpt>
      <trkpt lat="60.115154857095" lon="21.569420291795">
        <ele>24.2</ele>
        <time>2017-07-26T19:19:49Z</time>
      </trkpt>
      <trkpt lat="60.115155611466" lon="21.56937041949">
        <ele>24.2</ele>
        <time>2017-07-26T19:19:50Z</time>
      </trkpt>
      <trkpt lat="60.115156701113" lon="21.569322726479">
        <ele>24.2</ele>
        <time>2017-07-26T19:19:51Z</time>
      </trkpt>
      <trkpt lat="60.115156868751" lon="21.569276961305">
        <ele>24.2</ele>
        <time>2017-07-26T19:19:52Z</time>
      </trkpt>
      <trkpt lat="60.115157623122" lon="21.569227759552">
        <ele>24.2</ele>
        <time>2017-07-26T19:19:53Z</time>
      </trkpt>
      <trkpt lat="60.115158461312" lon="21.569180066541">
        <ele>24.2</ele>
        <time>2017-07-26T19:19:54Z</time>
      </trkpt>
      <trkpt lat="60.115158461312" lon="21.56913069715">
        <ele>24.2</ele>
        <time>2017-07-26T19:19:55Z</time>
      </trkpt>
      <trkpt lat="60.115157287846" lon="21.569086692175">
        <ele>24.2</ele>
        <time>2017-07-26T19:19:56Z</time>
      </trkpt>
      <trkpt lat="60.115157036389" lon="21.569040843182">
        <ele>24.2</ele>
        <time>2017-07-26T19:19:57Z</time>
      </trkpt>
      <trkpt lat="60.115155360009" lon="21.568998598406">
        <ele>24.2</ele>
        <time>2017-07-26T19:19:58Z</time>
      </trkpt>
      <trkpt lat="60.115155611466" lon="21.568962891512">
        <ele>24.2</ele>
        <time>2017-07-26T19:19:59Z</time>
      </trkpt>
      <trkpt lat="60.115152426344" lon="21.568914192673">
        <ele>24.2</ele>
        <time>2017-07-26T19:20:00Z</time>
      </trkpt>
      <trkpt lat="60.115153264534" lon="21.568867673128">
        <ele>24.2</ele>
        <time>2017-07-26T19:20:01Z</time>
      </trkpt>
      <trkpt lat="60.115153096896" lon="21.568820231574">
        <ele>24.2</ele>
        <time>2017-07-26T19:20:02Z</time>
      </trkpt>
      <trkpt lat="60.115153515991" lon="21.568771448916">
        <ele>24.2</ele>
        <time>2017-07-26T19:20:03Z</time>
      </trkpt>
      <trkpt lat="60.115154689457" lon="21.568723504448">
        <ele>24.2</ele>
        <time>2017-07-26T19:20:04Z</time>
      </trkpt>
      <trkpt lat="60.115153432172" lon="21.568669357374">
        <ele>24.2</ele>
        <time>2017-07-26T19:20:05Z</time>
      </trkpt>
      <trkpt lat="60.115151588154" lon="21.568611438445">
        <ele>24.2</ele>
        <time>2017-07-26T19:20:06Z</time>
      </trkpt>
      <trkpt lat="60.115149744136" lon="21.56856072795">
        <ele>24.2</ele>
        <time>2017-07-26T19:20:07Z</time>
      </trkpt>
      <trkpt lat="60.115152007249" lon="21.568509514541">
        <ele>24.6</ele>
        <time>2017-07-26T19:20:08Z</time>
      </trkpt>
      <trkpt lat="60.115153348353" lon="21.568460312788">
        <ele>25</ele>
        <time>2017-07-26T19:20:09Z</time>
      </trkpt>
      <trkpt lat="60.115153180715" lon="21.568404992248">
        <ele>25.4</ele>
        <time>2017-07-26T19:20:10Z</time>
      </trkpt>
      <trkpt lat="60.115151336697" lon="21.568357131599">
        <ele>25.8</ele>
        <time>2017-07-26T19:20:11Z</time>
      </trkpt>
      <trkpt lat="60.115150917602" lon="21.568306672561">
        <ele>26.2</ele>
        <time>2017-07-26T19:20:12Z</time>
      </trkpt>
      <trkpt lat="60.115151504335" lon="21.568257973722">
        <ele>26.2</ele>
        <time>2017-07-26T19:20:13Z</time>
      </trkpt>
      <trkpt lat="60.115150917602" lon="21.56821204091">
        <ele>26.2</ele>
        <time>2017-07-26T19:20:14Z</time>
      </trkpt>
      <trkpt lat="60.115151252878" lon="21.568162252424">
        <ele>26.2</ele>
        <time>2017-07-26T19:20:15Z</time>
      </trkpt>
      <trkpt lat="60.115150582326" lon="21.568117493078">
        <ele>26.2</ele>
        <time>2017-07-26T19:20:16Z</time>
      </trkpt>
      <trkpt lat="60.115149995593" lon="21.568065944393">
        <ele>26.2</ele>
        <time>2017-07-26T19:20:17Z</time>
      </trkpt>
      <trkpt lat="60.115150749964" lon="21.568012300233">
        <ele>26.2</ele>
        <time>2017-07-26T19:20:18Z</time>
      </trkpt>
      <trkpt lat="60.115150917602" lon="21.567962595566">
        <ele>26.2</ele>
        <time>2017-07-26T19:20:19Z</time>
      </trkpt>
      <trkpt lat="60.115152258706" lon="21.567908783768">
        <ele>26.2</ele>
        <time>2017-07-26T19:20:20Z</time>
      </trkpt>
      <trkpt lat="60.115151420516" lon="21.567859917291">
        <ele>26.2</ele>
        <time>2017-07-26T19:20:21Z</time>
      </trkpt>
      <trkpt lat="60.115150330869" lon="21.567811218452">
        <ele>26.2</ele>
        <time>2017-07-26T19:20:22Z</time>
      </trkpt>
      <trkpt lat="60.115150582326" lon="21.567764028355">
        <ele>26.2</ele>
        <time>2017-07-26T19:20:23Z</time>
      </trkpt>
      <trkpt lat="60.115151671973" lon="21.567712814946">
        <ele>26.2</ele>
        <time>2017-07-26T19:20:24Z</time>
      </trkpt>
      <trkpt lat="60.115151169059" lon="21.567657242949">
        <ele>26.2</ele>
        <time>2017-07-26T19:20:25Z</time>
      </trkpt>
      <trkpt lat="60.115150666145" lon="21.567607370644">
        <ele>26.2</ele>
        <time>2017-07-26T19:20:26Z</time>
      </trkpt>
      <trkpt lat="60.115151839611" lon="21.567559509995">
        <ele>26.2</ele>
        <time>2017-07-26T19:20:27Z</time>
      </trkpt>
      <trkpt lat="60.11515276162" lon="21.567509972966">
        <ele>26.2</ele>
        <time>2017-07-26T19:20:28Z</time>
      </trkpt>
      <trkpt lat="60.115153096896" lon="21.567464543068">
        <ele>26.2</ele>
        <time>2017-07-26T19:20:29Z</time>
      </trkpt>
      <trkpt lat="60.115152929258" lon="21.567406288863">
        <ele>26.2</ele>
        <time>2017-07-26T19:20:30Z</time>
      </trkpt>
      <trkpt lat="60.11515192343" lon="21.567353399074">
        <ele>26.2</ele>
        <time>2017-07-26T19:20:31Z</time>
      </trkpt>
      <trkpt lat="60.115151420516" lon="21.567301347475">
        <ele>26.2</ele>
        <time>2017-07-26T19:20:32Z</time>
      </trkpt>
      <trkpt lat="60.115151001421" lon="21.567238147949">
        <ele>26.2</ele>
        <time>2017-07-26T19:20:33Z</time>
      </trkpt>
      <trkpt lat="60.115150833783" lon="21.567180648115">
        <ele>26.2</ele>
        <time>2017-07-26T19:20:34Z</time>
      </trkpt>
      <trkpt lat="60.115150833783" lon="21.567119376426">
        <ele>26.2</ele>
        <time>2017-07-26T19:20:35Z</time>
      </trkpt>
      <trkpt lat="60.115152258706" lon="21.567053829968">
        <ele>26.2</ele>
        <time>2017-07-26T19:20:36Z</time>
      </trkpt>
      <trkpt lat="60.11515192343" lon="21.566986271854">
        <ele>26.2</ele>
        <time>2017-07-26T19:20:37Z</time>
      </trkpt>
      <trkpt lat="60.115152174887" lon="21.566919468111">
        <ele>26.2</ele>
        <time>2017-07-26T19:20:38Z</time>
      </trkpt>
      <trkpt lat="60.115150917602" lon="21.566860208078">
        <ele>26.2</ele>
        <time>2017-07-26T19:20:39Z</time>
      </trkpt>
      <trkpt lat="60.11515192343" lon="21.566795667448">
        <ele>26.2</ele>
        <time>2017-07-26T19:20:40Z</time>
      </trkpt>
      <trkpt lat="60.115151671973" lon="21.566738921985">
        <ele>26.2</ele>
        <time>2017-07-26T19:20:41Z</time>
      </trkpt>
      <trkpt lat="60.115152510163" lon="21.566680164866">
        <ele>26.2</ele>
        <time>2017-07-26T19:20:42Z</time>
      </trkpt>
      <trkpt lat="60.115152593982" lon="21.566625011964">
        <ele>26.2</ele>
        <time>2017-07-26T19:20:43Z</time>
      </trkpt>
      <trkpt lat="60.11515108524" lon="21.566579665885">
        <ele>26.2</ele>
        <time>2017-07-26T19:20:44Z</time>
      </trkpt>
      <trkpt lat="60.115149660317" lon="21.566523423336">
        <ele>26.2</ele>
        <time>2017-07-26T19:20:45Z</time>
      </trkpt>
      <trkpt lat="60.115148738308" lon="21.566468940986">
        <ele>26.2</ele>
        <time>2017-07-26T19:20:46Z</time>
      </trkpt>
      <trkpt lat="60.115148654489" lon="21.566417140844">
        <ele>26.2</ele>
        <time>2017-07-26T19:20:47Z</time>
      </trkpt>
      <trkpt lat="60.115147900118" lon="21.566360227743">
        <ele>26.2</ele>
        <time>2017-07-26T19:20:48Z</time>
      </trkpt>
      <trkpt lat="60.115147900118" lon="21.566303398461">
        <ele>26.2</ele>
        <time>2017-07-26T19:20:49Z</time>
      </trkpt>
      <trkpt lat="60.115148151575" lon="21.56624397079">
        <ele>26.2</ele>
        <time>2017-07-26T19:20:50Z</time>
      </trkpt>
      <trkpt lat="60.115146642833" lon="21.566187309146">
        <ele>26.2</ele>
        <time>2017-07-26T19:20:51Z</time>
      </trkpt>
      <trkpt lat="60.115146475195" lon="21.566130060769">
        <ele>26.2</ele>
        <time>2017-07-26T19:20:52Z</time>
      </trkpt>
      <trkpt lat="60.115146391376" lon="21.566077422437">
        <ele>26.2</ele>
        <time>2017-07-26T19:20:53Z</time>
      </trkpt>
      <trkpt lat="60.115145972281" lon="21.566022856268">
        <ele>26.2</ele>
        <time>2017-07-26T19:20:54Z</time>
      </trkpt>
      <trkpt lat="60.1151460561" lon="21.565962758045">
        <ele>26.2</ele>
        <time>2017-07-26T19:20:55Z</time>
      </trkpt>
      <trkpt lat="60.115145385548" lon="21.565907688962">
        <ele>26.2</ele>
        <time>2017-07-26T19:20:56Z</time>
      </trkpt>
      <trkpt lat="60.11514354153" lon="21.565854715354">
        <ele>26.2</ele>
        <time>2017-07-26T19:20:57Z</time>
      </trkpt>
      <trkpt lat="60.115143206254" lon="21.565802328479">
        <ele>26.2</ele>
        <time>2017-07-26T19:20:58Z</time>
      </trkpt>
      <trkpt lat="60.115143373892" lon="21.565758826418">
        <ele>26.2</ele>
        <time>2017-07-26T19:20:59Z</time>
      </trkpt>
      <trkpt lat="60.115143876806" lon="21.56570166186">
        <ele>26.2</ele>
        <time>2017-07-26T19:21:00Z</time>
      </trkpt>
      <trkpt lat="60.115144212082" lon="21.565648101519">
        <ele>26.2</ele>
        <time>2017-07-26T19:21:01Z</time>
      </trkpt>
      <trkpt lat="60.115145469367" lon="21.565594038264">
        <ele>26.2</ele>
        <time>2017-07-26T19:21:02Z</time>
      </trkpt>
      <trkpt lat="60.115144547358" lon="21.565541316113">
        <ele>26.2</ele>
        <time>2017-07-26T19:21:03Z</time>
      </trkpt>
      <trkpt lat="60.115143290073" lon="21.565483900098">
        <ele>26.2</ele>
        <time>2017-07-26T19:21:04Z</time>
      </trkpt>
      <trkpt lat="60.115140104951" lon="21.56542505916">
        <ele>26.2</ele>
        <time>2017-07-26T19:21:05Z</time>
      </trkpt>
      <trkpt lat="60.115135327268" lon="21.565357417227">
        <ele>26.2</ele>
        <time>2017-07-26T19:21:06Z</time>
      </trkpt>
      <trkpt lat="60.115135327268" lon="21.565289942932">
        <ele>26.2</ele>
        <time>2017-07-26T19:21:07Z</time>
      </trkpt>
      <trkpt lat="60.115135914001" lon="21.565221127533">
        <ele>26.2</ele>
        <time>2017-07-26T19:21:08Z</time>
      </trkpt>
      <trkpt lat="60.115134489078" lon="21.565157173636">
        <ele>26.2</ele>
        <time>2017-07-26T19:21:09Z</time>
      </trkpt>
      <trkpt lat="60.115134153802" lon="21.56508391583">
        <ele>26.2</ele>
        <time>2017-07-26T19:21:10Z</time>
      </trkpt>
      <trkpt lat="60.115133399431" lon="21.565019710476">
        <ele>26.2</ele>
        <time>2017-07-26T19:21:11Z</time>
      </trkpt>
      <trkpt lat="60.115133818526" lon="21.564946536489">
        <ele>26.2</ele>
        <time>2017-07-26T19:21:12Z</time>
      </trkpt>
      <trkpt lat="60.115134908173" lon="21.56487269195">
        <ele>26.2</ele>
        <time>2017-07-26T19:21:13Z</time>
      </trkpt>
      <trkpt lat="60.115134656716" lon="21.564803457456">
        <ele>26.2</ele>
        <time>2017-07-26T19:21:14Z</time>
      </trkpt>
      <trkpt lat="60.115133147974" lon="21.564727014528">
        <ele>26.2</ele>
        <time>2017-07-26T19:21:15Z</time>
      </trkpt>
      <trkpt lat="60.115133734707" lon="21.564653337627">
        <ele>26.2</ele>
        <time>2017-07-26T19:21:16Z</time>
      </trkpt>
      <trkpt lat="60.11513599782" lon="21.564580415097">
        <ele>26.2</ele>
        <time>2017-07-26T19:21:17Z</time>
      </trkpt>
      <trkpt lat="60.115139182942" lon="21.564494416803">
        <ele>26.2</ele>
        <time>2017-07-26T19:21:18Z</time>
      </trkpt>
      <trkpt lat="60.11514102696" lon="21.564425769042">
        <ele>26.2</ele>
        <time>2017-07-26T19:21:19Z</time>
      </trkpt>
      <trkpt lat="60.115143290073" lon="21.564334154875">
        <ele>26.2</ele>
        <time>2017-07-26T19:21:20Z</time>
      </trkpt>
      <trkpt lat="60.115145972281" lon="21.564255281196">
        <ele>26.2</ele>
        <time>2017-07-26T19:21:21Z</time>
      </trkpt>
      <trkpt lat="60.11515024705" lon="21.564174144404">
        <ele>26.2</ele>
        <time>2017-07-26T19:21:22Z</time>
      </trkpt>
      <trkpt lat="60.115155862923" lon="21.564100299865">
        <ele>26.2</ele>
        <time>2017-07-26T19:21:23Z</time>
      </trkpt>
      <trkpt lat="60.115162903719" lon="21.564019917444">
        <ele>26.2</ele>
        <time>2017-07-26T19:21:24Z</time>
      </trkpt>
      <trkpt lat="60.115171537076" lon="21.563936768996">
        <ele>26.2</ele>
        <time>2017-07-26T19:21:25Z</time>
      </trkpt>
      <trkpt lat="60.115180924804" lon="21.563858901145">
        <ele>26.2</ele>
        <time>2017-07-26T19:21:26Z</time>
      </trkpt>
      <trkpt lat="60.115189055247" lon="21.563780195104">
        <ele>26.2</ele>
        <time>2017-07-26T19:21:27Z</time>
      </trkpt>
      <trkpt lat="60.115198778251" lon="21.563699393588">
        <ele>25.8</ele>
        <time>2017-07-26T19:21:28Z</time>
      </trkpt>
      <trkpt lat="60.115205986685" lon="21.563630326732">
        <ele>25.4</ele>
        <time>2017-07-26T19:21:29Z</time>
      </trkpt>
      <trkpt lat="60.115214117128" lon="21.563535611262">
        <ele>25</ele>
        <time>2017-07-26T19:21:30Z</time>
      </trkpt>
      <trkpt lat="60.115222247571" lon="21.563452295176">
        <ele>24.8</ele>
        <time>2017-07-26T19:21:31Z</time>
      </trkpt>
      <trkpt lat="60.115232808765" lon="21.563371577479">
        <ele>24.6</ele>
        <time>2017-07-26T19:21:32Z</time>
      </trkpt>
      <trkpt lat="60.115244711063" lon="21.563286585013">
        <ele>24.2</ele>
        <time>2017-07-26T19:21:33Z</time>
      </trkpt>
      <trkpt lat="60.115254853162" lon="21.563215255044">
        <ele>24</ele>
        <time>2017-07-26T19:21:34Z</time>
      </trkpt>
      <trkpt lat="60.115263737976" lon="21.563150546776">
        <ele>24</ele>
        <time>2017-07-26T19:21:35Z</time>
      </trkpt>
      <trkpt lat="60.115276227007" lon="21.563072511287">
        <ele>24</ele>
        <time>2017-07-26T19:21:36Z</time>
      </trkpt>
      <trkpt lat="60.115289218952" lon="21.563007551562">
        <ele>24</ele>
        <time>2017-07-26T19:21:37Z</time>
      </trkpt>
      <trkpt lat="60.115300450698" lon="21.562949213538">
        <ele>24</ele>
        <time>2017-07-26T19:21:38Z</time>
      </trkpt>
      <trkpt lat="60.115310089883" lon="21.562905124744">
        <ele>24</ele>
        <time>2017-07-26T19:21:39Z</time>
      </trkpt>
      <trkpt lat="60.115317801231" lon="21.562848546919">
        <ele>24</ele>
        <time>2017-07-26T19:21:40Z</time>
      </trkpt>
      <trkpt lat="60.11532375238" lon="21.562797836424">
        <ele>24</ele>
        <time>2017-07-26T19:21:41Z</time>
      </trkpt>
      <trkpt lat="60.115331631366" lon="21.562737402925">
        <ele>24</ele>
        <time>2017-07-26T19:21:42Z</time>
      </trkpt>
      <trkpt lat="60.115342779293" lon="21.562684764593">
        <ele>24</ele>
        <time>2017-07-26T19:21:43Z</time>
      </trkpt>
      <trkpt lat="60.115353508125" lon="21.56263304827">
        <ele>24</ele>
        <time>2017-07-26T19:21:44Z</time>
      </trkpt>
      <trkpt lat="60.115362895853" lon="21.562575296979">
        <ele>24</ele>
        <time>2017-07-26T19:21:45Z</time>
      </trkpt>
      <trkpt lat="60.115370607201" lon="21.562521317543">
        <ele>24.2</ele>
        <time>2017-07-26T19:21:46Z</time>
      </trkpt>
      <trkpt lat="60.115376809807" lon="21.562471026143">
        <ele>24</ele>
        <time>2017-07-26T19:21:47Z</time>
      </trkpt>
      <trkpt lat="60.115386868087" lon="21.562412939576">
        <ele>24.2</ele>
        <time>2017-07-26T19:21:48Z</time>
      </trkpt>
      <trkpt lat="60.115397177824" lon="21.562360552701">
        <ele>24</ele>
        <time>2017-07-26T19:21:49Z</time>
      </trkpt>
      <trkpt lat="60.115407236104" lon="21.56229861046">
        <ele>24.2</ele>
        <time>2017-07-26T19:21:50Z</time>
      </trkpt>
      <trkpt lat="60.115415282728" lon="21.562241445902">
        <ele>24</ele>
        <time>2017-07-26T19:21:51Z</time>
      </trkpt>
      <trkpt lat="60.115423916085" lon="21.5621779111">
        <ele>24</ele>
        <time>2017-07-26T19:21:52Z</time>
      </trkpt>
      <trkpt lat="60.115431711252" lon="21.562121500913">
        <ele>24</ele>
        <time>2017-07-26T19:21:53Z</time>
      </trkpt>
      <trkpt lat="60.115439590238" lon="21.562061905604">
        <ele>24</ele>
        <time>2017-07-26T19:21:54Z</time>
      </trkpt>
      <trkpt lat="60.115448391233" lon="21.562001136829">
        <ele>24</ele>
        <time>2017-07-26T19:21:55Z</time>
      </trkpt>
      <trkpt lat="60.115454929115" lon="21.561948414678">
        <ele>24</ele>
        <time>2017-07-26T19:21:56Z</time>
      </trkpt>
      <trkpt lat="60.115462472825" lon="21.561898374735">
        <ele>24</ele>
        <time>2017-07-26T19:21:57Z</time>
      </trkpt>
      <trkpt lat="60.115470351811" lon="21.561848586249">
        <ele>24</ele>
        <time>2017-07-26T19:21:58Z</time>
      </trkpt>
      <trkpt lat="60.115475380951" lon="21.561803910722">
        <ele>24</ele>
        <time>2017-07-26T19:21:59Z</time>
      </trkpt>
      <trkpt lat="60.115486277421" lon="21.561749763648">
        <ele>24</ele>
        <time>2017-07-26T19:22:00Z</time>
      </trkpt>
      <trkpt lat="60.115495162235" lon="21.561704585207">
        <ele>24</ele>
        <time>2017-07-26T19:22:01Z</time>
      </trkpt>
      <trkpt lat="60.115500694289" lon="21.561656137825">
        <ele>24</ele>
        <time>2017-07-26T19:22:02Z</time>
      </trkpt>
      <trkpt lat="60.115507148352" lon="21.561609450642">
        <ele>24</ele>
        <time>2017-07-26T19:22:03Z</time>
      </trkpt>
      <trkpt lat="60.115513770053" lon="21.561563769287">
        <ele>24.2</ele>
        <time>2017-07-26T19:22:04Z</time>
      </trkpt>
      <trkpt lat="60.115520978487" lon="21.561514651353">
        <ele>24</ele>
        <time>2017-07-26T19:22:05Z</time>
      </trkpt>
      <trkpt lat="60.115528103102" lon="21.561458157347">
        <ele>24</ele>
        <time>2017-07-26T19:22:06Z</time>
      </trkpt>
      <trkpt lat="60.115532545509" lon="21.561406692481">
        <ele>24</ele>
        <time>2017-07-26T19:22:07Z</time>
      </trkpt>
      <trkpt lat="60.115539837762" lon="21.561349360285">
        <ele>24</ele>
        <time>2017-07-26T19:22:08Z</time>
      </trkpt>
      <trkpt lat="60.115547884386" lon="21.561297979238">
        <ele>24</ele>
        <time>2017-07-26T19:22:09Z</time>
      </trkpt>
      <trkpt lat="60.115553835535" lon="21.561253638987">
        <ele>24</ele>
        <time>2017-07-26T19:22:10Z</time>
      </trkpt>
      <trkpt lat="60.115562133616" lon="21.561189517452">
        <ele>24</ele>
        <time>2017-07-26T19:22:11Z</time>
      </trkpt>
      <trkpt lat="60.11557018024" lon="21.561135370378">
        <ele>24</ele>
        <time>2017-07-26T19:22:12Z</time>
      </trkpt>
      <trkpt lat="60.115574957923" lon="21.561086503901">
        <ele>24</ele>
        <time>2017-07-26T19:22:13Z</time>
      </trkpt>
      <trkpt lat="60.115581663443" lon="21.561042079831">
        <ele>24</ele>
        <time>2017-07-26T19:22:14Z</time>
      </trkpt>
      <trkpt lat="60.115588285144" lon="21.561001846711">
        <ele>24</ele>
        <time>2017-07-26T19:22:15Z</time>
      </trkpt>
      <trkpt lat="60.115596331768" lon="21.560951722949">
        <ele>24</ele>
        <time>2017-07-26T19:22:16Z</time>
      </trkpt>
      <trkpt lat="60.115601947641" lon="21.560914004399">
        <ele>24</ele>
        <time>2017-07-26T19:22:17Z</time>
      </trkpt>
      <trkpt lat="60.115611754464" lon="21.560867568673">
        <ele>24</ele>
        <time>2017-07-26T19:22:18Z</time>
      </trkpt>
      <trkpt lat="60.115619465812" lon="21.560823898974">
        <ele>24</ele>
        <time>2017-07-26T19:22:19Z</time>
      </trkpt>
      <trkpt lat="60.115628937359" lon="21.560769835719">
        <ele>24.2</ele>
        <time>2017-07-26T19:22:20Z</time>
      </trkpt>
      <trkpt lat="60.115637151621" lon="21.560714850455">
        <ele>24</ele>
        <time>2017-07-26T19:22:21Z</time>
      </trkpt>
      <trkpt lat="60.115645282064" lon="21.560659613734">
        <ele>24</ele>
        <time>2017-07-26T19:22:22Z</time>
      </trkpt>
      <trkpt lat="60.115652909593" lon="21.560604796108">
        <ele>24</ele>
        <time>2017-07-26T19:22:23Z</time>
      </trkpt>
      <trkpt lat="60.115663051692" lon="21.560544027333">
        <ele>24</ele>
        <time>2017-07-26T19:22:24Z</time>
      </trkpt>
      <trkpt lat="60.11567327761" lon="21.560477642685">
        <ele>24</ele>
        <time>2017-07-26T19:22:25Z</time>
      </trkpt>
      <trkpt lat="60.115681408053" lon="21.560413772607">
        <ele>24</ele>
        <time>2017-07-26T19:22:26Z</time>
      </trkpt>
      <trkpt lat="60.115690711962" lon="21.560349734891">
        <ele>24</ele>
        <time>2017-07-26T19:22:27Z</time>
      </trkpt>
      <trkpt lat="60.1156992615" lon="21.560286200089">
        <ele>24</ele>
        <time>2017-07-26T19:22:28Z</time>
      </trkpt>
      <trkpt lat="60.115706637572" lon="21.560233058843">
        <ele>24</ele>
        <time>2017-07-26T19:22:29Z</time>
      </trkpt>
      <trkpt lat="60.115714851834" lon="21.560164913996">
        <ele>24</ele>
        <time>2017-07-26T19:22:30Z</time>
      </trkpt>
      <trkpt lat="60.115722898458" lon="21.560098277891">
        <ele>24</ele>
        <time>2017-07-26T19:22:31Z</time>
      </trkpt>
      <trkpt lat="60.115729939254" lon="21.560036084193">
        <ele>24</ele>
        <time>2017-07-26T19:22:32Z</time>
      </trkpt>
      <trkpt lat="60.115737063869" lon="21.5599734714">
        <ele>24</ele>
        <time>2017-07-26T19:22:33Z</time>
      </trkpt>
      <trkpt lat="60.115742093009" lon="21.559915803928">
        <ele>24</ele>
        <time>2017-07-26T19:22:34Z</time>
      </trkpt>
      <trkpt lat="60.115746283959" lon="21.559856879171">
        <ele>24</ele>
        <time>2017-07-26T19:22:35Z</time>
      </trkpt>
      <trkpt lat="60.115749971995" lon="21.559796026577">
        <ele>24</ele>
        <time>2017-07-26T19:22:36Z</time>
      </trkpt>
      <trkpt lat="60.115755001135" lon="21.55974045458">
        <ele>24</ele>
        <time>2017-07-26T19:22:37Z</time>
      </trkpt>
      <trkpt lat="60.115759778818" lon="21.559685301678">
        <ele>24</ele>
        <time>2017-07-26T19:22:38Z</time>
      </trkpt>
      <trkpt lat="60.115764388863" lon="21.559633250079">
        <ele>24</ele>
        <time>2017-07-26T19:22:39Z</time>
      </trkpt>
      <trkpt lat="60.115770675288" lon="21.559570218191">
        <ele>24</ele>
        <time>2017-07-26T19:22:40Z</time>
      </trkpt>
      <trkpt lat="60.115774111867" lon="21.559516406393">
        <ele>24</ele>
        <time>2017-07-26T19:22:41Z</time>
      </trkpt>
      <trkpt lat="60.115779643921" lon="21.559454296514">
        <ele>24</ele>
        <time>2017-07-26T19:22:42Z</time>
      </trkpt>
      <trkpt lat="60.115785259794" lon="21.55939595849">
        <ele>24</ele>
        <time>2017-07-26T19:22:43Z</time>
      </trkpt>
      <trkpt lat="60.11578810964" lon="21.559344996538">
        <ele>24</ele>
        <time>2017-07-26T19:22:44Z</time>
      </trkpt>
      <trkpt lat="60.115791127124" lon="21.559288837808">
        <ele>24</ele>
        <time>2017-07-26T19:22:45Z</time>
      </trkpt>
      <trkpt lat="60.115793557875" lon="21.559236031838">
        <ele>24</ele>
        <time>2017-07-26T19:22:46Z</time>
      </trkpt>
      <trkpt lat="60.115797748825" lon="21.5591855728">
        <ele>24</ele>
        <time>2017-07-26T19:22:47Z</time>
      </trkpt>
      <trkpt lat="60.115801017766" lon="21.559129330251">
        <ele>24</ele>
        <time>2017-07-26T19:22:48Z</time>
      </trkpt>
      <trkpt lat="60.115805041078" lon="21.559079625584">
        <ele>24</ele>
        <time>2017-07-26T19:22:49Z</time>
      </trkpt>
      <trkpt lat="60.115808896752" lon="21.559025310872">
        <ele>24</ele>
        <time>2017-07-26T19:22:50Z</time>
      </trkpt>
      <trkpt lat="60.115813087702" lon="21.558976947309">
        <ele>24</ele>
        <time>2017-07-26T19:22:51Z</time>
      </trkpt>
      <trkpt lat="60.115816943376" lon="21.558925566262">
        <ele>24</ele>
        <time>2017-07-26T19:22:52Z</time>
      </trkpt>
      <trkpt lat="60.115821134326" lon="21.558876867423">
        <ele>24</ele>
        <time>2017-07-26T19:22:53Z</time>
      </trkpt>
      <trkpt lat="60.115825325276" lon="21.558819535227">
        <ele>24</ele>
        <time>2017-07-26T19:22:54Z</time>
      </trkpt>
      <trkpt lat="60.115829683864" lon="21.558757173891">
        <ele>24</ele>
        <time>2017-07-26T19:22:55Z</time>
      </trkpt>
      <trkpt lat="60.115833958633" lon="21.558697075668">
        <ele>24</ele>
        <time>2017-07-26T19:22:56Z</time>
      </trkpt>
      <trkpt lat="60.115839406868" lon="21.558636642169">
        <ele>24</ele>
        <time>2017-07-26T19:22:57Z</time>
      </trkpt>
      <trkpt lat="60.11584259199" lon="21.558577465955">
        <ele>24</ele>
        <time>2017-07-26T19:22:58Z</time>
      </trkpt>
      <trkpt lat="60.115845358017" lon="21.558531281686">
        <ele>24</ele>
        <time>2017-07-26T19:22:59Z</time>
      </trkpt>
      <trkpt lat="60.115847118216" lon="21.558470932006">
        <ele>24</ele>
        <time>2017-07-26T19:23:00Z</time>
      </trkpt>
      <trkpt lat="60.115848878415" lon="21.558422987538">
        <ele>24</ele>
        <time>2017-07-26T19:23:01Z</time>
      </trkpt>
      <trkpt lat="60.115852147356" lon="21.558372612319">
        <ele>24</ele>
        <time>2017-07-26T19:23:02Z</time>
      </trkpt>
      <trkpt lat="60.115855835392" lon="21.5583138552">
        <ele>24</ele>
        <time>2017-07-26T19:23:03Z</time>
      </trkpt>
      <trkpt lat="60.11586019398" lon="21.558261719782">
        <ele>24</ele>
        <time>2017-07-26T19:23:04Z</time>
      </trkpt>
      <trkpt lat="60.115864049654" lon="21.558204136129">
        <ele>24</ele>
        <time>2017-07-26T19:23:05Z</time>
      </trkpt>
      <trkpt lat="60.115868156785" lon="21.558141020422">
        <ele>24</ele>
        <time>2017-07-26T19:23:06Z</time>
      </trkpt>
      <trkpt lat="60.115872599192" lon="21.558084023502">
        <ele>24</ele>
        <time>2017-07-26T19:23:07Z</time>
      </trkpt>
      <trkpt lat="60.115875532857" lon="21.558028116229">
        <ele>24</ele>
        <time>2017-07-26T19:23:08Z</time>
      </trkpt>
      <trkpt lat="60.11587947235" lon="21.557974974983">
        <ele>24</ele>
        <time>2017-07-26T19:23:09Z</time>
      </trkpt>
      <trkpt lat="60.115883411843" lon="21.557913032742">
        <ele>24</ele>
        <time>2017-07-26T19:23:10Z</time>
      </trkpt>
      <trkpt lat="60.115885507318" lon="21.557857209288">
        <ele>24</ele>
        <time>2017-07-26T19:23:11Z</time>
      </trkpt>
      <trkpt lat="60.115888357164" lon="21.557797362522">
        <ele>24</ele>
        <time>2017-07-26T19:23:12Z</time>
      </trkpt>
      <trkpt lat="60.115891123191" lon="21.557741706706">
        <ele>24</ele>
        <time>2017-07-26T19:23:13Z</time>
      </trkpt>
      <trkpt lat="60.115893889218" lon="21.557687224356">
        <ele>24</ele>
        <time>2017-07-26T19:23:14Z</time>
      </trkpt>
      <trkpt lat="60.115895984693" lon="21.557626204124">
        <ele>24</ele>
        <time>2017-07-26T19:23:15Z</time>
      </trkpt>
      <trkpt lat="60.115898331625" lon="21.557570129213">
        <ele>24</ele>
        <time>2017-07-26T19:23:16Z</time>
      </trkpt>
      <trkpt lat="60.115901432928" lon="21.557523861125">
        <ele>24</ele>
        <time>2017-07-26T19:23:17Z</time>
      </trkpt>
      <trkpt lat="60.115904115136" lon="21.557458398486">
        <ele>24</ele>
        <time>2017-07-26T19:23:18Z</time>
      </trkpt>
      <trkpt lat="60.115906378249" lon="21.55740525724">
        <ele>24</ele>
        <time>2017-07-26T19:23:19Z</time>
      </trkpt>
      <trkpt lat="60.115909060457" lon="21.557344739922">
        <ele>24</ele>
        <time>2017-07-26T19:23:20Z</time>
      </trkpt>
      <trkpt lat="60.115911994122" lon="21.557289251744">
        <ele>24</ele>
        <time>2017-07-26T19:23:21Z</time>
      </trkpt>
      <trkpt lat="60.11591635271" lon="21.557235356127">
        <ele>24</ele>
        <time>2017-07-26T19:23:22Z</time>
      </trkpt>
      <trkpt lat="60.115920040746" lon="21.557181963424">
        <ele>24</ele>
        <time>2017-07-26T19:23:23Z</time>
      </trkpt>
      <trkpt lat="60.115921465669" lon="21.557120859373">
        <ele>24</ele>
        <time>2017-07-26T19:23:24Z</time>
      </trkpt>
      <trkpt lat="60.115922471497" lon="21.557058162761">
        <ele>24</ele>
        <time>2017-07-26T19:23:25Z</time>
      </trkpt>
      <trkpt lat="60.115923980239" lon="21.556991359018">
        <ele>24</ele>
        <time>2017-07-26T19:23:26Z</time>
      </trkpt>
      <trkpt lat="60.115927835913" lon="21.556928075673">
        <ele>24</ele>
        <time>2017-07-26T19:23:27Z</time>
      </trkpt>
      <trkpt lat="60.115930266664" lon="21.55686713926">
        <ele>24</ele>
        <time>2017-07-26T19:23:28Z</time>
      </trkpt>
      <trkpt lat="60.115932529777" lon="21.556817518412">
        <ele>24</ele>
        <time>2017-07-26T19:23:29Z</time>
      </trkpt>
      <trkpt lat="60.115935966356" lon="21.556752726325">
        <ele>24</ele>
        <time>2017-07-26T19:23:30Z</time>
      </trkpt>
      <trkpt lat="60.115937642736" lon="21.556695561767">
        <ele>24</ele>
        <time>2017-07-26T19:23:31Z</time>
      </trkpt>
      <trkpt lat="60.115938732383" lon="21.55663831339">
        <ele>24</ele>
        <time>2017-07-26T19:23:32Z</time>
      </trkpt>
      <trkpt lat="60.115939905849" lon="21.556583411945">
        <ele>24</ele>
        <time>2017-07-26T19:23:33Z</time>
      </trkpt>
      <trkpt lat="60.115941917505" lon="21.556529851604">
        <ele>24</ele>
        <time>2017-07-26T19:23:34Z</time>
      </trkpt>
      <trkpt lat="60.11594485117" lon="21.556471010666">
        <ele>24</ele>
        <time>2017-07-26T19:23:35Z</time>
      </trkpt>
      <trkpt lat="60.115948120111" lon="21.556408062597">
        <ele>24</ele>
        <time>2017-07-26T19:23:36Z</time>
      </trkpt>
      <trkpt lat="60.115953484527" lon="21.556348634926">
        <ele>24</ele>
        <time>2017-07-26T19:23:37Z</time>
      </trkpt>
      <trkpt lat="60.115957256382" lon="21.556288033789">
        <ele>24</ele>
        <time>2017-07-26T19:23:38Z</time>
      </trkpt>
      <trkpt lat="60.115961698789" lon="21.556235311638">
        <ele>24</ele>
        <time>2017-07-26T19:23:39Z</time>
      </trkpt>
      <trkpt lat="60.115966141196" lon="21.556172615026">
        <ele>24</ele>
        <time>2017-07-26T19:23:40Z</time>
      </trkpt>
      <trkpt lat="60.11596999687" lon="21.556121066341">
        <ele>24</ele>
        <time>2017-07-26T19:23:41Z</time>
      </trkpt>
      <trkpt lat="60.115973014354" lon="21.556056944806">
        <ele>24</ele>
        <time>2017-07-26T19:23:42Z</time>
      </trkpt>
      <trkpt lat="60.115976283295" lon="21.556000702257">
        <ele>24</ele>
        <time>2017-07-26T19:23:43Z</time>
      </trkpt>
      <trkpt lat="60.115979300779" lon="21.555947393373">
        <ele>24</ele>
        <time>2017-07-26T19:23:44Z</time>
      </trkpt>
      <trkpt lat="60.115985000471" lon="21.555886708417">
        <ele>24</ele>
        <time>2017-07-26T19:23:45Z</time>
      </trkpt>
      <trkpt lat="60.115988772326" lon="21.555831555515">
        <ele>24</ele>
        <time>2017-07-26T19:23:46Z</time>
      </trkpt>
      <trkpt lat="60.115992292724" lon="21.55578335959">
        <ele>24</ele>
        <time>2017-07-26T19:23:47Z</time>
      </trkpt>
      <trkpt lat="60.11599514257" lon="21.555729296335">
        <ele>24</ele>
        <time>2017-07-26T19:23:48Z</time>
      </trkpt>
      <trkpt lat="60.115996735131" lon="21.55568361498">
        <ele>24</ele>
        <time>2017-07-26T19:23:49Z</time>
      </trkpt>
      <trkpt lat="60.115998914425" lon="21.555631982476">
        <ele>24</ele>
        <time>2017-07-26T19:23:50Z</time>
      </trkpt>
      <trkpt lat="60.116002267185" lon="21.555585043836">
        <ele>24</ele>
        <time>2017-07-26T19:23:51Z</time>
      </trkpt>
      <trkpt lat="60.116006206678" lon="21.555530058572">
        <ele>24</ele>
        <time>2017-07-26T19:23:52Z</time>
      </trkpt>
      <trkpt lat="60.116007044868" lon="21.555479431896">
        <ele>24</ele>
        <time>2017-07-26T19:23:53Z</time>
      </trkpt>
      <trkpt lat="60.116006625773" lon="21.555425536279">
        <ele>24</ele>
        <time>2017-07-26T19:23:54Z</time>
      </trkpt>
      <trkpt lat="60.116009559438" lon="21.555373400861">
        <ele>24</ele>
        <time>2017-07-26T19:23:55Z</time>
      </trkpt>
      <trkpt lat="60.116012157827" lon="21.555324618203">
        <ele>24</ele>
        <time>2017-07-26T19:23:56Z</time>
      </trkpt>
      <trkpt lat="60.116011151999" lon="21.555281032323">
        <ele>24</ele>
        <time>2017-07-26T19:23:57Z</time>
      </trkpt>
      <trkpt lat="60.116011822551" lon="21.555236692072">
        <ele>24</ele>
        <time>2017-07-26T19:23:58Z</time>
      </trkpt>
      <trkpt lat="60.116013498931" lon="21.555195369305">
        <ele>24</ele>
        <time>2017-07-26T19:23:59Z</time>
      </trkpt>
      <trkpt lat="60.116019114804" lon="21.555136025453">
        <ele>24.2</ele>
        <time>2017-07-26T19:24:00Z</time>
      </trkpt>
      <trkpt lat="60.116022048469" lon="21.555083890035">
        <ele>24</ele>
        <time>2017-07-26T19:24:01Z</time>
      </trkpt>
      <trkpt lat="60.116023138116" lon="21.555047680227">
        <ele>24.4</ele>
        <time>2017-07-26T19:24:02Z</time>
      </trkpt>
      <trkpt lat="60.116026323238" lon="21.555004513442">
        <ele>24.8</ele>
        <time>2017-07-26T19:24:03Z</time>
      </trkpt>
      <trkpt lat="60.116027748161" lon="21.554956233698">
        <ele>25</ele>
        <time>2017-07-26T19:24:04Z</time>
      </trkpt>
      <trkpt lat="60.116029256903" lon="21.554904768832">
        <ele>25.2</ele>
        <time>2017-07-26T19:24:05Z</time>
      </trkpt>
      <trkpt lat="60.116032693482" lon="21.554847017541">
        <ele>25.6</ele>
        <time>2017-07-26T19:24:06Z</time>
      </trkpt>
      <trkpt lat="60.116037135889" lon="21.554798318702">
        <ele>25.8</ele>
        <time>2017-07-26T19:24:07Z</time>
      </trkpt>
      <trkpt lat="60.116041913572" lon="21.554751631519">
        <ele>26</ele>
        <time>2017-07-26T19:24:08Z</time>
      </trkpt>
      <trkpt lat="60.116045936884" lon="21.554703687051">
        <ele>26</ele>
        <time>2017-07-26T19:24:09Z</time>
      </trkpt>
      <trkpt lat="60.116049960196" lon="21.554648701787">
        <ele>26</ele>
        <time>2017-07-26T19:24:10Z</time>
      </trkpt>
      <trkpt lat="60.11605297768" lon="21.554600589681">
        <ele>26</ele>
        <time>2017-07-26T19:24:11Z</time>
      </trkpt>
      <trkpt lat="60.116056162802" lon="21.554548035168">
        <ele>26</ele>
        <time>2017-07-26T19:24:12Z</time>
      </trkpt>
      <trkpt lat="60.116058090639" lon="21.55449338518">
        <ele>26</ele>
        <time>2017-07-26T19:24:13Z</time>
      </trkpt>
      <trkpt lat="60.116059767019" lon="21.554444686341">
        <ele>26.2</ele>
        <time>2017-07-26T19:24:14Z</time>
      </trkpt>
      <trkpt lat="60.116061694856" lon="21.554387354145">
        <ele>26</ele>
        <time>2017-07-26T19:24:15Z</time>
      </trkpt>
      <trkpt lat="60.116064628521" lon="21.554337314202">
        <ele>26.2</ele>
        <time>2017-07-26T19:24:16Z</time>
      </trkpt>
      <trkpt lat="60.1160680651" lon="21.554285346422">
        <ele>26</ele>
        <time>2017-07-26T19:24:17Z</time>
      </trkpt>
      <trkpt lat="60.116070914946" lon="21.55422432619">
        <ele>26</ele>
        <time>2017-07-26T19:24:18Z</time>
      </trkpt>
      <trkpt lat="60.116074519163" lon="21.554172609867">
        <ele>26</ele>
        <time>2017-07-26T19:24:19Z</time>
      </trkpt>
      <trkpt lat="60.116077369009" lon="21.554113852748">
        <ele>26</ele>
        <time>2017-07-26T19:24:20Z</time>
      </trkpt>
      <trkpt lat="60.116080218855" lon="21.554057861656">
        <ele>26</ele>
        <time>2017-07-26T19:24:21Z</time>
      </trkpt>
      <trkpt lat="60.116086086185" lon="21.553998936899">
        <ele>26</ele>
        <time>2017-07-26T19:24:22Z</time>
      </trkpt>
      <trkpt lat="60.116091031506" lon="21.553942945807">
        <ele>26</ele>
        <time>2017-07-26T19:24:23Z</time>
      </trkpt>
      <trkpt lat="60.116095809189" lon="21.553879159548">
        <ele>26</ele>
        <time>2017-07-26T19:24:24Z</time>
      </trkpt>
      <trkpt lat="60.116101173605" lon="21.553817049669">
        <ele>26</ele>
        <time>2017-07-26T19:24:25Z</time>
      </trkpt>
      <trkpt lat="60.116106118926" lon="21.553756029437">
        <ele>26</ele>
        <time>2017-07-26T19:24:26Z</time>
      </trkpt>
      <trkpt lat="60.116111734799" lon="21.55369794287">
        <ele>26</ele>
        <time>2017-07-26T19:24:27Z</time>
      </trkpt>
      <trkpt lat="60.116117015396" lon="21.553642789968">
        <ele>26</ele>
        <time>2017-07-26T19:24:28Z</time>
      </trkpt>
      <trkpt lat="60.116122882726" lon="21.553593839672">
        <ele>26</ele>
        <time>2017-07-26T19:24:29Z</time>
      </trkpt>
      <trkpt lat="60.116129001513" lon="21.553525862463">
        <ele>26</ele>
        <time>2017-07-26T19:24:30Z</time>
      </trkpt>
      <trkpt lat="60.116134701205" lon="21.553470541923">
        <ele>26</ele>
        <time>2017-07-26T19:24:31Z</time>
      </trkpt>
      <trkpt lat="60.116139730345" lon="21.553415389021">
        <ele>26</ele>
        <time>2017-07-26T19:24:32Z</time>
      </trkpt>
      <trkpt lat="60.116146771141" lon="21.553360403757">
        <ele>26</ele>
        <time>2017-07-26T19:24:33Z</time>
      </trkpt>
      <trkpt lat="60.116152219376" lon="21.553308268339">
        <ele>26</ele>
        <time>2017-07-26T19:24:34Z</time>
      </trkpt>
      <trkpt lat="60.116156829421" lon="21.553254791817">
        <ele>26</ele>
        <time>2017-07-26T19:24:35Z</time>
      </trkpt>
      <trkpt lat="60.116164037855" lon="21.553200644743">
        <ele>26</ele>
        <time>2017-07-26T19:24:36Z</time>
      </trkpt>
      <trkpt lat="60.116168144986" lon="21.55314641385">
        <ele>26</ele>
        <time>2017-07-26T19:24:37Z</time>
      </trkpt>
      <trkpt lat="60.116174096135" lon="21.553093188785">
        <ele>26</ele>
        <time>2017-07-26T19:24:38Z</time>
      </trkpt>
      <trkpt lat="60.116177113619" lon="21.553052452751">
        <ele>26</ele>
        <time>2017-07-26T19:24:39Z</time>
      </trkpt>
      <trkpt lat="60.116181723664" lon="21.553008363957">
        <ele>26</ele>
        <time>2017-07-26T19:24:40Z</time>
      </trkpt>
      <trkpt lat="60.116187171899" lon="21.552961341498">
        <ele>26</ele>
        <time>2017-07-26T19:24:41Z</time>
      </trkpt>
      <trkpt lat="60.116191698125" lon="21.552908619347">
        <ele>26</ele>
        <time>2017-07-26T19:24:42Z</time>
      </trkpt>
      <trkpt lat="60.116195386161" lon="21.552857405938">
        <ele>26</ele>
        <time>2017-07-26T19:24:43Z</time>
      </trkpt>
      <trkpt lat="60.116199158016" lon="21.552812311316">
        <ele>26</ele>
        <time>2017-07-26T19:24:44Z</time>
      </trkpt>
      <trkpt lat="60.116204857708" lon="21.552755314396">
        <ele>26</ele>
        <time>2017-07-26T19:24:45Z</time>
      </trkpt>
      <trkpt lat="60.116212066142" lon="21.552705022996">
        <ele>26</ele>
        <time>2017-07-26T19:24:46Z</time>
      </trkpt>
      <trkpt lat="60.116215921816" lon="21.552657078528">
        <ele>26</ele>
        <time>2017-07-26T19:24:47Z</time>
      </trkpt>
      <trkpt lat="60.116220699499" lon="21.552600919798">
        <ele>26</ele>
        <time>2017-07-26T19:24:48Z</time>
      </trkpt>
      <trkpt lat="60.116226650648" lon="21.552553981158">
        <ele>26</ele>
        <time>2017-07-26T19:24:49Z</time>
      </trkpt>
      <trkpt lat="60.116231176874" lon="21.552505701414">
        <ele>26</ele>
        <time>2017-07-26T19:24:50Z</time>
      </trkpt>
      <trkpt lat="60.116236876566" lon="21.55245658348">
        <ele>26</ele>
        <time>2017-07-26T19:24:51Z</time>
      </trkpt>
      <trkpt lat="60.116241989525" lon="21.552404531881">
        <ele>26</ele>
        <time>2017-07-26T19:24:52Z</time>
      </trkpt>
      <trkpt lat="60.116247102484" lon="21.552352061187">
        <ele>26</ele>
        <time>2017-07-26T19:24:53Z</time>
      </trkpt>
      <trkpt lat="60.116253472728" lon="21.552295064267">
        <ele>26</ele>
        <time>2017-07-26T19:24:54Z</time>
      </trkpt>
      <trkpt lat="60.116261267895" lon="21.552234882225">
        <ele>26</ele>
        <time>2017-07-26T19:24:55Z</time>
      </trkpt>
      <trkpt lat="60.116268057234" lon="21.552172772346">
        <ele>26</ele>
        <time>2017-07-26T19:24:56Z</time>
      </trkpt>
      <trkpt lat="60.116276942048" lon="21.552108315535">
        <ele>26</ele>
        <time>2017-07-26T19:24:57Z</time>
      </trkpt>
      <trkpt lat="60.116283731387" lon="21.552044026362">
        <ele>26</ele>
        <time>2017-07-26T19:24:58Z</time>
      </trkpt>
      <trkpt lat="60.116290688364" lon="21.551986945623">
        <ele>26</ele>
        <time>2017-07-26T19:24:59Z</time>
      </trkpt>
      <trkpt lat="60.116300914282" lon="21.55191427455">
        <ele>26</ele>
        <time>2017-07-26T19:25:00Z</time>
      </trkpt>
      <trkpt lat="60.1163111402" lon="21.55184135202">
        <ele>26</ele>
        <time>2017-07-26T19:25:01Z</time>
      </trkpt>
      <trkpt lat="60.116320863204" lon="21.551769602956">
        <ele>26</ele>
        <time>2017-07-26T19:25:02Z</time>
      </trkpt>
      <trkpt lat="60.116328406914" lon="21.551700200824">
        <ele>26</ele>
        <time>2017-07-26T19:25:03Z</time>
      </trkpt>
      <trkpt lat="60.116338716651" lon="21.551636414565">
        <ele>26</ele>
        <time>2017-07-26T19:25:04Z</time>
      </trkpt>
      <trkpt lat="60.116350116035" lon="21.551566090424">
        <ele>26</ele>
        <time>2017-07-26T19:25:05Z</time>
      </trkpt>
      <trkpt lat="60.116364700541" lon="21.551498029396">
        <ele>26</ele>
        <time>2017-07-26T19:25:06Z</time>
      </trkpt>
      <trkpt lat="60.11637903359" lon="21.551433237309">
        <ele>26</ele>
        <time>2017-07-26T19:25:07Z</time>
      </trkpt>
      <trkpt lat="60.116389259508" lon="21.551370205421">
        <ele>26</ele>
        <time>2017-07-26T19:25:08Z</time>
      </trkpt>
      <trkpt lat="60.116399066331" lon="21.551305916248">
        <ele>26</ele>
        <time>2017-07-26T19:25:09Z</time>
      </trkpt>
      <trkpt lat="60.116408873154" lon="21.551233245175">
        <ele>26</ele>
        <time>2017-07-26T19:25:10Z</time>
      </trkpt>
      <trkpt lat="60.116417422692" lon="21.551173063133">
        <ele>26</ele>
        <time>2017-07-26T19:25:11Z</time>
      </trkpt>
      <trkpt lat="60.116438712718" lon="21.551094943825">
        <ele>26</ele>
        <time>2017-07-26T19:25:12Z</time>
      </trkpt>
      <trkpt lat="60.116450195921" lon="21.551025290236">
        <ele>26</ele>
        <time>2017-07-26T19:25:13Z</time>
      </trkpt>
      <trkpt lat="60.116462098219" lon="21.550961587796">
        <ele>26</ele>
        <time>2017-07-26T19:25:14Z</time>
      </trkpt>
      <trkpt lat="60.116475760716" lon="21.550888497628">
        <ele>26</ele>
        <time>2017-07-26T19:25:15Z</time>
      </trkpt>
      <trkpt lat="60.116487663014" lon="21.55082211298">
        <ele>26</ele>
        <time>2017-07-26T19:25:16Z</time>
      </trkpt>
      <trkpt lat="60.116497637475" lon="21.550752627029">
        <ele>26</ele>
        <time>2017-07-26T19:25:17Z</time>
      </trkpt>
      <trkpt lat="60.116508869221" lon="21.55067710611">
        <ele>26</ele>
        <time>2017-07-26T19:25:18Z</time>
      </trkpt>
      <trkpt lat="60.116517586397" lon="21.550612481661">
        <ele>26</ele>
        <time>2017-07-26T19:25:19Z</time>
      </trkpt>
      <trkpt lat="60.116527560858" lon="21.550541235511">
        <ele>26</ele>
        <time>2017-07-26T19:25:20Z</time>
      </trkpt>
      <trkpt lat="60.116539379337" lon="21.550475856691">
        <ele>26</ele>
        <time>2017-07-26T19:25:21Z</time>
      </trkpt>
      <trkpt lat="60.116551449273" lon="21.550412489527">
        <ele>26</ele>
        <time>2017-07-26T19:25:22Z</time>
      </trkpt>
      <trkpt lat="60.116561172277" lon="21.550354822055">
        <ele>26</ele>
        <time>2017-07-26T19:25:23Z</time>
      </trkpt>
      <trkpt lat="60.116569973272" lon="21.550294472375">
        <ele>26</ele>
        <time>2017-07-26T19:25:24Z</time>
      </trkpt>
      <trkpt lat="60.116580869742" lon="21.550227081899">
        <ele>26</ele>
        <time>2017-07-26T19:25:25Z</time>
      </trkpt>
      <trkpt lat="60.116591850031" lon="21.55016413383">
        <ele>26</ele>
        <time>2017-07-26T19:25:26Z</time>
      </trkpt>
      <trkpt lat="60.116603919967" lon="21.550099090286">
        <ele>26</ele>
        <time>2017-07-26T19:25:27Z</time>
      </trkpt>
      <trkpt lat="60.116615235532" lon="21.550037483321">
        <ele>26</ele>
        <time>2017-07-26T19:25:28Z</time>
      </trkpt>
      <trkpt lat="60.116624790898" lon="21.549981324591">
        <ele>26</ele>
        <time>2017-07-26T19:25:29Z</time>
      </trkpt>
      <trkpt lat="60.116636777015" lon="21.549907396233">
        <ele>26</ele>
        <time>2017-07-26T19:25:30Z</time>
      </trkpt>
      <trkpt lat="60.116645913286" lon="21.549847800924">
        <ele>26</ele>
        <time>2017-07-26T19:25:31Z</time>
      </trkpt>
      <trkpt lat="60.116656642118" lon="21.549780997181">
        <ele>26</ele>
        <time>2017-07-26T19:25:32Z</time>
      </trkpt>
      <trkpt lat="60.116665275475" lon="21.549722826795">
        <ele>26</ele>
        <time>2017-07-26T19:25:33Z</time>
      </trkpt>
      <trkpt lat="60.116672567728" lon="21.549671361929">
        <ele>26</ele>
        <time>2017-07-26T19:25:34Z</time>
      </trkpt>
      <trkpt lat="60.116682039275" lon="21.549612185715">
        <ele>26</ele>
        <time>2017-07-26T19:25:35Z</time>
      </trkpt>
      <trkpt lat="60.116692432831" lon="21.549549237646">
        <ele>26</ele>
        <time>2017-07-26T19:25:36Z</time>
      </trkpt>
      <trkpt lat="60.116702323473" lon="21.549488887966">
        <ele>26</ele>
        <time>2017-07-26T19:25:37Z</time>
      </trkpt>
      <trkpt lat="60.116713136124" lon="21.549427281001">
        <ele>26</ele>
        <time>2017-07-26T19:25:38Z</time>
      </trkpt>
      <trkpt lat="60.116723278223" lon="21.549370116443">
        <ele>26</ele>
        <time>2017-07-26T19:25:39Z</time>
      </trkpt>
      <trkpt lat="60.116735096702" lon="21.549303396519">
        <ele>26.2</ele>
        <time>2017-07-26T19:25:40Z</time>
      </trkpt>
      <trkpt lat="60.11674532262" lon="21.549243465934">
        <ele>26</ele>
        <time>2017-07-26T19:25:41Z</time>
      </trkpt>
      <trkpt lat="60.116756638185" lon="21.549172135965">
        <ele>26</ele>
        <time>2017-07-26T19:25:42Z</time>
      </trkpt>
      <trkpt lat="60.116766780284" lon="21.549108936439">
        <ele>26.2</ele>
        <time>2017-07-26T19:25:43Z</time>
      </trkpt>
      <trkpt lat="60.116775832736" lon="21.549053364442">
        <ele>26</ele>
        <time>2017-07-26T19:25:44Z</time>
      </trkpt>
      <trkpt lat="60.116785639559" lon="21.548988237079">
        <ele>26</ele>
        <time>2017-07-26T19:25:45Z</time>
      </trkpt>
      <trkpt lat="60.11679393764" lon="21.54893283272">
        <ele>26</ele>
        <time>2017-07-26T19:25:46Z</time>
      </trkpt>
      <trkpt lat="60.116801062255" lon="21.548886061718">
        <ele>26</ele>
        <time>2017-07-26T19:25:47Z</time>
      </trkpt>
      <trkpt lat="60.116810869078" lon="21.54882638259">
        <ele>26</ele>
        <time>2017-07-26T19:25:48Z</time>
      </trkpt>
      <trkpt lat="60.116818664245" lon="21.548778941036">
        <ele>26</ele>
        <time>2017-07-26T19:25:49Z</time>
      </trkpt>
      <trkpt lat="60.11682830343" lon="21.548723033763">
        <ele>26</ele>
        <time>2017-07-26T19:25:50Z</time>
      </trkpt>
      <trkpt lat="60.116837691158" lon="21.548667713223">
        <ele>26.2</ele>
        <time>2017-07-26T19:25:51Z</time>
      </trkpt>
      <trkpt lat="60.116847330343" lon="21.548611135398">
        <ele>26</ele>
        <time>2017-07-26T19:25:52Z</time>
      </trkpt>
      <trkpt lat="60.116856885709" lon="21.548557575057">
        <ele>26</ele>
        <time>2017-07-26T19:25:53Z</time>
      </trkpt>
      <trkpt lat="60.116867363084" lon="21.548499237033">
        <ele>26.2</ele>
        <time>2017-07-26T19:25:54Z</time>
      </trkpt>
      <trkpt lat="60.116878930106" lon="21.548439390267">
        <ele>26</ele>
        <time>2017-07-26T19:25:55Z</time>
      </trkpt>
      <trkpt lat="60.116889072205" lon="21.548375268732">
        <ele>26</ele>
        <time>2017-07-26T19:25:56Z</time>
      </trkpt>
      <trkpt lat="60.116897118829" lon="21.548315002871">
        <ele>26</ele>
        <time>2017-07-26T19:25:57Z</time>
      </trkpt>
      <trkpt lat="60.116904075806" lon="21.548253982639">
        <ele>26</ele>
        <time>2017-07-26T19:25:58Z</time>
      </trkpt>
      <trkpt lat="60.116910697507" lon="21.548203272144">
        <ele>26</ele>
        <time>2017-07-26T19:25:59Z</time>
      </trkpt>
      <trkpt lat="60.116921426339" lon="21.548135378754">
        <ele>26</ele>
        <time>2017-07-26T19:26:00Z</time>
      </trkpt>
      <trkpt lat="60.116933663913" lon="21.548078968567">
        <ele>26</ele>
        <time>2017-07-26T19:26:01Z</time>
      </trkpt>
      <trkpt lat="60.116944979478" lon="21.548023815665">
        <ele>26</ele>
        <time>2017-07-26T19:26:02Z</time>
      </trkpt>
      <trkpt lat="60.11695738469" lon="21.547970758238">
        <ele>26</ele>
        <time>2017-07-26T19:26:03Z</time>
      </trkpt>
      <trkpt lat="60.116966185685" lon="21.547915689155">
        <ele>26</ele>
        <time>2017-07-26T19:26:04Z</time>
      </trkpt>
      <trkpt lat="60.116977920345" lon="21.547854417466">
        <ele>26</ele>
        <time>2017-07-26T19:26:05Z</time>
      </trkpt>
      <trkpt lat="60.116989068272" lon="21.547786440257">
        <ele>26</ele>
        <time>2017-07-26T19:26:06Z</time>
      </trkpt>
      <trkpt lat="60.116999378009" lon="21.547718882143">
        <ele>26</ele>
        <time>2017-07-26T19:26:07Z</time>
      </trkpt>
      <trkpt lat="60.117006167348" lon="21.547655682617">
        <ele>26</ele>
        <time>2017-07-26T19:26:08Z</time>
      </trkpt>
      <trkpt lat="60.117011112669" lon="21.547598015145">
        <ele>26</ele>
        <time>2017-07-26T19:26:09Z</time>
      </trkpt>
      <trkpt lat="60.11701941075" lon="21.5475347318">
        <ele>26</ele>
        <time>2017-07-26T19:26:10Z</time>
      </trkpt>
      <trkpt lat="60.117031313048" lon="21.547475890862">
        <ele>26</ele>
        <time>2017-07-26T19:26:11Z</time>
      </trkpt>
      <trkpt lat="60.117046065192" lon="21.547411014956">
        <ele>26</ele>
        <time>2017-07-26T19:26:12Z</time>
      </trkpt>
      <trkpt lat="60.117059476232" lon="21.547347480154">
        <ele>26</ele>
        <time>2017-07-26T19:26:13Z</time>
      </trkpt>
      <trkpt lat="60.117071210892" lon="21.547282939524">
        <ele>26</ele>
        <time>2017-07-26T19:26:14Z</time>
      </trkpt>
      <trkpt lat="60.11708395138" lon="21.547209765537">
        <ele>26</ele>
        <time>2017-07-26T19:26:15Z</time>
      </trkpt>
      <trkpt lat="60.117096272773" lon="21.547139525215">
        <ele>26</ele>
        <time>2017-07-26T19:26:16Z</time>
      </trkpt>
      <trkpt lat="60.117106331053" lon="21.547074816947">
        <ele>26</ele>
        <time>2017-07-26T19:26:17Z</time>
      </trkpt>
      <trkpt lat="60.117118484808" lon="21.547006253005">
        <ele>26</ele>
        <time>2017-07-26T19:26:18Z</time>
      </trkpt>
      <trkpt lat="60.117127118165" lon="21.546939952176">
        <ele>26</ele>
        <time>2017-07-26T19:26:19Z</time>
      </trkpt>
      <trkpt lat="60.11713843373" lon="21.546868286931">
        <ele>26</ele>
        <time>2017-07-26T19:26:20Z</time>
      </trkpt>
      <trkpt lat="60.117148659648" lon="21.546801902283">
        <ele>26</ele>
        <time>2017-07-26T19:26:21Z</time>
      </trkpt>
      <trkpt lat="60.117159723756" lon="21.546737110196">
        <ele>26</ele>
        <time>2017-07-26T19:26:22Z</time>
      </trkpt>
      <trkpt lat="60.11717028495" lon="21.546675419412">
        <ele>26</ele>
        <time>2017-07-26T19:26:23Z</time>
      </trkpt>
      <trkpt lat="60.117177661022" lon="21.546620434148">
        <ele>26</ele>
        <time>2017-07-26T19:26:24Z</time>
      </trkpt>
      <trkpt lat="60.117187635483" lon="21.546561257934">
        <ele>26</ele>
        <time>2017-07-26T19:26:25Z</time>
      </trkpt>
      <trkpt lat="60.117196939392" lon="21.546508871059">
        <ele>26</ele>
        <time>2017-07-26T19:26:26Z</time>
      </trkpt>
      <trkpt lat="60.11720716531" lon="21.546447347913">
        <ele>26</ele>
        <time>2017-07-26T19:26:27Z</time>
      </trkpt>
      <trkpt lat="60.117215966305" lon="21.546387501147">
        <ele>25.6</ele>
        <time>2017-07-26T19:26:28Z</time>
      </trkpt>
      <trkpt lat="60.117223007101" lon="21.546339137584">
        <ele>25.4</ele>
        <time>2017-07-26T19:26:29Z</time>
      </trkpt>
      <trkpt lat="60.117229964078" lon="21.5462774468">
        <ele>25</ele>
        <time>2017-07-26T19:26:30Z</time>
      </trkpt>
      <trkpt lat="60.117234993218" lon="21.546222796812">
        <ele>24.6</ele>
        <time>2017-07-26T19:26:31Z</time>
      </trkpt>
      <trkpt lat="60.117241614919" lon="21.546172840688">
        <ele>24.2</ele>
        <time>2017-07-26T19:26:32Z</time>
      </trkpt>
      <trkpt lat="60.117248739534" lon="21.546122968383">
        <ele>24</ele>
        <time>2017-07-26T19:26:33Z</time>
      </trkpt>
      <trkpt lat="60.117255361235" lon="21.546081477978">
        <ele>24</ele>
        <time>2017-07-26T19:26:34Z</time>
      </trkpt>
      <trkpt lat="60.117261563841" lon="21.546026576533">
        <ele>24</ele>
        <time>2017-07-26T19:26:35Z</time>
      </trkpt>
      <trkpt lat="60.11726751499" lon="21.545966813586">
        <ele>24</ele>
        <time>2017-07-26T19:26:36Z</time>
      </trkpt>
      <trkpt lat="60.117271873578" lon="21.545909984304">
        <ele>24</ele>
        <time>2017-07-26T19:26:37Z</time>
      </trkpt>
      <trkpt lat="60.117276567442" lon="21.545854244669">
        <ele>24</ele>
        <time>2017-07-26T19:26:38Z</time>
      </trkpt>
      <trkpt lat="60.117283272962" lon="21.545801941613">
        <ele>24</ele>
        <time>2017-07-26T19:26:39Z</time>
      </trkpt>
      <trkpt lat="60.117287547731" lon="21.545742178666">
        <ele>24</ele>
        <time>2017-07-26T19:26:40Z</time>
      </trkpt>
      <trkpt lat="60.117290481396" lon="21.545689624153">
        <ele>24</ele>
        <time>2017-07-26T19:26:41Z</time>
      </trkpt>
      <trkpt lat="60.117295007622" lon="21.545633884518">
        <ele>24</ele>
        <time>2017-07-26T19:26:42Z</time>
      </trkpt>
      <trkpt lat="60.117300707314" lon="21.545573451019">
        <ele>24</ele>
        <time>2017-07-26T19:26:43Z</time>
      </trkpt>
      <trkpt lat="60.117305401178" lon="21.545517376108">
        <ele>24</ele>
        <time>2017-07-26T19:26:44Z</time>
      </trkpt>
      <trkpt lat="60.117309592128" lon="21.545448057795">
        <ele>24</ele>
        <time>2017-07-26T19:26:45Z</time>
      </trkpt>
      <trkpt lat="60.117311855241" lon="21.545390474142">
        <ele>24</ele>
        <time>2017-07-26T19:26:46Z</time>
      </trkpt>
      <trkpt lat="60.117313699259" lon="21.545320066182">
        <ele>24</ele>
        <time>2017-07-26T19:26:47Z</time>
      </trkpt>
      <trkpt lat="60.117316213829" lon="21.545246724557">
        <ele>24</ele>
        <time>2017-07-26T19:26:48Z</time>
      </trkpt>
      <trkpt lat="60.117317471114" lon="21.545185452868">
        <ele>24</ele>
        <time>2017-07-26T19:26:49Z</time>
      </trkpt>
      <trkpt lat="60.117318393123" lon="21.545120493143">
        <ele>24</ele>
        <time>2017-07-26T19:26:50Z</time>
      </trkpt>
      <trkpt lat="60.117319566589" lon="21.545064334413">
        <ele>24</ele>
        <time>2017-07-26T19:26:51Z</time>
      </trkpt>
      <trkpt lat="60.117321662064" lon="21.545008846235">
        <ele>24</ele>
        <time>2017-07-26T19:26:52Z</time>
      </trkpt>
      <trkpt lat="60.117319398951" lon="21.544954447704">
        <ele>24</ele>
        <time>2017-07-26T19:26:53Z</time>
      </trkpt>
      <trkpt lat="60.117319566589" lon="21.544893092196">
        <ele>24</ele>
        <time>2017-07-26T19:26:54Z</time>
      </trkpt>
      <trkpt lat="60.117320488598" lon="21.54482989267">
        <ele>24</ele>
        <time>2017-07-26T19:26:55Z</time>
      </trkpt>
      <trkpt lat="60.117321075331" lon="21.544768956257">
        <ele>24</ele>
        <time>2017-07-26T19:26:56Z</time>
      </trkpt>
      <trkpt lat="60.117321494426" lon="21.544709947681">
        <ele>24</ele>
        <time>2017-07-26T19:26:57Z</time>
      </trkpt>
      <trkpt lat="60.117321242969" lon="21.544651442019">
        <ele>24</ele>
        <time>2017-07-26T19:26:58Z</time>
      </trkpt>
      <trkpt lat="60.117323086987" lon="21.544602240266">
        <ele>24</ele>
        <time>2017-07-26T19:26:59Z</time>
      </trkpt>
      <trkpt lat="60.117323422263" lon="21.544535855618">
        <ele>24</ele>
        <time>2017-07-26T19:27:00Z</time>
      </trkpt>
      <trkpt lat="60.117324679548" lon="21.544483636381">
        <ele>24</ele>
        <time>2017-07-26T19:27:01Z</time>
      </trkpt>
      <trkpt lat="60.117323841358" lon="21.544429321669">
        <ele>24</ele>
        <time>2017-07-26T19:27:02Z</time>
      </trkpt>
      <trkpt lat="60.117323338444" lon="21.544371486559">
        <ele>24</ele>
        <time>2017-07-26T19:27:03Z</time>
      </trkpt>
      <trkpt lat="60.117323925177" lon="21.544321865711">
        <ele>24</ele>
        <time>2017-07-26T19:27:04Z</time>
      </trkpt>
      <trkpt lat="60.117323506082" lon="21.54426830537">
        <ele>24</ele>
        <time>2017-07-26T19:27:05Z</time>
      </trkpt>
      <trkpt lat="60.117323338444" lon="21.544211392269">
        <ele>24</ele>
        <time>2017-07-26T19:27:06Z</time>
      </trkpt>
      <trkpt lat="60.117321578245" lon="21.544156155548">
        <ele>24</ele>
        <time>2017-07-26T19:27:07Z</time>
      </trkpt>
      <trkpt lat="60.117319818046" lon="21.544099661542">
        <ele>24</ele>
        <time>2017-07-26T19:27:08Z</time>
      </trkpt>
      <trkpt lat="60.117319231313" lon="21.544053644911">
        <ele>24</ele>
        <time>2017-07-26T19:27:09Z</time>
      </trkpt>
      <trkpt lat="60.117320907693" lon="21.543991367394">
        <ele>24</ele>
        <time>2017-07-26T19:27:10Z</time>
      </trkpt>
      <trkpt lat="60.117321410607" lon="21.543933364646">
        <ele>24</ele>
        <time>2017-07-26T19:27:11Z</time>
      </trkpt>
      <trkpt lat="60.117320740055" lon="21.543869075473">
        <ele>24</ele>
        <time>2017-07-26T19:27:12Z</time>
      </trkpt>
      <trkpt lat="60.117318225485" lon="21.543807971422">
        <ele>24</ele>
        <time>2017-07-26T19:27:13Z</time>
      </trkpt>
      <trkpt lat="60.117314788906" lon="21.543754243443">
        <ele>24</ele>
        <time>2017-07-26T19:27:14Z</time>
      </trkpt>
      <trkpt lat="60.117310597956" lon="21.543682242922">
        <ele>24</ele>
        <time>2017-07-26T19:27:15Z</time>
      </trkpt>
      <trkpt lat="60.117310178861" lon="21.543618037568">
        <ele>24</ele>
        <time>2017-07-26T19:27:16Z</time>
      </trkpt>
      <trkpt lat="60.117310597956" lon="21.543558526078">
        <ele>24</ele>
        <time>2017-07-26T19:27:17Z</time>
      </trkpt>
      <trkpt lat="60.117311184689" lon="21.543489123946">
        <ele>24</ele>
        <time>2017-07-26T19:27:18Z</time>
      </trkpt>
      <trkpt lat="60.117311352327" lon="21.54342843899">
        <ele>24</ele>
        <time>2017-07-26T19:27:19Z</time>
      </trkpt>
      <trkpt lat="60.117312861069" lon="21.543358366306">
        <ele>24</ele>
        <time>2017-07-26T19:27:20Z</time>
      </trkpt>
      <trkpt lat="60.117314369811" lon="21.543291730201">
        <ele>24</ele>
        <time>2017-07-26T19:27:21Z</time>
      </trkpt>
      <trkpt lat="60.11731361544" lon="21.543230961426">
        <ele>24</ele>
        <time>2017-07-26T19:27:22Z</time>
      </trkpt>
      <trkpt lat="60.117311184689" lon="21.54317027647">
        <ele>24</ele>
        <time>2017-07-26T19:27:23Z</time>
      </trkpt>
      <trkpt lat="60.117309675947" lon="21.543111686989">
        <ele>24</ele>
        <time>2017-07-26T19:27:24Z</time>
      </trkpt>
      <trkpt lat="60.117307329015" lon="21.543044631789">
        <ele>24</ele>
        <time>2017-07-26T19:27:25Z</time>
      </trkpt>
      <trkpt lat="60.117305149721" lon="21.542979085331">
        <ele>24</ele>
        <time>2017-07-26T19:27:26Z</time>
      </trkpt>
      <trkpt lat="60.117303138065" lon="21.542913957968">
        <ele>24</ele>
        <time>2017-07-26T19:27:27Z</time>
      </trkpt>
      <trkpt lat="60.11730271897" lon="21.542849584976">
        <ele>24</ele>
        <time>2017-07-26T19:27:28Z</time>
      </trkpt>
      <trkpt lat="60.11730271897" lon="21.54279560554">
        <ele>24</ele>
        <time>2017-07-26T19:27:29Z</time>
      </trkpt>
      <trkpt lat="60.117302886608" lon="21.542733914756">
        <ele>24</ele>
        <time>2017-07-26T19:27:30Z</time>
      </trkpt>
      <trkpt lat="60.117301964599" lon="21.54268664084">
        <ele>24</ele>
        <time>2017-07-26T19:27:31Z</time>
      </trkpt>
      <trkpt lat="60.1173002044" lon="21.542632493766">
        <ele>24</ele>
        <time>2017-07-26T19:27:32Z</time>
      </trkpt>
      <trkpt lat="60.117300958771" lon="21.54258521985">
        <ele>24</ele>
        <time>2017-07-26T19:27:33Z</time>
      </trkpt>
      <trkpt lat="60.117301461685" lon="21.542534509355">
        <ele>24</ele>
        <time>2017-07-26T19:27:34Z</time>
      </trkpt>
      <trkpt lat="60.117299617667" lon="21.542480949014">
        <ele>24</ele>
        <time>2017-07-26T19:27:35Z</time>
      </trkpt>
      <trkpt lat="60.117297606011" lon="21.54242261099">
        <ele>24</ele>
        <time>2017-07-26T19:27:36Z</time>
      </trkpt>
      <trkpt lat="60.117296684002" lon="21.542369050649">
        <ele>24</ele>
        <time>2017-07-26T19:27:37Z</time>
      </trkpt>
      <trkpt lat="60.117295342898" lon="21.542308030417">
        <ele>24</ele>
        <time>2017-07-26T19:27:38Z</time>
      </trkpt>
      <trkpt lat="60.117295259079" lon="21.542256062637">
        <ele>24</ele>
        <time>2017-07-26T19:27:39Z</time>
      </trkpt>
      <trkpt lat="60.117295007622" lon="21.542196718785">
        <ele>24</ele>
        <time>2017-07-26T19:27:40Z</time>
      </trkpt>
      <trkpt lat="60.117294169432" lon="21.542145002462">
        <ele>24</ele>
        <time>2017-07-26T19:27:41Z</time>
      </trkpt>
      <trkpt lat="60.117292828328" lon="21.542087418809">
        <ele>24</ele>
        <time>2017-07-26T19:27:42Z</time>
      </trkpt>
      <trkpt lat="60.1172918225" lon="21.542031427717">
        <ele>24</ele>
        <time>2017-07-26T19:27:43Z</time>
      </trkpt>
      <trkpt lat="60.117291151948" lon="21.541976945367">
        <ele>24</ele>
        <time>2017-07-26T19:27:44Z</time>
      </trkpt>
      <trkpt lat="60.117291403405" lon="21.541921457189">
        <ele>24</ele>
        <time>2017-07-26T19:27:45Z</time>
      </trkpt>
      <trkpt lat="60.117290649034" lon="21.541860520776">
        <ele>24</ele>
        <time>2017-07-26T19:27:46Z</time>
      </trkpt>
      <trkpt lat="60.117289643206" lon="21.541809810281">
        <ele>24</ele>
        <time>2017-07-26T19:27:47Z</time>
      </trkpt>
      <trkpt lat="60.117288637378" lon="21.541753567732">
        <ele>24</ele>
        <time>2017-07-26T19:27:48Z</time>
      </trkpt>
      <trkpt lat="60.117286877179" lon="21.541703611608">
        <ele>24</ele>
        <time>2017-07-26T19:27:49Z</time>
      </trkpt>
      <trkpt lat="60.117285368437" lon="21.541645105946">
        <ele>24.4</ele>
        <time>2017-07-26T19:27:50Z</time>
      </trkpt>
      <trkpt lat="60.117284111152" lon="21.541590120682">
        <ele>24.8</ele>
        <time>2017-07-26T19:27:51Z</time>
      </trkpt>
      <trkpt lat="60.117282183315" lon="21.541532788486">
        <ele>25.2</ele>
        <time>2017-07-26T19:27:52Z</time>
      </trkpt>
      <trkpt lat="60.117282770048" lon="21.541483083819">
        <ele>25.4</ele>
        <time>2017-07-26T19:27:53Z</time>
      </trkpt>
      <trkpt lat="60.11728260241" lon="21.541419046103">
        <ele>25.6</ele>
        <time>2017-07-26T19:27:54Z</time>
      </trkpt>
      <trkpt lat="60.117282183315" lon="21.541358780242">
        <ele>26</ele>
        <time>2017-07-26T19:27:55Z</time>
      </trkpt>
      <trkpt lat="60.117282099496" lon="21.541303040607">
        <ele>26</ele>
        <time>2017-07-26T19:27:56Z</time>
      </trkpt>
      <trkpt lat="60.117280590754" lon="21.541248055343">
        <ele>26</ele>
        <time>2017-07-26T19:27:57Z</time>
      </trkpt>
      <trkpt lat="60.117280171659" lon="21.541192818622">
        <ele>26</ele>
        <time>2017-07-26T19:27:58Z</time>
      </trkpt>
      <trkpt lat="60.117278327641" lon="21.541149065104">
        <ele>26</ele>
        <time>2017-07-26T19:27:59Z</time>
      </trkpt>
      <trkpt lat="60.117278495279" lon="21.541088044872">
        <ele>26</ele>
        <time>2017-07-26T19:28:00Z</time>
      </trkpt>
      <trkpt lat="60.117278243822" lon="21.541042782612">
        <ele>26</ele>
        <time>2017-07-26T19:28:01Z</time>
      </trkpt>
      <trkpt lat="60.11728008784" lon="21.540991569203">
        <ele>26</ele>
        <time>2017-07-26T19:28:02Z</time>
      </trkpt>
      <trkpt lat="60.11727924965" lon="21.540938511776">
        <ele>26</ele>
        <time>2017-07-26T19:28:03Z</time>
      </trkpt>
      <trkpt lat="60.11727924965" lon="21.540890986403">
        <ele>26</ele>
        <time>2017-07-26T19:28:04Z</time>
      </trkpt>
      <trkpt lat="60.11728092603" lon="21.540842119926">
        <ele>26</ele>
        <time>2017-07-26T19:28:05Z</time>
      </trkpt>
      <trkpt lat="60.117285284618" lon="21.540792834354">
        <ele>26</ele>
        <time>2017-07-26T19:28:06Z</time>
      </trkpt>
      <trkpt lat="60.117283272962" lon="21.54074874556">
        <ele>26</ele>
        <time>2017-07-26T19:28:07Z</time>
      </trkpt>
      <trkpt lat="60.117282937686" lon="21.540703818576">
        <ele>26</ele>
        <time>2017-07-26T19:28:08Z</time>
      </trkpt>
      <trkpt lat="60.117284949342" lon="21.540665345655">
        <ele>26</ele>
        <time>2017-07-26T19:28:09Z</time>
      </trkpt>
      <trkpt lat="60.117287128636" lon="21.540609186925">
        <ele>26</ele>
        <time>2017-07-26T19:28:10Z</time>
      </trkpt>
      <trkpt lat="60.117287883007" lon="21.540561074819">
        <ele>26</ele>
        <time>2017-07-26T19:28:11Z</time>
      </trkpt>
      <trkpt lat="60.117287128636" lon="21.540506843926">
        <ele>26</ele>
        <time>2017-07-26T19:28:12Z</time>
      </trkpt>
      <trkpt lat="60.117289224111" lon="21.540449427911">
        <ele>26</ele>
        <time>2017-07-26T19:28:13Z</time>
      </trkpt>
      <trkpt lat="60.117291068129" lon="21.540392850086">
        <ele>26</ele>
        <time>2017-07-26T19:28:14Z</time>
      </trkpt>
      <trkpt lat="60.117294169432" lon="21.540327471266">
        <ele>26</ele>
        <time>2017-07-26T19:28:15Z</time>
      </trkpt>
      <trkpt lat="60.117297103097" lon="21.540266115758">
        <ele>26</ele>
        <time>2017-07-26T19:28:16Z</time>
      </trkpt>
      <trkpt lat="60.117300791133" lon="21.540208699743">
        <ele>26</ele>
        <time>2017-07-26T19:28:17Z</time>
      </trkpt>
      <trkpt lat="60.117304814445" lon="21.540146422226">
        <ele>26</ele>
        <time>2017-07-26T19:28:18Z</time>
      </trkpt>
      <trkpt lat="60.117308670119" lon="21.540090514953">
        <ele>26</ele>
        <time>2017-07-26T19:28:19Z</time>
      </trkpt>
      <trkpt lat="60.117313866897" lon="21.540027650703">
        <ele>26</ele>
        <time>2017-07-26T19:28:20Z</time>
      </trkpt>
      <trkpt lat="60.117317890209" lon="21.539967720118">
        <ele>26</ele>
        <time>2017-07-26T19:28:21Z</time>
      </trkpt>
      <trkpt lat="60.117319398951" lon="21.539907621895">
        <ele>26</ele>
        <time>2017-07-26T19:28:22Z</time>
      </trkpt>
      <trkpt lat="60.117321662064" lon="21.539856240848">
        <ele>26</ele>
        <time>2017-07-26T19:28:23Z</time>
      </trkpt>
      <trkpt lat="60.117327445575" lon="21.539802764326">
        <ele>26</ele>
        <time>2017-07-26T19:28:24Z</time>
      </trkpt>
      <trkpt lat="60.117335827475" lon="21.539743336655">
        <ele>26</ele>
        <time>2017-07-26T19:28:25Z</time>
      </trkpt>
      <trkpt lat="60.117343035909" lon="21.539686423554">
        <ele>26</ele>
        <time>2017-07-26T19:28:26Z</time>
      </trkpt>
      <trkpt lat="60.117348903239" lon="21.539630013367">
        <ele>26</ele>
        <time>2017-07-26T19:28:27Z</time>
      </trkpt>
      <trkpt lat="60.117353094189" lon="21.539574273732">
        <ele>26</ele>
        <time>2017-07-26T19:28:28Z</time>
      </trkpt>
      <trkpt lat="60.117355860216" lon="21.53952582635">
        <ele>26</ele>
        <time>2017-07-26T19:28:29Z</time>
      </trkpt>
      <trkpt lat="60.117361140813" lon="21.539456340399">
        <ele>26</ele>
        <time>2017-07-26T19:28:30Z</time>
      </trkpt>
      <trkpt lat="60.117367846333" lon="21.539397918556">
        <ele>26</ele>
        <time>2017-07-26T19:28:31Z</time>
      </trkpt>
      <trkpt lat="60.117375725319" lon="21.539340670179">
        <ele>26</ele>
        <time>2017-07-26T19:28:32Z</time>
      </trkpt>
      <trkpt lat="60.117384945409" lon="21.53928191306">
        <ele>26</ele>
        <time>2017-07-26T19:28:33Z</time>
      </trkpt>
      <trkpt lat="60.117394752232" lon="21.539225502873">
        <ele>26</ele>
        <time>2017-07-26T19:28:34Z</time>
      </trkpt>
      <trkpt lat="60.117405397245" lon="21.539163057718">
        <ele>26</ele>
        <time>2017-07-26T19:28:35Z</time>
      </trkpt>
      <trkpt lat="60.117417970095" lon="21.539097930355">
        <ele>26</ele>
        <time>2017-07-26T19:28:36Z</time>
      </trkpt>
      <trkpt lat="60.117430542945" lon="21.539034898467">
        <ele>26</ele>
        <time>2017-07-26T19:28:37Z</time>
      </trkpt>
      <trkpt lat="60.117443367252" lon="21.53897513552">
        <ele>26</ele>
        <time>2017-07-26T19:28:38Z</time>
      </trkpt>
      <trkpt lat="60.117455101912" lon="21.538916126944">
        <ele>26</ele>
        <time>2017-07-26T19:28:39Z</time>
      </trkpt>
      <trkpt lat="60.11747035697" lon="21.538842533862">
        <ele>26</ele>
        <time>2017-07-26T19:28:40Z</time>
      </trkpt>
      <trkpt lat="60.117483265096" lon="21.53877313173">
        <ele>26</ele>
        <time>2017-07-26T19:28:41Z</time>
      </trkpt>
      <trkpt lat="60.11750053181" lon="21.538686379065">
        <ele>26</ele>
        <time>2017-07-26T19:28:42Z</time>
      </trkpt>
      <trkpt lat="60.117519977818" lon="21.538601805694">
        <ele>25.6</ele>
        <time>2017-07-26T19:28:43Z</time>
      </trkpt>
      <trkpt lat="60.117537831265" lon="21.53851832197">
        <ele>25.4</ele>
        <time>2017-07-26T19:28:44Z</time>
      </trkpt>
      <trkpt lat="60.117559121291" lon="21.538415392238">
        <ele>25.2</ele>
        <time>2017-07-26T19:28:45Z</time>
      </trkpt>
      <trkpt lat="60.117580327498" lon="21.538317743103">
        <ele>24.8</ele>
        <time>2017-07-26T19:28:46Z</time>
      </trkpt>
      <trkpt lat="60.117600360239" lon="21.538224201099">
        <ele>24.6</ele>
        <time>2017-07-26T19:28:47Z</time>
      </trkpt>
      <trkpt lat="60.117620644437" lon="21.538119092073">
        <ele>24.2</ele>
        <time>2017-07-26T19:28:48Z</time>
      </trkpt>
      <trkpt lat="60.117639587531" lon="21.53801373159">
        <ele>24</ele>
        <time>2017-07-26T19:28:49Z</time>
      </trkpt>
      <trkpt lat="60.117654926408" lon="21.537905772718">
        <ele>24</ele>
        <time>2017-07-26T19:28:50Z</time>
      </trkpt>
      <trkpt lat="60.117670349104" lon="21.53781843332">
        <ele>24</ele>
        <time>2017-07-26T19:28:51Z</time>
      </trkpt>
      <trkpt lat="60.117690298026" lon="21.537734698139">
        <ele>23.8</ele>
        <time>2017-07-26T19:28:52Z</time>
      </trkpt>
      <trkpt lat="60.11770840293" lon="21.53765498627">
        <ele>23.4</ele>
        <time>2017-07-26T19:28:53Z</time>
      </trkpt>
      <trkpt lat="60.117728184214" lon="21.537574436211">
        <ele>23.2</ele>
        <time>2017-07-26T19:28:54Z</time>
      </trkpt>
      <trkpt lat="60.117751653534" lon="21.537486677718">
        <ele>22.8</ele>
        <time>2017-07-26T19:28:55Z</time>
      </trkpt>
      <trkpt lat="60.117771853913" lon="21.537403110175">
        <ele>22.4</ele>
        <time>2017-07-26T19:28:56Z</time>
      </trkpt>
      <trkpt lat="60.117790461731" lon="21.537316860424">
        <ele>22</ele>
        <time>2017-07-26T19:28:57Z</time>
      </trkpt>
      <trkpt lat="60.117807644626" lon="21.537232789967">
        <ele>22</ele>
        <time>2017-07-26T19:28:58Z</time>
      </trkpt>
      <trkpt lat="60.117819546924" lon="21.53716464512">
        <ele>22</ele>
        <time>2017-07-26T19:28:59Z</time>
      </trkpt>
      <trkpt lat="60.117832874145" lon="21.537075964618">
        <ele>22</ele>
        <time>2017-07-26T19:29:00Z</time>
      </trkpt>
      <trkpt lat="60.117844105891" lon="21.537006143391">
        <ele>22</ele>
        <time>2017-07-26T19:29:01Z</time>
      </trkpt>
      <trkpt lat="60.117856175827" lon="21.536942608589">
        <ele>22</ele>
        <time>2017-07-26T19:29:02Z</time>
      </trkpt>
      <trkpt lat="60.117867239935" lon="21.536880917805">
        <ele>22</ele>
        <time>2017-07-26T19:29:03Z</time>
      </trkpt>
      <trkpt lat="60.117877382034" lon="21.536825094351">
        <ele>22</ele>
        <time>2017-07-26T19:29:04Z</time>
      </trkpt>
      <trkpt lat="60.11788777559" lon="21.536765331404">
        <ele>22</ele>
        <time>2017-07-26T19:29:05Z</time>
      </trkpt>
      <trkpt lat="60.117896408947" lon="21.536698108566">
        <ele>22</ele>
        <time>2017-07-26T19:29:06Z</time>
      </trkpt>
      <trkpt lat="60.117904036476" lon="21.536635328135">
        <ele>22</ele>
        <time>2017-07-26T19:29:07Z</time>
      </trkpt>
      <trkpt lat="60.117911161091" lon="21.536574391722">
        <ele>22</ele>
        <time>2017-07-26T19:29:08Z</time>
      </trkpt>
      <trkpt lat="60.117917615154" lon="21.536516472793">
        <ele>22</ele>
        <time>2017-07-26T19:29:09Z</time>
      </trkpt>
      <trkpt lat="60.117924907407" lon="21.536452770353">
        <ele>22</ele>
        <time>2017-07-26T19:29:10Z</time>
      </trkpt>
      <trkpt lat="60.117929517452" lon="21.536401724582">
        <ele>22</ele>
        <time>2017-07-26T19:29:11Z</time>
      </trkpt>
      <trkpt lat="60.117932283479" lon="21.536332070993">
        <ele>22</ele>
        <time>2017-07-26T19:29:12Z</time>
      </trkpt>
      <trkpt lat="60.117932954031" lon="21.536268787648">
        <ele>22</ele>
        <time>2017-07-26T19:29:13Z</time>
      </trkpt>
      <trkpt lat="60.117931696746" lon="21.536213718565">
        <ele>22</ele>
        <time>2017-07-26T19:29:14Z</time>
      </trkpt>
      <trkpt lat="60.117933624583" lon="21.536145238442">
        <ele>22</ele>
        <time>2017-07-26T19:29:15Z</time>
      </trkpt>
      <trkpt lat="60.117932283479" lon="21.536085643133">
        <ele>22</ele>
        <time>2017-07-26T19:29:16Z</time>
      </trkpt>
      <trkpt lat="60.11793136147" lon="21.536026466919">
        <ele>22</ele>
        <time>2017-07-26T19:29:17Z</time>
      </trkpt>
      <trkpt lat="60.117929349814" lon="21.535963770307">
        <ele>22</ele>
        <time>2017-07-26T19:29:18Z</time>
      </trkpt>
      <trkpt lat="60.117928930719" lon="21.535914652373">
        <ele>22</ele>
        <time>2017-07-26T19:29:19Z</time>
      </trkpt>
      <trkpt lat="60.117929014538" lon="21.535845836974">
        <ele>22</ele>
        <time>2017-07-26T19:29:20Z</time>
      </trkpt>
      <trkpt lat="60.117927254339" lon="21.535786409303">
        <ele>22</ele>
        <time>2017-07-26T19:29:21Z</time>
      </trkpt>
      <trkpt lat="60.117925158864" lon="21.53572379651">
        <ele>22</ele>
        <time>2017-07-26T19:29:22Z</time>
      </trkpt>
      <trkpt lat="60.11792381776" lon="21.53567015235">
        <ele>22</ele>
        <time>2017-07-26T19:29:23Z</time>
      </trkpt>
      <trkpt lat="60.117921973742" lon="21.53562069914">
        <ele>22</ele>
        <time>2017-07-26T19:29:24Z</time>
      </trkpt>
      <trkpt lat="60.117916860783" lon="21.535549201533">
        <ele>22</ele>
        <time>2017-07-26T19:29:25Z</time>
      </trkpt>
      <trkpt lat="60.117911664005" lon="21.535491198785">
        <ele>22</ele>
        <time>2017-07-26T19:29:26Z</time>
      </trkpt>
      <trkpt lat="60.117906048132" lon="21.535438141358">
        <ele>22</ele>
        <time>2017-07-26T19:29:27Z</time>
      </trkpt>
      <trkpt lat="60.117900180802" lon="21.535377204945">
        <ele>22</ele>
        <time>2017-07-26T19:29:28Z</time>
      </trkpt>
      <trkpt lat="60.117897750051" lon="21.535326913545">
        <ele>22</ele>
        <time>2017-07-26T19:29:29Z</time>
      </trkpt>
      <trkpt lat="60.117892972368" lon="21.535258684879">
        <ele>22</ele>
        <time>2017-07-26T19:29:30Z</time>
      </trkpt>
      <trkpt lat="60.117886853581" lon="21.535198921932">
        <ele>22</ele>
        <time>2017-07-26T19:29:31Z</time>
      </trkpt>
      <trkpt lat="60.117881824441" lon="21.535138069338">
        <ele>22</ele>
        <time>2017-07-26T19:29:32Z</time>
      </trkpt>
      <trkpt lat="60.117877968767" lon="21.535083167893">
        <ele>22</ele>
        <time>2017-07-26T19:29:33Z</time>
      </trkpt>
      <trkpt lat="60.117873861636" lon="21.535031786846">
        <ele>22</ele>
        <time>2017-07-26T19:29:34Z</time>
      </trkpt>
      <trkpt lat="60.117868161944" lon="21.534972862089">
        <ele>22</ele>
        <time>2017-07-26T19:29:35Z</time>
      </trkpt>
      <trkpt lat="60.117861707881" lon="21.534909578744">
        <ele>22</ele>
        <time>2017-07-26T19:29:36Z</time>
      </trkpt>
      <trkpt lat="60.11785508618" lon="21.534853922928">
        <ele>22</ele>
        <time>2017-07-26T19:29:37Z</time>
      </trkpt>
      <trkpt lat="60.117848632117" lon="21.53479759656">
        <ele>22</ele>
        <time>2017-07-26T19:29:38Z</time>
      </trkpt>
      <trkpt lat="60.117843016244" lon="21.534744203857">
        <ele>22</ele>
        <time>2017-07-26T19:29:39Z</time>
      </trkpt>
      <trkpt lat="60.117836981276" lon="21.534683183625">
        <ele>22</ele>
        <time>2017-07-26T19:29:40Z</time>
      </trkpt>
      <trkpt lat="60.117830275756" lon="21.534628617456">
        <ele>22</ele>
        <time>2017-07-26T19:29:41Z</time>
      </trkpt>
      <trkpt lat="60.117822312951" lon="21.534568100138">
        <ele>22</ele>
        <time>2017-07-26T19:29:42Z</time>
      </trkpt>
      <trkpt lat="60.117814936879" lon="21.534512863417">
        <ele>22</ele>
        <time>2017-07-26T19:29:43Z</time>
      </trkpt>
      <trkpt lat="60.117807979902" lon="21.534451927004">
        <ele>22</ele>
        <time>2017-07-26T19:29:44Z</time>
      </trkpt>
      <trkpt lat="60.117799514183" lon="21.534385123261">
        <ele>22</ele>
        <time>2017-07-26T19:29:45Z</time>
      </trkpt>
      <trkpt lat="60.117791635197" lon="21.534323264839">
        <ele>22</ele>
        <time>2017-07-26T19:29:46Z</time>
      </trkpt>
      <trkpt lat="60.117785767867" lon="21.5342661841">
        <ele>22</ele>
        <time>2017-07-26T19:29:47Z</time>
      </trkpt>
      <trkpt lat="60.117778978528" lon="21.534201978746">
        <ele>22</ele>
        <time>2017-07-26T19:29:48Z</time>
      </trkpt>
      <trkpt lat="60.117772692103" lon="21.534144898007">
        <ele>22</ele>
        <time>2017-07-26T19:29:49Z</time>
      </trkpt>
      <trkpt lat="60.117762801461" lon="21.534077758988">
        <ele>22</ele>
        <time>2017-07-26T19:29:50Z</time>
      </trkpt>
      <trkpt lat="60.117753413733" lon="21.534014391824">
        <ele>22</ele>
        <time>2017-07-26T19:29:51Z</time>
      </trkpt>
      <trkpt lat="60.117745786204" lon="21.533953203954">
        <ele>22</ele>
        <time>2017-07-26T19:29:52Z</time>
      </trkpt>
      <trkpt lat="60.11773857777" lon="21.533895452663">
        <ele>22</ele>
        <time>2017-07-26T19:29:53Z</time>
      </trkpt>
      <trkpt lat="60.117731117879" lon="21.533832756051">
        <ele>22</ele>
        <time>2017-07-26T19:29:54Z</time>
      </trkpt>
      <trkpt lat="60.117722987436" lon="21.533764275928">
        <ele>22</ele>
        <time>2017-07-26T19:29:55Z</time>
      </trkpt>
      <trkpt lat="60.117716533373" lon="21.533708201017">
        <ele>22</ele>
        <time>2017-07-26T19:29:56Z</time>
      </trkpt>
      <trkpt lat="60.117709324939" lon="21.53364424712">
        <ele>22</ele>
        <time>2017-07-26T19:29:57Z</time>
      </trkpt>
      <trkpt lat="60.117702870876" lon="21.533582640155">
        <ele>22</ele>
        <time>2017-07-26T19:29:58Z</time>
      </trkpt>
      <trkpt lat="60.117698177012" lon="21.533532181117">
        <ele>22</ele>
        <time>2017-07-26T19:29:59Z</time>
      </trkpt>
      <trkpt lat="60.11769080094" lon="21.533459426225">
        <ele>22</ele>
        <time>2017-07-26T19:30:00Z</time>
      </trkpt>
      <trkpt lat="60.117685352705" lon="21.533395556147">
        <ele>22</ele>
        <time>2017-07-26T19:30:01Z</time>
      </trkpt>
      <trkpt lat="60.117679150099" lon="21.533331434612">
        <ele>22</ele>
        <time>2017-07-26T19:30:02Z</time>
      </trkpt>
      <trkpt lat="60.11767236076" lon="21.533268235086">
        <ele>22</ele>
        <time>2017-07-26T19:30:03Z</time>
      </trkpt>
      <trkpt lat="60.117665319964" lon="21.533211489623">
        <ele>22</ele>
        <time>2017-07-26T19:30:04Z</time>
      </trkpt>
      <trkpt lat="60.117658279168" lon="21.533152397228">
        <ele>22</ele>
        <time>2017-07-26T19:30:05Z</time>
      </trkpt>
      <trkpt lat="60.117652830933" lon="21.53308936534">
        <ele>22</ele>
        <time>2017-07-26T19:30:06Z</time>
      </trkpt>
      <trkpt lat="60.117648472345" lon="21.533026165814">
        <ele>22</ele>
        <time>2017-07-26T19:30:07Z</time>
      </trkpt>
      <trkpt lat="60.11764553868" lon="21.532962044279">
        <ele>22</ele>
        <time>2017-07-26T19:30:08Z</time>
      </trkpt>
      <trkpt lat="60.117642018282" lon="21.532909657404">
        <ele>22</ele>
        <time>2017-07-26T19:30:09Z</time>
      </trkpt>
      <trkpt lat="60.117639587531" lon="21.53284880481">
        <ele>22</ele>
        <time>2017-07-26T19:30:10Z</time>
      </trkpt>
      <trkpt lat="60.11763883316" lon="21.532791221157">
        <ele>22</ele>
        <time>2017-07-26T19:30:11Z</time>
      </trkpt>
      <trkpt lat="60.117637911151" lon="21.532723746862">
        <ele>22</ele>
        <time>2017-07-26T19:30:12Z</time>
      </trkpt>
      <trkpt lat="60.117638330246" lon="21.532652919807">
        <ele>22</ele>
        <time>2017-07-26T19:30:13Z</time>
      </trkpt>
      <trkpt lat="60.11763631859" lon="21.532587540987">
        <ele>22</ele>
        <time>2017-07-26T19:30:14Z</time>
      </trkpt>
      <trkpt lat="60.117629026337" lon="21.53248754492">
        <ele>22</ele>
        <time>2017-07-26T19:30:15Z</time>
      </trkpt>
      <trkpt lat="60.117621901722" lon="21.532397355676">
        <ele>21.8</ele>
        <time>2017-07-26T19:30:16Z</time>
      </trkpt>
      <trkpt lat="60.11761704022" lon="21.53230901045">
        <ele>21.6</ele>
        <time>2017-07-26T19:30:17Z</time>
      </trkpt>
      <trkpt lat="60.117612513994" lon="21.532206583632">
        <ele>21.2</ele>
        <time>2017-07-26T19:30:18Z</time>
      </trkpt>
      <trkpt lat="60.117611759623" lon="21.532117484035">
        <ele>20.8</ele>
        <time>2017-07-26T19:30:19Z</time>
      </trkpt>
      <trkpt lat="60.117608155406" lon="21.532017152692">
        <ele>20.4</ele>
        <time>2017-07-26T19:30:20Z</time>
      </trkpt>
      <trkpt lat="60.117602707171" lon="21.531927717819">
        <ele>20.2</ele>
        <time>2017-07-26T19:30:21Z</time>
      </trkpt>
      <trkpt lat="60.117601030791" lon="21.531833421444">
        <ele>19.8</ele>
        <time>2017-07-26T19:30:22Z</time>
      </trkpt>
      <trkpt lat="60.117602288076" lon="21.53174407039">
        <ele>19.8</ele>
        <time>2017-07-26T19:30:23Z</time>
      </trkpt>
      <trkpt lat="60.117602539533" lon="21.531647175626">
        <ele>19.8</ele>
        <time>2017-07-26T19:30:24Z</time>
      </trkpt>
      <trkpt lat="60.117604635008" lon="21.531549861767">
        <ele>19.8</ele>
        <time>2017-07-26T19:30:25Z</time>
      </trkpt>
      <trkpt lat="60.117604132094" lon="21.531459588704">
        <ele>19.8</ele>
        <time>2017-07-26T19:30:26Z</time>
      </trkpt>
      <trkpt lat="60.117603461542" lon="21.531373925686">
        <ele>19.8</ele>
        <time>2017-07-26T19:30:27Z</time>
      </trkpt>
      <trkpt lat="60.117603880637" lon="21.531288765582">
        <ele>19.8</ele>
        <time>2017-07-26T19:30:28Z</time>
      </trkpt>
      <trkpt lat="60.117603042447" lon="21.531216597423">
        <ele>19.8</ele>
        <time>2017-07-26T19:30:29Z</time>
      </trkpt>
      <trkpt lat="60.117602455714" lon="21.531124815618">
        <ele>19.8</ele>
        <time>2017-07-26T19:30:30Z</time>
      </trkpt>
      <trkpt lat="60.117602204257" lon="21.531036135116">
        <ele>19.8</ele>
        <time>2017-07-26T19:30:31Z</time>
      </trkpt>
      <trkpt lat="60.117601533705" lon="21.530951813202">
        <ele>19.8</ele>
        <time>2017-07-26T19:30:32Z</time>
      </trkpt>
      <trkpt lat="60.117599102954" lon="21.53087319098">
        <ele>19.6</ele>
        <time>2017-07-26T19:30:33Z</time>
      </trkpt>
      <trkpt lat="60.117599186773" lon="21.53080362121">
        <ele>19.2</ele>
        <time>2017-07-26T19:30:34Z</time>
      </trkpt>
      <trkpt lat="60.117598264764" lon="21.530727094463">
        <ele>18.8</ele>
        <time>2017-07-26T19:30:35Z</time>
      </trkpt>
      <trkpt lat="60.117596420746" lon="21.530648053146">
        <ele>18.4</ele>
        <time>2017-07-26T19:30:36Z</time>
      </trkpt>
      <trkpt lat="60.117596672203" lon="21.530574040969">
        <ele>18</ele>
        <time>2017-07-26T19:30:37Z</time>
      </trkpt>
      <trkpt lat="60.117599019135" lon="21.530505896122">
        <ele>17.8</ele>
        <time>2017-07-26T19:30:38Z</time>
      </trkpt>
      <trkpt lat="60.117600108782" lon="21.530441774587">
        <ele>17.8</ele>
        <time>2017-07-26T19:30:39Z</time>
      </trkpt>
      <trkpt lat="60.117601030791" lon="21.53037362974">
        <ele>17.8</ele>
        <time>2017-07-26T19:30:40Z</time>
      </trkpt>
      <trkpt lat="60.117602371895" lon="21.530318057743">
        <ele>17.8</ele>
        <time>2017-07-26T19:30:41Z</time>
      </trkpt>
      <trkpt lat="60.117604970284" lon="21.530255361131">
        <ele>17.8</ele>
        <time>2017-07-26T19:30:42Z</time>
      </trkpt>
      <trkpt lat="60.117607903949" lon="21.530196268736">
        <ele>17.8</ele>
        <time>2017-07-26T19:30:43Z</time>
      </trkpt>
      <trkpt lat="60.117610502338" lon="21.5301422893">
        <ele>17.8</ele>
        <time>2017-07-26T19:30:44Z</time>
      </trkpt>
      <trkpt lat="60.117613100727" lon="21.530081352887">
        <ele>17.8</ele>
        <time>2017-07-26T19:30:45Z</time>
      </trkpt>
      <trkpt lat="60.117614358012" lon="21.530029804202">
        <ele>17.8</ele>
        <time>2017-07-26T19:30:46Z</time>
      </trkpt>
      <trkpt lat="60.117614777107" lon="21.529974148386">
        <ele>17.8</ele>
        <time>2017-07-26T19:30:47Z</time>
      </trkpt>
      <trkpt lat="60.117616537306" lon="21.529915055991">
        <ele>17.8</ele>
        <time>2017-07-26T19:30:48Z</time>
      </trkpt>
      <trkpt lat="60.117617543134" lon="21.529862836754">
        <ele>17.8</ele>
        <time>2017-07-26T19:30:49Z</time>
      </trkpt>
      <trkpt lat="60.117619219514" lon="21.529801816522">
        <ele>17.8</ele>
        <time>2017-07-26T19:30:50Z</time>
      </trkpt>
      <trkpt lat="60.117622236998" lon="21.529743646136">
        <ele>17.8</ele>
        <time>2017-07-26T19:30:51Z</time>
      </trkpt>
      <trkpt lat="60.117625841215" lon="21.529687655044">
        <ele>17.8</ele>
        <time>2017-07-26T19:30:52Z</time>
      </trkpt>
      <trkpt lat="60.117627014681" lon="21.529636190178">
        <ele>17.8</ele>
        <time>2017-07-26T19:30:53Z</time>
      </trkpt>
      <trkpt lat="60.117626679405" lon="21.529589000081">
        <ele>17.8</ele>
        <time>2017-07-26T19:30:54Z</time>
      </trkpt>
      <trkpt lat="60.117627852871" lon="21.5295304106">
        <ele>17.8</ele>
        <time>2017-07-26T19:30:55Z</time>
      </trkpt>
      <trkpt lat="60.117629361613" lon="21.529483220503">
        <ele>17.8</ele>
        <time>2017-07-26T19:30:56Z</time>
      </trkpt>
      <trkpt lat="60.117630870355" lon="21.529437203872">
        <ele>17.8</ele>
        <time>2017-07-26T19:30:57Z</time>
      </trkpt>
      <trkpt lat="60.117633552563" lon="21.529392193069">
        <ele>17.8</ele>
        <time>2017-07-26T19:30:58Z</time>
      </trkpt>
      <trkpt lat="60.11763631859" lon="21.529350870302">
        <ele>17.8</ele>
        <time>2017-07-26T19:30:59Z</time>
      </trkpt>
      <trkpt lat="60.117640677178" lon="21.529292951373">
        <ele>17.8</ele>
        <time>2017-07-26T19:31:00Z</time>
      </trkpt>
      <trkpt lat="60.117642940291" lon="21.529237798471">
        <ele>17.8</ele>
        <time>2017-07-26T19:31:01Z</time>
      </trkpt>
      <trkpt lat="60.117643946119" lon="21.529187004157">
        <ele>17.8</ele>
        <time>2017-07-26T19:31:02Z</time>
      </trkpt>
      <trkpt lat="60.117644449033" lon="21.529125061916">
        <ele>17.8</ele>
        <time>2017-07-26T19:31:03Z</time>
      </trkpt>
      <trkpt lat="60.117645454861" lon="21.529073848507">
        <ele>17.8</ele>
        <time>2017-07-26T19:31:04Z</time>
      </trkpt>
      <trkpt lat="60.117645622499" lon="21.529019533795">
        <ele>17.8</ele>
        <time>2017-07-26T19:31:05Z</time>
      </trkpt>
      <trkpt lat="60.117644784309" lon="21.528959854667">
        <ele>17.8</ele>
        <time>2017-07-26T19:31:06Z</time>
      </trkpt>
      <trkpt lat="60.117642437377" lon="21.528907886887">
        <ele>17.8</ele>
        <time>2017-07-26T19:31:07Z</time>
      </trkpt>
      <trkpt lat="60.117640425721" lon="21.528857595487">
        <ele>17.8</ele>
        <time>2017-07-26T19:31:08Z</time>
      </trkpt>
      <trkpt lat="60.117639336074" lon="21.528811830313">
        <ele>17.8</ele>
        <time>2017-07-26T19:31:09Z</time>
      </trkpt>
      <trkpt lat="60.11763883316" lon="21.528761958008">
        <ele>17.8</ele>
        <time>2017-07-26T19:31:10Z</time>
      </trkpt>
      <trkpt lat="60.117637240599" lon="21.528720048508">
        <ele>17.8</ele>
        <time>2017-07-26T19:31:11Z</time>
      </trkpt>
      <trkpt lat="60.117634809848" lon="21.528672355497">
        <ele>17.8</ele>
        <time>2017-07-26T19:31:12Z</time>
      </trkpt>
      <trkpt lat="60.117631540907" lon="21.528627847608">
        <ele>17.8</ele>
        <time>2017-07-26T19:31:13Z</time>
      </trkpt>
      <trkpt lat="60.11762877488" lon="21.528588452678">
        <ele>17.8</ele>
        <time>2017-07-26T19:31:14Z</time>
      </trkpt>
      <trkpt lat="60.117629026337" lon="21.528543106599">
        <ele>17.8</ele>
        <time>2017-07-26T19:31:15Z</time>
      </trkpt>
      <trkpt lat="60.117626763224" lon="21.528498011977">
        <ele>17.8</ele>
        <time>2017-07-26T19:31:16Z</time>
      </trkpt>
      <trkpt lat="60.117623410464" lon="21.528454677554">
        <ele>17.8</ele>
        <time>2017-07-26T19:31:17Z</time>
      </trkpt>
      <trkpt lat="60.117620728256" lon="21.528406816905">
        <ele>17.8</ele>
        <time>2017-07-26T19:31:18Z</time>
      </trkpt>
      <trkpt lat="60.117616704944" lon="21.528354765306">
        <ele>17.8</ele>
        <time>2017-07-26T19:31:19Z</time>
      </trkpt>
      <trkpt lat="60.117614441831" lon="21.528297265472">
        <ele>17.8</ele>
        <time>2017-07-26T19:31:20Z</time>
      </trkpt>
      <trkpt lat="60.117609831786" lon="21.528245800606">
        <ele>17.8</ele>
        <time>2017-07-26T19:31:21Z</time>
      </trkpt>
      <trkpt lat="60.117605137922" lon="21.528192491722">
        <ele>17.8</ele>
        <time>2017-07-26T19:31:22Z</time>
      </trkpt>
      <trkpt lat="60.117602371895" lon="21.528142451779">
        <ele>17.8</ele>
        <time>2017-07-26T19:31:23Z</time>
      </trkpt>
      <trkpt lat="60.117600863153" lon="21.528089394352">
        <ele>17.8</ele>
        <time>2017-07-26T19:31:24Z</time>
      </trkpt>
      <trkpt lat="60.117599270592" lon="21.528034325269">
        <ele>17.8</ele>
        <time>2017-07-26T19:31:25Z</time>
      </trkpt>
      <trkpt lat="60.117593654719" lon="21.527984369145">
        <ele>17.8</ele>
        <time>2017-07-26T19:31:26Z</time>
      </trkpt>
      <trkpt lat="60.117588206484" lon="21.527933993926">
        <ele>17.8</ele>
        <time>2017-07-26T19:31:27Z</time>
      </trkpt>
      <trkpt lat="60.117581500964" lon="21.52788336725">
        <ele>17.8</ele>
        <time>2017-07-26T19:31:28Z</time>
      </trkpt>
      <trkpt lat="60.117575465996" lon="21.527837434438">
        <ele>17.8</ele>
        <time>2017-07-26T19:31:29Z</time>
      </trkpt>
      <trkpt lat="60.117565575354" lon="21.527775408378">
        <ele>17.8</ele>
        <time>2017-07-26T19:31:30Z</time>
      </trkpt>
      <trkpt lat="60.117557025816" lon="21.527718914372">
        <ele>17.8</ele>
        <time>2017-07-26T19:31:31Z</time>
      </trkpt>
      <trkpt lat="60.117546799898" lon="21.527663510013">
        <ele>17.8</ele>
        <time>2017-07-26T19:31:32Z</time>
      </trkpt>
      <trkpt lat="60.11753322122" lon="21.52761011731">
        <ele>17.8</ele>
        <time>2017-07-26T19:31:33Z</time>
      </trkpt>
      <trkpt lat="60.117521235103" lon="21.527562508118">
        <ele>17.8</ele>
        <time>2017-07-26T19:31:34Z</time>
      </trkpt>
      <trkpt lat="60.117510506271" lon="21.527512719632">
        <ele>17.8</ele>
        <time>2017-07-26T19:31:35Z</time>
      </trkpt>
      <trkpt lat="60.117498184878" lon="21.527461590042">
        <ele>17.8</ele>
        <time>2017-07-26T19:31:36Z</time>
      </trkpt>
      <trkpt lat="60.117488210417" lon="21.527416160144">
        <ele>17.8</ele>
        <time>2017-07-26T19:31:37Z</time>
      </trkpt>
      <trkpt lat="60.117475553748" lon="21.527371484617">
        <ele>17.8</ele>
        <time>2017-07-26T19:31:38Z</time>
      </trkpt>
      <trkpt lat="60.117463232355" lon="21.527328150194">
        <ele>17.8</ele>
        <time>2017-07-26T19:31:39Z</time>
      </trkpt>
      <trkpt lat="60.117448983125" lon="21.527278445527">
        <ele>17.8</ele>
        <time>2017-07-26T19:31:40Z</time>
      </trkpt>
      <trkpt lat="60.117437583741" lon="21.527231423068">
        <ele>17.8</ele>
        <time>2017-07-26T19:31:41Z</time>
      </trkpt>
      <trkpt lat="60.117426184357" lon="21.527177024537">
        <ele>17.8</ele>
        <time>2017-07-26T19:31:42Z</time>
      </trkpt>
      <trkpt lat="60.117414449697" lon="21.527122123092">
        <ele>17.8</ele>
        <time>2017-07-26T19:31:43Z</time>
      </trkpt>
      <trkpt lat="60.117401709209" lon="21.527068981846">
        <ele>17.8</ele>
        <time>2017-07-26T19:31:44Z</time>
      </trkpt>
      <trkpt lat="60.117385113047" lon="21.527009637994">
        <ele>17.8</ele>
        <time>2017-07-26T19:31:45Z</time>
      </trkpt>
      <trkpt lat="60.117370360903" lon="21.526951886703">
        <ele>17.8</ele>
        <time>2017-07-26T19:31:46Z</time>
      </trkpt>
      <trkpt lat="60.117357620415" lon="21.526898074905">
        <ele>17.8</ele>
        <time>2017-07-26T19:31:47Z</time>
      </trkpt>
      <trkpt lat="60.117343119728" lon="21.526836803216">
        <ele>17.8</ele>
        <time>2017-07-26T19:31:48Z</time>
      </trkpt>
      <trkpt lat="60.11732954105" lon="21.526782991418">
        <ele>17.8</ele>
        <time>2017-07-26T19:31:49Z</time>
      </trkpt>
      <trkpt lat="60.117314369811" lon="21.526722306462">
        <ele>17.8</ele>
        <time>2017-07-26T19:31:50Z</time>
      </trkpt>
      <trkpt lat="60.117302383694" lon="21.526665141904">
        <ele>17.8</ele>
        <time>2017-07-26T19:31:51Z</time>
      </trkpt>
      <trkpt lat="60.117288637378" lon="21.526609653726">
        <ele>17.8</ele>
        <time>2017-07-26T19:31:52Z</time>
      </trkpt>
      <trkpt lat="60.117275561614" lon="21.526558607955">
        <ele>17.8</ele>
        <time>2017-07-26T19:31:53Z</time>
      </trkpt>
      <trkpt lat="60.117261312384" lon="21.526505215252">
        <ele>17.8</ele>
        <time>2017-07-26T19:31:54Z</time>
      </trkpt>
      <trkpt lat="60.117243291299" lon="21.526447296323">
        <ele>17.8</ele>
        <time>2017-07-26T19:31:55Z</time>
      </trkpt>
      <trkpt lat="60.117227784784" lon="21.526395244724">
        <ele>17.8</ele>
        <time>2017-07-26T19:31:56Z</time>
      </trkpt>
      <trkpt lat="60.117211691536" lon="21.526343779858">
        <ele>17.8</ele>
        <time>2017-07-26T19:31:57Z</time>
      </trkpt>
      <trkpt lat="60.117196604116" lon="21.526290470974">
        <ele>17.8</ele>
        <time>2017-07-26T19:31:58Z</time>
      </trkpt>
      <trkpt lat="60.117185456189" lon="21.526246549818">
        <ele>17.8</ele>
        <time>2017-07-26T19:31:59Z</time>
      </trkpt>
      <trkpt lat="60.117169782036" lon="21.526187625061">
        <ele>17.8</ele>
        <time>2017-07-26T19:32:00Z</time>
      </trkpt>
      <trkpt lat="60.117153604969" lon="21.526145045009">
        <ele>17.8</ele>
        <time>2017-07-26T19:32:01Z</time>
      </trkpt>
      <trkpt lat="60.11714011011" lon="21.52610724264">
        <ele>17.8</ele>
        <time>2017-07-26T19:32:02Z</time>
      </trkpt>
      <trkpt lat="60.117123933043" lon="21.526072709212">
        <ele>17.8</ele>
        <time>2017-07-26T19:32:03Z</time>
      </trkpt>
      <trkpt lat="60.11711077346" lon="21.526036583223">
        <ele>17.8</ele>
        <time>2017-07-26T19:32:04Z</time>
      </trkpt>
      <trkpt lat="60.117103397388" lon="21.526003390899">
        <ele>17.8</ele>
        <time>2017-07-26T19:32:05Z</time>
      </trkpt>
      <trkpt lat="60.117090908357" lon="21.525956536078">
        <ele>17.8</ele>
        <time>2017-07-26T19:32:06Z</time>
      </trkpt>
      <trkpt lat="60.117078838421" lon="21.525912614922">
        <ele>17.8</ele>
        <time>2017-07-26T19:32:07Z</time>
      </trkpt>
      <trkpt lat="60.11706634939" lon="21.525869029042">
        <ele>17.8</ele>
        <time>2017-07-26T19:32:08Z</time>
      </trkpt>
      <trkpt lat="60.117054530911" lon="21.525827370999">
        <ele>17.8</ele>
        <time>2017-07-26T19:32:09Z</time>
      </trkpt>
      <trkpt lat="60.117040030224" lon="21.52578118673">
        <ele>17.8</ele>
        <time>2017-07-26T19:32:10Z</time>
      </trkpt>
      <trkpt lat="60.117026200089" lon="21.525744557827">
        <ele>17.8</ele>
        <time>2017-07-26T19:32:11Z</time>
      </trkpt>
      <trkpt lat="60.117017399094" lon="21.525705665811">
        <ele>17.8</ele>
        <time>2017-07-26T19:32:12Z</time>
      </trkpt>
      <trkpt lat="60.117008430461" lon="21.525670126555">
        <ele>17.8</ele>
        <time>2017-07-26T19:32:13Z</time>
      </trkpt>
      <trkpt lat="60.116995019421" lon="21.525634587299">
        <ele>17.8</ele>
        <time>2017-07-26T19:32:14Z</time>
      </trkpt>
      <trkpt lat="60.11698085401" lon="21.525594186541">
        <ele>17.8</ele>
        <time>2017-07-26T19:32:15Z</time>
      </trkpt>
      <trkpt lat="60.116971801558" lon="21.525557809095">
        <ele>17.8</ele>
        <time>2017-07-26T19:32:16Z</time>
      </trkpt>
      <trkpt lat="60.116964341667" lon="21.525524532952">
        <ele>17.8</ele>
        <time>2017-07-26T19:32:17Z</time>
      </trkpt>
      <trkpt lat="60.116956378862" lon="21.525492597913">
        <ele>17.8</ele>
        <time>2017-07-26T19:32:18Z</time>
      </trkpt>
      <trkpt lat="60.116946907315" lon="21.525463596539">
        <ele>17.8</ele>
        <time>2017-07-26T19:32:19Z</time>
      </trkpt>
      <trkpt lat="60.116936010845" lon="21.525428224921">
        <ele>17.8</ele>
        <time>2017-07-26T19:32:20Z</time>
      </trkpt>
      <trkpt lat="60.116923940909" lon="21.525397798624">
        <ele>17.8</ele>
        <time>2017-07-26T19:32:21Z</time>
      </trkpt>
      <trkpt lat="60.116907428566" lon="21.525378184978">
        <ele>17.8</ele>
        <time>2017-07-26T19:32:22Z</time>
      </trkpt>
      <trkpt lat="60.116891419137" lon="21.525364354843">
        <ele>17.8</ele>
        <time>2017-07-26T19:32:23Z</time>
      </trkpt>
      <trkpt lat="60.116871554034" lon="21.525363516653">
        <ele>17.8</ele>
        <time>2017-07-26T19:32:24Z</time>
      </trkpt>
      <trkpt lat="60.116857304804" lon="21.525369216345">
        <ele>17.8</ele>
        <time>2017-07-26T19:32:25Z</time>
      </trkpt>
      <trkpt lat="60.116828806344" lon="21.525394278226">
        <ele>17.8</ele>
        <time>2017-07-26T19:32:26Z</time>
      </trkpt>
      <trkpt lat="60.116801062255" lon="21.525419843021">
        <ele>17.8</ele>
        <time>2017-07-26T19:32:27Z</time>
      </trkpt>
      <trkpt lat="60.11677130651" lon="21.52544423435">
        <ele>17.8</ele>
        <time>2017-07-26T19:32:28Z</time>
      </trkpt>
      <trkpt lat="60.11673945529" lon="21.525469882964">
        <ele>17.8</ele>
        <time>2017-07-26T19:32:29Z</time>
      </trkpt>
      <trkpt lat="60.116698048704" lon="21.525501818003">
        <ele>17.8</ele>
        <time>2017-07-26T19:32:30Z</time>
      </trkpt>
      <trkpt lat="60.116659994878" lon="21.525526209332">
        <ele>17.8</ele>
        <time>2017-07-26T19:32:31Z</time>
      </trkpt>
      <trkpt lat="60.116620599948" lon="21.52555152267">
        <ele>17.8</ele>
        <time>2017-07-26T19:32:32Z</time>
      </trkpt>
      <trkpt lat="60.116587156167" lon="21.525579099121">
        <ele>17.8</ele>
        <time>2017-07-26T19:32:33Z</time>
      </trkpt>
      <trkpt lat="60.116558909164" lon="21.525609273961">
        <ele>17.8</ele>
        <time>2017-07-26T19:32:34Z</time>
      </trkpt>
      <trkpt lat="60.116535607482" lon="21.525654284764">
        <ele>17.8</ele>
        <time>2017-07-26T19:32:35Z</time>
      </trkpt>
      <trkpt lat="60.116507779574" lon="21.525727123475">
        <ele>17.8</ele>
        <time>2017-07-26T19:32:36Z</time>
      </trkpt>
      <trkpt lat="60.116476682725" lon="21.52578453949">
        <ele>17.8</ele>
        <time>2017-07-26T19:32:37Z</time>
      </trkpt>
      <trkpt lat="60.116435527596" lon="21.525811780665">
        <ele>17.8</ele>
        <time>2017-07-26T19:32:38Z</time>
      </trkpt>
      <trkpt lat="60.116393701915" lon="21.525818737642">
        <ele>17.8</ele>
        <time>2017-07-26T19:32:39Z</time>
      </trkpt>
      <trkpt lat="60.116352630605" lon="21.525839608573">
        <ele>17.8</ele>
        <time>2017-07-26T19:32:40Z</time>
      </trkpt>
      <trkpt lat="60.116324215964" lon="21.525862155884">
        <ele>17.4</ele>
        <time>2017-07-26T19:32:41Z</time>
      </trkpt>
      <trkpt lat="60.116295885142" lon="21.52587422582">
        <ele>17.2</ele>
        <time>2017-07-26T19:32:42Z</time>
      </trkpt>
      <trkpt lat="60.116265710302" lon="21.525880763702">
        <ele>16.8</ele>
        <time>2017-07-26T19:32:43Z</time>
      </trkpt>
      <trkpt lat="60.116237547118" lon="21.525879925512">
        <ele>16.4</ele>
        <time>2017-07-26T19:32:44Z</time>
      </trkpt>
      <trkpt lat="60.116209970667" lon="21.525874812553">
        <ele>16</ele>
        <time>2017-07-26T19:32:45Z</time>
      </trkpt>
      <trkpt lat="60.116183400044" lon="21.525882356263">
        <ele>15.8</ele>
        <time>2017-07-26T19:32:46Z</time>
      </trkpt>
      <trkpt lat="60.11616697152" lon="21.525892330724">
        <ele>15.8</ele>
        <time>2017-07-26T19:32:47Z</time>
      </trkpt>
      <trkpt lat="60.116155572136" lon="21.525901466995">
        <ele>15.8</ele>
        <time>2017-07-26T19:32:48Z</time>
      </trkpt>
      <trkpt lat="60.116156494145" lon="21.525907501963">
        <ele>15.8</ele>
        <time>2017-07-26T19:32:49Z</time>
      </trkpt>
      <trkpt lat="60.116158086706" lon="21.525898114235">
        <ele>15.8</ele>
        <time>2017-07-26T19:32:50Z</time>
      </trkpt>
    </trkseg>
  </trk>
</gpx>